Wetterdaten: Freitag, 16.02.2018
Datum Zeit Temp. A. Pool Temp. Feuchte A. Luftdruck Regen Wind Richtung Richtung Sonnenschein ET UV Solar Taupunkt Windchill Windben Empfang
16.02.2018 00:00 -0,1 C 4,4 C 97 % 1021,4 hPa 0,0 l/m 4,9 km/h (1 Bft) NO 39 0 min 0,000 mm 0,0 UV-I 0 W/m -0,5 C -0,1 C 6,4 km/h (2 Bft) 100,00 %
16.02.2018 00:02 -0,2 C 4,4 C 97 % 1021,4 hPa 0,0 l/m 4,0 km/h (1 Bft) NO 46 0 min 0,000 mm 0,0 UV-I 0 W/m -0,6 C -0,2 C 6,4 km/h (2 Bft) 97,50 %
16.02.2018 00:03 -0,2 C 4,4 C 97 % 1021,4 hPa 0,0 l/m 4,3 km/h (1 Bft) NO 46 0 min 0,000 mm 0,0 UV-I 0 W/m -0,6 C -0,2 C 4,8 km/h (1 Bft) 92,31 %
16.02.2018 00:04 -0,2 C 4,4 C 97 % 1021,4 hPa 0,0 l/m 4,3 km/h (1 Bft) NO 43 0 min 0,000 mm 0,0 UV-I 0 W/m -0,6 C -0,2 C 6,4 km/h (2 Bft) 96,15 %
16.02.2018 00:05 -0,2 C 4,4 C 97 % 1021,4 hPa 0,0 l/m 3,8 km/h (1 Bft) NO 43 0 min 0,000 mm 0,0 UV-I 0 W/m -0,6 C -0,2 C 4,8 km/h (1 Bft) 86,67 %
16.02.2018 00:06 -0,2 C 4,4 C 97 % 1021,4 hPa 0,0 l/m 3,9 km/h (1 Bft) NO 43 0 min 0,000 mm 0,0 UV-I 0 W/m -0,6 C -0,2 C 4,8 km/h (1 Bft) 100,00 %
16.02.2018 00:07 -0,2 C 4,4 C 97 % 1021,3 hPa 0,0 l/m 4,3 km/h (1 Bft) NO 43 0 min 0,000 mm 0,0 UV-I 0 W/m -0,6 C -0,2 C 4,8 km/h (1 Bft) 92,31 %
16.02.2018 00:08 -0,2 C 4,4 C 97 % 1021,3 hPa 0,0 l/m 4,0 km/h (1 Bft) NO 43 0 min 0,000 mm 0,0 UV-I 0 W/m -0,6 C -0,2 C 4,8 km/h (1 Bft) 91,67 %
16.02.2018 00:09 -0,2 C 4,4 C 97 % 1021,3 hPa 0,0 l/m 4,1 km/h (1 Bft) NO 55 0 min 0,000 mm 0,0 UV-I 0 W/m -0,6 C -0,2 C 4,8 km/h (1 Bft) 100,00 %
16.02.2018 00:10 -0,2 C 4,4 C 97 % 1021,2 hPa 0,0 l/m 4,7 km/h (1 Bft) NO 54 0 min 0,000 mm 0,0 UV-I 0 W/m -0,6 C -0,2 C 6,4 km/h (2 Bft) 91,67 %
16.02.2018 00:11 -0,2 C 4,4 C 97 % 1021,2 hPa 0,0 l/m 4,4 km/h (1 Bft) NO 52 0 min 0,000 mm 0,0 UV-I 0 W/m -0,6 C -0,2 C 4,8 km/h (1 Bft) 96,15 %
16.02.2018 00:12 -0,2 C 4,4 C 97 % 1021,2 hPa 0,0 l/m 4,8 km/h (1 Bft) NO 48 0 min 0,000 mm 0,0 UV-I 0 W/m -0,6 C -0,2 C 4,8 km/h (1 Bft) 92,86 %
16.02.2018 00:13 -0,1 C 4,4 C 97 % 1021,2 hPa 0,0 l/m 2,6 km/h (1 Bft) NO 48 0 min 0,000 mm 0,0 UV-I 0 W/m -0,5 C -0,1 C 4,8 km/h (1 Bft) 100,00 %
16.02.2018 00:14 -0,1 C 4,4 C 97 % 1021,2 hPa 0,0 l/m 2,3 km/h (1 Bft) NO 48 0 min 0,000 mm 0,0 UV-I 0 W/m -0,5 C -0,1 C 3,2 km/h (1 Bft) 91,67 %
16.02.2018 00:15 -0,1 C 4,4 C 97 % 1021,3 hPa 0,0 l/m 3,1 km/h (1 Bft) NO 48 0 min 0,000 mm 0,0 UV-I 0 W/m -0,5 C -0,1 C 4,8 km/h (1 Bft) 100,00 %
16.02.2018 00:16 -0,1 C 4,4 C 97 % 1021,3 hPa 0,0 l/m 3,5 km/h (1 Bft) NO 48 0 min 0,000 mm 0,0 UV-I 0 W/m -0,5 C -0,1 C 4,8 km/h (1 Bft) 93,10 %
16.02.2018 00:17 -0,1 C 4,4 C 97 % 1021,3 hPa 0,0 l/m 2,8 km/h (1 Bft) NO 48 0 min 0,000 mm 0,0 UV-I 0 W/m -0,5 C -0,1 C 4,8 km/h (1 Bft) 96,55 %
16.02.2018 00:18 -0,1 C 4,4 C 97 % 1021,3 hPa 0,0 l/m 2,2 km/h (1 Bft) NO 48 0 min 0,000 mm 0,0 UV-I 0 W/m -0,5 C -0,1 C 3,2 km/h (1 Bft) 96,30 %
16.02.2018 00:19 -0,1 C 4,4 C 97 % 1021,2 hPa 0,0 l/m 2,8 km/h (1 Bft) NO 48 0 min 0,000 mm 0,0 UV-I 0 W/m -0,5 C -0,1 C 3,2 km/h (1 Bft) 91,30 %
16.02.2018 00:20 -0,1 C 4,4 C 97 % 1021,2 hPa 0,0 l/m 2,6 km/h (1 Bft) NO 48 0 min 0,000 mm 0,0 UV-I 0 W/m -0,5 C -0,1 C 3,2 km/h (1 Bft) 100,00 %
16.02.2018 00:21 -0,2 C 4,4 C 97 % 1021,2 hPa 0,0 l/m 1,6 km/h (1 Bft) NO 48 0 min 0,000 mm 0,0 UV-I 0 W/m -0,6 C -0,2 C 3,2 km/h (1 Bft) 92,59 %
16.02.2018 00:22 -0,2 C 4,4 C 97 % 1021,2 hPa 0,0 l/m 2,4 km/h (1 Bft) NO 48 0 min 0,000 mm 0,0 UV-I 0 W/m -0,6 C -0,2 C 3,2 km/h (1 Bft) 100,00 %
16.02.2018 00:23 -0,2 C 4,4 C 97 % 1021,2 hPa 0,0 l/m 1,9 km/h (1 Bft) NO 48 0 min 0,000 mm 0,0 UV-I 0 W/m -0,6 C -0,2 C 3,2 km/h (1 Bft) 86,67 %
16.02.2018 00:24 -0,1 C 4,4 C 97 % 1021,1 hPa 0,0 l/m 1,9 km/h (1 Bft) NO 48 0 min 0,000 mm 0,0 UV-I 0 W/m -0,5 C -0,1 C 3,2 km/h (1 Bft) 100,00 %
16.02.2018 00:25 -0,1 C 4,4 C 97 % 1021,2 hPa 0,0 l/m 0,3 km/h (0 Bft) NO 48 0 min 0,000 mm 0,0 UV-I 0 W/m -0,5 C -0,1 C 1,6 km/h (1 Bft) 92,59 %
16.02.2018 00:26 -0,1 C 4,4 C 97 % 1021,2 hPa 0,0 l/m 2,4 km/h (1 Bft) NO 48 0 min 0,000 mm 0,0 UV-I 0 W/m -0,5 C -0,1 C 3,2 km/h (1 Bft) 91,30 %
16.02.2018 00:27 -0,1 C 4,4 C 97 % 1021,2 hPa 0,0 l/m 2,6 km/h (1 Bft) NO 48 0 min 0,000 mm 0,0 UV-I 0 W/m -0,5 C -0,1 C 3,2 km/h (1 Bft) 92,59 %
16.02.2018 00:28 -0,1 C 4,4 C 97 % 1021,2 hPa 0,0 l/m 2,4 km/h (1 Bft) NO 48 0 min 0,000 mm 0,0 UV-I 0 W/m -0,5 C -0,1 C 3,2 km/h (1 Bft) 91,30 %
16.02.2018 00:29 -0,1 C 4,4 C 97 % 1021,2 hPa 0,0 l/m 2,0 km/h (1 Bft) NO 48 0 min 0,000 mm 0,0 UV-I 0 W/m -0,5 C -0,1 C 3,2 km/h (1 Bft) 95,83 %
16.02.2018 00:30 -0,1 C 4,4 C 97 % 1021,1 hPa 0,0 l/m 2,3 km/h (1 Bft) NO 48 0 min 0,000 mm 0,0 UV-I 0 W/m -0,5 C -0,1 C 3,2 km/h (1 Bft) 100,00 %
16.02.2018 00:31 -0,1 C 4,4 C 97 % 1021,1 hPa 0,0 l/m 2,1 km/h (1 Bft) NO 48 0 min 0,000 mm 0,0 UV-I 0 W/m -0,5 C -0,1 C 3,2 km/h (1 Bft) 96,30 %
16.02.2018 00:32 -0,1 C 4,4 C 97 % 1021,1 hPa 0,0 l/m 2,2 km/h (1 Bft) NO 48 0 min 0,000 mm 0,0 UV-I 0 W/m -0,5 C -0,1 C 3,2 km/h (1 Bft) 92,31 %
16.02.2018 00:33 -0,1 C 4,4 C 97 % 1021,1 hPa 0,0 l/m 1,5 km/h (1 Bft) NO 48 0 min 0,000 mm 0,0 UV-I 0 W/m -0,5 C -0,1 C 3,2 km/h (1 Bft) 100,00 %
16.02.2018 00:34 -0,1 C 4,4 C 97 % 1021,1 hPa 0,0 l/m 1,1 km/h (1 Bft) NO 48 0 min 0,000 mm 0,0 UV-I 0 W/m -0,5 C -0,1 C 1,6 km/h (1 Bft) 95,65 %
16.02.2018 00:35 -0,1 C 4,4 C 97 % 1021,0 hPa 0,0 l/m 1,4 km/h (1 Bft) NO 48 0 min 0,000 mm 0,0 UV-I 0 W/m -0,5 C -0,1 C 3,2 km/h (1 Bft) 100,00 %
16.02.2018 00:36 -0,1 C 4,4 C 97 % 1021,0 hPa 0,0 l/m 2,5 km/h (1 Bft) NO 49 0 min 0,000 mm 0,0 UV-I 0 W/m -0,5 C -0,1 C 3,2 km/h (1 Bft) 96,15 %
16.02.2018 00:37 -0,1 C 4,4 C 97 % 1021,0 hPa 0,0 l/m 2,6 km/h (1 Bft) O-NO 60 0 min 0,000 mm 0,0 UV-I 0 W/m -0,5 C -0,1 C 3,2 km/h (1 Bft) 100,00 %
16.02.2018 00:38 -0,1 C 4,4 C 97 % 1021,0 hPa 0,0 l/m 3,1 km/h (1 Bft) O-NO 63 0 min 0,000 mm 0,0 UV-I 0 W/m -0,5 C -0,1 C 4,8 km/h (1 Bft) 96,15 %
16.02.2018 00:39 -0,1 C 4,4 C 97 % 1021,0 hPa 0,0 l/m 2,7 km/h (1 Bft) O-NO 63 0 min 0,000 mm 0,0 UV-I 0 W/m -0,5 C -0,1 C 3,2 km/h (1 Bft) 91,67 %
16.02.2018 00:40 -0,1 C 4,4 C 97 % 1021,0 hPa 0,0 l/m 2,6 km/h (1 Bft) O-NO 63 0 min 0,000 mm 0,0 UV-I 0 W/m -0,5 C -0,1 C 3,2 km/h (1 Bft) 100,00 %
16.02.2018 00:41 -0,1 C 4,4 C 97 % 1021,0 hPa 0,0 l/m 2,9 km/h (1 Bft) O-NO 65 0 min 0,000 mm 0,0 UV-I 0 W/m -0,5 C -0,1 C 3,2 km/h (1 Bft) 95,40 %
16.02.2018 00:42 -0,1 C 4,4 C 97 % 1020,9 hPa 0,0 l/m 1,9 km/h (1 Bft) O-NO 65 0 min 0,000 mm 0,0 UV-I 0 W/m -0,5 C -0,1 C 3,2 km/h (1 Bft) 97,62 %
16.02.2018 00:43 -0,1 C 4,4 C 97 % 1020,9 hPa 0,0 l/m 1,8 km/h (1 Bft) O-NO 65 0 min 0,000 mm 0,0 UV-I 0 W/m -0,5 C -0,1 C 3,2 km/h (1 Bft) 95,65 %
16.02.2018 00:44 -0,1 C 4,4 C 97 % 1020,9 hPa 0,0 l/m 2,0 km/h (1 Bft) O-NO 65 0 min 0,000 mm 0,0 UV-I 0 W/m -0,5 C -0,1 C 3,2 km/h (1 Bft) 100,00 %
16.02.2018 00:45 -0,1 C 4,4 C 97 % 1021,0 hPa 0,0 l/m 2,5 km/h (1 Bft) O-NO 66 0 min 0,000 mm 0,0 UV-I 0 W/m -0,5 C -0,1 C 3,2 km/h (1 Bft) 100,00 %
16.02.2018 00:46 -0,1 C 4,4 C 97 % 1021,0 hPa 0,0 l/m 2,7 km/h (1 Bft) O-NO 73 0 min 0,000 mm 0,0 UV-I 0 W/m -0,5 C -0,1 C 3,2 km/h (1 Bft) 97,44 %
16.02.2018 00:47 -0,1 C 4,4 C 97 % 1021,0 hPa 0,0 l/m 3,2 km/h (1 Bft) O 80 0 min 0,000 mm 0,0 UV-I 0 W/m -0,5 C -0,1 C 4,8 km/h (1 Bft) 95,65 %
16.02.2018 00:48 -0,1 C 4,4 C 97 % 1021,0 hPa 0,0 l/m 1,1 km/h (1 Bft) O 80 0 min 0,000 mm 0,0 UV-I 0 W/m -0,5 C -0,1 C 3,2 km/h (1 Bft) 100,00 %
16.02.2018 00:49 -0,1 C 4,4 C 97 % 1021,0 hPa 0,0 l/m 2,9 km/h (1 Bft) O 90 0 min 0,000 mm 0,0 UV-I 0 W/m -0,5 C -0,1 C 4,8 km/h (1 Bft) 96,15 %
16.02.2018 00:50 -0,1 C 4,4 C 97 % 1021,0 hPa 0,0 l/m 4,6 km/h (1 Bft) O-SO 109 0 min 0,000 mm 0,0 UV-I 0 W/m -0,5 C -0,1 C 4,8 km/h (1 Bft) 92,59 %
16.02.2018 00:51 -0,1 C 4,4 C 97 % 1021,0 hPa 0,0 l/m 2,6 km/h (1 Bft) O-SO 109 0 min 0,000 mm 0,0 UV-I 0 W/m -0,5 C -0,1 C 4,8 km/h (1 Bft) 100,00 %
16.02.2018 00:52 -0,1 C 4,4 C 97 % 1021,0 hPa 0,0 l/m 3,4 km/h (1 Bft) O-SO 107 0 min 0,000 mm 0,0 UV-I 0 W/m -0,5 C -0,1 C 4,8 km/h (1 Bft) 100,00 %
16.02.2018 00:53 -0,1 C 4,4 C 97 % 1021,0 hPa 0,0 l/m 3,8 km/h (1 Bft) O-SO 107 0 min 0,000 mm 0,0 UV-I 0 W/m -0,5 C -0,1 C 4,8 km/h (1 Bft) 96,15 %
16.02.2018 00:54 -0,1 C 4,4 C 97 % 1021,0 hPa 0,0 l/m 4,2 km/h (1 Bft) O 101 0 min 0,000 mm 0,0 UV-I 0 W/m -0,5 C -0,1 C 6,4 km/h (2 Bft) 96,30 %
16.02.2018 00:55 -0,2 C 4,4 C 97 % 1021,0 hPa 0,0 l/m 3,9 km/h (1 Bft) O 79 0 min 0,000 mm 0,0 UV-I 0 W/m -0,6 C -0,2 C 4,8 km/h (1 Bft) 100,00 %
16.02.2018 00:56 -0,1 C 4,4 C 97 % 1021,0 hPa 0,0 l/m 3,6 km/h (1 Bft) O 79 0 min 0,000 mm 0,0 UV-I 0 W/m -0,5 C -0,1 C 4,8 km/h (1 Bft) 93,75 %
16.02.2018 00:57 -0,1 C 4,4 C 97 % 1020,9 hPa 0,0 l/m 3,5 km/h (1 Bft) O 80 0 min 0,000 mm 0,0 UV-I 0 W/m -0,5 C -0,1 C 4,8 km/h (1 Bft) 100,00 %
16.02.2018 00:58 -0,1 C 4,4 C 97 % 1021,0 hPa 0,0 l/m 4,2 km/h (1 Bft) O 80 0 min 0,000 mm 0,0 UV-I 0 W/m -0,5 C -0,1 C 4,8 km/h (1 Bft) 95,83 %
16.02.2018 00:59 -0,2 C 4,4 C 97 % 1021,0 hPa 0,0 l/m 4,6 km/h (1 Bft) O-NO 76 0 min 0,000 mm 0,0 UV-I 0 W/m -0,6 C -0,2 C 6,4 km/h (2 Bft) 95,65 %
16.02.2018 01:00 -0,1 C 4,4 C 97 % 1021,0 hPa 0,0 l/m 4,3 km/h (1 Bft) O-NO 76 0 min 0,000 mm 0,0 UV-I 0 W/m -0,5 C -0,1 C 4,8 km/h (1 Bft) 91,67 %
16.02.2018 01:01 -0,1 C 4,4 C 97 % 1021,0 hPa 0,0 l/m 3,8 km/h (1 Bft) O-NO 76 0 min 0,000 mm 0,0 UV-I 0 W/m -0,5 C -0,1 C 4,8 km/h (1 Bft) 95,65 %
16.02.2018 01:02 -0,1 C 4,4 C 97 % 1021,0 hPa 0,0 l/m 2,8 km/h (1 Bft) O-NO 76 0 min 0,000 mm 0,0 UV-I 0 W/m -0,5 C -0,1 C 3,2 km/h (1 Bft) 95,83 %
16.02.2018 01:03 -0,1 C 4,4 C 97 % 1021,0 hPa 0,0 l/m 1,8 km/h (1 Bft) O-NO 76 0 min 0,000 mm 0,0 UV-I 0 W/m -0,5 C -0,1 C 3,2 km/h (1 Bft) 100,00 %
16.02.2018 01:04 -0,1 C 4,4 C 97 % 1021,0 hPa 0,0 l/m 2,3 km/h (1 Bft) O-NO 76 0 min 0,000 mm 0,0 UV-I 0 W/m -0,5 C -0,1 C 3,2 km/h (1 Bft) 96,15 %
16.02.2018 01:05 -0,1 C 4,4 C 97 % 1021,0 hPa 0,0 l/m 2,7 km/h (1 Bft) O-NO 75 0 min 0,000 mm 0,0 UV-I 0 W/m -0,5 C -0,1 C 3,2 km/h (1 Bft) 100,00 %
16.02.2018 01:06 -0,1 C 4,4 C 97 % 1021,0 hPa 0,0 l/m 2,9 km/h (1 Bft) O-NO 75 0 min 0,000 mm 0,0 UV-I 0 W/m -0,5 C -0,1 C 4,8 km/h (1 Bft) 100,00 %
16.02.2018 01:07 -0,1 C 4,4 C 97 % 1020,9 hPa 0,0 l/m 3,8 km/h (1 Bft) O-NO 75 0 min 0,000 mm 0,0 UV-I 0 W/m -0,5 C -0,1 C 4,8 km/h (1 Bft) 100,00 %
16.02.2018 01:08 -0,1 C 4,4 C 97 % 1020,9 hPa 0,0 l/m 3,0 km/h (1 Bft) O-NO 75 0 min 0,000 mm 0,0 UV-I 0 W/m -0,5 C -0,1 C 4,8 km/h (1 Bft) 100,00 %
16.02.2018 01:09 -0,1 C 4,4 C 97 % 1020,9 hPa 0,0 l/m 3,1 km/h (1 Bft) O-NO 75 0 min 0,000 mm 0,0 UV-I 0 W/m -0,5 C -0,1 C 4,8 km/h (1 Bft) 100,00 %
16.02.2018 01:10 -0,1 C 4,4 C 97 % 1020,9 hPa 0,0 l/m 3,1 km/h (1 Bft) O-NO 75 0 min 0,000 mm 0,0 UV-I 0 W/m -0,5 C -0,1 C 3,2 km/h (1 Bft) 96,15 %
16.02.2018 01:11 -0,1 C 4,4 C 97 % 1020,9 hPa 0,0 l/m 2,7 km/h (1 Bft) O-NO 75 0 min 0,000 mm 0,0 UV-I 0 W/m -0,5 C -0,1 C 3,2 km/h (1 Bft) 100,00 %
16.02.2018 01:12 -0,1 C 4,4 C 97 % 1020,9 hPa 0,0 l/m 2,5 km/h (1 Bft) O-NO 75 0 min 0,000 mm 0,0 UV-I 0 W/m -0,5 C -0,1 C 3,2 km/h (1 Bft) 100,00 %
16.02.2018 01:13 -0,1 C 4,4 C 97 % 1020,9 hPa 0,0 l/m 2,7 km/h (1 Bft) O-NO 75 0 min 0,000 mm 0,0 UV-I 0 W/m -0,5 C -0,1 C 3,2 km/h (1 Bft) 100,00 %
16.02.2018 01:14 -0,1 C 4,4 C 97 % 1020,9 hPa 0,0 l/m 2,7 km/h (1 Bft) O-NO 75 0 min 0,000 mm 0,0 UV-I 0 W/m -0,5 C -0,1 C 3,2 km/h (1 Bft) 95,65 %
16.02.2018 01:15 -0,1 C 4,4 C 97 % 1020,9 hPa 0,0 l/m 1,9 km/h (1 Bft) O-NO 75 0 min 0,000 mm 0,0 UV-I 0 W/m -0,5 C -0,1 C 3,2 km/h (1 Bft) 100,00 %
16.02.2018 01:16 -0,1 C 4,4 C 97 % 1020,8 hPa 0,0 l/m 2,3 km/h (1 Bft) O-NO 75 0 min 0,000 mm 0,0 UV-I 0 W/m -0,5 C -0,1 C 3,2 km/h (1 Bft) 100,00 %
16.02.2018 01:17 -0,1 C 4,4 C 97 % 1020,8 hPa 0,0 l/m 2,2 km/h (1 Bft) O-NO 75 0 min 0,000 mm 0,0 UV-I 0 W/m -0,5 C -0,1 C 3,2 km/h (1 Bft) 100,00 %
16.02.2018 01:18 -0,1 C 4,4 C 97 % 1020,8 hPa 0,0 l/m 3,1 km/h (1 Bft) O-NO 75 0 min 0,000 mm 0,0 UV-I 0 W/m -0,5 C -0,1 C 3,2 km/h (1 Bft) 100,00 %
16.02.2018 01:19 -0,1 C 4,4 C 97 % 1020,7 hPa 0,0 l/m 2,3 km/h (1 Bft) O-NO 75 0 min 0,000 mm 0,0 UV-I 0 W/m -0,5 C -0,1 C 3,2 km/h (1 Bft) 100,00 %
16.02.2018 01:20 -0,1 C 4,4 C 97 % 1020,7 hPa 0,0 l/m 4,0 km/h (1 Bft) O-NO 75 0 min 0,000 mm 0,0 UV-I 0 W/m -0,5 C -0,1 C 6,4 km/h (2 Bft) 100,00 %
16.02.2018 01:21 -0,1 C 4,4 C 97 % 1020,7 hPa 0,0 l/m 4,7 km/h (1 Bft) O-NO 75 0 min 0,000 mm 0,0 UV-I 0 W/m -0,5 C -0,1 C 4,8 km/h (1 Bft) 100,00 %
16.02.2018 01:22 -0,1 C 4,4 C 97 % 1020,6 hPa 0,0 l/m 4,6 km/h (1 Bft) O-NO 75 0 min 0,000 mm 0,0 UV-I 0 W/m -0,5 C -0,1 C 6,4 km/h (2 Bft) 100,00 %
16.02.2018 01:23 -0,1 C 4,4 C 97 % 1020,6 hPa 0,0 l/m 4,2 km/h (1 Bft) O-NO 75 0 min 0,000 mm 0,0 UV-I 0 W/m -0,5 C -0,1 C 6,4 km/h (2 Bft) 96,15 %
16.02.2018 01:24 -0,1 C 4,4 C 97 % 1020,7 hPa 0,0 l/m 3,3 km/h (1 Bft) O-NO 75 0 min 0,000 mm 0,0 UV-I 0 W/m -0,5 C -0,1 C 4,8 km/h (1 Bft) 100,00 %
16.02.2018 01:25 -0,1 C 4,4 C 97 % 1020,7 hPa 0,0 l/m 2,9 km/h (1 Bft) O-NO 75 0 min 0,000 mm 0,0 UV-I 0 W/m -0,5 C -0,1 C 4,8 km/h (1 Bft) 100,00 %
16.02.2018 01:26 -0,1 C 4,4 C 97 % 1020,7 hPa 0,0 l/m 3,5 km/h (1 Bft) O-NO 75 0 min 0,000 mm 0,0 UV-I 0 W/m -0,5 C -0,1 C 4,8 km/h (1 Bft) 100,00 %
16.02.2018 01:27 -0,1 C 4,4 C 97 % 1020,6 hPa 0,0 l/m 3,1 km/h (1 Bft) O-NO 75 0 min 0,000 mm 0,0 UV-I 0 W/m -0,5 C -0,1 C 4,8 km/h (1 Bft) 100,00 %
16.02.2018 01:28 -0,1 C 4,4 C 97 % 1020,6 hPa 0,0 l/m 4,3 km/h (1 Bft) O-NO 75 0 min 0,000 mm 0,0 UV-I 0 W/m -0,5 C -0,1 C 4,8 km/h (1 Bft) 100,00 %
16.02.2018 01:29 -0,1 C 4,4 C 97 % 1020,6 hPa 0,0 l/m 4,1 km/h (1 Bft) O-NO 75 0 min 0,000 mm 0,0 UV-I 0 W/m -0,5 C -0,1 C 4,8 km/h (1 Bft) 100,00 %
16.02.2018 01:30 -0,2 C 4,4 C 97 % 1020,6 hPa 0,0 l/m 3,7 km/h (1 Bft) O-NO 75 0 min 0,000 mm 0,0 UV-I 0 W/m -0,6 C -0,2 C 4,8 km/h (1 Bft) 100,00 %
16.02.2018 01:31 -0,1 C 4,4 C 97 % 1020,6 hPa 0,0 l/m 4,0 km/h (1 Bft) O-NO 75 0 min 0,000 mm 0,0 UV-I 0 W/m -0,5 C -0,1 C 4,8 km/h (1 Bft) 100,00 %
16.02.2018 01:32 -0,1 C 4,4 C 97 % 1020,6 hPa 0,0 l/m 3,2 km/h (1 Bft) O-NO 73 0 min 0,000 mm 0,0 UV-I 0 W/m -0,5 C -0,1 C 4,8 km/h (1 Bft) 100,00 %
16.02.2018 01:33 -0,1 C 4,4 C 97 % 1020,7 hPa 0,0 l/m 3,4 km/h (1 Bft) O-NO 73 0 min 0,000 mm 0,0 UV-I 0 W/m -0,5 C -0,1 C 4,8 km/h (1 Bft) 100,00 %
16.02.2018 01:34 -0,1 C 4,4 C 97 % 1020,7 hPa 0,0 l/m 4,1 km/h (1 Bft) O-NO 73 0 min 0,000 mm 0,0 UV-I 0 W/m -0,5 C -0,1 C 4,8 km/h (1 Bft) 91,67 %
16.02.2018 01:35 -0,1 C 4,4 C 97 % 1020,7 hPa 0,0 l/m 3,7 km/h (1 Bft) O-NO 73 0 min 0,000 mm 0,0 UV-I 0 W/m -0,5 C -0,1 C 4,8 km/h (1 Bft) 95,65 %
16.02.2018 01:36 -0,1 C 4,4 C 97 % 1020,7 hPa 0,0 l/m 3,2 km/h (1 Bft) O-NO 73 0 min 0,000 mm 0,0 UV-I 0 W/m -0,5 C -0,1 C 4,8 km/h (1 Bft) 100,00 %
16.02.2018 01:37 -0,1 C 4,4 C 97 % 1020,6 hPa 0,0 l/m 3,6 km/h (1 Bft) O-NO 73 0 min 0,000 mm 0,0 UV-I 0 W/m -0,5 C -0,1 C 4,8 km/h (1 Bft) 100,00 %
16.02.2018 01:38 -0,1 C 4,4 C 97 % 1020,6 hPa 0,0 l/m 3,2 km/h (1 Bft) O-NO 73 0 min 0,000 mm 0,0 UV-I 0 W/m -0,5 C -0,1 C 4,8 km/h (1 Bft) 100,00 %
16.02.2018 01:39 -0,1 C 4,4 C 97 % 1020,6 hPa 0,0 l/m 3,6 km/h (1 Bft) O-NO 73 0 min 0,000 mm 0,0 UV-I 0 W/m -0,5 C -0,1 C 4,8 km/h (1 Bft) 100,00 %
16.02.2018 01:40 -0,1 C 4,4 C 97 % 1020,7 hPa 0,0 l/m 4,5 km/h (1 Bft) O-NO 73 0 min 0,000 mm 0,0 UV-I 0 W/m -0,5 C -0,1 C 6,4 km/h (2 Bft) 100,00 %
16.02.2018 01:41 -0,1 C 4,4 C 97 % 1020,6 hPa 0,0 l/m 3,2 km/h (1 Bft) O-NO 69 0 min 0,000 mm 0,0 UV-I 0 W/m -0,5 C -0,1 C 4,8 km/h (1 Bft) 100,00 %
16.02.2018 01:42 -0,1 C 4,4 C 97 % 1020,6 hPa 0,0 l/m 2,2 km/h (1 Bft) O-NO 69 0 min 0,000 mm 0,0 UV-I 0 W/m -0,5 C -0,1 C 3,2 km/h (1 Bft) 100,00 %
16.02.2018 01:43 -0,1 C 4,4 C 97 % 1020,6 hPa 0,0 l/m 3,7 km/h (1 Bft) O-NO 69 0 min 0,000 mm 0,0 UV-I 0 W/m -0,5 C -0,1 C 6,4 km/h (2 Bft) 100,00 %
16.02.2018 01:44 -0,1 C 4,4 C 97 % 1020,6 hPa 0,0 l/m 3,2 km/h (1 Bft) O-NO 69 0 min 0,000 mm 0,0 UV-I 0 W/m -0,5 C -0,1 C 4,8 km/h (1 Bft) 100,00 %
16.02.2018 01:45 -0,1 C 4,4 C 97 % 1020,7 hPa 0,0 l/m 2,4 km/h (1 Bft) O-NO 69 0 min 0,000 mm 0,0 UV-I 0 W/m -0,5 C -0,1 C 3,2 km/h (1 Bft) 96,67 %
16.02.2018 01:46 -0,1 C 4,4 C 97 % 1020,7 hPa 0,0 l/m 2,2 km/h (1 Bft) O-NO 69 0 min 0,000 mm 0,0 UV-I 0 W/m -0,5 C -0,1 C 3,2 km/h (1 Bft) 100,00 %
16.02.2018 01:47 -0,1 C 4,4 C 97 % 1020,7 hPa 0,0 l/m 2,1 km/h (1 Bft) O-NO 69 0 min 0,000 mm 0,0 UV-I 0 W/m -0,5 C -0,1 C 3,2 km/h (1 Bft) 100,00 %
16.02.2018 01:48 -0,1 C 4,4 C 97 % 1020,7 hPa 0,0 l/m 2,5 km/h (1 Bft) O-NO 69 0 min 0,000 mm 0,0 UV-I 0 W/m -0,5 C -0,1 C 3,2 km/h (1 Bft) 100,00 %
16.02.2018 01:49 -0,1 C 4,4 C 97 % 1020,7 hPa 0,0 l/m 2,5 km/h (1 Bft) O-NO 69 0 min 0,000 mm 0,0 UV-I 0 W/m -0,5 C -0,1 C 3,2 km/h (1 Bft) 100,00 %
16.02.2018 01:50 -0,1 C 4,4 C 97 % 1020,8 hPa 0,0 l/m 3,3 km/h (1 Bft) O-NO 69 0 min 0,000 mm 0,0 UV-I 0 W/m -0,5 C -0,1 C 4,8 km/h (1 Bft) 95,65 %
16.02.2018 01:51 -0,1 C 4,4 C 97 % 1020,8 hPa 0,0 l/m 3,6 km/h (1 Bft) O-NO 65 0 min 0,000 mm 0,0 UV-I 0 W/m -0,5 C -0,1 C 4,8 km/h (1 Bft) 100,00 %
16.02.2018 01:52 -0,1 C 4,4 C 97 % 1020,8 hPa 0,0 l/m 5,5 km/h (1 Bft) O-NO 65 0 min 0,000 mm 0,0 UV-I 0 W/m -0,5 C -0,1 C 6,4 km/h (2 Bft) 100,00 %
16.02.2018 01:53 -0,1 C 4,4 C 97 % 1020,7 hPa 0,0 l/m 4,7 km/h (1 Bft) O-NO 58 0 min 0,000 mm 0,0 UV-I 0 W/m -0,5 C -0,1 C 6,4 km/h (2 Bft) 100,00 %
16.02.2018 01:54 -0,1 C 4,4 C 97 % 1020,7 hPa 0,0 l/m 4,8 km/h (1 Bft) O-NO 65 0 min 0,000 mm 0,0 UV-I 0 W/m -0,5 C -0,1 C 6,4 km/h (2 Bft) 100,00 %
16.02.2018 01:55 -0,1 C 4,4 C 97 % 1020,7 hPa 0,0 l/m 5,7 km/h (1 Bft) O-NO 61 0 min 0,000 mm 0,0 UV-I 0 W/m -0,5 C -0,1 C 8,0 km/h (2 Bft) 95,83 %
16.02.2018 01:56 -0,1 C 4,4 C 97 % 1020,7 hPa 0,0 l/m 5,0 km/h (1 Bft) O-NO 61 0 min 0,000 mm 0,0 UV-I 0 W/m -0,5 C -0,1 C 6,4 km/h (2 Bft) 100,00 %
16.02.2018 01:57 -0,1 C 4,4 C 97 % 1020,7 hPa 0,0 l/m 3,6 km/h (1 Bft) O-NO 61 0 min 0,000 mm 0,0 UV-I 0 W/m -0,5 C -0,1 C 6,4 km/h (2 Bft) 100,00 %
16.02.2018 01:58 -0,1 C 4,4 C 97 % 1020,6 hPa 0,0 l/m 5,1 km/h (1 Bft) O-NO 61 0 min 0,000 mm 0,0 UV-I 0 W/m -0,5 C -0,1 C 8,0 km/h (2 Bft) 100,00 %
16.02.2018 01:59 -0,1 C 4,4 C 97 % 1020,7 hPa 0,0 l/m 6,1 km/h (2 Bft) O-NO 63 0 min 0,000 mm 0,0 UV-I 0 W/m -0,5 C -0,1 C 8,0 km/h (2 Bft) 100,00 %
16.02.2018 02:00 -0,1 C 4,4 C 97 % 1020,7 hPa 0,0 l/m 5,6 km/h (1 Bft) O-NO 57 0 min 0,000 mm 0,0 UV-I 0 W/m -0,5 C -0,1 C 6,4 km/h (2 Bft) 96,30 %
16.02.2018 02:01 -0,1 C 4,4 C 97 % 1020,6 hPa 0,0 l/m 5,1 km/h (1 Bft) O-NO 57 0 min 0,000 mm 0,0 UV-I 0 W/m -0,5 C -0,1 C 6,4 km/h (2 Bft) 91,30 %
16.02.2018 02:02 -0,1 C 4,4 C 97 % 1020,7 hPa 0,0 l/m 5,7 km/h (1 Bft) NO 55 0 min 0,000 mm 0,0 UV-I 0 W/m -0,5 C -0,1 C 6,4 km/h (2 Bft) 96,30 %
16.02.2018 02:03 -0,1 C 4,4 C 97 % 1020,7 hPa 0,0 l/m 4,8 km/h (1 Bft) NO 56 0 min 0,000 mm 0,0 UV-I 0 W/m -0,5 C -0,1 C 6,4 km/h (2 Bft) 96,15 %
16.02.2018 02:04 -0,1 C 4,4 C 97 % 1020,7 hPa 0,0 l/m 4,0 km/h (1 Bft) NO 56 0 min 0,000 mm 0,0 UV-I 0 W/m -0,5 C -0,1 C 4,8 km/h (1 Bft) 100,00 %
16.02.2018 02:05 -0,1 C 4,4 C 97 % 1020,7 hPa 0,0 l/m 3,3 km/h (1 Bft) NO 55 0 min 0,000 mm 0,0 UV-I 0 W/m -0,5 C -0,1 C 4,8 km/h (1 Bft) 95,65 %
16.02.2018 02:06 -0,1 C 4,4 C 97 % 1020,7 hPa 0,0 l/m 1,0 km/h (0 Bft) NO 55 0 min 0,000 mm 0,0 UV-I 0 W/m -0,5 C -0,1 C 3,2 km/h (1 Bft) 95,83 %
16.02.2018 02:07 -0,1 C 4,4 C 97 % 1020,8 hPa 0,0 l/m 2,9 km/h (1 Bft) NO 55 0 min 0,000 mm 0,0 UV-I 0 W/m -0,5 C -0,1 C 4,8 km/h (1 Bft) 96,15 %
16.02.2018 02:08 -0,1 C 4,4 C 97 % 1020,8 hPa 0,0 l/m 2,9 km/h (1 Bft) NO 55 0 min 0,000 mm 0,0 UV-I 0 W/m -0,5 C -0,1 C 4,8 km/h (1 Bft) 95,83 %
16.02.2018 02:09 -0,1 C 4,4 C 97 % 1020,8 hPa 0,0 l/m 2,3 km/h (1 Bft) NO 56 0 min 0,000 mm 0,0 UV-I 0 W/m -0,5 C -0,1 C 3,2 km/h (1 Bft) 100,00 %
16.02.2018 02:10 -0,1 C 4,4 C 97 % 1020,8 hPa 0,0 l/m 2,1 km/h (1 Bft) NO 55 0 min 0,000 mm 0,0 UV-I 0 W/m -0,5 C -0,1 C 3,2 km/h (1 Bft) 95,83 %
16.02.2018 02:11 -0,1 C 4,4 C 97 % 1020,8 hPa 0,0 l/m 2,9 km/h (1 Bft) NO 56 0 min 0,000 mm 0,0 UV-I 0 W/m -0,5 C -0,1 C 3,2 km/h (1 Bft) 100,00 %
16.02.2018 02:12 -0,1 C 4,4 C 97 % 1020,8 hPa 0,0 l/m 4,2 km/h (1 Bft) NO 55 0 min 0,000 mm 0,0 UV-I 0 W/m -0,5 C -0,1 C 4,8 km/h (1 Bft) 96,88 %
16.02.2018 02:13 -0,1 C 4,4 C 97 % 1020,7 hPa 0,0 l/m 5,4 km/h (1 Bft) NO 55 0 min 0,000 mm 0,0 UV-I 0 W/m -0,5 C -0,1 C 6,4 km/h (2 Bft) 95,65 %
16.02.2018 02:14 -0,1 C 4,4 C 97 % 1020,7 hPa 0,0 l/m 6,0 km/h (2 Bft) NO 56 0 min 0,000 mm 0,0 UV-I 0 W/m -0,5 C -0,1 C 8,0 km/h (2 Bft) 96,30 %
16.02.2018 02:15 -0,1 C 4,4 C 97 % 1020,7 hPa 0,0 l/m 5,9 km/h (2 Bft) NO 56 0 min 0,000 mm 0,0 UV-I 0 W/m -0,5 C -0,1 C 8,0 km/h (2 Bft) 100,00 %
16.02.2018 02:16 -0,1 C 4,4 C 97 % 1020,6 hPa 0,0 l/m 5,5 km/h (1 Bft) NO 53 0 min 0,000 mm 0,0 UV-I 0 W/m -0,5 C -0,1 C 6,4 km/h (2 Bft) 95,83 %
16.02.2018 02:17 -0,1 C 4,4 C 97 % 1020,6 hPa 0,0 l/m 5,5 km/h (1 Bft) O-NO 70 0 min 0,000 mm 0,0 UV-I 0 W/m -0,5 C -0,1 C 6,4 km/h (2 Bft) 96,15 %
16.02.2018 02:18 -0,1 C 4,4 C 97 % 1020,6 hPa 0,0 l/m 5,3 km/h (1 Bft) O-NO 64 0 min 0,000 mm 0,0 UV-I 0 W/m -0,5 C -0,1 C 6,4 km/h (2 Bft) 100,00 %
16.02.2018 02:19 -0,1 C 4,4 C 97 % 1020,6 hPa 0,0 l/m 5,4 km/h (1 Bft) NO 51 0 min 0,000 mm 0,0 UV-I 0 W/m -0,5 C -0,1 C 8,0 km/h (2 Bft) 92,59 %
16.02.2018 02:20 -0,1 C 4,4 C 97 % 1020,6 hPa 0,0 l/m 5,9 km/h (2 Bft) NO 38 0 min 0,000 mm 0,0 UV-I 0 W/m -0,5 C -0,1 C 6,4 km/h (2 Bft) 100,00 %
16.02.2018 02:21 -0,1 C 4,4 C 97 % 1020,7 hPa 0,0 l/m 6,6 km/h (2 Bft) NO 46 0 min 0,000 mm 0,0 UV-I 0 W/m -0,5 C -0,3 C 8,0 km/h (2 Bft) 95,83 %
16.02.2018 02:22 -0,1 C 4,4 C 97 % 1020,7 hPa 0,0 l/m 7,1 km/h (2 Bft) NO 56 0 min 0,000 mm 0,0 UV-I 0 W/m -0,5 C -0,8 C 9,7 km/h (2 Bft) 95,65 %
16.02.2018 02:23 -0,1 C 4,4 C 97 % 1020,6 hPa 0,0 l/m 6,1 km/h (2 Bft) NO 53 0 min 0,000 mm 0,0 UV-I 0 W/m -0,5 C -0,1 C 8,0 km/h (2 Bft) 96,30 %
16.02.2018 02:24 -0,1 C 4,4 C 97 % 1020,7 hPa 0,0 l/m 7,1 km/h (2 Bft) NO 37 0 min 0,000 mm 0,0 UV-I 0 W/m -0,5 C -0,8 C 8,0 km/h (2 Bft) 100,00 %
16.02.2018 02:25 -0,1 C 4,4 C 97 % 1020,7 hPa 0,0 l/m 6,8 km/h (2 Bft) NO 40 0 min 0,000 mm 0,0 UV-I 0 W/m -0,5 C -0,5 C 9,7 km/h (2 Bft) 95,83 %
16.02.2018 02:26 -0,1 C 4,4 C 97 % 1020,6 hPa 0,0 l/m 6,6 km/h (2 Bft) NO 40 0 min 0,000 mm 0,0 UV-I 0 W/m -0,5 C -0,3 C 8,0 km/h (2 Bft) 100,00 %
16.02.2018 02:27 -0,1 C 4,4 C 97 % 1020,7 hPa 0,0 l/m 6,6 km/h (2 Bft) NO 38 0 min 0,000 mm 0,0 UV-I 0 W/m -0,5 C -0,3 C 9,7 km/h (2 Bft) 95,83 %
16.02.2018 02:28 -0,1 C 4,4 C 97 % 1020,6 hPa 0,0 l/m 6,4 km/h (2 Bft) O-NO 59 0 min 0,000 mm 0,0 UV-I 0 W/m -0,5 C -0,1 C 8,0 km/h (2 Bft) 95,65 %
16.02.2018 02:29 -0,1 C 4,4 C 97 % 1020,6 hPa 0,0 l/m 6,4 km/h (2 Bft) NO 56 0 min 0,000 mm 0,0 UV-I 0 W/m -0,5 C -0,1 C 8,0 km/h (2 Bft) 100,00 %
16.02.2018 02:30 -0,1 C 4,4 C 97 % 1020,6 hPa 0,0 l/m 5,2 km/h (1 Bft) NO 55 0 min 0,000 mm 0,0 UV-I 0 W/m -0,5 C -0,1 C 6,4 km/h (2 Bft) 96,15 %
16.02.2018 02:31 -0,1 C 4,4 C 97 % 1020,5 hPa 0,0 l/m 4,2 km/h (1 Bft) NO 46 0 min 0,000 mm 0,0 UV-I 0 W/m -0,5 C -0,1 C 6,4 km/h (2 Bft) 100,00 %
16.02.2018 02:32 -0,2 C 4,4 C 97 % 1020,5 hPa 0,0 l/m 4,1 km/h (1 Bft) O-NO 71 0 min 0,000 mm 0,0 UV-I 0 W/m -0,6 C -0,2 C 6,4 km/h (2 Bft) 93,33 %
16.02.2018 02:33 -0,2 C 4,4 C 97 % 1020,4 hPa 0,0 l/m 5,9 km/h (2 Bft) O-NO 76 0 min 0,000 mm 0,0 UV-I 0 W/m -0,6 C -0,2 C 8,0 km/h (2 Bft) 100,00 %
16.02.2018 02:34 -0,2 C 4,4 C 97 % 1020,3 hPa 0,0 l/m 6,3 km/h (2 Bft) O 85 0 min 0,000 mm 0,0 UV-I 0 W/m -0,6 C -0,2 C 8,0 km/h (2 Bft) 100,00 %
16.02.2018 02:35 -0,2 C 4,4 C 97 % 1020,3 hPa 0,0 l/m 5,8 km/h (2 Bft) O-NO 61 0 min 0,000 mm 0,0 UV-I 0 W/m -0,6 C -0,2 C 8,0 km/h (2 Bft) 100,00 %
16.02.2018 02:36 -0,2 C 4,4 C 97 % 1020,3 hPa 0,0 l/m 5,6 km/h (1 Bft) O 80 0 min 0,000 mm 0,0 UV-I 0 W/m -0,6 C -0,2 C 6,4 km/h (2 Bft) 100,00 %
16.02.2018 02:37 -0,2 C 4,4 C 97 % 1020,3 hPa 0,0 l/m 5,3 km/h (1 Bft) O-NO 67 0 min 0,000 mm 0,0 UV-I 0 W/m -0,6 C -0,2 C 6,4 km/h (2 Bft) 100,00 %
16.02.2018 02:38 -0,2 C 4,4 C 97 % 1020,4 hPa 0,0 l/m 4,2 km/h (1 Bft) O-NO 68 0 min 0,000 mm 0,0 UV-I 0 W/m -0,6 C -0,2 C 6,4 km/h (2 Bft) 100,00 %
16.02.2018 02:39 -0,2 C 4,4 C 97 % 1020,4 hPa 0,0 l/m 4,8 km/h (1 Bft) O-NO 74 0 min 0,000 mm 0,0 UV-I 0 W/m -0,6 C -0,2 C 8,0 km/h (2 Bft) 100,00 %
16.02.2018 02:40 -0,2 C 4,4 C 97 % 1020,4 hPa 0,0 l/m 2,5 km/h (1 Bft) O-NO 74 0 min 0,000 mm 0,0 UV-I 0 W/m -0,6 C -0,2 C 4,8 km/h (1 Bft) 100,00 %
16.02.2018 02:41 -0,2 C 4,4 C 97 % 1020,4 hPa 0,0 l/m 2,5 km/h (1 Bft) O-NO 74 0 min 0,000 mm 0,0 UV-I 0 W/m -0,6 C -0,2 C 3,2 km/h (1 Bft) 95,83 %
16.02.2018 02:42 -0,2 C 4,4 C 97 % 1020,4 hPa 0,0 l/m 2,7 km/h (1 Bft) O-NO 74 0 min 0,000 mm 0,0 UV-I 0 W/m -0,6 C -0,2 C 3,2 km/h (1 Bft) 100,00 %
16.02.2018 02:43 -0,2 C 4,4 C 97 % 1020,4 hPa 0,0 l/m 2,9 km/h (1 Bft) O-NO 74 0 min 0,000 mm 0,0 UV-I 0 W/m -0,6 C -0,2 C 4,8 km/h (1 Bft) 100,00 %
16.02.2018 02:44 -0,2 C 4,4 C 97 % 1020,3 hPa 0,0 l/m 3,4 km/h (1 Bft) O-NO 74 0 min 0,000 mm 0,0 UV-I 0 W/m -0,6 C -0,2 C 6,4 km/h (2 Bft) 92,59 %
16.02.2018 02:45 -0,2 C 4,4 C 97 % 1020,4 hPa 0,0 l/m 6,2 km/h (2 Bft) O-NO 68 0 min 0,000 mm 0,0 UV-I 0 W/m -0,6 C -0,2 C 8,0 km/h (2 Bft) 100,00 %
16.02.2018 02:46 -0,2 C 4,4 C 97 % 1020,4 hPa 0,0 l/m 5,6 km/h (1 Bft) O-NO 69 0 min 0,000 mm 0,0 UV-I 0 W/m -0,6 C -0,2 C 6,4 km/h (2 Bft) 100,00 %
16.02.2018 02:47 -0,2 C 4,4 C 97 % 1020,3 hPa 0,0 l/m 4,3 km/h (1 Bft) O-NO 70 0 min 0,000 mm 0,0 UV-I 0 W/m -0,6 C -0,2 C 6,4 km/h (2 Bft) 100,00 %
16.02.2018 02:48 -0,2 C 4,4 C 97 % 1020,4 hPa 0,0 l/m 4,1 km/h (1 Bft) O-NO 70 0 min 0,000 mm 0,0 UV-I 0 W/m -0,6 C -0,2 C 4,8 km/h (1 Bft) 100,00 %
16.02.2018 02:49 -0,2 C 4,4 C 97 % 1020,3 hPa 0,0 l/m 4,4 km/h (1 Bft) O-NO 70 0 min 0,000 mm 0,0 UV-I 0 W/m -0,6 C -0,2 C 4,8 km/h (1 Bft) 100,00 %
16.02.2018 02:50 -0,2 C 4,4 C 97 % 1020,3 hPa 0,0 l/m 3,6 km/h (1 Bft) O-NO 61 0 min 0,000 mm 0,0 UV-I 0 W/m -0,6 C -0,2 C 4,8 km/h (1 Bft) 100,00 %
16.02.2018 02:51 -0,2 C 4,4 C 97 % 1020,3 hPa 0,0 l/m 5,3 km/h (1 Bft) O-NO 66 0 min 0,000 mm 0,0 UV-I 0 W/m -0,6 C -0,2 C 6,4 km/h (2 Bft) 100,00 %
16.02.2018 02:52 -0,2 C 4,4 C 97 % 1020,2 hPa 0,0 l/m 5,4 km/h (1 Bft) O-NO 77 0 min 0,000 mm 0,0 UV-I 0 W/m -0,6 C -0,2 C 6,4 km/h (2 Bft) 100,00 %
16.02.2018 02:53 -0,2 C 4,4 C 97 % 1020,2 hPa 0,0 l/m 4,9 km/h (1 Bft) O-NO 67 0 min 0,000 mm 0,0 UV-I 0 W/m -0,6 C -0,2 C 6,4 km/h (2 Bft) 100,00 %
16.02.2018 02:54 -0,2 C 4,4 C 97 % 1020,2 hPa 0,0 l/m 3,7 km/h (1 Bft) O 83 0 min 0,000 mm 0,0 UV-I 0 W/m -0,6 C -0,2 C 6,4 km/h (2 Bft) 100,00 %
16.02.2018 02:55 -0,2 C 4,4 C 97 % 1020,2 hPa 0,0 l/m 4,3 km/h (1 Bft) O 90 0 min 0,000 mm 0,0 UV-I 0 W/m -0,6 C -0,2 C 6,4 km/h (2 Bft) 100,00 %
16.02.2018 02:56 -0,2 C 4,4 C 97 % 1020,1 hPa 0,0 l/m 5,8 km/h (2 Bft) O-NO 69 0 min 0,000 mm 0,0 UV-I 0 W/m -0,6 C -0,2 C 9,7 km/h (2 Bft) 100,00 %
16.02.2018 02:57 -0,2 C 4,4 C 97 % 1020,1 hPa 0,0 l/m 5,9 km/h (2 Bft) O 89 0 min 0,000 mm 0,0 UV-I 0 W/m -0,6 C -0,2 C 9,7 km/h (2 Bft) 95,65 %
16.02.2018 02:58 -0,2 C 4,4 C 97 % 1020,0 hPa 0,0 l/m 6,4 km/h (2 Bft) O 84 0 min 0,000 mm 0,0 UV-I 0 W/m -0,6 C -0,2 C 9,7 km/h (2 Bft) 100,00 %
16.02.2018 02:59 -0,2 C 4,4 C 97 % 1020,0 hPa 0,0 l/m 5,7 km/h (1 Bft) O-NO 69 0 min 0,000 mm 0,0 UV-I 0 W/m -0,6 C -0,2 C 8,0 km/h (2 Bft) 100,00 %
16.02.2018 03:00 -0,2 C 4,4 C 97 % 1020,0 hPa 0,0 l/m 5,5 km/h (1 Bft) O 88 0 min 0,000 mm 0,0 UV-I 0 W/m -0,6 C -0,2 C 6,4 km/h (2 Bft) 100,00 %
16.02.2018 03:01 -0,2 C 4,4 C 97 % 1020,1 hPa 0,0 l/m 5,5 km/h (1 Bft) O-NO 78 0 min 0,000 mm 0,0 UV-I 0 W/m -0,6 C -0,2 C 8,0 km/h (2 Bft) 100,00 %
16.02.2018 03:02 -0,2 C 4,4 C 97 % 1020,1 hPa 0,0 l/m 5,5 km/h (1 Bft) O-NO 78 0 min 0,000 mm 0,0 UV-I 0 W/m -0,6 C -0,2 C 8,0 km/h (2 Bft) 100,00 %
16.02.2018 03:03 -0,2 C 4,4 C 97 % 1020,2 hPa 0,0 l/m 5,9 km/h (2 Bft) O-NO 69 0 min 0,000 mm 0,0 UV-I 0 W/m -0,6 C -0,2 C 6,4 km/h (2 Bft) 100,00 %
16.02.2018 03:04 -0,2 C 4,4 C 97 % 1020,1 hPa 0,0 l/m 5,2 km/h (1 Bft) O-NO 65 0 min 0,000 mm 0,0 UV-I 0 W/m -0,6 C -0,2 C 6,4 km/h (2 Bft) 100,00 %
16.02.2018 03:05 -0,2 C 4,4 C 97 % 1020,2 hPa 0,0 l/m 4,3 km/h (1 Bft) O-NO 71 0 min 0,000 mm 0,0 UV-I 0 W/m -0,6 C -0,2 C 4,8 km/h (1 Bft) 100,00 %
16.02.2018 03:06 -0,2 C 4,4 C 97 % 1020,2 hPa 0,0 l/m 4,3 km/h (1 Bft) O-NO 59 0 min 0,000 mm 0,0 UV-I 0 W/m -0,6 C -0,2 C 4,8 km/h (1 Bft) 100,00 %
16.02.2018 03:07 -0,2 C 4,4 C 97 % 1020,1 hPa 0,0 l/m 5,2 km/h (1 Bft) O 84 0 min 0,000 mm 0,0 UV-I 0 W/m -0,6 C -0,2 C 6,4 km/h (2 Bft) 100,00 %
16.02.2018 03:08 -0,2 C 4,4 C 97 % 1020,1 hPa 0,0 l/m 5,1 km/h (1 Bft) O-NO 68 0 min 0,000 mm 0,0 UV-I 0 W/m -0,6 C -0,2 C 6,4 km/h (2 Bft) 100,00 %
16.02.2018 03:09 -0,2 C 4,4 C 97 % 1020,0 hPa 0,0 l/m 4,9 km/h (1 Bft) O 82 0 min 0,000 mm 0,0 UV-I 0 W/m -0,6 C -0,2 C 6,4 km/h (2 Bft) 100,00 %
16.02.2018 03:10 -0,2 C 4,4 C 97 % 1020,1 hPa 0,0 l/m 3,8 km/h (1 Bft) O-NO 73 0 min 0,000 mm 0,0 UV-I 0 W/m -0,6 C -0,2 C 4,8 km/h (1 Bft) 100,00 %
16.02.2018 03:11 -0,2 C 4,4 C 97 % 1020,1 hPa 0,0 l/m 4,6 km/h (1 Bft) O 81 0 min 0,000 mm 0,0 UV-I 0 W/m -0,6 C -0,2 C 6,4 km/h (2 Bft) 100,00 %
16.02.2018 03:12 -0,2 C 4,4 C 97 % 1020,0 hPa 0,0 l/m 4,4 km/h (1 Bft) O-NO 71 0 min 0,000 mm 0,0 UV-I 0 W/m -0,6 C -0,2 C 6,4 km/h (2 Bft) 100,00 %
16.02.2018 03:13 -0,2 C 4,4 C 97 % 1020,0 hPa 0,0 l/m 5,6 km/h (1 Bft) O 79 0 min 0,000 mm 0,0 UV-I 0 W/m -0,6 C -0,2 C 6,4 km/h (2 Bft) 100,00 %
16.02.2018 03:14 -0,2 C 4,4 C 97 % 1020,0 hPa 0,0 l/m 6,3 km/h (2 Bft) O 88 0 min 0,000 mm 0,0 UV-I 0 W/m -0,6 C -0,2 C 11,3 km/h (2 Bft) 100,00 %
16.02.2018 03:15 -0,2 C 4,4 C 97 % 1019,9 hPa 0,0 l/m 6,2 km/h (2 Bft) O-NO 74 0 min 0,000 mm 0,0 UV-I 0 W/m -0,6 C -0,2 C 11,3 km/h (2 Bft) 100,00 %
16.02.2018 03:16 -0,2 C 4,4 C 97 % 1019,9 hPa 0,0 l/m 5,3 km/h (1 Bft) O 82 0 min 0,000 mm 0,0 UV-I 0 W/m -0,6 C -0,2 C 9,7 km/h (2 Bft) 100,00 %
16.02.2018 03:17 -0,2 C 4,4 C 97 % 1019,9 hPa 0,0 l/m 5,0 km/h (1 Bft) O 86 0 min 0,000 mm 0,0 UV-I 0 W/m -0,6 C -0,2 C 6,4 km/h (2 Bft) 100,00 %
16.02.2018 03:18 -0,2 C 4,4 C 97 % 1019,9 hPa 0,0 l/m 4,8 km/h (1 Bft) O-NO 67 0 min 0,000 mm 0,0 UV-I 0 W/m -0,6 C -0,2 C 6,4 km/h (2 Bft) 100,00 %
16.02.2018 03:19 -0,2 C 4,4 C 97 % 1019,9 hPa 0,0 l/m 6,9 km/h (2 Bft) O-NO 74 0 min 0,000 mm 0,0 UV-I 0 W/m -0,6 C -0,7 C 11,3 km/h (2 Bft) 100,00 %
16.02.2018 03:20 -0,2 C 4,4 C 97 % 1019,9 hPa 0,0 l/m 6,4 km/h (2 Bft) O-NO 73 0 min 0,000 mm 0,0 UV-I 0 W/m -0,6 C -0,2 C 8,0 km/h (2 Bft) 100,00 %
16.02.2018 03:21 -0,2 C 4,4 C 97 % 1019,9 hPa 0,0 l/m 7,2 km/h (2 Bft) O 80 0 min 0,000 mm 0,0 UV-I 0 W/m -0,6 C -1,0 C 8,0 km/h (2 Bft) 100,00 %
16.02.2018 03:22 -0,2 C 4,4 C 97 % 1019,8 hPa 0,0 l/m 6,9 km/h (2 Bft) O-NO 70 0 min 0,000 mm 0,0 UV-I 0 W/m -0,6 C -0,7 C 11,3 km/h (2 Bft) 100,00 %
16.02.2018 03:23 -0,2 C 4,4 C 97 % 1019,9 hPa 0,0 l/m 7,2 km/h (2 Bft) O 89 0 min 0,000 mm 0,0 UV-I 0 W/m -0,6 C -1,0 C 9,7 km/h (2 Bft) 100,00 %
16.02.2018 03:24 -0,2 C 4,4 C 97 % 1019,8 hPa 0,0 l/m 5,6 km/h (1 Bft) O 83 0 min 0,000 mm 0,0 UV-I 0 W/m -0,6 C -0,2 C 8,0 km/h (2 Bft) 100,00 %
16.02.2018 03:25 -0,2 C 4,4 C 97 % 1019,9 hPa 0,0 l/m 6,3 km/h (2 Bft) O 97 0 min 0,000 mm 0,0 UV-I 0 W/m -0,6 C -0,2 C 9,7 km/h (2 Bft) 100,00 %
16.02.2018 03:26 -0,2 C 4,4 C 97 % 1020,0 hPa 0,0 l/m 4,6 km/h (1 Bft) O 82 0 min 0,000 mm 0,0 UV-I 0 W/m -0,6 C -0,2 C 4,8 km/h (1 Bft) 100,00 %
16.02.2018 03:27 -0,2 C 4,4 C 97 % 1020,0 hPa 0,0 l/m 5,0 km/h (1 Bft) O 90 0 min 0,000 mm 0,0 UV-I 0 W/m -0,6 C -0,2 C 6,4 km/h (2 Bft) 100,00 %
16.02.2018 03:28 -0,2 C 4,4 C 97 % 1020,0 hPa 0,0 l/m 3,4 km/h (1 Bft) O 90 0 min 0,000 mm 0,0 UV-I 0 W/m -0,6 C -0,2 C 4,8 km/h (1 Bft) 100,00 %
16.02.2018 03:29 -0,2 C 4,4 C 97 % 1020,0 hPa 0,0 l/m 4,5 km/h (1 Bft) O 90 0 min 0,000 mm 0,0 UV-I 0 W/m -0,6 C -0,2 C 6,4 km/h (2 Bft) 95,65 %
16.02.2018 03:30 -0,2 C 4,4 C 97 % 1020,0 hPa 0,0 l/m 3,6 km/h (1 Bft) O 90 0 min 0,000 mm 0,0 UV-I 0 W/m -0,6 C -0,2 C 6,4 km/h (2 Bft) 100,00 %
16.02.2018 03:31 -0,2 C 4,4 C 97 % 1020,1 hPa 0,0 l/m 2,9 km/h (1 Bft) O 90 0 min 0,000 mm 0,0 UV-I 0 W/m -0,6 C -0,2 C 4,8 km/h (1 Bft) 100,00 %
16.02.2018 03:32 -0,2 C 4,4 C 97 % 1020,1 hPa 0,0 l/m 3,5 km/h (1 Bft) O 90 0 min 0,000 mm 0,0 UV-I 0 W/m -0,6 C -0,2 C 4,8 km/h (1 Bft) 95,83 %
16.02.2018 03:33 -0,2 C 4,4 C 97 % 1020,0 hPa 0,0 l/m 4,4 km/h (1 Bft) O 90 0 min 0,000 mm 0,0 UV-I 0 W/m -0,6 C -0,2 C 6,4 km/h (2 Bft) 100,00 %
16.02.2018 03:34 -0,2 C 4,4 C 97 % 1019,9 hPa 0,0 l/m 4,0 km/h (1 Bft) O 90 0 min 0,000 mm 0,0 UV-I 0 W/m -0,6 C -0,2 C 4,8 km/h (1 Bft) 100,00 %
16.02.2018 03:35 -0,2 C 4,4 C 97 % 1019,9 hPa 0,0 l/m 5,1 km/h (1 Bft) O 81 0 min 0,000 mm 0,0 UV-I 0 W/m -0,6 C -0,2 C 6,4 km/h (2 Bft) 96,55 %
16.02.2018 03:36 -0,2 C 4,4 C 97 % 1019,8 hPa 0,0 l/m 5,2 km/h (1 Bft) O 92 0 min 0,000 mm 0,0 UV-I 0 W/m -0,6 C -0,2 C 6,4 km/h (2 Bft) 100,00 %
16.02.2018 03:37 -0,2 C 4,4 C 97 % 1019,8 hPa 0,0 l/m 5,0 km/h (1 Bft) O-NO 71 0 min 0,000 mm 0,0 UV-I 0 W/m -0,6 C -0,2 C 6,4 km/h (2 Bft) 96,15 %
16.02.2018 03:38 -0,2 C 4,4 C 97 % 1019,8 hPa 0,0 l/m 5,4 km/h (1 Bft) O-NO 70 0 min 0,000 mm 0,0 UV-I 0 W/m -0,6 C -0,2 C 6,4 km/h (2 Bft) 100,00 %
16.02.2018 03:39 -0,2 C 4,4 C 97 % 1019,7 hPa 0,0 l/m 5,8 km/h (2 Bft) O-NO 65 0 min 0,000 mm 0,0 UV-I 0 W/m -0,6 C -0,2 C 6,4 km/h (2 Bft) 100,00 %
16.02.2018 03:40 -0,2 C 4,4 C 97 % 1019,8 hPa 0,0 l/m 3,6 km/h (1 Bft) NO 51 0 min 0,000 mm 0,0 UV-I 0 W/m -0,6 C -0,2 C 4,8 km/h (1 Bft) 100,00 %
16.02.2018 03:41 -0,1 C 4,4 C 97 % 1019,8 hPa 0,0 l/m 4,7 km/h (1 Bft) O-NO 57 0 min 0,000 mm 0,0 UV-I 0 W/m -0,5 C -0,1 C 6,4 km/h (2 Bft) 100,00 %
16.02.2018 03:42 -0,1 C 4,4 C 97 % 1019,8 hPa 0,0 l/m 3,6 km/h (1 Bft) O-NO 66 0 min 0,000 mm 0,0 UV-I 0 W/m -0,5 C -0,1 C 4,8 km/h (1 Bft) 96,15 %
16.02.2018 03:43 -0,1 C 4,4 C 97 % 1019,8 hPa 0,0 l/m 3,8 km/h (1 Bft) O-NO 66 0 min 0,000 mm 0,0 UV-I 0 W/m -0,5 C -0,1 C 4,8 km/h (1 Bft) 100,00 %
16.02.2018 03:44 -0,1 C 4,4 C 97 % 1019,8 hPa 0,0 l/m 3,5 km/h (1 Bft) O-NO 67 0 min 0,000 mm 0,0 UV-I 0 W/m -0,5 C -0,1 C 4,8 km/h (1 Bft) 100,00 %
16.02.2018 03:45 -0,1 C 4,4 C 97 % 1019,8 hPa 0,0 l/m 3,8 km/h (1 Bft) O-NO 67 0 min 0,000 mm 0,0 UV-I 0 W/m -0,5 C -0,1 C 4,8 km/h (1 Bft) 100,00 %
16.02.2018 03:46 -0,1 C 4,4 C 97 % 1019,9 hPa 0,0 l/m 3,5 km/h (1 Bft) O-NO 67 0 min 0,000 mm 0,0 UV-I 0 W/m -0,5 C -0,1 C 4,8 km/h (1 Bft) 96,55 %
16.02.2018 03:47 -0,1 C 4,4 C 97 % 1019,8 hPa 0,0 l/m 4,8 km/h (1 Bft) O-NO 59 0 min 0,000 mm 0,0 UV-I 0 W/m -0,5 C -0,1 C 6,4 km/h (2 Bft) 100,00 %
16.02.2018 03:48 -0,1 C 4,4 C 97 % 1019,8 hPa 0,0 l/m 4,4 km/h (1 Bft) O-NO 59 0 min 0,000 mm 0,0 UV-I 0 W/m -0,5 C -0,1 C 6,4 km/h (2 Bft) 91,30 %
16.02.2018 03:49 -0,1 C 4,4 C 97 % 1019,9 hPa 0,0 l/m 4,4 km/h (1 Bft) NO 52 0 min 0,000 mm 0,0 UV-I 0 W/m -0,5 C -0,1 C 6,4 km/h (2 Bft) 100,00 %
16.02.2018 03:50 -0,1 C 4,4 C 97 % 1019,9 hPa 0,0 l/m 4,0 km/h (1 Bft) NO 52 0 min 0,000 mm 0,0 UV-I 0 W/m -0,5 C -0,1 C 6,4 km/h (2 Bft) 96,30 %
16.02.2018 03:51 -0,1 C 4,4 C 97 % 1019,9 hPa 0,0 l/m 3,0 km/h (1 Bft) NO 52 0 min 0,000 mm 0,0 UV-I 0 W/m -0,5 C -0,1 C 4,8 km/h (1 Bft) 100,00 %
16.02.2018 03:52 -0,1 C 4,4 C 97 % 1019,9 hPa 0,0 l/m 2,5 km/h (1 Bft) NO 52 0 min 0,000 mm 0,0 UV-I 0 W/m -0,5 C -0,1 C 3,2 km/h (1 Bft) 100,00 %
16.02.2018 03:53 -0,1 C 4,4 C 97 % 1019,9 hPa 0,0 l/m 1,3 km/h (1 Bft) NO 52 0 min 0,000 mm 0,0 UV-I 0 W/m -0,5 C -0,1 C 3,2 km/h (1 Bft) 100,00 %
16.02.2018 03:54 -0,1 C 4,4 C 97 % 1020,0 hPa 0,0 l/m 2,2 km/h (1 Bft) NO 52 0 min 0,000 mm 0,0 UV-I 0 W/m -0,5 C -0,1 C 3,2 km/h (1 Bft) 100,00 %
16.02.2018 03:55 -0,1 C 4,4 C 97 % 1020,0 hPa 0,0 l/m 2,9 km/h (1 Bft) NO 52 0 min 0,000 mm 0,0 UV-I 0 W/m -0,5 C -0,1 C 3,2 km/h (1 Bft) 95,83 %
16.02.2018 03:56 -0,1 C 4,4 C 97 % 1019,9 hPa 0,0 l/m 3,4 km/h (1 Bft) NO 52 0 min 0,000 mm 0,0 UV-I 0 W/m -0,5 C -0,1 C 4,8 km/h (1 Bft) 96,55 %
16.02.2018 03:57 -0,1 C 4,4 C 97 % 1019,9 hPa 0,0 l/m 3,2 km/h (1 Bft) NO 52 0 min 0,000 mm 0,0 UV-I 0 W/m -0,5 C -0,1 C 4,8 km/h (1 Bft) 95,83 %
16.02.2018 03:58 -0,1 C 4,4 C 97 % 1019,9 hPa 0,0 l/m 2,7 km/h (1 Bft) NO 52 0 min 0,000 mm 0,0 UV-I 0 W/m -0,5 C -0,1 C 4,8 km/h (1 Bft) 100,00 %
16.02.2018 03:59 -0,1 C 4,4 C 97 % 1019,9 hPa 0,0 l/m 2,7 km/h (1 Bft) NO 52 0 min 0,000 mm 0,0 UV-I 0 W/m -0,5 C -0,1 C 3,2 km/h (1 Bft) 96,55 %
16.02.2018 04:00 -0,1 C 4,4 C 97 % 1019,9 hPa 0,0 l/m 1,8 km/h (1 Bft) NO 52 0 min 0,000 mm 0,0 UV-I 0 W/m -0,5 C -0,1 C 3,2 km/h (1 Bft) 100,00 %
16.02.2018 04:01 -0,1 C 4,4 C 97 % 1019,8 hPa 0,0 l/m 1,9 km/h (1 Bft) NO 52 0 min 0,000 mm 0,0 UV-I 0 W/m -0,5 C -0,1 C 3,2 km/h (1 Bft) 100,00 %
16.02.2018 04:02 -0,1 C 4,4 C 97 % 1019,8 hPa 0,0 l/m 1,3 km/h (1 Bft) NO 52 0 min 0,000 mm 0,0 UV-I 0 W/m -0,5 C -0,1 C 3,2 km/h (1 Bft) 91,67 %
16.02.2018 04:03 -0,1 C 4,4 C 97 % 1019,9 hPa 0,0 l/m 0,0 km/h (0 Bft) NO 52 0 min 0,000 mm 0,0 UV-I 0 W/m -0,5 C -0,1 C 0,0 km/h (0 Bft) 92,86 %
16.02.2018 04:04 -0,1 C 4,4 C 97 % 1019,8 hPa 0,0 l/m 1,0 km/h (0 Bft) NO 52 0 min 0,000 mm 0,0 UV-I 0 W/m -0,5 C -0,1 C 1,6 km/h (1 Bft) 100,00 %
16.02.2018 04:05 -0,1 C 4,4 C 97 % 1019,9 hPa 0,0 l/m 1,9 km/h (1 Bft) NO 52 0 min 0,000 mm 0,0 UV-I 0 W/m -0,5 C -0,1 C 3,2 km/h (1 Bft) 96,15 %
16.02.2018 04:06 -0,1 C 4,4 C 97 % 1019,8 hPa 0,0 l/m 2,1 km/h (1 Bft) NO 52 0 min 0,000 mm 0,0 UV-I 0 W/m -0,5 C -0,1 C 3,2 km/h (1 Bft) 91,67 %
16.02.2018 04:07 -0,1 C 4,4 C 97 % 1019,8 hPa 0,0 l/m 1,2 km/h (1 Bft) NO 52 0 min 0,000 mm 0,0 UV-I 0 W/m -0,5 C -0,1 C 1,6 km/h (1 Bft) 91,30 %
16.02.2018 04:08 -0,1 C 4,4 C 97 % 1019,8 hPa 0,0 l/m 2,2 km/h (1 Bft) NO 52 0 min 0,000 mm 0,0 UV-I 0 W/m -0,5 C -0,1 C 3,2 km/h (1 Bft) 96,30 %
16.02.2018 04:09 -0,1 C 4,4 C 97 % 1019,8 hPa 0,0 l/m 2,0 km/h (1 Bft) NO 52 0 min 0,000 mm 0,0 UV-I 0 W/m -0,5 C -0,1 C 3,2 km/h (1 Bft) 95,65 %
16.02.2018 04:10 -0,1 C 4,4 C 97 % 1019,8 hPa 0,0 l/m 2,9 km/h (1 Bft) NO 52 0 min 0,000 mm 0,0 UV-I 0 W/m -0,5 C -0,1 C 4,8 km/h (1 Bft) 75,00 %
16.02.2018 04:11 -0,1 C 4,4 C 97 % 1019,7 hPa 0,0 l/m 2,9 km/h (1 Bft) NO 52 0 min 0,000 mm 0,0 UV-I 0 W/m -0,5 C -0,1 C 4,8 km/h (1 Bft) 60,00 %
16.02.2018 04:12 -0,1 C 4,4 C 97 % 1019,7 hPa 0,0 l/m 2,7 km/h (1 Bft) NO 52 0 min 0,000 mm 0,0 UV-I 0 W/m -0,5 C -0,1 C 3,2 km/h (1 Bft) 46,15 %
16.02.2018 04:13 -0,1 C 4,4 C 97 % 1019,8 hPa 0,0 l/m 4,0 km/h (1 Bft) NO 52 0 min 0,000 mm 0,0 UV-I 0 W/m -0,5 C -0,1 C 4,8 km/h (1 Bft) 57,69 %
16.02.2018 04:14 -0,1 C 4,4 C 97 % 1019,8 hPa 0,0 l/m 2,7 km/h (1 Bft) NO 52 0 min 0,000 mm 0,0 UV-I 0 W/m -0,5 C -0,1 C 4,8 km/h (1 Bft) 88,89 %
16.02.2018 04:15 -0,1 C 4,4 C 97 % 1019,8 hPa 0,0 l/m 1,0 km/h (0 Bft) NO 52 0 min 0,000 mm 0,0 UV-I 0 W/m -0,5 C -0,1 C 1,6 km/h (1 Bft) 75,00 %
16.02.2018 04:16 -0,1 C 4,4 C 97 % 1019,8 hPa 0,0 l/m 1,7 km/h (1 Bft) NO 52 0 min 0,000 mm 0,0 UV-I 0 W/m -0,5 C -0,1 C 3,2 km/h (1 Bft) 86,84 %
16.02.2018 04:17 -0,1 C 4,4 C 97 % 1019,8 hPa 0,0 l/m 1,3 km/h (1 Bft) NO 52 0 min 0,000 mm 0,0 UV-I 0 W/m -0,5 C -0,1 C 3,2 km/h (1 Bft) 78,26 %
16.02.2018 04:18 -0,1 C 4,4 C 97 % 1019,9 hPa 0,0 l/m 0,0 km/h (0 Bft) NO 52 0 min 0,000 mm 0,0 UV-I 0 W/m -0,5 C -0,1 C 0,0 km/h (0 Bft) 83,33 %
16.02.2018 04:19 -0,1 C 4,4 C 97 % 1019,9 hPa 0,0 l/m 0,1 km/h (0 Bft) NO 52 0 min 0,000 mm 0,0 UV-I 0 W/m -0,5 C -0,1 C 1,6 km/h (1 Bft) 92,59 %
16.02.2018 04:20 -0,1 C 4,4 C 97 % 1019,9 hPa 0,2 l/m 2,5 km/h (1 Bft) NO 52 0 min 0,000 mm 0,0 UV-I 0 W/m -0,5 C -0,1 C 4,8 km/h (1 Bft) 100,00 %
16.02.2018 04:21 -0,1 C 4,4 C 97 % 1019,9 hPa 0,0 l/m 2,5 km/h (1 Bft) NO 52 0 min 0,000 mm 0,0 UV-I 0 W/m -0,5 C -0,1 C 3,2 km/h (1 Bft) 93,33 %
16.02.2018 04:22 0,0 C 4,4 C 97 % 1019,9 hPa 0,0 l/m 0,5 km/h (0 Bft) NO 52 0 min 0,000 mm 0,0 UV-I 0 W/m -0,4 C 0,0 C 1,6 km/h (1 Bft) 100,00 %
16.02.2018 04:23 -0,1 C 4,4 C 97 % 1019,9 hPa 0,0 l/m 1,1 km/h (1 Bft) NO 52 0 min 0,000 mm 0,0 UV-I 0 W/m -0,5 C -0,1 C 1,6 km/h (1 Bft) 92,59 %
16.02.2018 04:24 -0,1 C 4,4 C 97 % 1019,9 hPa 0,0 l/m 2,5 km/h (1 Bft) NO 52 0 min 0,000 mm 0,0 UV-I 0 W/m -0,5 C -0,1 C 3,2 km/h (1 Bft) 91,30 %
16.02.2018 04:25 -0,1 C 4,4 C 97 % 1019,9 hPa 0,0 l/m 2,2 km/h (1 Bft) NO 52 0 min 0,000 mm 0,0 UV-I 0 W/m -0,5 C -0,1 C 3,2 km/h (1 Bft) 100,00 %
16.02.2018 04:26 -0,1 C 4,4 C 97 % 1019,9 hPa 0,0 l/m 1,4 km/h (1 Bft) NO 52 0 min 0,000 mm 0,0 UV-I 0 W/m -0,5 C -0,1 C 3,2 km/h (1 Bft) 100,00 %
16.02.2018 04:27 -0,1 C 4,4 C 97 % 1019,9 hPa 0,0 l/m 1,6 km/h (1 Bft) NO 52 0 min 0,000 mm 0,0 UV-I 0 W/m -0,5 C -0,1 C 3,2 km/h (1 Bft) 96,97 %
16.02.2018 04:28 -0,1 C 4,4 C 97 % 1019,9 hPa 0,0 l/m 1,5 km/h (1 Bft) NO 52 0 min 0,000 mm 0,0 UV-I 0 W/m -0,5 C -0,1 C 3,2 km/h (1 Bft) 91,30 %
16.02.2018 04:29 -0,1 C 4,4 C 97 % 1019,9 hPa 0,0 l/m 1,7 km/h (1 Bft) NO 52 0 min 0,000 mm 0,0 UV-I 0 W/m -0,5 C -0,1 C 3,2 km/h (1 Bft) 100,00 %
16.02.2018 04:30 -0,1 C 4,4 C 97 % 1020,0 hPa 0,0 l/m 0,1 km/h (0 Bft) NO 52 0 min 0,000 mm 0,0 UV-I 0 W/m -0,5 C -0,1 C 1,6 km/h (1 Bft) 91,30 %
16.02.2018 04:31 -0,1 C 4,4 C 97 % 1020,0 hPa 0,2 l/m 0,0 km/h (0 Bft) NO 52 0 min 0,000 mm 0,0 UV-I 0 W/m -0,5 C -0,1 C 0,0 km/h (0 Bft) 100,00 %
16.02.2018 04:32 0,0 C 4,4 C 97 % 1020,0 hPa 0,0 l/m 0,0 km/h (0 Bft) NO 52 0 min 0,000 mm 0,0 UV-I 0 W/m -0,4 C 0,0 C 0,0 km/h (0 Bft) 86,67 %
16.02.2018 04:33 0,0 C 4,4 C 97 % 1020,0 hPa 0,0 l/m 0,0 km/h (0 Bft) NO 52 0 min 0,000 mm 0,0 UV-I 0 W/m -0,4 C 0,0 C 0,0 km/h (0 Bft) 100,00 %
16.02.2018 04:34 -0,1 C 4,4 C 97 % 1020,0 hPa 0,0 l/m 0,0 km/h (0 Bft) NO 52 0 min 0,000 mm 0,0 UV-I 0 W/m -0,5 C -0,1 C 0,0 km/h (0 Bft) 88,46 %
16.02.2018 04:35 0,0 C 4,4 C 97 % 1020,0 hPa 0,0 l/m 0,0 km/h (0 Bft) NO 52 0 min 0,000 mm 0,0 UV-I 0 W/m -0,4 C 0,0 C 0,0 km/h (0 Bft) 95,83 %
16.02.2018 04:36 0,0 C 4,4 C 97 % 1019,9 hPa 0,0 l/m 0,1 km/h (0 Bft) NO 52 0 min 0,000 mm 0,0 UV-I 0 W/m -0,4 C 0,0 C 1,6 km/h (1 Bft) 95,65 %
16.02.2018 04:37 0,0 C 4,4 C 97 % 1019,9 hPa 0,0 l/m 0,9 km/h (0 Bft) NO 52 0 min 0,000 mm 0,0 UV-I 0 W/m -0,4 C 0,0 C 1,6 km/h (1 Bft) 95,83 %
16.02.2018 04:38 0,0 C 4,4 C 97 % 1020,0 hPa 0,2 l/m 1,5 km/h (1 Bft) NO 52 0 min 0,000 mm 0,0 UV-I 0 W/m -0,4 C 0,0 C 1,6 km/h (1 Bft) 100,00 %
16.02.2018 04:39 0,0 C 4,4 C 97 % 1020,0 hPa 0,0 l/m 0,8 km/h (0 Bft) NO 52 0 min 0,000 mm 0,0 UV-I 0 W/m -0,4 C 0,0 C 1,6 km/h (1 Bft) 100,00 %
16.02.2018 04:40 0,0 C 4,4 C 97 % 1020,0 hPa 0,0 l/m 0,8 km/h (0 Bft) NO 52 0 min 0,000 mm 0,0 UV-I 0 W/m -0,4 C 0,0 C 1,6 km/h (1 Bft) 96,30 %
16.02.2018 04:41 0,0 C 4,4 C 97 % 1020,0 hPa 0,0 l/m 0,0 km/h (0 Bft) NO 52 0 min 0,000 mm 0,0 UV-I 0 W/m -0,4 C 0,0 C 0,0 km/h (0 Bft) 96,15 %
16.02.2018 04:42 0,0 C 4,4 C 97 % 1020,0 hPa 0,0 l/m 0,0 km/h (0 Bft) NO 52 0 min 0,000 mm 0,0 UV-I 0 W/m -0,4 C 0,0 C 0,0 km/h (0 Bft) 96,30 %
16.02.2018 04:43 0,0 C 4,4 C 97 % 1020,0 hPa 0,0 l/m 0,0 km/h (0 Bft) NO 52 0 min 0,000 mm 0,0 UV-I 0 W/m -0,4 C 0,0 C 0,0 km/h (0 Bft) 91,30 %
16.02.2018 04:44 0,0 C 4,4 C 97 % 1020,0 hPa 0,0 l/m 0,0 km/h (0 Bft) NO 52 0 min 0,000 mm 0,0 UV-I 0 W/m -0,4 C 0,0 C 0,0 km/h (0 Bft) 100,00 %
16.02.2018 04:45 0,0 C 4,4 C 97 % 1020,1 hPa 0,0 l/m 0,1 km/h (0 Bft) NO 52 0 min 0,000 mm 0,0 UV-I 0 W/m -0,4 C 0,0 C 1,6 km/h (1 Bft) 96,15 %
16.02.2018 04:46 0,0 C 4,4 C 97 % 1020,1 hPa 0,2 l/m 0,3 km/h (0 Bft) NO 52 0 min 0,000 mm 0,0 UV-I 0 W/m -0,4 C 0,0 C 1,6 km/h (1 Bft) 100,00 %
16.02.2018 04:47 0,0 C 4,4 C 97 % 1020,1 hPa 0,0 l/m 0,0 km/h (0 Bft) NO 52 0 min 0,000 mm 0,0 UV-I 0 W/m -0,4 C 0,0 C 0,0 km/h (0 Bft) 96,15 %
16.02.2018 04:48 0,1 C 4,4 C 97 % 1020,1 hPa 0,0 l/m 0,0 km/h (0 Bft) NO 52 0 min 0,000 mm 0,0 UV-I 0 W/m -0,3 C 0,1 C 0,0 km/h (0 Bft) 95,83 %
16.02.2018 04:49 0,1 C 4,4 C 97 % 1020,1 hPa 0,0 l/m 0,0 km/h (0 Bft) NO 52 0 min 0,000 mm 0,0 UV-I 0 W/m -0,3 C 0,1 C 0,0 km/h (0 Bft) 100,00 %
16.02.2018 04:50 0,1 C 4,4 C 97 % 1020,1 hPa 0,0 l/m 0,0 km/h (0 Bft) NO 52 0 min 0,000 mm 0,0 UV-I 0 W/m -0,3 C 0,1 C 0,0 km/h (0 Bft) 95,83 %
16.02.2018 04:51 0,1 C 4,4 C 97 % 1020,1 hPa 0,0 l/m 0,0 km/h (0 Bft) NO 52 0 min 0,000 mm 0,0 UV-I 0 W/m -0,3 C 0,1 C 0,0 km/h (0 Bft) 100,00 %
16.02.2018 04:52 0,1 C 4,4 C 97 % 1020,2 hPa 0,0 l/m 0,0 km/h (0 Bft) NO 52 0 min 0,000 mm 0,0 UV-I 0 W/m -0,3 C 0,1 C 0,0 km/h (0 Bft) 96,30 %
16.02.2018 04:53 0,0 C 4,4 C 97 % 1020,2 hPa 0,0 l/m 0,0 km/h (0 Bft) NO 52 0 min 0,000 mm 0,0 UV-I 0 W/m -0,4 C 0,0 C 0,0 km/h (0 Bft) 100,00 %
16.02.2018 04:54 0,1 C 4,4 C 97 % 1020,2 hPa 0,0 l/m 0,0 km/h (0 Bft) NO 52 0 min 0,000 mm 0,0 UV-I 0 W/m -0,3 C 0,1 C 0,0 km/h (0 Bft) 91,67 %
16.02.2018 04:55 0,1 C 4,4 C 97 % 1020,2 hPa 0,0 l/m 0,0 km/h (0 Bft) NO 52 0 min 0,000 mm 0,0 UV-I 0 W/m -0,3 C 0,1 C 0,0 km/h (0 Bft) 100,00 %
16.02.2018 04:56 0,1 C 4,4 C 97 % 1020,2 hPa 0,0 l/m 0,0 km/h (0 Bft) NO 52 0 min 0,000 mm 0,0 UV-I 0 W/m -0,3 C 0,1 C 0,0 km/h (0 Bft) 96,15 %
16.02.2018 04:57 0,0 C 4,4 C 97 % 1020,2 hPa 0,0 l/m 0,0 km/h (0 Bft) NO 52 0 min 0,000 mm 0,0 UV-I 0 W/m -0,4 C 0,0 C 0,0 km/h (0 Bft) 100,00 %
16.02.2018 04:58 0,0 C 4,4 C 97 % 1020,2 hPa 0,0 l/m 0,0 km/h (0 Bft) NO 52 0 min 0,000 mm 0,0 UV-I 0 W/m -0,4 C 0,0 C 0,0 km/h (0 Bft) 96,55 %
16.02.2018 04:59 0,0 C 4,4 C 97 % 1020,1 hPa 0,2 l/m 0,0 km/h (0 Bft) NO 52 0 min 0,000 mm 0,0 UV-I 0 W/m -0,4 C 0,0 C 0,0 km/h (0 Bft) 95,83 %
16.02.2018 05:00 0,1 C 4,4 C 97 % 1020,1 hPa 0,0 l/m 0,0 km/h (0 Bft) NO 52 0 min 0,000 mm 0,0 UV-I 0 W/m -0,3 C 0,1 C 0,0 km/h (0 Bft) 96,15 %
16.02.2018 05:01 0,1 C 4,4 C 97 % 1020,1 hPa 0,0 l/m 0,0 km/h (0 Bft) NO 52 0 min 0,000 mm 0,0 UV-I 0 W/m -0,3 C 0,1 C 0,0 km/h (0 Bft) 96,30 %
16.02.2018 05:02 0,1 C 4,4 C 97 % 1020,1 hPa 0,0 l/m 0,0 km/h (0 Bft) NO 52 0 min 0,000 mm 0,0 UV-I 0 W/m -0,3 C 0,1 C 0,0 km/h (0 Bft) 100,00 %
16.02.2018 05:03 0,0 C 4,4 C 97 % 1020,1 hPa 0,0 l/m 0,0 km/h (0 Bft) NO 52 0 min 0,000 mm 0,0 UV-I 0 W/m -0,4 C 0,0 C 0,0 km/h (0 Bft) 93,33 %
16.02.2018 05:04 0,1 C 4,4 C 97 % 1020,1 hPa 0,0 l/m 0,0 km/h (0 Bft) NO 52 0 min 0,000 mm 0,0 UV-I 0 W/m -0,3 C 0,1 C 0,0 km/h (0 Bft) 100,00 %
16.02.2018 05:05 0,1 C 4,4 C 97 % 1020,1 hPa 0,0 l/m 0,0 km/h (0 Bft) NO 52 0 min 0,000 mm 0,0 UV-I 0 W/m -0,3 C 0,1 C 0,0 km/h (0 Bft) 95,83 %
16.02.2018 05:06 0,1 C 4,4 C 97 % 1020,2 hPa 0,0 l/m 0,0 km/h (0 Bft) NO 52 0 min 0,000 mm 0,0 UV-I 0 W/m -0,3 C 0,1 C 0,0 km/h (0 Bft) 100,00 %
16.02.2018 05:07 0,1 C 4,4 C 97 % 1020,2 hPa 0,0 l/m 0,0 km/h (0 Bft) NO 52 0 min 0,000 mm 0,0 UV-I 0 W/m -0,3 C 0,1 C 0,0 km/h (0 Bft) 96,30 %
16.02.2018 05:08 0,1 C 4,4 C 97 % 1020,2 hPa 0,2 l/m 0,0 km/h (0 Bft) NO 52 0 min 0,000 mm 0,0 UV-I 0 W/m -0,3 C 0,1 C 0,0 km/h (0 Bft) 100,00 %
16.02.2018 05:09 0,1 C 4,4 C 97 % 1020,2 hPa 0,0 l/m 0,0 km/h (0 Bft) NO 52 0 min 0,000 mm 0,0 UV-I 0 W/m -0,3 C 0,1 C 0,0 km/h (0 Bft) 95,83 %
16.02.2018 05:10 0,1 C 4,4 C 97 % 1020,3 hPa 0,0 l/m 0,0 km/h (0 Bft) NO 52 0 min 0,000 mm 0,0 UV-I 0 W/m -0,3 C 0,1 C 0,0 km/h (0 Bft) 100,00 %
16.02.2018 05:11 0,1 C 4,4 C 97 % 1020,3 hPa 0,0 l/m 0,0 km/h (0 Bft) NO 52 0 min 0,000 mm 0,0 UV-I 0 W/m -0,3 C 0,1 C 0,0 km/h (0 Bft) 96,30 %
16.02.2018 05:12 0,0 C 4,4 C 97 % 1020,3 hPa 0,0 l/m 0,0 km/h (0 Bft) NO 52 0 min 0,000 mm 0,0 UV-I 0 W/m -0,4 C 0,0 C 0,0 km/h (0 Bft) 91,30 %
16.02.2018 05:13 0,1 C 4,4 C 97 % 1020,3 hPa 0,0 l/m 0,3 km/h (0 Bft) NO 52 0 min 0,000 mm 0,0 UV-I 0 W/m -0,3 C 0,1 C 1,6 km/h (1 Bft) 100,00 %
16.02.2018 05:14 0,0 C 4,4 C 97 % 1020,3 hPa 0,0 l/m 0,1 km/h (0 Bft) NO 52 0 min 0,000 mm 0,0 UV-I 0 W/m -0,4 C 0,0 C 1,6 km/h (1 Bft) 100,00 %
16.02.2018 05:15 0,0 C 4,4 C 97 % 1020,4 hPa 0,0 l/m 1,1 km/h (1 Bft) NO 52 0 min 0,000 mm 0,0 UV-I 0 W/m -0,4 C 0,0 C 1,6 km/h (1 Bft) 92,31 %
16.02.2018 05:16 0,0 C 4,4 C 97 % 1020,5 hPa 0,0 l/m 1,5 km/h (1 Bft) NO 52 0 min 0,000 mm 0,0 UV-I 0 W/m -0,4 C 0,0 C 1,6 km/h (1 Bft) 100,00 %
16.02.2018 05:17 0,0 C 4,4 C 97 % 1020,5 hPa 0,0 l/m 0,5 km/h (0 Bft) NO 52 0 min 0,000 mm 0,0 UV-I 0 W/m -0,4 C 0,0 C 1,6 km/h (1 Bft) 91,30 %
16.02.2018 05:18 0,0 C 4,4 C 97 % 1020,5 hPa 0,0 l/m 0,1 km/h (0 Bft) NO 52 0 min 0,000 mm 0,0 UV-I 0 W/m -0,4 C 0,0 C 1,6 km/h (1 Bft) 100,00 %
16.02.2018 05:19 0,0 C 4,4 C 97 % 1020,6 hPa 0,2 l/m 0,0 km/h (0 Bft) NO 52 0 min 0,000 mm 0,0 UV-I 0 W/m -0,4 C 0,0 C 0,0 km/h (0 Bft) 91,67 %
16.02.2018 05:20 0,0 C 4,4 C 97 % 1020,6 hPa 0,0 l/m 0,7 km/h (0 Bft) NO 52 0 min 0,000 mm 0,0 UV-I 0 W/m -0,4 C 0,0 C 1,6 km/h (1 Bft) 95,83 %
16.02.2018 05:21 0,0 C 4,4 C 97 % 1020,6 hPa 0,0 l/m 0,6 km/h (0 Bft) NO 52 0 min 0,000 mm 0,0 UV-I 0 W/m -0,4 C 0,0 C 1,6 km/h (1 Bft) 100,00 %
16.02.2018 05:22 0,0 C 4,4 C 97 % 1020,6 hPa 0,0 l/m 0,2 km/h (0 Bft) NO 52 0 min 0,000 mm 0,0 UV-I 0 W/m -0,4 C 0,0 C 1,6 km/h (1 Bft) 100,00 %
16.02.2018 05:23 0,1 C 4,4 C 97 % 1020,6 hPa 0,0 l/m 0,0 km/h (0 Bft) NO 52 0 min 0,000 mm 0,0 UV-I 0 W/m -0,3 C 0,1 C 0,0 km/h (0 Bft) 100,00 %
16.02.2018 05:24 0,1 C 4,4 C 97 % 1020,5 hPa 0,0 l/m 0,0 km/h (0 Bft) NO 52 0 min 0,000 mm 0,0 UV-I 0 W/m -0,3 C 0,1 C 0,0 km/h (0 Bft) 100,00 %
16.02.2018 05:25 0,1 C 4,4 C 97 % 1020,5 hPa 0,0 l/m 0,0 km/h (0 Bft) NO 52 0 min 0,000 mm 0,0 UV-I 0 W/m -0,3 C 0,1 C 0,0 km/h (0 Bft) 100,00 %
16.02.2018 05:26 0,1 C 4,4 C 97 % 1020,4 hPa 0,0 l/m 0,0 km/h (0 Bft) NO 52 0 min 0,000 mm 0,0 UV-I 0 W/m -0,3 C 0,1 C 0,0 km/h (0 Bft) 100,00 %
16.02.2018 05:27 0,1 C 4,4 C 97 % 1020,5 hPa 0,0 l/m 0,0 km/h (0 Bft) NO 52 0 min 0,000 mm 0,0 UV-I 0 W/m -0,3 C 0,1 C 0,0 km/h (0 Bft) 100,00 %
16.02.2018 05:28 0,1 C 4,4 C 97 % 1020,5 hPa 0,0 l/m 0,0 km/h (0 Bft) NO 52 0 min 0,000 mm 0,0 UV-I 0 W/m -0,3 C 0,1 C 0,0 km/h (0 Bft) 100,00 %
16.02.2018 05:29 0,0 C 4,4 C 97 % 1020,5 hPa 0,0 l/m 0,0 km/h (0 Bft) NO 52 0 min 0,000 mm 0,0 UV-I 0 W/m -0,4 C 0,0 C 0,0 km/h (0 Bft) 100,00 %
16.02.2018 05:30 0,0 C 4,4 C 97 % 1020,5 hPa 0,2 l/m 0,0 km/h (0 Bft) NO 52 0 min 0,000 mm 0,0 UV-I 0 W/m -0,4 C 0,0 C 0,0 km/h (0 Bft) 100,00 %
16.02.2018 05:31 0,0 C 4,4 C 97 % 1020,5 hPa 0,0 l/m 0,0 km/h (0 Bft) NO 52 0 min 0,000 mm 0,0 UV-I 0 W/m -0,4 C 0,0 C 0,0 km/h (0 Bft) 100,00 %
16.02.2018 05:32 0,0 C 4,4 C 97 % 1020,5 hPa 0,0 l/m 0,0 km/h (0 Bft) NO 52 0 min 0,000 mm 0,0 UV-I 0 W/m -0,4 C 0,0 C 0,0 km/h (0 Bft) 100,00 %
16.02.2018 05:33 0,0 C 4,4 C 97 % 1020,5 hPa 0,0 l/m 0,0 km/h (0 Bft) NO 52 0 min 0,000 mm 0,0 UV-I 0 W/m -0,4 C 0,0 C 0,0 km/h (0 Bft) 100,00 %
16.02.2018 05:34 0,1 C 4,4 C 97 % 1020,5 hPa 0,0 l/m 0,0 km/h (0 Bft) NO 52 0 min 0,000 mm 0,0 UV-I 0 W/m -0,3 C 0,1 C 0,0 km/h (0 Bft) 100,00 %
16.02.2018 05:35 0,1 C 4,4 C 97 % 1020,5 hPa 0,0 l/m 0,0 km/h (0 Bft) NO 52 0 min 0,000 mm 0,0 UV-I 0 W/m -0,3 C 0,1 C 0,0 km/h (0 Bft) 100,00 %
16.02.2018 05:36 0,1 C 4,4 C 97 % 1020,5 hPa 0,0 l/m 0,0 km/h (0 Bft) NO 52 0 min 0,000 mm 0,0 UV-I 0 W/m -0,3 C 0,1 C 0,0 km/h (0 Bft) 100,00 %
16.02.2018 05:37 0,1 C 4,4 C 97 % 1020,6 hPa 0,0 l/m 0,0 km/h (0 Bft) NO 52 0 min 0,000 mm 0,0 UV-I 0 W/m -0,3 C 0,1 C 0,0 km/h (0 Bft) 100,00 %
16.02.2018 05:38 0,1 C 4,4 C 97 % 1020,5 hPa 0,0 l/m 0,0 km/h (0 Bft) NO 52 0 min 0,000 mm 0,0 UV-I 0 W/m -0,3 C 0,1 C 0,0 km/h (0 Bft) 100,00 %
16.02.2018 05:39 0,1 C 4,4 C 97 % 1020,6 hPa 0,0 l/m 0,0 km/h (0 Bft) NO 52 0 min 0,000 mm 0,0 UV-I 0 W/m -0,3 C 0,1 C 0,0 km/h (0 Bft) 100,00 %
16.02.2018 05:40 0,1 C 4,4 C 97 % 1020,6 hPa 0,0 l/m 0,0 km/h (0 Bft) NO 52 0 min 0,000 mm 0,0 UV-I 0 W/m -0,3 C 0,1 C 0,0 km/h (0 Bft) 100,00 %
16.02.2018 05:41 0,1 C 4,4 C 97 % 1020,6 hPa 0,2 l/m 0,0 km/h (0 Bft) NO 52 0 min 0,000 mm 0,0 UV-I 0 W/m -0,3 C 0,1 C 0,0 km/h (0 Bft) 100,00 %
16.02.2018 05:42 0,1 C 4,4 C 97 % 1020,6 hPa 0,0 l/m 0,1 km/h (0 Bft) NO 52 0 min 0,000 mm 0,0 UV-I 0 W/m -0,3 C 0,1 C 1,6 km/h (1 Bft) 100,00 %
16.02.2018 05:43 0,1 C 4,4 C 97 % 1020,6 hPa 0,0 l/m 0,7 km/h (0 Bft) NO 52 0 min 0,000 mm 0,0 UV-I 0 W/m -0,3 C 0,1 C 1,6 km/h (1 Bft) 100,00 %
16.02.2018 05:44 0,1 C 4,4 C 98 % 1020,6 hPa 0,0 l/m 0,0 km/h (0 Bft) NO 52 0 min 0,000 mm 0,0 UV-I 0 W/m -0,2 C 0,1 C 0,0 km/h (0 Bft) 100,00 %
16.02.2018 05:45 0,1 C 4,4 C 97 % 1020,7 hPa 0,0 l/m 0,0 km/h (0 Bft) NO 52 0 min 0,000 mm 0,0 UV-I 0 W/m -0,3 C 0,1 C 0,0 km/h (0 Bft) 100,00 %
16.02.2018 05:46 0,1 C 4,4 C 97 % 1020,8 hPa 0,0 l/m 0,0 km/h (0 Bft) NO 52 0 min 0,000 mm 0,0 UV-I 0 W/m -0,3 C 0,1 C 0,0 km/h (0 Bft) 100,00 %
16.02.2018 05:47 0,1 C 4,4 C 98 % 1020,8 hPa 0,0 l/m 0,1 km/h (0 Bft) NO 52 0 min 0,000 mm 0,0 UV-I 0 W/m -0,2 C 0,1 C 1,6 km/h (1 Bft) 100,00 %
16.02.2018 05:48 0,1 C 4,4 C 97 % 1020,8 hPa 0,0 l/m 0,0 km/h (0 Bft) NO 52 0 min 0,000 mm 0,0 UV-I 0 W/m -0,3 C 0,1 C 0,0 km/h (0 Bft) 100,00 %
16.02.2018 05:49 0,1 C 4,4 C 98 % 1020,8 hPa 0,0 l/m 0,0 km/h (0 Bft) NO 52 0 min 0,000 mm 0,0 UV-I 0 W/m -0,2 C 0,1 C 0,0 km/h (0 Bft) 100,00 %
16.02.2018 05:50 0,1 C 4,4 C 98 % 1020,9 hPa 0,0 l/m 0,0 km/h (0 Bft) NO 52 0 min 0,000 mm 0,0 UV-I 0 W/m -0,2 C 0,1 C 0,0 km/h (0 Bft) 100,00 %
16.02.2018 05:51 0,1 C 4,4 C 98 % 1020,9 hPa 0,0 l/m 0,0 km/h (0 Bft) NO 52 0 min 0,000 mm 0,0 UV-I 0 W/m -0,2 C 0,1 C 0,0 km/h (0 Bft) 100,00 %
16.02.2018 05:52 0,1 C 4,4 C 97 % 1021,0 hPa 0,0 l/m 0,0 km/h (0 Bft) NO 52 0 min 0,000 mm 0,0 UV-I 0 W/m -0,3 C 0,1 C 0,0 km/h (0 Bft) 100,00 %
16.02.2018 05:53 0,1 C 4,4 C 97 % 1021,0 hPa 0,0 l/m 0,0 km/h (0 Bft) NO 52 0 min 0,000 mm 0,0 UV-I 0 W/m -0,3 C 0,1 C 0,0 km/h (0 Bft) 100,00 %
16.02.2018 05:54 0,1 C 4,4 C 98 % 1021,0 hPa 0,0 l/m 0,3 km/h (0 Bft) NO 52 0 min 0,000 mm 0,0 UV-I 0 W/m -0,2 C 0,1 C 1,6 km/h (1 Bft) 95,83 %
16.02.2018 05:55 0,1 C 4,4 C 97 % 1021,0 hPa 0,2 l/m 0,0 km/h (0 Bft) NO 52 0 min 0,000 mm 0,0 UV-I 0 W/m -0,3 C 0,1 C 0,0 km/h (0 Bft) 100,00 %
16.02.2018 05:56 0,1 C 4,4 C 98 % 1021,0 hPa 0,0 l/m 0,0 km/h (0 Bft) NO 52 0 min 0,000 mm 0,0 UV-I 0 W/m -0,2 C 0,1 C 0,0 km/h (0 Bft) 100,00 %
16.02.2018 05:57 0,1 C 4,4 C 97 % 1021,1 hPa 0,0 l/m 0,0 km/h (0 Bft) NO 52 0 min 0,000 mm 0,0 UV-I 0 W/m -0,3 C 0,1 C 0,0 km/h (0 Bft) 100,00 %
16.02.2018 05:58 0,1 C 4,4 C 97 % 1021,1 hPa 0,0 l/m 0,0 km/h (0 Bft) NO 52 0 min 0,000 mm 0,0 UV-I 0 W/m -0,3 C 0,1 C 0,0 km/h (0 Bft) 100,00 %
16.02.2018 05:59 0,1 C 4,4 C 97 % 1021,2 hPa 0,0 l/m 0,1 km/h (0 Bft) NO 52 0 min 0,000 mm 0,0 UV-I 0 W/m -0,3 C 0,1 C 1,6 km/h (1 Bft) 100,00 %
16.02.2018 06:00 0,1 C 4,4 C 97 % 1021,2 hPa 0,0 l/m 3,2 km/h (1 Bft) W 272 0 min 0,000 mm 0,0 UV-I 0 W/m -0,3 C 0,1 C 4,8 km/h (1 Bft) 100,00 %
16.02.2018 06:01 0,1 C 4,4 C 97 % 1021,2 hPa 0,0 l/m 0,6 km/h (0 Bft) W 277 0 min 0,000 mm 0,0 UV-I 0 W/m -0,3 C 0,1 C 3,2 km/h (1 Bft) 100,00 %
16.02.2018 06:02 0,1 C 4,4 C 97 % 1021,2 hPa 0,2 l/m 0,1 km/h (0 Bft) W 277 0 min 0,000 mm 0,0 UV-I 0 W/m -0,3 C 0,1 C 1,6 km/h (1 Bft) 100,00 %
16.02.2018 06:03 0,1 C 4,4 C 97 % 1021,3 hPa 0,0 l/m 1,2 km/h (1 Bft) W 277 0 min 0,000 mm 0,0 UV-I 0 W/m -0,3 C 0,1 C 3,2 km/h (1 Bft) 100,00 %
16.02.2018 06:04 0,1 C 4,4 C 97 % 1021,3 hPa 0,0 l/m 1,1 km/h (1 Bft) W 277 0 min 0,000 mm 0,0 UV-I 0 W/m -0,3 C 0,1 C 3,2 km/h (1 Bft) 95,83 %
16.02.2018 06:05 0,1 C 4,4 C 97 % 1021,3 hPa 0,0 l/m 0,0 km/h (0 Bft) W 277 0 min 0,000 mm 0,0 UV-I 0 W/m -0,3 C 0,1 C 0,0 km/h (0 Bft) 100,00 %
16.02.2018 06:06 0,1 C 4,4 C 97 % 1021,3 hPa 0,0 l/m 0,1 km/h (0 Bft) W 277 0 min 0,000 mm 0,0 UV-I 0 W/m -0,3 C 0,1 C 1,6 km/h (1 Bft) 100,00 %
16.02.2018 06:07 0,1 C 4,4 C 97 % 1021,3 hPa 0,0 l/m 0,0 km/h (0 Bft) W 277 0 min 0,000 mm 0,0 UV-I 0 W/m -0,3 C 0,1 C 0,0 km/h (0 Bft) 91,30 %
16.02.2018 06:08 0,1 C 4,4 C 97 % 1021,3 hPa 0,0 l/m 0,1 km/h (0 Bft) W 277 0 min 0,000 mm 0,0 UV-I 0 W/m -0,3 C 0,1 C 1,6 km/h (1 Bft) 100,00 %
16.02.2018 06:09 0,1 C 4,4 C 98 % 1021,4 hPa 0,0 l/m 0,2 km/h (0 Bft) W 277 0 min 0,000 mm 0,0 UV-I 0 W/m -0,2 C 0,1 C 1,6 km/h (1 Bft) 96,15 %
16.02.2018 06:10 0,1 C 4,4 C 97 % 1021,4 hPa 0,0 l/m 0,4 km/h (0 Bft) W 277 0 min 0,000 mm 0,0 UV-I 0 W/m -0,3 C 0,1 C 1,6 km/h (1 Bft) 95,83 %
16.02.2018 06:11 0,1 C 4,4 C 97 % 1021,4 hPa 0,2 l/m 1,4 km/h (1 Bft) W 277 0 min 0,000 mm 0,0 UV-I 0 W/m -0,3 C 0,1 C 3,2 km/h (1 Bft) 100,00 %
16.02.2018 06:12 0,1 C 4,4 C 97 % 1021,5 hPa 0,0 l/m 1,2 km/h (1 Bft) W 277 0 min 0,000 mm 0,0 UV-I 0 W/m -0,3 C 0,1 C 1,6 km/h (1 Bft) 96,15 %
16.02.2018 06:13 0,1 C 4,4 C 97 % 1021,6 hPa 0,0 l/m 2,6 km/h (1 Bft) W 277 0 min 0,000 mm 0,0 UV-I 0 W/m -0,3 C 0,1 C 4,8 km/h (1 Bft) 100,00 %
16.02.2018 06:14 0,1 C 4,4 C 97 % 1021,6 hPa 0,0 l/m 2,8 km/h (1 Bft) W-NW 296 0 min 0,000 mm 0,0 UV-I 0 W/m -0,3 C 0,1 C 4,8 km/h (1 Bft) 96,15 %
16.02.2018 06:15 0,1 C 4,4 C 98 % 1021,6 hPa 0,0 l/m 1,3 km/h (1 Bft) W-NW 296 0 min 0,000 mm 0,0 UV-I 0 W/m -0,2 C 0,1 C 3,2 km/h (1 Bft) 100,00 %
16.02.2018 06:16 0,1 C 4,4 C 98 % 1021,7 hPa 0,0 l/m 2,7 km/h (1 Bft) W 265 0 min 0,000 mm 0,0 UV-I 0 W/m -0,2 C 0,1 C 4,8 km/h (1 Bft) 96,43 %
16.02.2018 06:17 0,1 C 4,4 C 98 % 1021,7 hPa 0,2 l/m 3,2 km/h (1 Bft) W-NW 296 0 min 0,000 mm 0,0 UV-I 0 W/m -0,2 C 0,1 C 4,8 km/h (1 Bft) 100,00 %
16.02.2018 06:18 0,1 C 4,4 C 98 % 1021,7 hPa 0,0 l/m 3,4 km/h (1 Bft) W-NW 284 0 min 0,000 mm 0,0 UV-I 0 W/m -0,2 C 0,1 C 4,8 km/h (1 Bft) 96,15 %
16.02.2018 06:19 0,1 C 4,4 C 98 % 1021,7 hPa 0,0 l/m 2,1 km/h (1 Bft) W-NW 284 0 min 0,000 mm 0,0 UV-I 0 W/m -0,2 C 0,1 C 3,2 km/h (1 Bft) 92,59 %
16.02.2018 06:20 0,1 C 4,4 C 98 % 1021,7 hPa 0,0 l/m 2,0 km/h (1 Bft) W-NW 303 0 min 0,000 mm 0,0 UV-I 0 W/m -0,2 C 0,1 C 4,8 km/h (1 Bft) 100,00 %
16.02.2018 06:21 0,1 C 4,4 C 98 % 1021,8 hPa 0,0 l/m 4,2 km/h (1 Bft) NW 306 0 min 0,000 mm 0,0 UV-I 0 W/m -0,2 C 0,1 C 6,4 km/h (2 Bft) 100,00 %
16.02.2018 06:22 0,1 C 4,4 C 98 % 1021,8 hPa 0,0 l/m 2,1 km/h (1 Bft) NW 306 0 min 0,000 mm 0,0 UV-I 0 W/m -0,2 C 0,1 C 3,2 km/h (1 Bft) 96,55 %
16.02.2018 06:23 0,1 C 4,4 C 98 % 1021,8 hPa 0,0 l/m 2,6 km/h (1 Bft) W-NW 298 0 min 0,000 mm 0,0 UV-I 0 W/m -0,2 C 0,1 C 3,2 km/h (1 Bft) 96,30 %
16.02.2018 06:24 0,1 C 4,4 C 98 % 1021,9 hPa 0,0 l/m 3,2 km/h (1 Bft) W-NW 298 0 min 0,000 mm 0,0 UV-I 0 W/m -0,2 C 0,1 C 4,8 km/h (1 Bft) 100,00 %
16.02.2018 06:25 0,1 C 4,4 C 98 % 1021,9 hPa 0,0 l/m 3,0 km/h (1 Bft) W-NW 297 0 min 0,000 mm 0,0 UV-I 0 W/m -0,2 C 0,1 C 4,8 km/h (1 Bft) 96,30 %
16.02.2018 06:26 0,1 C 4,4 C 98 % 1021,9 hPa 0,0 l/m 2,7 km/h (1 Bft) W-NW 297 0 min 0,000 mm 0,0 UV-I 0 W/m -0,2 C 0,1 C 4,8 km/h (1 Bft) 100,00 %
16.02.2018 06:27 0,1 C 4,4 C 98 % 1021,9 hPa 0,0 l/m 3,1 km/h (1 Bft) W-NW 291 0 min 0,000 mm 0,0 UV-I 0 W/m -0,2 C 0,1 C 3,2 km/h (1 Bft) 96,30 %
16.02.2018 06:28 0,1 C 4,4 C 98 % 1021,9 hPa 0,0 l/m 2,6 km/h (1 Bft) W-NW 291 0 min 0,000 mm 0,0 UV-I 0 W/m -0,2 C 0,1 C 3,2 km/h (1 Bft) 100,00 %
16.02.2018 06:29 0,1 C 4,4 C 98 % 1022,0 hPa 0,0 l/m 3,2 km/h (1 Bft) W-NW 288 0 min 0,000 mm 0,0 UV-I 0 W/m -0,2 C 0,1 C 4,8 km/h (1 Bft) 96,15 %
16.02.2018 06:30 0,1 C 4,4 C 98 % 1022,0 hPa 0,0 l/m 4,2 km/h (1 Bft) W-NW 284 0 min 0,000 mm 0,0 UV-I 0 W/m -0,2 C 0,1 C 6,4 km/h (2 Bft) 96,55 %
16.02.2018 06:31 0,1 C 4,4 C 98 % 1022,1 hPa 0,0 l/m 3,7 km/h (1 Bft) W-NW 283 0 min 0,000 mm 0,0 UV-I 0 W/m -0,2 C 0,1 C 4,8 km/h (1 Bft) 100,00 %
16.02.2018 06:32 0,1 C 4,4 C 98 % 1022,1 hPa 0,0 l/m 4,0 km/h (1 Bft) W 270 0 min 0,000 mm 0,0 UV-I 0 W/m -0,2 C 0,1 C 6,4 km/h (2 Bft) 96,30 %
16.02.2018 06:33 0,1 C 4,4 C 98 % 1022,0 hPa 0,0 l/m 2,7 km/h (1 Bft) W 270 0 min 0,000 mm 0,0 UV-I 0 W/m -0,2 C 0,1 C 3,2 km/h (1 Bft) 100,00 %
16.02.2018 06:34 0,1 C 4,4 C 98 % 1022,0 hPa 0,0 l/m 2,8 km/h (1 Bft) W 270 0 min 0,000 mm 0,0 UV-I 0 W/m -0,2 C 0,1 C 4,8 km/h (1 Bft) 91,67 %
16.02.2018 06:35 0,1 C 4,4 C 98 % 1022,1 hPa 0,0 l/m 4,8 km/h (1 Bft) W 271 0 min 0,000 mm 0,0 UV-I 0 W/m -0,2 C 0,1 C 6,4 km/h (2 Bft) 100,00 %
16.02.2018 06:36 0,1 C 4,4 C 98 % 1022,2 hPa 0,0 l/m 4,2 km/h (1 Bft) W 268 0 min 0,000 mm 0,0 UV-I 0 W/m -0,2 C 0,1 C 4,8 km/h (1 Bft) 91,67 %
16.02.2018 06:37 0,2 C 4,4 C 98 % 1022,2 hPa 0,2 l/m 3,3 km/h (1 Bft) W 268 0 min 0,000 mm 0,0 UV-I 0 W/m -0,1 C 0,2 C 4,8 km/h (1 Bft) 95,65 %
16.02.2018 06:38 0,2 C 4,4 C 98 % 1022,2 hPa 0,0 l/m 4,3 km/h (1 Bft) W 269 0 min 0,000 mm 0,0 UV-I 0 W/m -0,1 C 0,2 C 6,4 km/h (2 Bft) 100,00 %
16.02.2018 06:39 0,1 C 4,4 C 98 % 1022,2 hPa 0,0 l/m 5,6 km/h (1 Bft) W 269 0 min 0,000 mm 0,0 UV-I 0 W/m -0,2 C 0,1 C 6,4 km/h (2 Bft) 96,15 %
16.02.2018 06:40 0,1 C 4,4 C 98 % 1022,4 hPa 0,0 l/m 4,9 km/h (1 Bft) W 262 0 min 0,000 mm 0,0 UV-I 0 W/m -0,2 C 0,1 C 6,4 km/h (2 Bft) 100,00 %
16.02.2018 06:41 0,2 C 4,4 C 98 % 1022,3 hPa 0,0 l/m 3,5 km/h (1 Bft) W 262 0 min 0,000 mm 0,0 UV-I 0 W/m -0,1 C 0,2 C 4,8 km/h (1 Bft) 85,71 %
16.02.2018 06:42 0,2 C 4,4 C 98 % 1022,4 hPa 0,0 l/m 3,7 km/h (1 Bft) W 261 0 min 0,000 mm 0,0 UV-I 0 W/m -0,1 C 0,2 C 4,8 km/h (1 Bft) 100,00 %
16.02.2018 06:43 0,2 C 4,4 C 98 % 1022,4 hPa 0,0 l/m 3,6 km/h (1 Bft) SW 234 0 min 0,000 mm 0,0 UV-I 0 W/m -0,1 C 0,2 C 6,4 km/h (2 Bft) 100,00 %
16.02.2018 06:44 0,2 C 4,4 C 98 % 1022,4 hPa 0,0 l/m 3,2 km/h (1 Bft) W-SW 245 0 min 0,000 mm 0,0 UV-I 0 W/m -0,1 C 0,2 C 4,8 km/h (1 Bft) 95,83 %
16.02.2018 06:45 0,2 C 4,4 C 98 % 1022,4 hPa 0,0 l/m 4,1 km/h (1 Bft) W-SW 238 0 min 0,000 mm 0,0 UV-I 0 W/m -0,1 C 0,2 C 6,4 km/h (2 Bft) 94,12 %
16.02.2018 06:46 0,2 C 4,4 C 98 % 1022,5 hPa 0,0 l/m 4,7 km/h (1 Bft) W-SW 241 0 min 0,000 mm 0,0 UV-I 0 W/m -0,1 C 0,2 C 6,4 km/h (2 Bft) 100,00 %
16.02.2018 06:47 0,2 C 4,4 C 98 % 1022,5 hPa 0,0 l/m 6,3 km/h (2 Bft) SW 232 0 min 0,000 mm 0,0 UV-I 0 W/m -0,1 C 0,2 C 9,7 km/h (2 Bft) 100,00 %
16.02.2018 06:48 0,1 C 4,4 C 98 % 1022,5 hPa 0,0 l/m 6,8 km/h (2 Bft) W-SW 237 0 min 0,000 mm 0,0 UV-I 0 W/m -0,2 C -0,3 C 9,7 km/h (2 Bft) 96,30 %
16.02.2018 06:49 0,1 C 4,4 C 98 % 1022,5 hPa 0,0 l/m 4,9 km/h (1 Bft) W-SW 237 0 min 0,000 mm 0,0 UV-I 0 W/m -0,2 C 0,1 C 8,0 km/h (2 Bft) 96,15 %
16.02.2018 06:50 0,2 C 4,4 C 98 % 1022,5 hPa 0,2 l/m 5,4 km/h (1 Bft) W-SW 239 0 min 0,000 mm 0,0 UV-I 0 W/m -0,1 C 0,2 C 8,0 km/h (2 Bft) 91,67 %
16.02.2018 06:51 0,1 C 4,4 C 98 % 1022,5 hPa 0,0 l/m 5,6 km/h (1 Bft) SW 229 0 min 0,000 mm 0,0 UV-I 0 W/m -0,2 C 0,1 C 8,0 km/h (2 Bft) 100,00 %
16.02.2018 06:52 0,2 C 4,4 C 98 % 1022,5 hPa 0,0 l/m 3,8 km/h (1 Bft) SW 229 0 min 0,000 mm 0,0 UV-I 0 W/m -0,1 C 0,2 C 6,4 km/h (2 Bft) 100,00 %
16.02.2018 06:53 0,2 C 4,4 C 98 % 1022,5 hPa 0,0 l/m 3,5 km/h (1 Bft) SW 226 0 min 0,000 mm 0,0 UV-I 0 W/m -0,1 C 0,2 C 6,4 km/h (2 Bft) 100,00 %
16.02.2018 06:54 0,2 C 4,4 C 98 % 1022,5 hPa 0,0 l/m 2,9 km/h (1 Bft) SW 226 0 min 0,000 mm 0,0 UV-I 0 W/m -0,1 C 0,2 C 6,4 km/h (2 Bft) 95,65 %
16.02.2018 06:55 0,2 C 4,4 C 98 % 1022,5 hPa 0,0 l/m 3,8 km/h (1 Bft) SW 229 0 min 0,000 mm 0,0 UV-I 0 W/m -0,1 C 0,2 C 4,8 km/h (1 Bft) 100,00 %
16.02.2018 06:56 0,2 C 4,4 C 98 % 1022,5 hPa 0,0 l/m 4,5 km/h (1 Bft) SW 219 0 min 0,000 mm 0,0 UV-I 0 W/m -0,1 C 0,2 C 6,4 km/h (2 Bft) 94,12 %
16.02.2018 06:57 0,2 C 4,4 C 98 % 1022,6 hPa 0,0 l/m 6,4 km/h (2 Bft) S-SW 209 0 min 0,000 mm 0,0 UV-I 0 W/m -0,1 C 0,2 C 8,0 km/h (2 Bft) 100,00 %
16.02.2018 06:58 0,2 C 4,4 C 98 % 1022,6 hPa 0,0 l/m 5,4 km/h (1 Bft) S-SW 210 0 min 0,000 mm 0,0 UV-I 0 W/m -0,1 C 0,2 C 6,4 km/h (2 Bft) 100,00 %
16.02.2018 06:59 0,2 C 4,4 C 98 % 1022,6 hPa 0,0 l/m 6,0 km/h (2 Bft) S-SW 212 0 min 0,000 mm 0,0 UV-I 0 W/m -0,1 C 0,2 C 8,0 km/h (2 Bft) 100,00 %
16.02.2018 07:00 0,2 C 4,4 C 98 % 1022,7 hPa 0,0 l/m 7,1 km/h (2 Bft) SW 225 0 min 0,000 mm 0,0 UV-I 0 W/m -0,1 C -0,5 C 9,7 km/h (2 Bft) 100,00 %
16.02.2018 07:01 0,2 C 4,4 C 98 % 1022,7 hPa 0,0 l/m 6,4 km/h (2 Bft) S-SW 200 0 min 0,000 mm 0,0 UV-I 0 W/m -0,1 C 0,2 C 9,7 km/h (2 Bft) 100,00 %
16.02.2018 07:02 0,2 C 4,4 C 98 % 1022,7 hPa 0,0 l/m 6,7 km/h (2 Bft) S-SW 212 0 min 0,000 mm 0,0 UV-I 0 W/m -0,1 C -0,1 C 9,7 km/h (2 Bft) 96,15 %
16.02.2018 07:03 0,2 C 4,4 C 98 % 1022,7 hPa 0,0 l/m 6,2 km/h (2 Bft) SW 236 0 min 0,000 mm 0,0 UV-I 0 W/m -0,1 C 0,2 C 9,7 km/h (2 Bft) 100,00 %
16.02.2018 07:04 0,2 C 4,4 C 98 % 1022,8 hPa 0,0 l/m 7,1 km/h (2 Bft) SW 219 0 min 0,000 mm 0,0 UV-I 0 W/m -0,1 C -0,5 C 9,7 km/h (2 Bft) 100,00 %
16.02.2018 07:05 0,2 C 4,4 C 98 % 1022,8 hPa 0,2 l/m 6,8 km/h (2 Bft) SW 234 0 min 0,000 mm 0,0 UV-I 0 W/m -0,1 C -0,2 C 9,7 km/h (2 Bft) 100,00 %
16.02.2018 07:06 0,2 C 4,4 C 98 % 1022,9 hPa 0,0 l/m 5,1 km/h (1 Bft) S-SW 204 0 min 0,000 mm 0,0 UV-I 0 W/m -0,1 C 0,2 C 8,0 km/h (2 Bft) 100,00 %
16.02.2018 07:07 0,2 C 4,4 C 98 % 1022,9 hPa 0,0 l/m 7,0 km/h (2 Bft) SW 232 0 min 0,000 mm 0,0 UV-I 0 W/m -0,1 C -0,4 C 8,0 km/h (2 Bft) 100,00 %
16.02.2018 07:08 0,2 C 4,4 C 98 % 1022,9 hPa 0,0 l/m 8,2 km/h (2 Bft) SW 230 0 min 0,000 mm 0,0 UV-I 0 W/m -0,1 C -1,6 C 9,7 km/h (2 Bft) 100,00 %
16.02.2018 07:09 0,2 C 4,4 C 98 % 1022,9 hPa 0,0 l/m 6,6 km/h (2 Bft) SW 217 0 min 0,000 mm 0,0 UV-I 0 W/m -0,1 C 0,0 C 8,0 km/h (2 Bft) 100,00 %
16.02.2018 07:10 0,2 C 4,4 C 98 % 1022,9 hPa 0,0 l/m 6,1 km/h (2 Bft) SW 223 0 min 0,000 mm 0,0 UV-I 0 W/m -0,1 C 0,2 C 9,7 km/h (2 Bft) 100,00 %
16.02.2018 07:11 0,2 C 4,4 C 98 % 1022,9 hPa 0,0 l/m 6,3 km/h (2 Bft) SW 226 0 min 0,000 mm 0,0 UV-I 0 W/m -0,1 C 0,2 C 9,7 km/h (2 Bft) 100,00 %
16.02.2018 07:12 0,2 C 4,4 C 98 % 1022,9 hPa 0,0 l/m 5,8 km/h (2 Bft) S-SW 211 0 min 0,000 mm 0,0 UV-I 0 W/m -0,1 C 0,2 C 8,0 km/h (2 Bft) 100,00 %
16.02.2018 07:13 0,2 C 4,4 C 98 % 1022,9 hPa 0,0 l/m 5,6 km/h (1 Bft) S-SW 213 0 min 0,000 mm 0,0 UV-I 0 W/m -0,1 C 0,2 C 8,0 km/h (2 Bft) 100,00 %
16.02.2018 07:14 0,2 C 4,4 C 98 % 1023,0 hPa 0,0 l/m 6,5 km/h (2 Bft) SW 214 0 min 0,000 mm 0,0 UV-I 4 W/m -0,1 C 0,1 C 8,0 km/h (2 Bft) 93,33 %
16.02.2018 07:15 0,2 C 4,4 C 98 % 1022,9 hPa 0,0 l/m 6,2 km/h (2 Bft) S-SW 209 0 min 0,000 mm 0,0 UV-I 5 W/m -0,1 C 0,2 C 9,7 km/h (2 Bft) 95,65 %
16.02.2018 07:16 0,2 C 4,4 C 98 % 1023,0 hPa 0,0 l/m 6,0 km/h (2 Bft) SW 227 0 min 0,000 mm 0,0 UV-I 5 W/m -0,1 C 0,2 C 8,0 km/h (2 Bft) 100,00 %
16.02.2018 07:17 0,3 C 4,4 C 98 % 1023,0 hPa 0,0 l/m 4,8 km/h (1 Bft) S-SW 212 0 min 0,000 mm 0,0 UV-I 5 W/m 0,0 C 0,3 C 8,0 km/h (2 Bft) 95,65 %
16.02.2018 07:18 0,3 C 4,4 C 98 % 1023,0 hPa 0,0 l/m 5,5 km/h (1 Bft) SW 221 0 min 0,000 mm 0,0 UV-I 5 W/m 0,0 C 0,3 C 11,3 km/h (2 Bft) 100,00 %
16.02.2018 07:19 0,3 C 4,4 C 98 % 1023,1 hPa 0,0 l/m 6,8 km/h (2 Bft) SW 236 0 min 0,000 mm 0,0 UV-I 5 W/m 0,0 C -0,1 C 12,9 km/h (3 Bft) 100,00 %
16.02.2018 07:20 0,3 C 4,4 C 98 % 1023,1 hPa 0,0 l/m 7,9 km/h (2 Bft) SW 224 0 min 0,000 mm 0,0 UV-I 5 W/m 0,0 C -1,2 C 11,3 km/h (2 Bft) 100,00 %
16.02.2018 07:21 0,3 C 4,4 C 98 % 1023,1 hPa 0,0 l/m 5,9 km/h (2 Bft) SW 219 0 min 0,000 mm 0,0 UV-I 5 W/m 0,0 C 0,3 C 8,0 km/h (2 Bft) 100,00 %
16.02.2018 07:22 0,3 C 4,4 C 98 % 1023,1 hPa 0,0 l/m 8,2 km/h (2 Bft) SW 215 0 min 0,000 mm 0,0 UV-I 5 W/m 0,0 C -1,5 C 11,3 km/h (2 Bft) 100,00 %
16.02.2018 07:23 0,3 C 4,4 C 98 % 1023,1 hPa 0,0 l/m 6,8 km/h (2 Bft) SW 217 0 min 0,000 mm 0,0 UV-I 5 W/m 0,0 C -0,1 C 11,3 km/h (2 Bft) 100,00 %
16.02.2018 07:24 0,3 C 4,4 C 98 % 1023,2 hPa 0,0 l/m 7,1 km/h (2 Bft) SW 215 0 min 0,000 mm 0,0 UV-I 5 W/m 0,0 C -0,4 C 9,7 km/h (2 Bft) 100,00 %
16.02.2018 07:25 0,3 C 4,4 C 98 % 1023,2 hPa 0,0 l/m 8,0 km/h (2 Bft) S-SW 212 0 min 0,000 mm 0,0 UV-I 5 W/m 0,0 C -1,3 C 9,7 km/h (2 Bft) 100,00 %
16.02.2018 07:26 0,3 C 4,4 C 98 % 1023,2 hPa 0,0 l/m 6,7 km/h (2 Bft) SW 219 0 min 0,000 mm 0,0 UV-I 5 W/m 0,0 C 0,0 C 11,3 km/h (2 Bft) 100,00 %
16.02.2018 07:27 0,3 C 4,4 C 98 % 1023,2 hPa 0,0 l/m 6,5 km/h (2 Bft) SW 222 0 min 0,000 mm 0,0 UV-I 5 W/m 0,0 C 0,2 C 9,7 km/h (2 Bft) 100,00 %
16.02.2018 07:28 0,3 C 4,4 C 98 % 1023,1 hPa 0,0 l/m 7,6 km/h (2 Bft) SW 216 0 min 0,000 mm 0,0 UV-I 5 W/m 0,0 C -0,9 C 9,7 km/h (2 Bft) 100,00 %
16.02.2018 07:29 0,3 C 4,4 C 98 % 1023,1 hPa 0,0 l/m 8,5 km/h (2 Bft) SW 219 0 min 0,000 mm 0,0 UV-I 7 W/m 0,0 C -1,8 C 11,3 km/h (2 Bft) 100,00 %
16.02.2018 07:30 0,3 C 4,4 C 98 % 1023,1 hPa 0,0 l/m 8,1 km/h (2 Bft) S 183 0 min 0,000 mm 0,0 UV-I 7 W/m 0,0 C -1,4 C 12,9 km/h (3 Bft) 100,00 %
16.02.2018 07:31 0,3 C 4,4 C 98 % 1023,2 hPa 0,2 l/m 7,8 km/h (2 Bft) SW 223 0 min 0,000 mm 0,0 UV-I 8 W/m 0,0 C -1,1 C 12,9 km/h (3 Bft) 100,00 %
16.02.2018 07:32 0,3 C 4,4 C 98 % 1023,1 hPa 0,0 l/m 8,9 km/h (2 Bft) S 190 0 min 0,000 mm 0,0 UV-I 10 W/m 0,0 C -2,2 C 12,9 km/h (3 Bft) 100,00 %
16.02.2018 07:33 0,3 C 4,4 C 98 % 1023,1 hPa 0,0 l/m 8,2 km/h (2 Bft) S-SW 211 0 min 0,000 mm 0,0 UV-I 11 W/m 0,0 C -1,5 C 11,3 km/h (2 Bft) 100,00 %
16.02.2018 07:34 0,4 C 4,4 C 98 % 1023,2 hPa 0,0 l/m 7,4 km/h (2 Bft) SW 232 0 min 0,000 mm 0,0 UV-I 12 W/m 0,1 C -0,6 C 9,7 km/h (2 Bft) 100,00 %
16.02.2018 07:35 0,4 C 4,4 C 98 % 1023,2 hPa 0,0 l/m 9,2 km/h (2 Bft) SW 216 0 min 0,000 mm 0,0 UV-I 12 W/m 0,1 C -2,3 C 12,9 km/h (3 Bft) 96,30 %
16.02.2018 07:36 0,4 C 4,4 C 98 % 1023,2 hPa 0,0 l/m 8,2 km/h (2 Bft) S-SW 209 0 min 0,000 mm 0,0 UV-I 12 W/m 0,1 C -1,4 C 9,7 km/h (2 Bft) 100,00 %
16.02.2018 07:37 0,4 C 4,4 C 98 % 1023,2 hPa 0,0 l/m 6,6 km/h (2 Bft) SW 228 0 min 0,000 mm 0,0 UV-I 11 W/m 0,1 C 0,2 C 8,0 km/h (2 Bft) 100,00 %
16.02.2018 07:38 0,4 C 4,4 C 98 % 1023,2 hPa 0,0 l/m 8,8 km/h (2 Bft) S-SW 213 0 min 0,000 mm 0,0 UV-I 11 W/m 0,1 C -2,0 C 12,9 km/h (3 Bft) 100,00 %
16.02.2018 07:39 0,4 C 4,4 C 98 % 1023,2 hPa 0,0 l/m 7,9 km/h (2 Bft) S-SW 211 0 min 0,000 mm 0,0 UV-I 11 W/m 0,1 C -1,1 C 11,3 km/h (2 Bft) 100,00 %
16.02.2018 07:40 0,4 C 4,4 C 98 % 1023,2 hPa 0,0 l/m 8,9 km/h (2 Bft) SW 222 0 min 0,000 mm 0,0 UV-I 11 W/m 0,1 C -2,1 C 12,9 km/h (3 Bft) 95,65 %
16.02.2018 07:41 0,4 C 4,4 C 98 % 1023,3 hPa 0,0 l/m 8,6 km/h (2 Bft) SW 223 0 min 0,000 mm 0,0 UV-I 11 W/m 0,1 C -1,8 C 12,9 km/h (3 Bft) 100,00 %
16.02.2018 07:42 0,4 C 4,4 C 98 % 1023,3 hPa 0,0 l/m 6,6 km/h (2 Bft) SW 230 0 min 0,000 mm 0,0 UV-I 11 W/m 0,1 C 0,2 C 11,3 km/h (2 Bft) 100,00 %
16.02.2018 07:43 0,4 C 4,4 C 98 % 1023,3 hPa 0,0 l/m 6,0 km/h (2 Bft) SW 227 0 min 0,000 mm 0,0 UV-I 12 W/m 0,1 C 0,4 C 9,7 km/h (2 Bft) 100,00 %
16.02.2018 07:44 0,4 C 4,4 C 98 % 1023,2 hPa 0,0 l/m 6,4 km/h (2 Bft) SW 231 0 min 0,000 mm 0,0 UV-I 14 W/m 0,1 C 0,4 C 8,0 km/h (2 Bft) 100,00 %
16.02.2018 07:45 0,5 C 4,4 C 98 % 1023,2 hPa 0,0 l/m 5,7 km/h (1 Bft) W-SW 248 0 min 0,000 mm 0,0 UV-I 16 W/m 0,2 C 0,5 C 8,0 km/h (2 Bft) 100,00 %
16.02.2018 07:46 0,5 C 4,4 C 98 % 1023,1 hPa 0,0 l/m 6,0 km/h (2 Bft) SW 214 0 min 0,000 mm 0,0 UV-I 18 W/m 0,2 C 0,5 C 8,0 km/h (2 Bft) 100,00 %
16.02.2018 07:47 0,5 C 4,4 C 98 % 1023,1 hPa 0,0 l/m 3,8 km/h (1 Bft) S-SW 211 0 min 0,000 mm 0,0 UV-I 21 W/m 0,2 C 0,5 C 4,8 km/h (1 Bft) 95,83 %
16.02.2018 07:48 0,5 C 4,4 C 98 % 1023,1 hPa 0,0 l/m 5,6 km/h (1 Bft) S-SW 203 0 min 0,000 mm 0,0 UV-I 21 W/m 0,2 C 0,5 C 9,7 km/h (2 Bft) 100,00 %
16.02.2018 07:49 0,5 C 4,4 C 98 % 1023,1 hPa 0,0 l/m 5,8 km/h (2 Bft) SW 223 0 min 0,000 mm 0,0 UV-I 21 W/m 0,2 C 0,5 C 8,0 km/h (2 Bft) 100,00 %
16.02.2018 07:50 0,5 C 4,4 C 98 % 1023,1 hPa 0,0 l/m 3,6 km/h (1 Bft) SW 222 0 min 0,000 mm 0,0 UV-I 21 W/m 0,2 C 0,5 C 4,8 km/h (1 Bft) 100,00 %
16.02.2018 07:51 0,5 C 4,4 C 98 % 1023,1 hPa 0,0 l/m 3,4 km/h (1 Bft) SW 227 0 min 0,000 mm 0,0 UV-I 23 W/m 0,2 C 0,5 C 4,8 km/h (1 Bft) 100,00 %
16.02.2018 07:52 0,5 C 4,4 C 98 % 1023,1 hPa 0,0 l/m 3,8 km/h (1 Bft) SW 223 0 min 0,000 mm 0,0 UV-I 26 W/m 0,2 C 0,5 C 4,8 km/h (1 Bft) 100,00 %
16.02.2018 07:53 0,6 C 4,4 C 98 % 1023,2 hPa 0,0 l/m 2,9 km/h (1 Bft) SW 223 0 min 0,000 mm 0,0 UV-I 25 W/m 0,3 C 0,6 C 4,8 km/h (1 Bft) 100,00 %
16.02.2018 07:54 0,6 C 4,4 C 98 % 1023,3 hPa 0,2 l/m 2,4 km/h (1 Bft) SW 223 0 min 0,000 mm 0,0 UV-I 22 W/m 0,3 C 0,6 C 3,2 km/h (1 Bft) 100,00 %
16.02.2018 07:55 0,6 C 4,4 C 98 % 1023,3 hPa 0,0 l/m 3,8 km/h (1 Bft) SW 217 0 min 0,000 mm 0,0 UV-I 21 W/m 0,3 C 0,6 C 6,4 km/h (2 Bft) 100,00 %
16.02.2018 07:56 0,6 C 4,4 C 98 % 1023,4 hPa 0,0 l/m 2,7 km/h (1 Bft) SW 217 0 min 0,000 mm 0,0 UV-I 21 W/m 0,3 C 0,6 C 3,2 km/h (1 Bft) 100,00 %
16.02.2018 07:57 0,6 C 4,4 C 98 % 1023,4 hPa 0,0 l/m 3,9 km/h (1 Bft) SW 230 0 min 0,000 mm 0,0 UV-I 21 W/m 0,3 C 0,6 C 4,8 km/h (1 Bft) 100,00 %
16.02.2018 07:58 0,7 C 4,4 C 98 % 1023,4 hPa 0,0 l/m 4,1 km/h (1 Bft) SW 226 0 min 0,000 mm 0,0 UV-I 25 W/m 0,4 C 0,7 C 4,8 km/h (1 Bft) 100,00 %
16.02.2018 07:59 0,7 C 4,4 C 98 % 1023,4 hPa 0,0 l/m 4,0 km/h (1 Bft) SW 229 0 min 0,000 mm 0,0 UV-I 26 W/m 0,4 C 0,7 C 4,8 km/h (1 Bft) 100,00 %
16.02.2018 08:00 0,7 C 4,4 C 98 % 1023,4 hPa 0,0 l/m 4,0 km/h (1 Bft) SW 229 0 min 0,000 mm 0,0 UV-I 26 W/m 0,4 C 0,7 C 4,8 km/h (1 Bft) 100,00 %
16.02.2018 08:01 0,7 C 4,4 C 98 % 1023,5 hPa 0,0 l/m 4,3 km/h (1 Bft) SW 220 0 min 0,000 mm 0,0 UV-I 26 W/m 0,4 C 0,7 C 6,4 km/h (2 Bft) 96,55 %
16.02.2018 08:02 0,7 C 4,4 C 98 % 1023,5 hPa 0,0 l/m 4,2 km/h (1 Bft) SW 236 0 min 0,000 mm 0,0 UV-I 24 W/m 0,4 C 0,7 C 4,8 km/h (1 Bft) 100,00 %
16.02.2018 08:03 0,7 C 4,4 C 98 % 1023,6 hPa 0,0 l/m 4,2 km/h (1 Bft) W-SW 248 0 min 0,000 mm 0,0 UV-I 21 W/m 0,4 C 0,7 C 4,8 km/h (1 Bft) 100,00 %
16.02.2018 08:04 0,7 C 4,4 C 98 % 1023,7 hPa 0,0 l/m 5,3 km/h (1 Bft) W 271 0 min 0,000 mm 0,0 UV-I 20 W/m 0,4 C 0,7 C 6,4 km/h (2 Bft) 96,30 %
16.02.2018 08:05 0,7 C 4,4 C 98 % 1023,7 hPa 0,0 l/m 5,8 km/h (2 Bft) W 269 0 min 0,000 mm 0,0 UV-I 19 W/m 0,4 C 0,7 C 6,4 km/h (2 Bft) 100,00 %
16.02.2018 08:06 0,7 C 4,4 C 98 % 1023,7 hPa 0,0 l/m 6,3 km/h (2 Bft) W 275 0 min 0,000 mm 0,0 UV-I 19 W/m 0,4 C 0,7 C 9,7 km/h (2 Bft) 100,00 %
16.02.2018 08:07 0,7 C 4,4 C 98 % 1023,8 hPa 0,0 l/m 6,4 km/h (2 Bft) W 272 0 min 0,000 mm 0,0 UV-I 19 W/m 0,4 C 0,7 C 9,7 km/h (2 Bft) 100,00 %
16.02.2018 08:08 0,6 C 4,4 C 98 % 1023,8 hPa 0,0 l/m 5,3 km/h (1 Bft) W 273 0 min 0,000 mm 0,0 UV-I 18 W/m 0,3 C 0,6 C 6,4 km/h (2 Bft) 100,00 %
16.02.2018 08:09 0,6 C 4,4 C 98 % 1023,9 hPa 0,0 l/m 6,2 km/h (2 Bft) W 260 0 min 0,000 mm 0,0 UV-I 19 W/m 0,3 C 0,6 C 9,7 km/h (2 Bft) 100,00 %
16.02.2018 08:10 0,7 C 4,4 C 98 % 1023,8 hPa 0,0 l/m 7,2 km/h (2 Bft) W 270 0 min 0,000 mm 0,0 UV-I 24 W/m 0,4 C -0,1 C 9,7 km/h (2 Bft) 100,00 %
16.02.2018 08:11 0,7 C 4,4 C 98 % 1023,9 hPa 0,0 l/m 6,9 km/h (2 Bft) W 265 0 min 0,000 mm 0,0 UV-I 25 W/m 0,4 C 0,2 C 9,7 km/h (2 Bft) 100,00 %
16.02.2018 08:12 0,7 C 4,4 C 98 % 1023,9 hPa 0,0 l/m 8,2 km/h (2 Bft) W 267 0 min 0,000 mm 0,0 UV-I 26 W/m 0,4 C -1,1 C 11,3 km/h (2 Bft) 100,00 %
16.02.2018 08:13 0,7 C 4,4 C 98 % 1023,9 hPa 0,0 l/m 8,7 km/h (2 Bft) W 265 0 min 0,000 mm 0,0 UV-I 26 W/m 0,4 C -1,6 C 11,3 km/h (2 Bft) 96,30 %
16.02.2018 08:14 0,8 C 4,4 C 98 % 1023,9 hPa 0,0 l/m 9,3 km/h (2 Bft) W-NW 286 0 min 0,000 mm 0,0 UV-I 25 W/m 0,5 C -2,0 C 12,9 km/h (3 Bft) 96,15 %
16.02.2018 08:15 0,8 C 4,4 C 98 % 1023,9 hPa 0,0 l/m 8,1 km/h (2 Bft) W 277 0 min 0,000 mm 0,0 UV-I 23 W/m 0,5 C -0,9 C 11,3 km/h (2 Bft) 100,00 %
16.02.2018 08:16 0,8 C 4,4 C 98 % 1023,9 hPa 0,0 l/m 8,8 km/h (2 Bft) W 259 0 min 0,000 mm 0,0 UV-I 26 W/m 0,5 C -1,5 C 12,9 km/h (3 Bft) 95,65 %
16.02.2018 08:17 0,8 C 4,4 C 98 % 1023,9 hPa 0,0 l/m 8,4 km/h (2 Bft) W 274 0 min 0,000 mm 0,0 UV-I 32 W/m 0,5 C -1,2 C 11,3 km/h (2 Bft) 100,00 %
16.02.2018 08:18 0,8 C 4,4 C 98 % 1023,9 hPa 0,0 l/m 7,1 km/h (2 Bft) W 278 0 min 0,000 mm 0,0 UV-I 35 W/m 0,5 C 0,1 C 11,3 km/h (2 Bft) 96,15 %
16.02.2018 08:19 0,8 C 4,4 C 98 % 1024,0 hPa 0,0 l/m 7,4 km/h (2 Bft) W 273 0 min 0,000 mm 0,0 UV-I 33 W/m 0,5 C -0,2 C 9,7 km/h (2 Bft) 96,30 %
16.02.2018 08:20 0,8 C 4,4 C 98 % 1023,9 hPa 0,2 l/m 7,0 km/h (2 Bft) W 277 0 min 0,000 mm 0,0 UV-I 35 W/m 0,5 C 0,2 C 11,3 km/h (2 Bft) 100,00 %
16.02.2018 08:21 0,8 C 4,4 C 98 % 1023,9 hPa 0,0 l/m 10,5 km/h (2 Bft) W 261 0 min 0,000 mm 0,0 UV-I 44 W/m 0,5 C -3,0 C 14,5 km/h (3 Bft) 96,30 %
16.02.2018 08:22 0,9 C 4,4 C 98 % 1023,9 hPa 0,0 l/m 9,2 km/h (2 Bft) W 276 0 min 0,000 mm 0,0 UV-I 47 W/m 0,6 C -1,8 C 11,3 km/h (2 Bft) 92,31 %
16.02.2018 08:23 1,0 C 4,4 C 98 % 1023,9 hPa 0,0 l/m 8,0 km/h (2 Bft) W-NW 283 0 min 0,000 mm 0,0 UV-I 49 W/m 0,7 C -0,6 C 12,9 km/h (3 Bft) 95,83 %
16.02.2018 08:24 1,0 C 4,4 C 98 % 1023,9 hPa 0,0 l/m 6,1 km/h (2 Bft) W 281 0 min 0,000 mm 0,0 UV-I 50 W/m 0,7 C 1,0 C 9,7 km/h (2 Bft) 96,15 %
16.02.2018 08:25 1,1 C 4,4 C 98 % 1023,8 hPa 0,0 l/m 5,4 km/h (1 Bft) W 279 0 min 0,000 mm 0,0 UV-I 53 W/m 0,8 C 1,1 C 9,7 km/h (2 Bft) 95,83 %
16.02.2018 08:26 1,0 C 4,4 C 98 % 1023,8 hPa 0,0 l/m 4,4 km/h (1 Bft) W 275 0 min 0,000 mm 0,0 UV-I 54 W/m 0,7 C 1,0 C 6,4 km/h (2 Bft) 97,24 %
16.02.2018 08:27 1,0 C 4,4 C 98 % 1023,9 hPa 0,0 l/m 4,4 km/h (1 Bft) W 275 0 min 0,000 mm 0,0 UV-I 54 W/m 0,7 C 1,0 C 6,4 km/h (2 Bft) 92,11 %
16.02.2018 08:28 0,9 C 4,4 C 98 % 1023,9 hPa 0,0 l/m 5,2 km/h (1 Bft) W 281 0 min 0,000 mm 0,0 UV-I 54 W/m 0,6 C 0,9 C 6,4 km/h (2 Bft) 95,83 %
16.02.2018 08:29 1,0 C 4,4 C 98 % 1024,0 hPa 0,0 l/m 5,5 km/h (1 Bft) W 265 0 min 0,000 mm 0,0 UV-I 56 W/m 0,7 C 1,0 C 6,4 km/h (2 Bft) 95,65 %
16.02.2018 08:30 1,0 C 4,4 C 98 % 1024,0 hPa 0,0 l/m 7,2 km/h (2 Bft) W 261 0 min 0,000 mm 0,0 UV-I 54 W/m 0,7 C 0,2 C 9,7 km/h (2 Bft) 87,50 %
16.02.2018 08:31 1,1 C 4,4 C 98 % 1024,1 hPa 0,0 l/m 7,2 km/h (2 Bft) W-SW 257 0 min 0,000 mm 0,0 UV-I 49 W/m 0,8 C 0,3 C 11,3 km/h (2 Bft) 100,00 %
16.02.2018 08:32 1,1 C 4,4 C 98 % 1024,1 hPa 0,0 l/m 9,8 km/h (2 Bft) W 264 0 min 0,000 mm 0,0 UV-I 47 W/m 0,8 C -2,1 C 11,3 km/h (2 Bft) 92,59 %
16.02.2018 08:33 1,1 C 4,4 C 98 % 1024,1 hPa 0,2 l/m 7,8 km/h (2 Bft) W-SW 242 0 min 0,000 mm 0,0 UV-I 51 W/m 0,8 C -0,3 C 11,3 km/h (2 Bft) 100,00 %
16.02.2018 08:34 1,1 C 4,4 C 98 % 1024,1 hPa 0,0 l/m 9,6 km/h (2 Bft) W 273 0 min 0,000 mm 0,0 UV-I 56 W/m 0,8 C -1,9 C 12,9 km/h (3 Bft) 92,59 %
16.02.2018 08:35 1,2 C 4,4 C 98 % 1024,1 hPa 0,0 l/m 9,3 km/h (2 Bft) W 277 0 min 0,000 mm 0,0 UV-I 65 W/m 0,9 C -1,5 C 12,9 km/h (3 Bft) 100,00 %
16.02.2018 08:36 1,2 C 4,4 C 98 % 1024,1 hPa 0,0 l/m 10,5 km/h (2 Bft) W 278 0 min 0,000 mm 0,0 UV-I 69 W/m 0,9 C -2,5 C 12,9 km/h (3 Bft) 95,12 %
16.02.2018 08:37 1,2 C 4,4 C 98 % 1024,2 hPa 0,0 l/m 11,2 km/h (2 Bft) W 261 0 min 0,000 mm 0,0 UV-I 63 W/m 0,9 C -3,0 C 14,5 km/h (3 Bft) 100,00 %
16.02.2018 08:38 1,2 C 4,4 C 98 % 1024,2 hPa 0,0 l/m 12,4 km/h (3 Bft) W-SW 246 0 min 0,000 mm 0,0 UV-I 60 W/m 0,9 C -3,9 C 14,5 km/h (3 Bft) 93,33 %
16.02.2018 08:39 1,2 C 4,4 C 98 % 1024,2 hPa 0,0 l/m 11,0 km/h (2 Bft) W 274 0 min 0,000 mm 0,0 UV-I 56 W/m 0,9 C -2,9 C 12,9 km/h (3 Bft) 97,12 %
16.02.2018 08:40 1,3 C 4,4 C 98 % 1024,2 hPa 0,0 l/m 9,6 km/h (2 Bft) W 264 0 min 0,000 mm 0,0 UV-I 57 W/m 1,0 C -1,7 C 12,9 km/h (3 Bft) 93,62 %
16.02.2018 08:41 1,3 C 4,4 C 98 % 1024,2 hPa 0,0 l/m 9,7 km/h (2 Bft) W 270 0 min 0,000 mm 0,0 UV-I 62 W/m 1,0 C -1,8 C 14,5 km/h (3 Bft) 86,96 %
16.02.2018 08:42 1,3 C 4,4 C 98 % 1024,2 hPa 0,0 l/m 8,0 km/h (2 Bft) W 275 0 min 0,000 mm 0,0 UV-I 69 W/m 1,0 C -0,3 C 9,7 km/h (2 Bft) 100,00 %
16.02.2018 08:43 1,3 C 4,4 C 98 % 1024,2 hPa 0,2 l/m 10,3 km/h (2 Bft) W 275 0 min 0,000 mm 0,0 UV-I 76 W/m 1,0 C -2,3 C 14,5 km/h (3 Bft) 88,24 %
16.02.2018 08:44 1,3 C 4,4 C 98 % 1024,2 hPa 0,0 l/m 9,6 km/h (2 Bft) W 269 0 min 0,000 mm 0,0 UV-I 79 W/m 1,0 C -1,7 C 11,3 km/h (2 Bft) 96,30 %
16.02.2018 08:45 1,3 C 4,4 C 98 % 1024,2 hPa 0,0 l/m 9,7 km/h (2 Bft) W 279 0 min 0,000 mm 0,0 UV-I 77 W/m 1,0 C -1,8 C 14,5 km/h (3 Bft) 93,33 %
16.02.2018 08:46 1,3 C 4,4 C 98 % 1024,2 hPa 0,0 l/m 12,6 km/h (3 Bft) W 270 0 min 0,000 mm 0,0 UV-I 70 W/m 1,0 C -3,9 C 16,1 km/h (3 Bft) 96,55 %
16.02.2018 08:47 1,3 C 4,4 C 98 % 1024,3 hPa 0,0 l/m 13,7 km/h (3 Bft) W 266 0 min 0,000 mm 0,0 UV-I 63 W/m 1,0 C -4,6 C 17,7 km/h (3 Bft) 95,65 %
16.02.2018 08:48 1,3 C 4,4 C 98 % 1024,3 hPa 0,0 l/m 13,6 km/h (3 Bft) W 265 0 min 0,000 mm 0,0 UV-I 55 W/m 1,0 C -4,6 C 16,1 km/h (3 Bft) 92,59 %
16.02.2018 08:49 1,3 C 4,4 C 98 % 1024,3 hPa 0,0 l/m 12,4 km/h (3 Bft) W 269 0 min 0,000 mm 0,0 UV-I 54 W/m 1,0 C -3,8 C 16,1 km/h (3 Bft) 100,00 %
16.02.2018 08:50 1,3 C 4,4 C 98 % 1024,3 hPa 0,0 l/m 12,9 km/h (3 Bft) W 262 0 min 0,000 mm 0,0 UV-I 58 W/m 1,0 C -4,1 C 16,1 km/h (3 Bft) 93,33 %
16.02.2018 08:51 1,3 C 4,4 C 98 % 1024,3 hPa 0,0 l/m 11,8 km/h (2 Bft) W 281 0 min 0,000 mm 0,0 UV-I 58 W/m 1,0 C -3,4 C 14,5 km/h (3 Bft) 100,00 %
16.02.2018 08:52 1,3 C 4,4 C 98 % 1024,4 hPa 0,2 l/m 10,1 km/h (2 Bft) W-SW 242 0 min 0,000 mm 0,0 UV-I 59 W/m 1,0 C -2,1 C 16,1 km/h (3 Bft) 96,15 %
16.02.2018 08:53 1,4 C 4,4 C 97 % 1024,4 hPa 0,0 l/m 10,4 km/h (2 Bft) W-SW 257 0 min 0,000 mm 0,0 UV-I 60 W/m 1,0 C -2,2 C 12,9 km/h (3 Bft) 100,00 %
16.02.2018 08:54 1,4 C 4,4 C 97 % 1024,4 hPa 0,0 l/m 15,2 km/h (3 Bft) W-NW 286 0 min 0,000 mm 0,0 UV-I 61 W/m 1,0 C -5,4 C 19,3 km/h (3 Bft) 95,65 %
16.02.2018 08:55 1,4 C 4,4 C 97 % 1024,3 hPa 0,0 l/m 12,4 km/h (3 Bft) W 261 0 min 0,000 mm 0,0 UV-I 63 W/m 1,0 C -3,7 C 14,5 km/h (3 Bft) 95,83 %
16.02.2018 08:56 1,4 C 4,4 C 97 % 1024,4 hPa 0,0 l/m 15,1 km/h (3 Bft) W 262 0 min 0,000 mm 0,0 UV-I 65 W/m 1,0 C -5,3 C 17,7 km/h (3 Bft) 100,00 %
16.02.2018 08:57 1,4 C 4,4 C 97 % 1024,4 hPa 0,0 l/m 14,6 km/h (3 Bft) W 261 0 min 0,000 mm 0,0 UV-I 69 W/m 1,0 C -5,1 C 16,1 km/h (3 Bft) 100,00 %
16.02.2018 08:58 1,4 C 4,4 C 97 % 1024,4 hPa 0,0 l/m 15,0 km/h (3 Bft) W 260 0 min 0,000 mm 0,0 UV-I 67 W/m 1,0 C -5,3 C 19,3 km/h (3 Bft) 96,15 %
16.02.2018 08:59 1,4 C 4,4 C 97 % 1024,4 hPa 0,0 l/m 12,5 km/h (3 Bft) W-SW 246 0 min 0,000 mm 0,0 UV-I 67 W/m 1,0 C -3,7 C 16,1 km/h (3 Bft) 91,67 %
16.02.2018 09:00 1,5 C 4,4 C 97 % 1024,5 hPa 0,0 l/m 11,9 km/h (2 Bft) W-SW 242 0 min 0,025 mm 0,0 UV-I 71 W/m 1,1 C -3,2 C 14,5 km/h (3 Bft) 100,00 %
16.02.2018 09:01 1,6 C 4,4 C 98 % 1024,5 hPa 0,2 l/m 15,0 km/h (3 Bft) W 259 0 min 0,000 mm 0,0 UV-I 79 W/m 1,3 C -5,0 C 19,3 km/h (3 Bft) 96,67 %
16.02.2018 09:02 1,6 C 4,4 C 98 % 1024,5 hPa 0,0 l/m 12,2 km/h (2 Bft) W 260 0 min 0,000 mm 0,0 UV-I 86 W/m 1,3 C -3,3 C 16,1 km/h (3 Bft) 100,00 %
16.02.2018 09:03 1,6 C 4,4 C 98 % 1024,6 hPa 0,0 l/m 10,8 km/h (2 Bft) W-SW 248 0 min 0,000 mm 0,0 UV-I 86 W/m 1,3 C -2,3 C 14,5 km/h (3 Bft) 93,94 %
16.02.2018 09:04 1,6 C 4,4 C 98 % 1024,6 hPa 0,0 l/m 16,5 km/h (3 Bft) W 263 0 min 0,000 mm 0,0 UV-I 85 W/m 1,3 C -5,9 C 22,5 km/h (4 Bft) 100,00 %
16.02.2018 09:05 1,6 C 4,4 C 98 % 1024,6 hPa 0,0 l/m 13,4 km/h (3 Bft) W 270 0 min 0,000 mm 0,0 UV-I 83 W/m 1,3 C -4,1 C 17,7 km/h (3 Bft) 93,33 %
16.02.2018 09:06 1,6 C 4,4 C 98 % 1024,6 hPa 0,0 l/m 14,5 km/h (3 Bft) W 278 0 min 0,000 mm 0,0 UV-I 84 W/m 1,3 C -4,8 C 19,3 km/h (3 Bft) 100,00 %
16.02.2018 09:07 1,6 C 4,4 C 98 % 1024,7 hPa 0,0 l/m 13,3 km/h (3 Bft) W-NW 290 0 min 0,000 mm 0,0 UV-I 87 W/m 1,3 C -4,0 C 19,3 km/h (3 Bft) 95,83 %
16.02.2018 09:08 1,6 C 4,4 C 98 % 1024,7 hPa 0,0 l/m 12,3 km/h (3 Bft) W-NW 283 0 min 0,000 mm 0,0 UV-I 91 W/m 1,3 C -3,4 C 14,5 km/h (3 Bft) 96,15 %
16.02.2018 09:09 1,7 C 4,4 C 98 % 1024,7 hPa 0,2 l/m 14,3 km/h (3 Bft) W 268 0 min 0,000 mm 0,0 UV-I 93 W/m 1,4 C -4,5 C 19,3 km/h (3 Bft) 100,00 %
16.02.2018 09:10 1,7 C 4,4 C 98 % 1024,6 hPa 0,0 l/m 13,5 km/h (3 Bft) W 262 0 min 0,000 mm 0,0 UV-I 92 W/m 1,4 C -4,0 C 17,7 km/h (3 Bft) 96,15 %
16.02.2018 09:11 1,7 C 4,4 C 98 % 1024,7 hPa 0,0 l/m 14,5 km/h (3 Bft) W-NW 282 0 min 0,000 mm 0,0 UV-I 87 W/m 1,4 C -4,6 C 16,1 km/h (3 Bft) 100,00 %
16.02.2018 09:12 1,7 C 4,4 C 97 % 1024,7 hPa 0,0 l/m 13,5 km/h (3 Bft) W 269 0 min 0,000 mm 0,0 UV-I 78 W/m 1,3 C -4,0 C 19,3 km/h (3 Bft) 95,83 %
16.02.2018 09:13 1,7 C 4,4 C 97 % 1024,8 hPa 0,0 l/m 13,1 km/h (3 Bft) W 278 0 min 0,000 mm 0,0 UV-I 70 W/m 1,3 C -3,8 C 17,7 km/h (3 Bft) 100,00 %
16.02.2018 09:14 1,7 C 4,4 C 97 % 1024,8 hPa 0,0 l/m 8,8 km/h (2 Bft) W 267 0 min 0,000 mm 0,0 UV-I 71 W/m 1,3 C -0,6 C 14,5 km/h (3 Bft) 96,30 %
16.02.2018 09:15 1,7 C 4,4 C 97 % 1024,8 hPa 0,0 l/m 13,0 km/h (3 Bft) W 265 0 min 0,000 mm 0,0 UV-I 79 W/m 1,3 C -3,7 C 17,7 km/h (3 Bft) 100,00 %
16.02.2018 09:16 1,7 C 4,4 C 97 % 1024,8 hPa 0,0 l/m 15,1 km/h (3 Bft) W-NW 290 0 min 0,000 mm 0,0 UV-I 86 W/m 1,3 C -5,0 C 19,3 km/h (3 Bft) 96,30 %
16.02.2018 09:17 1,7 C 4,4 C 97 % 1024,8 hPa 0,0 l/m 10,3 km/h (2 Bft) W 274 0 min 0,000 mm 0,0 UV-I 88 W/m 1,3 C -1,8 C 12,9 km/h (3 Bft) 92,86 %
16.02.2018 09:18 1,7 C 4,4 C 97 % 1024,8 hPa 0,2 l/m 11,2 km/h (2 Bft) W 262 0 min 0,000 mm 0,0 UV-I 85 W/m 1,3 C -2,5 C 16,1 km/h (3 Bft) 96,30 %
16.02.2018 09:19 1,7 C 4,4 C 97 % 1024,7 hPa 0,0 l/m 9,8 km/h (2 Bft) W 281 0 min 0,000 mm 0,0 UV-I 80 W/m 1,3 C -1,4 C 16,1 km/h (3 Bft) 96,55 %
16.02.2018 09:20 1,7 C 4,4 C 97 % 1024,7 hPa 0,0 l/m 10,1 km/h (2 Bft) W 261 0 min 0,000 mm 0,0 UV-I 78 W/m 1,3 C -1,7 C 12,9 km/h (3 Bft) 100,00 %
16.02.2018 09:21 1,7 C 4,4 C 97 % 1024,7 hPa 0,0 l/m 11,0 km/h (2 Bft) W-SW 257 0 min 0,000 mm 0,0 UV-I 84 W/m 1,3 C -2,3 C 14,5 km/h (3 Bft) 91,30 %
16.02.2018 09:22 1,7 C 4,4 C 97 % 1024,7 hPa 0,0 l/m 9,7 km/h (2 Bft) W 274 0 min 0,000 mm 0,0 UV-I 96 W/m 1,3 C -1,3 C 14,5 km/h (3 Bft) 100,00 %
16.02.2018 09:23 1,7 C 4,4 C 97 % 1024,7 hPa 0,0 l/m 11,1 km/h (2 Bft) W 262 0 min 0,000 mm 0,0 UV-I 107 W/m 1,3 C -2,4 C 14,5 km/h (3 Bft) 95,65 %
16.02.2018 09:24 1,8 C 4,4 C 97 % 1024,5 hPa 0,0 l/m 7,7 km/h (2 Bft) W 265 0 min 0,000 mm 0,0 UV-I 115 W/m 1,4 C 0,5 C 11,3 km/h (2 Bft) 100,00 %
16.02.2018 09:25 1,8 C 4,4 C 97 % 1024,5 hPa 0,0 l/m 9,9 km/h (2 Bft) W 273 0 min 0,000 mm 0,0 UV-I 114 W/m 1,4 C -1,4 C 12,9 km/h (3 Bft) 96,15 %
16.02.2018 09:26 1,8 C 4,4 C 97 % 1024,5 hPa 0,0 l/m 6,3 km/h (2 Bft) W 272 0 min 0,000 mm 0,0 UV-I 117 W/m 1,4 C 1,8 C 9,7 km/h (2 Bft) 100,00 %
16.02.2018 09:27 1,8 C 4,4 C 97 % 1024,4 hPa 0,2 l/m 6,8 km/h (2 Bft) W 269 0 min 0,000 mm 0,0 UV-I 126 W/m 1,4 C 1,4 C 9,7 km/h (2 Bft) 95,65 %
16.02.2018 09:28 1,8 C 4,4 C 97 % 1024,4 hPa 0,0 l/m 7,5 km/h (2 Bft) W 259 0 min 0,000 mm 0,0 UV-I 147 W/m 1,4 C 0,7 C 9,7 km/h (2 Bft) 96,30 %
16.02.2018 09:29 1,8 C 4,4 C 97 % 1024,5 hPa 0,0 l/m 7,1 km/h (2 Bft) W 260 0 min 0,000 mm 0,2 UV-I 170 W/m 1,4 C 1,1 C 9,7 km/h (2 Bft) 100,00 %
16.02.2018 09:30 1,9 C 4,4 C 97 % 1024,4 hPa 0,0 l/m 6,7 km/h (2 Bft) W-SW 254 1 min 0,000 mm 0,5 UV-I 191 W/m 1,5 C 1,6 C 12,9 km/h (3 Bft) 100,00 %
16.02.2018 09:31 1,9 C 4,4 C 97 % 1024,5 hPa 0,0 l/m 8,1 km/h (2 Bft) W 267 1 min 0,000 mm 0,2 UV-I 195 W/m 1,5 C 0,3 C 11,3 km/h (2 Bft) 96,30 %
16.02.2018 09:32 1,9 C 4,4 C 97 % 1024,6 hPa 0,0 l/m 8,4 km/h (2 Bft) W 268 0 min 0,000 mm 0,0 UV-I 178 W/m 1,5 C -0,0 C 9,7 km/h (2 Bft) 100,00 %
16.02.2018 09:33 2,0 C 4,4 C 97 % 1024,6 hPa 0,0 l/m 6,0 km/h (2 Bft) W 271 0 min 0,000 mm 0,0 UV-I 158 W/m 1,6 C 2,0 C 9,7 km/h (2 Bft) 95,83 %
16.02.2018 09:34 2,0 C 4,4 C 97 % 1024,8 hPa 0,0 l/m 4,8 km/h (1 Bft) W 275 0 min 0,000 mm 0,0 UV-I 138 W/m 1,6 C 2,0 C 6,4 km/h (2 Bft) 96,15 %
16.02.2018 09:35 2,1 C 4,4 C 97 % 1024,8 hPa 0,0 l/m 5,4 km/h (1 Bft) W 273 0 min 0,000 mm 0,0 UV-I 118 W/m 1,7 C 2,1 C 6,4 km/h (2 Bft) 100,00 %
16.02.2018 09:36 2,1 C 4,4 C 97 % 1024,9 hPa 0,0 l/m 9,4 km/h (2 Bft) W 267 0 min 0,000 mm 0,0 UV-I 109 W/m 1,7 C -0,7 C 14,5 km/h (3 Bft) 92,86 %
16.02.2018 09:37 2,1 C 4,4 C 97 % 1024,9 hPa 0,2 l/m 9,2 km/h (2 Bft) W 278 0 min 0,000 mm 0,0 UV-I 88 W/m 1,7 C -0,5 C 11,3 km/h (2 Bft) 94,44 %
16.02.2018 09:38 2,1 C 4,4 C 97 % 1025,0 hPa 0,0 l/m 4,5 km/h (1 Bft) W 268 0 min 0,000 mm 0,0 UV-I 80 W/m 1,7 C 2,1 C 6,4 km/h (2 Bft) 95,12 %
16.02.2018 09:39 2,1 C 4,4 C 97 % 1025,0 hPa 0,0 l/m 5,5 km/h (1 Bft) W 272 0 min 0,000 mm 0,0 UV-I 76 W/m 1,7 C 2,1 C 9,7 km/h (2 Bft) 100,00 %
16.02.2018 09:40 2,1 C 4,4 C 97 % 1025,0 hPa 0,0 l/m 4,6 km/h (1 Bft) W 272 0 min 0,000 mm 0,0 UV-I 73 W/m 1,7 C 2,1 C 6,4 km/h (2 Bft) 95,65 %
16.02.2018 09:41 2,1 C 4,4 C 97 % 1025,0 hPa 0,0 l/m 4,2 km/h (1 Bft) W 272 0 min 0,000 mm 0,0 UV-I 69 W/m 1,7 C 2,1 C 4,8 km/h (1 Bft) 96,30 %
16.02.2018 09:42 2,1 C 4,4 C 97 % 1025,0 hPa 0,0 l/m 4,8 km/h (1 Bft) W 272 0 min 0,000 mm 0,0 UV-I 67 W/m 1,7 C 2,1 C 6,4 km/h (2 Bft) 100,00 %
16.02.2018 09:43 2,1 C 4,4 C 97 % 1025,0 hPa 0,0 l/m 6,6 km/h (2 Bft) NW 306 0 min 0,000 mm 0,0 UV-I 69 W/m 1,7 C 1,9 C 9,7 km/h (2 Bft) 96,30 %
16.02.2018 09:44 2,1 C 4,4 C 97 % 1025,1 hPa 0,0 l/m 6,1 km/h (2 Bft) W 281 0 min 0,000 mm 0,0 UV-I 70 W/m 1,7 C 2,1 C 11,3 km/h (2 Bft) 100,00 %
16.02.2018 09:45 2,1 C 4,4 C 97 % 1025,1 hPa 0,0 l/m 6,9 km/h (2 Bft) W 271 0 min 0,000 mm 0,0 UV-I 73 W/m 1,7 C 1,6 C 11,3 km/h (2 Bft) 95,83 %
16.02.2018 09:46 2,1 C 4,4 C 97 % 1025,2 hPa 0,0 l/m 7,6 km/h (2 Bft) W 271 0 min 0,000 mm 0,0 UV-I 74 W/m 1,7 C 0,9 C 11,3 km/h (2 Bft) 96,15 %
16.02.2018 09:47 2,1 C 4,4 C 97 % 1025,1 hPa 0,0 l/m 8,2 km/h (2 Bft) W 267 0 min 0,000 mm 0,0 UV-I 74 W/m 1,7 C 0,4 C 11,3 km/h (2 Bft) 95,83 %
16.02.2018 09:48 2,1 C 4,4 C 97 % 1025,1 hPa 0,0 l/m 10,3 km/h (2 Bft) W 261 0 min 0,000 mm 0,0 UV-I 78 W/m 1,7 C -1,4 C 11,3 km/h (2 Bft) 100,00 %
16.02.2018 09:49 2,1 C 4,4 C 97 % 1025,1 hPa 0,2 l/m 9,6 km/h (2 Bft) W 262 0 min 0,000 mm 0,0 UV-I 87 W/m 1,7 C -0,8 C 14,5 km/h (3 Bft) 100,00 %
16.02.2018 09:50 2,1 C 4,4 C 97 % 1025,1 hPa 0,0 l/m 10,6 km/h (2 Bft) W 277 0 min 0,000 mm 0,0 UV-I 98 W/m 1,7 C -1,6 C 14,5 km/h (3 Bft) 100,00 %
16.02.2018 09:51 2,1 C 4,4 C 97 % 1025,1 hPa 0,0 l/m 10,5 km/h (2 Bft) W-SW 254 0 min 0,000 mm 0,0 UV-I 106 W/m 1,7 C -1,5 C 12,9 km/h (3 Bft) 100,00 %
16.02.2018 09:52 2,1 C 4,4 C 97 % 1025,1 hPa 0,0 l/m 9,0 km/h (2 Bft) W 275 0 min 0,000 mm 0,0 UV-I 111 W/m 1,7 C -0,3 C 16,1 km/h (3 Bft) 100,00 %
16.02.2018 09:53 2,2 C 4,4 C 97 % 1025,2 hPa 0,0 l/m 7,9 km/h (2 Bft) W 269 0 min 0,000 mm 0,0 UV-I 117 W/m 1,8 C 0,8 C 12,9 km/h (3 Bft) 100,00 %
16.02.2018 09:54 2,2 C 4,4 C 97 % 1025,1 hPa 0,0 l/m 8,0 km/h (2 Bft) W-SW 242 0 min 0,000 mm 0,0 UV-I 121 W/m 1,8 C 0,7 C 11,3 km/h (2 Bft) 100,00 %
16.02.2018 09:55 2,2 C 4,4 C 97 % 1025,2 hPa 0,0 l/m 10,6 km/h (2 Bft) W-SW 248 0 min 0,000 mm 0,0 UV-I 125 W/m 1,8 C -1,5 C 14,5 km/h (3 Bft) 100,00 %
16.02.2018 09:56 2,2 C 4,4 C 97 % 1025,2 hPa 0,0 l/m 10,8 km/h (2 Bft) W-SW 256 0 min 0,000 mm 0,0 UV-I 129 W/m 1,8 C -1,6 C 12,9 km/h (3 Bft) 100,00 %
16.02.2018 09:57 2,2 C 4,4 C 97 % 1025,2 hPa 0,0 l/m 13,2 km/h (3 Bft) W 267 0 min 0,000 mm 0,0 UV-I 136 W/m 1,8 C -3,2 C 14,5 km/h (3 Bft) 92,86 %
16.02.2018 09:58 2,3 C 4,4 C 97 % 1025,3 hPa 0,0 l/m 13,0 km/h (3 Bft) W 265 0 min 0,000 mm 0,0 UV-I 139 W/m 1,9 C -3,0 C 14,5 km/h (3 Bft) 100,00 %
16.02.2018 09:59 2,3 C 4,4 C 97 % 1025,3 hPa 0,0 l/m 13,6 km/h (3 Bft) W 277 0 min 0,000 mm 0,0 UV-I 134 W/m 1,9 C -3,4 C 14,5 km/h (3 Bft) 96,15 %
16.02.2018 10:00 2,3 C 4,4 C 97 % 1025,3 hPa 0,0 l/m 11,3 km/h (2 Bft) W 271 0 min 0,026 mm 0,0 UV-I 115 W/m 1,9 C -1,9 C 12,9 km/h (3 Bft) 100,00 %
16.02.2018 10:01 2,3 C 4,4 C 97 % 1025,5 hPa 0,0 l/m 14,4 km/h (3 Bft) W 275 0 min 0,000 mm 0,0 UV-I 98 W/m 1,9 C -3,9 C 19,3 km/h (3 Bft) 95,65 %
16.02.2018 10:02 2,3 C 4,4 C 97 % 1025,5 hPa 0,0 l/m 10,2 km/h (2 Bft) W-SW 257 0 min 0,000 mm 0,0 UV-I 84 W/m 1,9 C -1,1 C 14,5 km/h (3 Bft) 96,30 %
16.02.2018 10:03 2,3 C 4,4 C 97 % 1025,5 hPa 0,0 l/m 11,7 km/h (2 Bft) W-SW 250 0 min 0,000 mm 0,0 UV-I 80 W/m 1,9 C -2,1 C 14,5 km/h (3 Bft) 100,00 %
16.02.2018 10:04 2,3 C 4,4 C 97 % 1025,5 hPa 0,2 l/m 10,6 km/h (2 Bft) W-SW 252 0 min 0,000 mm 0,0 UV-I 81 W/m 1,9 C -1,4 C 12,9 km/h (3 Bft) 100,00 %
16.02.2018 10:05 2,3 C 4,4 C 97 % 1025,5 hPa 0,0 l/m 9,3 km/h (2 Bft) W 259 0 min 0,000 mm 0,0 UV-I 85 W/m 1,9 C -0,4 C 12,9 km/h (3 Bft) 100,00 %
16.02.2018 10:06 2,3 C 4,4 C 97 % 1025,5 hPa 0,0 l/m 9,4 km/h (2 Bft) W 273 0 min 0,000 mm 0,0 UV-I 90 W/m 1,9 C -0,4 C 11,3 km/h (2 Bft) 100,00 %
16.02.2018 10:07 2,3 C 4,4 C 97 % 1025,6 hPa 0,0 l/m 7,6 km/h (2 Bft) W 276 0 min 0,000 mm 0,0 UV-I 96 W/m 1,9 C 1,1 C 11,3 km/h (2 Bft) 100,00 %
16.02.2018 10:08 2,3 C 4,4 C 97 % 1025,6 hPa 0,0 l/m 10,6 km/h (2 Bft) W-SW 258 0 min 0,000 mm 0,0 UV-I 103 W/m 1,9 C -1,4 C 16,1 km/h (3 Bft) 100,00 %
16.02.2018 10:09 2,3 C 4,4 C 97 % 1025,6 hPa 0,0 l/m 13,2 km/h (3 Bft) W 277 0 min 0,000 mm 0,0 UV-I 107 W/m 1,9 C -3,1 C 17,7 km/h (3 Bft) 100,00 %
16.02.2018 10:10 2,4 C 4,4 C 97 % 1025,6 hPa 0,0 l/m 8,6 km/h (2 Bft) W 279 0 min 0,000 mm 0,0 UV-I 106 W/m 2,0 C 0,3 C 14,5 km/h (3 Bft) 97,17 %
16.02.2018 10:11 2,4 C 4,4 C 97 % 1025,7 hPa 0,0 l/m 8,1 km/h (2 Bft) W 278 0 min 0,000 mm 0,0 UV-I 105 W/m 2,0 C 0,8 C 11,3 km/h (2 Bft) 95,45 %
16.02.2018 10:12 2,4 C 4,4 C 97 % 1025,7 hPa 0,0 l/m 8,0 km/h (2 Bft) W 271 0 min 0,000 mm 0,0 UV-I 98 W/m 2,0 C 0,9 C 11,3 km/h (2 Bft) 100,00 %
16.02.2018 10:13 2,4 C 4,4 C 97 % 1025,7 hPa 0,0 l/m 8,3 km/h (2 Bft) W 267 0 min 0,000 mm 0,0 UV-I 95 W/m 2,0 C 0,6 C 14,5 km/h (3 Bft) 100,00 %
16.02.2018 10:14 2,4 C 4,4 C 97 % 1025,7 hPa 0,0 l/m 11,6 km/h (2 Bft) W 260 0 min 0,000 mm 0,0 UV-I 93 W/m 2,0 C -2,0 C 12,9 km/h (3 Bft) 100,00 %
16.02.2018 10:15 2,4 C 4,4 C 97 % 1025,7 hPa 0,2 l/m 9,1 km/h (2 Bft) W-SW 251 0 min 0,000 mm 0,0 UV-I 88 W/m 2,0 C -0,1 C 12,9 km/h (3 Bft) 100,00 %
16.02.2018 10:16 2,4 C 4,4 C 97 % 1025,7 hPa 0,0 l/m 9,3 km/h (2 Bft) W 275 0 min 0,000 mm 0,0 UV-I 84 W/m 2,0 C -0,2 C 12,9 km/h (3 Bft) 100,00 %
16.02.2018 10:17 2,4 C 4,4 C 97 % 1025,8 hPa 0,0 l/m 9,2 km/h (2 Bft) W-SW 258 0 min 0,000 mm 0,0 UV-I 81 W/m 2,0 C -0,2 C 12,9 km/h (3 Bft) 100,00 %
16.02.2018 10:18 2,4 C 4,4 C 97 % 1025,8 hPa 0,0 l/m 10,1 km/h (2 Bft) W 267 0 min 0,000 mm 0,0 UV-I 81 W/m 2,0 C -0,9 C 14,5 km/h (3 Bft) 100,00 %
16.02.2018 10:19 2,4 C 4,4 C 97 % 1025,8 hPa 0,0 l/m 11,3 km/h (2 Bft) W-NW 286 0 min 0,000 mm 0,0 UV-I 76 W/m 2,0 C -1,8 C 14,5 km/h (3 Bft) 100,00 %
16.02.2018 10:20 2,4 C 4,4 C 97 % 1025,8 hPa 0,0 l/m 9,0 km/h (2 Bft) W 279 0 min 0,000 mm 0,0 UV-I 72 W/m 2,0 C 0,0 C 14,5 km/h (3 Bft) 97,22 %
16.02.2018 10:21 2,4 C 4,4 C 97 % 1025,8 hPa 0,0 l/m 8,7 km/h (2 Bft) W 259 0 min 0,000 mm 0,0 UV-I 70 W/m 2,0 C 0,3 C 11,3 km/h (2 Bft) 100,00 %
16.02.2018 10:22 2,4 C 4,4 C 97 % 1025,8 hPa 0,0 l/m 7,2 km/h (2 Bft) W 277 0 min 0,000 mm 0,0 UV-I 71 W/m 2,0 C 1,6 C 9,7 km/h (2 Bft) 95,83 %
16.02.2018 10:23 2,4 C 4,4 C 97 % 1025,8 hPa 0,0 l/m 4,8 km/h (1 Bft) W 265 0 min 0,000 mm 0,0 UV-I 74 W/m 2,0 C 2,4 C 6,4 km/h (2 Bft) 100,00 %
16.02.2018 10:24 2,4 C 4,4 C 97 % 1025,8 hPa 0,0 l/m 9,3 km/h (2 Bft) W 259 0 min 0,000 mm 0,0 UV-I 76 W/m 2,0 C -0,2 C 12,9 km/h (3 Bft) 95,83 %
16.02.2018 10:25 2,4 C 4,4 C 97 % 1025,8 hPa 0,0 l/m 11,4 km/h (2 Bft) W 272 0 min 0,000 mm 0,0 UV-I 71 W/m 2,0 C -1,8 C 14,5 km/h (3 Bft) 95,65 %
16.02.2018 10:26 2,4 C 4,4 C 97 % 1025,9 hPa 0,0 l/m 9,6 km/h (2 Bft) W 259 0 min 0,000 mm 0,0 UV-I 66 W/m 2,0 C -0,5 C 12,9 km/h (3 Bft) 100,00 %
16.02.2018 10:27 2,4 C 4,4 C 97 % 1025,9 hPa 0,0 l/m 9,4 km/h (2 Bft) W 267 0 min 0,000 mm 0,0 UV-I 65 W/m 2,0 C -0,3 C 12,9 km/h (3 Bft) 91,30 %
16.02.2018 10:28 2,4 C 4,4 C 97 % 1025,9 hPa 0,0 l/m 9,3 km/h (2 Bft) W 277 0 min 0,000 mm 0,0 UV-I 65 W/m 2,0 C -0,2 C 12,9 km/h (3 Bft) 100,00 %
16.02.2018 10:29 2,4 C 4,4 C 97 % 1025,9 hPa 0,2 l/m 10,0 km/h (2 Bft) W-SW 245 0 min 0,000 mm 0,0 UV-I 67 W/m 2,0 C -0,8 C 11,3 km/h (2 Bft) 95,65 %
16.02.2018 10:30 2,4 C 4,4 C 97 % 1026,0 hPa 0,0 l/m 8,8 km/h (2 Bft) W 259 0 min 0,000 mm 0,0 UV-I 69 W/m 2,0 C 0,2 C 12,9 km/h (3 Bft) 100,00 %
16.02.2018 10:31 2,4 C 4,4 C 97 % 1026,0 hPa 0,0 l/m 8,2 km/h (2 Bft) W 259 0 min 0,000 mm 0,0 UV-I 70 W/m 2,0 C 0,7 C 11,3 km/h (2 Bft) 95,65 %
16.02.2018 10:32 2,5 C 4,4 C 97 % 1026,0 hPa 0,0 l/m 7,8 km/h (2 Bft) W 279 0 min 0,000 mm 0,0 UV-I 72 W/m 2,1 C 1,2 C 12,9 km/h (3 Bft) 95,83 %
16.02.2018 10:33 2,5 C 4,4 C 97 % 1026,0 hPa 0,0 l/m 6,0 km/h (2 Bft) W 262 0 min 0,000 mm 0,0 UV-I 71 W/m 2,1 C 2,5 C 9,7 km/h (2 Bft) 91,30 %
16.02.2018 10:34 2,5 C 4,4 C 97 % 1025,9 hPa 0,0 l/m 7,3 km/h (2 Bft) W 266 0 min 0,000 mm 0,0 UV-I 71 W/m 2,1 C 1,6 C 12,9 km/h (3 Bft) 95,83 %
16.02.2018 10:35 2,5 C 4,4 C 97 % 1026,0 hPa 0,0 l/m 9,8 km/h (2 Bft) W 277 0 min 0,000 mm 0,0 UV-I 72 W/m 2,1 C -0,5 C 12,9 km/h (3 Bft) 91,30 %
16.02.2018 10:36 2,5 C 4,4 C 97 % 1026,0 hPa 0,0 l/m 8,0 km/h (2 Bft) SW 223 0 min 0,000 mm 0,0 UV-I 77 W/m 2,1 C 1,0 C 11,3 km/h (2 Bft) 95,83 %
16.02.2018 10:37 2,5 C 4,4 C 97 % 1026,0 hPa 0,0 l/m 8,0 km/h (2 Bft) W 274 0 min 0,000 mm 0,0 UV-I 82 W/m 2,1 C 1,0 C 11,3 km/h (2 Bft) 100,00 %
16.02.2018 10:38 2,5 C 4,4 C 97 % 1026,0 hPa 0,0 l/m 9,3 km/h (2 Bft) W-SW 250 0 min 0,000 mm 0,0 UV-I 85 W/m 2,1 C -0,1 C 11,3 km/h (2 Bft) 96,30 %
16.02.2018 10:39 2,6 C 4,4 C 97 % 1026,0 hPa 0,0 l/m 6,6 km/h (2 Bft) W 265 0 min 0,000 mm 0,0 UV-I 87 W/m 2,2 C 2,4 C 9,7 km/h (2 Bft) 96,15 %
16.02.2018 10:40 2,6 C 4,4 C 97 % 1026,0 hPa 0,0 l/m 11,5 km/h (2 Bft) W 263 0 min 0,000 mm 0,0 UV-I 88 W/m 2,2 C -1,7 C 16,1 km/h (3 Bft) 100,00 %
16.02.2018 10:41 2,6 C 4,4 C 97 % 1026,0 hPa 0,0 l/m 7,5 km/h (2 Bft) W 266 0 min 0,000 mm 0,0 UV-I 88 W/m 2,2 C 1,5 C 12,9 km/h (3 Bft) 96,15 %
16.02.2018 10:42 2,6 C 4,4 C 97 % 1026,0 hPa 0,0 l/m 9,7 km/h (2 Bft) W-SW 237 0 min 0,000 mm 0,0 UV-I 92 W/m 2,2 C -0,3 C 12,9 km/h (3 Bft) 100,00 %
16.02.2018 10:43 2,6 C 4,4 C 97 % 1026,0 hPa 0,0 l/m 7,3 km/h (2 Bft) W-SW 257 0 min 0,000 mm 0,0 UV-I 98 W/m 2,2 C 1,7 C 11,3 km/h (2 Bft) 91,67 %
16.02.2018 10:44 2,6 C 4,4 C 97 % 1026,0 hPa 0,2 l/m 7,2 km/h (2 Bft) W 276 0 min 0,000 mm 0,0 UV-I 106 W/m 2,2 C 1,8 C 11,3 km/h (2 Bft) 100,00 %
16.02.2018 10:45 2,6 C 4,4 C 97 % 1026,0 hPa 0,0 l/m 7,6 km/h (2 Bft) W 273 0 min 0,000 mm 0,0 UV-I 119 W/m 2,2 C 1,5 C 9,7 km/h (2 Bft) 92,86 %
16.02.2018 10:46 2,6 C 4,4 C 97 % 1026,0 hPa 0,0 l/m 10,2 km/h (2 Bft) W 268 0 min 0,000 mm 0,3 UV-I 133 W/m 2,2 C -0,7 C 12,9 km/h (3 Bft) 100,00 %
16.02.2018 10:47 2,6 C 4,4 C 97 % 1025,9 hPa 0,0 l/m 6,4 km/h (2 Bft) SW 228 0 min 0,000 mm 0,5 UV-I 141 W/m 2,2 C 2,6 C 8,0 km/h (2 Bft) 95,83 %
16.02.2018 10:48 2,7 C 4,4 C 97 % 1026,0 hPa 0,0 l/m 6,5 km/h (2 Bft) W-SW 249 0 min 0,000 mm 0,5 UV-I 150 W/m 2,3 C 2,6 C 8,0 km/h (2 Bft) 96,15 %
16.02.2018 10:49 2,7 C 4,4 C 97 % 1025,9 hPa 0,0 l/m 6,2 km/h (2 Bft) W-SW 240 0 min 0,000 mm 0,5 UV-I 158 W/m 2,3 C 2,7 C 9,7 km/h (2 Bft) 100,00 %
16.02.2018 10:50 2,7 C 4,4 C 97 % 1025,9 hPa 0,0 l/m 6,5 km/h (2 Bft) W-SW 240 0 min 0,000 mm 0,5 UV-I 162 W/m 2,3 C 2,6 C 8,0 km/h (2 Bft) 95,65 %
16.02.2018 10:51 2,7 C 4,4 C 97 % 1026,0 hPa 0,0 l/m 7,1 km/h (2 Bft) W 264 0 min 0,000 mm 0,5 UV-I 162 W/m 2,3 C 2,0 C 11,3 km/h (2 Bft) 100,00 %
16.02.2018 10:52 2,7 C 4,4 C 97 % 1026,0 hPa 0,0 l/m 6,2 km/h (2 Bft) SW 221 0 min 0,000 mm 0,5 UV-I 159 W/m 2,3 C 2,7 C 9,7 km/h (2 Bft) 95,65 %
16.02.2018 10:53 2,8 C 4,4 C 97 % 1026,1 hPa 0,0 l/m 3,9 km/h (1 Bft) W-SW 255 0 min 0,000 mm 0,5 UV-I 156 W/m 2,4 C 2,8 C 6,4 km/h (2 Bft) 100,00 %
16.02.2018 10:54 2,8 C 4,4 C 97 % 1026,1 hPa 0,0 l/m 7,0 km/h (2 Bft) W-SW 250 0 min 0,000 mm 0,5 UV-I 154 W/m 2,4 C 2,2 C 9,7 km/h (2 Bft) 95,65 %
16.02.2018 10:55 2,8 C 4,4 C 97 % 1026,1 hPa 0,0 l/m 7,6 km/h (2 Bft) W 272 0 min 0,000 mm 0,5 UV-I 149 W/m 2,4 C 1,7 C 11,3 km/h (2 Bft) 100,00 %
16.02.2018 10:56 2,8 C 4,4 C 97 % 1026,1 hPa 0,0 l/m 8,4 km/h (2 Bft) W-SW 254 0 min 0,000 mm 0,5 UV-I 141 W/m 2,4 C 0,9 C 11,3 km/h (2 Bft) 100,00 %
16.02.2018 10:57 2,8 C 4,4 C 97 % 1026,2 hPa 0,0 l/m 6,0 km/h (2 Bft) W 281 0 min 0,000 mm 0,3 UV-I 133 W/m 2,4 C 2,8 C 9,7 km/h (2 Bft) 100,00 %
16.02.2018 10:58 2,9 C 4,4 C 97 % 1026,2 hPa 0,0 l/m 3,1 km/h (1 Bft) W 280 0 min 0,000 mm 0,0 UV-I 128 W/m 2,5 C 2,9 C 4,8 km/h (1 Bft) 100,00 %
16.02.2018 10:59 2,9 C 4,4 C 97 % 1026,2 hPa 0,0 l/m 5,2 km/h (1 Bft) W-SW 250 0 min 0,000 mm 0,0 UV-I 127 W/m 2,5 C 2,9 C 6,4 km/h (2 Bft) 100,00 %
16.02.2018 11:00 2,9 C 4,4 C 97 % 1026,1 hPa 0,0 l/m 5,1 km/h (1 Bft) W 261 0 min 0,025 mm 0,0 UV-I 127 W/m 2,5 C 2,9 C 6,4 km/h (2 Bft) 100,00 %
16.02.2018 11:01 2,9 C 4,4 C 97 % 1026,2 hPa 0,0 l/m 5,0 km/h (1 Bft) W-SW 250 0 min 0,000 mm 0,0 UV-I 124 W/m 2,5 C 2,9 C 6,4 km/h (2 Bft) 95,83 %
16.02.2018 11:02 2,9 C 4,4 C 97 % 1026,1 hPa 0,0 l/m 4,8 km/h (1 Bft) W-SW 257 0 min 0,000 mm 0,0 UV-I 119 W/m 2,5 C 2,9 C 8,0 km/h (2 Bft) 100,00 %
16.02.2018 11:03 2,9 C 4,4 C 97 % 1026,1 hPa 0,0 l/m 3,7 km/h (1 Bft) W-SW 248 0 min 0,000 mm 0,0 UV-I 123 W/m 2,5 C 2,9 C 4,8 km/h (1 Bft) 95,65 %
16.02.2018 11:04 3,0 C 4,4 C 97 % 1026,1 hPa 0,0 l/m 8,9 km/h (2 Bft) SW 222 0 min 0,000 mm 0,3 UV-I 131 W/m 2,6 C 0,7 C 14,5 km/h (3 Bft) 95,83 %
16.02.2018 11:05 3,0 C 4,4 C 97 % 1026,0 hPa 0,0 l/m 9,3 km/h (2 Bft) W-SW 249 0 min 0,000 mm 0,5 UV-I 135 W/m 2,6 C 0,4 C 12,9 km/h (3 Bft) 95,65 %
16.02.2018 11:06 3,0 C 4,4 C 97 % 1026,0 hPa 0,0 l/m 6,7 km/h (2 Bft) W-SW 252 0 min 0,000 mm 0,5 UV-I 135 W/m 2,6 C 2,7 C 11,3 km/h (2 Bft) 100,00 %
16.02.2018 11:07 3,0 C 4,4 C 97 % 1026,1 hPa 0,0 l/m 7,5 km/h (2 Bft) SW 229 0 min 0,000 mm 0,5 UV-I 135 W/m 2,6 C 2,0 C 11,3 km/h (2 Bft) 95,65 %
16.02.2018 11:08 3,1 C 4,4 C 97 % 1026,1 hPa 0,0 l/m 8,4 km/h (2 Bft) W-SW 248 0 min 0,000 mm 0,5 UV-I 135 W/m 2,7 C 1,3 C 11,3 km/h (2 Bft) 100,00 %
16.02.2018 11:09 3,1 C 4,4 C 97 % 1026,2 hPa 0,0 l/m 12,1 km/h (2 Bft) W-SW 242 0 min 0,000 mm 0,5 UV-I 136 W/m 2,7 C -1,5 C 19,3 km/h (3 Bft) 100,00 %
16.02.2018 11:10 3,1 C 4,4 C 97 % 1026,2 hPa 0,0 l/m 11,1 km/h (2 Bft) W 261 0 min 0,000 mm 0,5 UV-I 137 W/m 2,7 C -0,8 C 19,3 km/h (3 Bft) 100,00 %
16.02.2018 11:11 3,1 C 4,4 C 97 % 1026,2 hPa 0,2 l/m 8,6 km/h (2 Bft) W-SW 238 0 min 0,000 mm 0,5 UV-I 140 W/m 2,7 C 1,1 C 14,5 km/h (3 Bft) 100,00 %
16.02.2018 11:12 3,1 C 4,4 C 97 % 1026,2 hPa 0,0 l/m 13,8 km/h (3 Bft) W-SW 243 0 min 0,000 mm 0,5 UV-I 145 W/m 2,7 C -2,5 C 17,7 km/h (3 Bft) 97,37 %
16.02.2018 11:13 3,1 C 4,4 C 97 % 1026,2 hPa 0,0 l/m 10,2 km/h (2 Bft) W-SW 247 0 min 0,000 mm 0,5 UV-I 150 W/m 2,7 C -0,2 C 14,5 km/h (3 Bft) 100,00 %
16.02.2018 11:14 3,1 C 4,4 C 97 % 1026,1 hPa 0,0 l/m 10,5 km/h (2 Bft) W 260 0 min 0,000 mm 0,6 UV-I 154 W/m 2,7 C -0,4 C 14,5 km/h (3 Bft) 100,00 %
16.02.2018 11:15 3,1 C 4,4 C 96 % 1026,2 hPa 0,0 l/m 11,3 km/h (2 Bft) W-SW 252 0 min 0,000 mm 0,6 UV-I 155 W/m 2,5 C -1,0 C 16,1 km/h (3 Bft) 100,00 %
16.02.2018 11:16 3,1 C 4,4 C 97 % 1026,2 hPa 0,0 l/m 12,7 km/h (3 Bft) W 259 0 min 0,000 mm 0,6 UV-I 155 W/m 2,7 C -1,9 C 19,3 km/h (3 Bft) 100,00 %
16.02.2018 11:17 3,2 C 4,4 C 97 % 1026,2 hPa 0,0 l/m 10,6 km/h (2 Bft) SW 227 0 min 0,000 mm 0,6 UV-I 155 W/m 2,8 C -0,4 C 14,5 km/h (3 Bft) 100,00 %
16.02.2018 11:18 3,2 C 4,4 C 97 % 1026,3 hPa 0,0 l/m 12,7 km/h (3 Bft) W 259 0 min 0,000 mm 0,6 UV-I 156 W/m 2,8 C -1,8 C 19,3 km/h (3 Bft) 100,00 %
16.02.2018 11:19 3,2 C 4,4 C 97 % 1026,3 hPa 0,0 l/m 11,0 km/h (2 Bft) W 263 0 min 0,000 mm 0,6 UV-I 160 W/m 2,8 C -0,6 C 12,9 km/h (3 Bft) 100,00 %
16.02.2018 11:20 3,2 C 4,4 C 97 % 1026,2 hPa 0,0 l/m 10,7 km/h (2 Bft) W 259 0 min 0,000 mm 0,6 UV-I 165 W/m 2,8 C -0,4 C 14,5 km/h (3 Bft) 95,83 %
16.02.2018 11:21 3,2 C 4,4 C 96 % 1026,2 hPa 0,0 l/m 8,9 km/h (2 Bft) W-SW 250 0 min 0,000 mm 0,6 UV-I 168 W/m 2,6 C 0,9 C 11,3 km/h (2 Bft) 100,00 %
16.02.2018 11:22 3,3 C 4,4 C 96 % 1026,2 hPa 0,0 l/m 7,8 km/h (2 Bft) W-SW 248 0 min 0,000 mm 0,6 UV-I 167 W/m 2,7 C 2,0 C 11,3 km/h (2 Bft) 100,00 %
16.02.2018 11:23 3,3 C 4,4 C 96 % 1026,2 hPa 0,0 l/m 7,0 km/h (2 Bft) W 267 0 min 0,000 mm 0,6 UV-I 156 W/m 2,7 C 2,7 C 11,3 km/h (2 Bft) 100,00 %
16.02.2018 11:24 3,3 C 4,4 C 96 % 1026,3 hPa 0,0 l/m 7,0 km/h (2 Bft) W 264 0 min 0,000 mm 0,5 UV-I 143 W/m 2,7 C 2,7 C 11,3 km/h (2 Bft) 100,00 %
16.02.2018 11:25 3,3 C 4,4 C 96 % 1026,3 hPa 0,0 l/m 8,3 km/h (2 Bft) W 275 0 min 0,000 mm 0,5 UV-I 130 W/m 2,7 C 1,6 C 14,5 km/h (3 Bft) 100,00 %
16.02.2018 11:26 3,3 C 4,4 C 96 % 1026,3 hPa 0,0 l/m 8,0 km/h (2 Bft) W 270 0 min 0,000 mm 0,5 UV-I 122 W/m 2,7 C 1,8 C 12,9 km/h (3 Bft) 100,00 %
16.02.2018 11:27 3,3 C 4,4 C 96 % 1026,2 hPa 0,0 l/m 4,8 km/h (1 Bft) W-SW 255 0 min 0,000 mm 0,5 UV-I 121 W/m 2,7 C 3,3 C 6,4 km/h (2 Bft) 100,00 %
16.02.2018 11:28 3,3 C 4,4 C 97 % 1026,2 hPa 0,0 l/m 5,6 km/h (1 Bft) W-SW 257 0 min 0,000 mm 0,5 UV-I 125 W/m 2,9 C 3,3 C 11,3 km/h (2 Bft) 100,00 %
16.02.2018 11:29 3,3 C 4,4 C 96 % 1026,2 hPa 0,0 l/m 6,8 km/h (2 Bft) W 259 0 min 0,000 mm 0,5 UV-I 128 W/m 2,7 C 2,9 C 12,9 km/h (3 Bft) 100,00 %
16.02.2018 11:30 3,4 C 4,4 C 96 % 1026,2 hPa 0,0 l/m 9,1 km/h (2 Bft) W 264 0 min 0,000 mm 0,5 UV-I 130 W/m 2,8 C 1,0 C 11,3 km/h (2 Bft) 100,00 %
16.02.2018 11:31 3,3 C 4,4 C 96 % 1026,2 hPa 0,0 l/m 8,9 km/h (2 Bft) W 274 0 min 0,000 mm 0,5 UV-I 133 W/m 2,7 C 1,1 C 12,9 km/h (3 Bft) 95,83 %
16.02.2018 11:32 3,3 C 4,4 C 96 % 1026,2 hPa 0,0 l/m 8,0 km/h (2 Bft) SW 236 0 min 0,000 mm 0,5 UV-I 134 W/m 2,7 C 1,8 C 11,3 km/h (2 Bft) 95,65 %
16.02.2018 11:33 3,4 C 4,4 C 96 % 1026,2 hPa 0,0 l/m 6,7 km/h (2 Bft) W 267 0 min 0,000 mm 0,5 UV-I 135 W/m 2,8 C 3,1 C 9,7 km/h (2 Bft) 100,00 %
16.02.2018 11:34 3,4 C 4,4 C 96 % 1026,2 hPa 0,0 l/m 9,9 km/h (2 Bft) W-SW 254 0 min 0,000 mm 0,5 UV-I 141 W/m 2,8 C 0,4 C 14,5 km/h (3 Bft) 95,65 %
16.02.2018 11:35 3,4 C 4,4 C 96 % 1026,2 hPa 0,0 l/m 10,7 km/h (2 Bft) W-SW 245 0 min 0,000 mm 0,5 UV-I 137 W/m 2,8 C -0,2 C 16,1 km/h (3 Bft) 100,00 %
16.02.2018 11:36 3,4 C 4,4 C 96 % 1026,3 hPa 0,0 l/m 8,5 km/h (2 Bft) W 277 0 min 0,000 mm 0,4 UV-I 126 W/m 2,8 C 1,5 C 12,9 km/h (3 Bft) 100,00 %
16.02.2018 11:37 3,4 C 4,4 C 96 % 1026,4 hPa 0,0 l/m 10,9 km/h (2 Bft) W 264 0 min 0,000 mm 0,2 UV-I 119 W/m 2,8 C -0,3 C 16,1 km/h (3 Bft) 100,00 %
16.02.2018 11:38 3,4 C 4,4 C 96 % 1026,3 hPa 0,0 l/m 8,0 km/h (2 Bft) W 263 0 min 0,000 mm 0,5 UV-I 122 W/m 2,8 C 1,9 C 12,9 km/h (3 Bft) 100,00 %
16.02.2018 11:39 3,4 C 4,4 C 96 % 1026,3 hPa 0,0 l/m 6,0 km/h (2 Bft) W-SW 252 0 min 0,000 mm 0,5 UV-I 130 W/m 2,8 C 3,4 C 8,0 km/h (2 Bft) 95,83 %
16.02.2018 11:40 3,4 C 4,4 C 96 % 1026,3 hPa 0,0 l/m 6,4 km/h (2 Bft) W-SW 239 0 min 0,000 mm 0,5 UV-I 137 W/m 2,8 C 3,4 C 8,0 km/h (2 Bft) 100,00 %
16.02.2018 11:41 3,4 C 4,4 C 96 % 1026,3 hPa 0,0 l/m 5,5 km/h (1 Bft) W 259 0 min 0,000 mm 0,6 UV-I 148 W/m 2,8 C 3,4 C 9,7 km/h (2 Bft) 100,00 %
16.02.2018 11:42 3,4 C 4,4 C 96 % 1026,2 hPa 0,0 l/m 4,2 km/h (1 Bft) W 259 0 min 0,000 mm 0,6 UV-I 157 W/m 2,8 C 3,4 C 6,4 km/h (2 Bft) 100,00 %
16.02.2018 11:43 3,4 C 4,4 C 96 % 1026,3 hPa 0,0 l/m 4,7 km/h (1 Bft) W 262 0 min 0,000 mm 0,6 UV-I 159 W/m 2,8 C 3,4 C 6,4 km/h (2 Bft) 100,00 %
16.02.2018 11:44 3,5 C 4,4 C 96 % 1026,3 hPa 0,0 l/m 6,2 km/h (2 Bft) W-SW 241 0 min 0,000 mm 0,6 UV-I 152 W/m 2,9 C 3,5 C 9,7 km/h (2 Bft) 100,00 %
16.02.2018 11:45 3,5 C 4,4 C 96 % 1026,3 hPa 0,0 l/m 6,7 km/h (2 Bft) W 270 0 min 0,000 mm 0,5 UV-I 146 W/m 2,9 C 3,2 C 11,3 km/h (2 Bft) 100,00 %
16.02.2018 11:46 3,6 C 4,4 C 96 % 1026,3 hPa 0,0 l/m 5,2 km/h (1 Bft) W 271 0 min 0,000 mm 0,5 UV-I 135 W/m 3,0 C 3,6 C 6,4 km/h (2 Bft) 100,00 %
16.02.2018 11:47 3,6 C 4,4 C 96 % 1026,3 hPa 0,0 l/m 5,8 km/h (2 Bft) W 272 0 min 0,000 mm 0,5 UV-I 135 W/m 3,0 C 3,6 C 6,4 km/h (2 Bft) 100,00 %
16.02.2018 11:48 3,7 C 4,4 C 96 % 1026,3 hPa 0,0 l/m 4,4 km/h (1 Bft) W 273 0 min 0,000 mm 0,5 UV-I 141 W/m 3,1 C 3,7 C 6,4 km/h (2 Bft) 100,00 %
16.02.2018 11:49 3,7 C 4,4 C 96 % 1026,4 hPa 0,0 l/m 4,7 km/h (1 Bft) W 273 0 min 0,000 mm 0,5 UV-I 130 W/m 3,1 C 3,7 C 6,4 km/h (2 Bft) 95,65 %
16.02.2018 11:50 3,7 C 4,4 C 96 % 1026,4 hPa 0,0 l/m 4,8 km/h (1 Bft) W 269 0 min 0,000 mm 0,5 UV-I 120 W/m 3,1 C 3,7 C 6,4 km/h (2 Bft) 100,00 %
16.02.2018 11:51 3,7 C 4,4 C 96 % 1026,4 hPa 0,0 l/m 5,0 km/h (1 Bft) W 269 0 min 0,000 mm 0,5 UV-I 120 W/m 3,1 C 3,7 C 6,4 km/h (2 Bft) 100,00 %
16.02.2018 11:52 3,7 C 4,4 C 96 % 1026,4 hPa 0,0 l/m 6,4 km/h (2 Bft) W 278 0 min 0,000 mm 0,1 UV-I 118 W/m 3,1 C 3,7 C 11,3 km/h (2 Bft) 100,00 %
16.02.2018 11:53 3,7 C 4,4 C 96 % 1026,5 hPa 0,0 l/m 6,8 km/h (2 Bft) W 263 0 min 0,000 mm 0,5 UV-I 121 W/m 3,1 C 3,3 C 9,7 km/h (2 Bft) 100,00 %
16.02.2018 11:54 3,6 C 4,4 C 96 % 1026,4 hPa 0,0 l/m 7,1 km/h (2 Bft) W 273 0 min 0,000 mm 0,5 UV-I 123 W/m 3,0 C 3,0 C 11,3 km/h (2 Bft) 100,00 %
16.02.2018 11:55 3,6 C 4,4 C 96 % 1026,5 hPa 0,0 l/m 6,5 km/h (2 Bft) W 269 0 min 0,000 mm 0,3 UV-I 120 W/m 3,0 C 3,5 C 11,3 km/h (2 Bft) 100,00 %
16.02.2018 11:56 3,6 C 4,4 C 96 % 1026,4 hPa 0,0 l/m 7,4 km/h (2 Bft) W 281 0 min 0,000 mm 0,0 UV-I 110 W/m 3,0 C 2,7 C 11,3 km/h (2 Bft) 100,00 %
16.02.2018 11:57 3,6 C 4,4 C 96 % 1026,4 hPa 0,0 l/m 8,2 km/h (2 Bft) W 259 0 min 0,000 mm 0,0 UV-I 110 W/m 3,0 C 2,0 C 11,3 km/h (2 Bft) 95,65 %
16.02.2018 11:58 3,6 C 4,4 C 96 % 1026,5 hPa 0,0 l/m 5,5 km/h (1 Bft) W 267 0 min 0,000 mm 0,4 UV-I 118 W/m 3,0 C 3,6 C 11,3 km/h (2 Bft) 95,83 %
16.02.2018 11:59 3,6 C 4,4 C 96 % 1026,5 hPa 0,0 l/m 4,6 km/h (1 Bft) W 270 0 min 0,000 mm 0,0 UV-I 106 W/m 3,0 C 3,6 C 6,4 km/h (2 Bft) 100,00 %
16.02.2018 12:00 3,6 C 4,4 C 96 % 1026,5 hPa 0,0 l/m 6,8 km/h (2 Bft) W 269 0 min 0,051 mm 0,0 UV-I 92 W/m 3,0 C 3,2 C 11,3 km/h (2 Bft) 100,00 %
16.02.2018 12:01 3,6 C 4,4 C 96 % 1026,6 hPa 0,0 l/m 6,2 km/h (2 Bft) NW 308 0 min 0,000 mm 0,0 UV-I 84 W/m 3,0 C 3,6 C 11,3 km/h (2 Bft) 100,00 %
16.02.2018 12:02 3,6 C 4,4 C 96 % 1026,6 hPa 0,0 l/m 5,8 km/h (2 Bft) W 271 0 min 0,000 mm 0,0 UV-I 87 W/m 3,0 C 3,6 C 11,3 km/h (2 Bft) 95,65 %
16.02.2018 12:03 3,6 C 4,4 C 96 % 1026,6 hPa 0,0 l/m 4,8 km/h (1 Bft) W 275 0 min 0,000 mm 0,0 UV-I 83 W/m 3,0 C 3,6 C 9,7 km/h (2 Bft) 100,00 %
16.02.2018 12:04 3,6 C 4,4 C 96 % 1026,6 hPa 0,0 l/m 3,4 km/h (1 Bft) NW 306 0 min 0,000 mm 0,0 UV-I 78 W/m 3,0 C 3,6 C 4,8 km/h (1 Bft) 100,00 %
16.02.2018 12:05 3,6 C 4,4 C 96 % 1026,6 hPa 0,0 l/m 4,0 km/h (1 Bft) W-SW 254 0 min 0,000 mm 0,0 UV-I 75 W/m 3,0 C 3,6 C 6,4 km/h (2 Bft) 100,00 %
16.02.2018 12:06 3,6 C 4,4 C 96 % 1026,6 hPa 0,0 l/m 2,3 km/h (1 Bft) W-NW 283 0 min 0,000 mm 0,0 UV-I 78 W/m 3,0 C 3,6 C 4,8 km/h (1 Bft) 95,65 %
16.02.2018 12:07 3,5 C 4,4 C 96 % 1026,6 hPa 0,0 l/m 4,4 km/h (1 Bft) N-NW 331 0 min 0,000 mm 0,0 UV-I 78 W/m 2,9 C 3,5 C 6,4 km/h (2 Bft) 100,00 %
16.02.2018 12:08 3,5 C 4,4 C 96 % 1026,6 hPa 0,0 l/m 5,6 km/h (1 Bft) W 270 0 min 0,000 mm 0,0 UV-I 76 W/m 2,9 C 3,5 C 9,7 km/h (2 Bft) 100,00 %
16.02.2018 12:09 3,5 C 4,4 C 96 % 1026,7 hPa 0,0 l/m 2,3 km/h (1 Bft) NW 324 0 min 0,000 mm 0,0 UV-I 73 W/m 2,9 C 3,5 C 4,8 km/h (1 Bft) 100,00 %
16.02.2018 12:10 3,5 C 4,4 C 96 % 1026,7 hPa 0,0 l/m 2,5 km/h (1 Bft) NW 324 0 min 0,000 mm 0,0 UV-I 77 W/m 2,9 C 3,5 C 4,8 km/h (1 Bft) 100,00 %
16.02.2018 12:11 3,5 C 4,4 C 96 % 1026,7 hPa 0,0 l/m 3,4 km/h (1 Bft) W 275 0 min 0,000 mm 0,0 UV-I 75 W/m 2,9 C 3,5 C 4,8 km/h (1 Bft) 100,00 %
16.02.2018 12:12 3,4 C 4,4 C 97 % 1026,7 hPa 0,0 l/m 2,6 km/h (1 Bft) W 275 0 min 0,000 mm 0,0 UV-I 66 W/m 3,0 C 3,4 C 3,2 km/h (1 Bft) 100,00 %
16.02.2018 12:13 3,5 C 4,4 C 97 % 1026,7 hPa 0,0 l/m 2,0 km/h (1 Bft) W-NW 296 0 min 0,000 mm 0,0 UV-I 60 W/m 3,1 C 3,5 C 3,2 km/h (1 Bft) 100,00 %
16.02.2018 12:14 3,4 C 4,4 C 97 % 1026,7 hPa 0,0 l/m 1,6 km/h (1 Bft) W-NW 296 0 min 0,000 mm 0,0 UV-I 62 W/m 3,0 C 3,4 C 3,2 km/h (1 Bft) 95,65 %
16.02.2018 12:15 3,4 C 4,4 C 97 % 1026,7 hPa 0,0 l/m 2,3 km/h (1 Bft) W-NW 296 0 min 0,000 mm 0,0 UV-I 69 W/m 3,0 C 3,4 C 3,2 km/h (1 Bft) 100,00 %
16.02.2018 12:16 3,4 C 4,4 C 97 % 1026,7 hPa 0,0 l/m 1,6 km/h (1 Bft) W-NW 296 0 min 0,000 mm 0,0 UV-I 76 W/m 3,0 C 3,4 C 3,2 km/h (1 Bft) 95,65 %
16.02.2018 12:17 3,4 C 4,4 C 97 % 1026,7 hPa 0,0 l/m 4,2 km/h (1 Bft) W-NW 288 0 min 0,000 mm 0,0 UV-I 86 W/m 3,0 C 3,4 C 6,4 km/h (2 Bft) 100,00 %
16.02.2018 12:18 3,4 C 4,4 C 97 % 1026,7 hPa 0,0 l/m 4,5 km/h (1 Bft) NW 306 0 min 0,000 mm 0,0 UV-I 90 W/m 3,0 C 3,4 C 6,4 km/h (2 Bft) 100,00 %
16.02.2018 12:19 3,4 C 4,4 C 97 % 1026,7 hPa 0,0 l/m 3,1 km/h (1 Bft) NW 305 0 min 0,000 mm 0,0 UV-I 91 W/m 3,0 C 3,4 C 4,8 km/h (1 Bft) 100,00 %
16.02.2018 12:20 3,4 C 4,4 C 97 % 1026,7 hPa 0,0 l/m 1,5 km/h (1 Bft) NW 305 0 min 0,000 mm 0,0 UV-I 90 W/m 3,0 C 3,4 C 3,2 km/h (1 Bft) 100,00 %
16.02.2018 12:21 3,5 C 4,4 C 97 % 1026,7 hPa 0,2 l/m 2,6 km/h (1 Bft) NW 305 0 min 0,000 mm 0,0 UV-I 86 W/m 3,1 C 3,5 C 4,8 km/h (1 Bft) 100,00 %
16.02.2018 12:22 3,5 C 4,4 C 97 % 1026,7 hPa 0,0 l/m 4,0 km/h (1 Bft) W 270 0 min 0,000 mm 0,0 UV-I 86 W/m 3,1 C 3,5 C 9,7 km/h (2 Bft) 95,83 %
16.02.2018 12:23 3,5 C 4,4 C 97 % 1026,7 hPa 0,0 l/m 5,4 km/h (1 Bft) W 274 0 min 0,000 mm 0,0 UV-I 88 W/m 3,1 C 3,5 C 11,3 km/h (2 Bft) 91,30 %
16.02.2018 12:24 3,4 C 4,4 C 97 % 1026,7 hPa 0,0 l/m 3,0 km/h (1 Bft) W 274 0 min 0,000 mm 0,0 UV-I 96 W/m 3,0 C 3,4 C 4,8 km/h (1 Bft) 100,00 %
16.02.2018 12:25 3,5 C 4,4 C 97 % 1026,7 hPa 0,0 l/m 4,0 km/h (1 Bft) NW 314 0 min 0,000 mm 0,0 UV-I 101 W/m 3,1 C 3,5 C 6,4 km/h (2 Bft) 95,65 %
16.02.2018 12:26 3,5 C 4,4 C 97 % 1026,7 hPa 0,0 l/m 8,7 km/h (2 Bft) W 259 0 min 0,000 mm 0,0 UV-I 99 W/m 3,1 C 1,4 C 12,9 km/h (3 Bft) 100,00 %
16.02.2018 12:27 3,4 C 4,4 C 97 % 1026,7 hPa 0,0 l/m 5,4 km/h (1 Bft) W-SW 257 0 min 0,000 mm 0,0 UV-I 91 W/m 3,0 C 3,4 C 6,4 km/h (2 Bft) 91,30 %
16.02.2018 12:28 3,4 C 4,4 C 97 % 1026,7 hPa 0,0 l/m 5,9 km/h (2 Bft) W 275 0 min 0,000 mm 0,0 UV-I 88 W/m 3,0 C 3,4 C 9,7 km/h (2 Bft) 95,83 %
16.02.2018 12:29 3,4 C 4,4 C 97 % 1026,7 hPa 0,0 l/m 7,5 km/h (2 Bft) W-NW 287 0 min 0,000 mm 0,0 UV-I 89 W/m 3,0 C 2,4 C 11,3 km/h (2 Bft) 95,65 %
16.02.2018 12:30 3,4 C 4,4 C 97 % 1026,7 hPa 0,0 l/m 5,8 km/h (2 Bft) W 272 0 min 0,000 mm 0,0 UV-I 92 W/m 3,0 C 3,4 C 6,4 km/h (2 Bft) 100,00 %
16.02.2018 12:31 3,4 C 4,4 C 97 % 1026,6 hPa 0,0 l/m 5,5 km/h (1 Bft) W 270 0 min 0,000 mm 0,0 UV-I 94 W/m 3,0 C 3,4 C 9,7 km/h (2 Bft) 96,15 %
16.02.2018 12:32 3,5 C 4,4 C 97 % 1026,6 hPa 0,0 l/m 2,9 km/h (1 Bft) W 270 0 min 0,000 mm 0,3 UV-I 99 W/m 3,1 C 3,5 C 4,8 km/h (1 Bft) 95,83 %
16.02.2018 12:33 3,5 C 4,4 C 97 % 1026,6 hPa 0,0 l/m 5,0 km/h (1 Bft) W-NW 298 0 min 0,000 mm 0,5 UV-I 107 W/m 3,1 C 3,5 C 11,3 km/h (2 Bft) 91,67 %
16.02.2018 12:34 3,5 C 4,4 C 97 % 1026,6 hPa 0,0 l/m 4,6 km/h (1 Bft) W-NW 284 0 min 0,000 mm 0,5 UV-I 116 W/m 3,1 C 3,5 C 6,4 km/h (2 Bft) 95,65 %
16.02.2018 12:35 3,6 C 4,4 C 97 % 1026,6 hPa 0,0 l/m 4,2 km/h (1 Bft) NW 312 0 min 0,000 mm 0,4 UV-I 111 W/m 3,2 C 3,6 C 6,4 km/h (2 Bft) 100,00 %
16.02.2018 12:36 3,6 C 4,4 C 97 % 1026,6 hPa 0,0 l/m 4,2 km/h (1 Bft) NW 319 0 min 0,000 mm 0,0 UV-I 103 W/m 3,2 C 3,6 C 8,0 km/h (2 Bft) 95,65 %
16.02.2018 12:37 3,6 C 4,4 C 97 % 1026,6 hPa 0,0 l/m 4,5 km/h (1 Bft) W 271 0 min 0,000 mm 0,0 UV-I 101 W/m 3,2 C 3,6 C 9,7 km/h (2 Bft) 100,00 %
16.02.2018 12:38 3,6 C 4,4 C 97 % 1026,6 hPa 0,0 l/m 5,1 km/h (1 Bft) W 277 0 min 0,000 mm 0,0 UV-I 110 W/m 3,2 C 3,6 C 9,7 km/h (2 Bft) 91,30 %
16.02.2018 12:39 3,6 C 4,4 C 97 % 1026,6 hPa 0,0 l/m 3,1 km/h (1 Bft) W 277 0 min 0,000 mm 0,0 UV-I 98 W/m 3,2 C 3,6 C 4,8 km/h (1 Bft) 100,00 %
16.02.2018 12:40 3,6 C 4,4 C 97 % 1026,6 hPa 0,0 l/m 2,9 km/h (1 Bft) W 277 0 min 0,000 mm 0,0 UV-I 99 W/m 3,2 C 3,6 C 4,8 km/h (1 Bft) 95,65 %
16.02.2018 12:41 3,6 C 4,4 C 97 % 1026,7 hPa 0,0 l/m 7,6 km/h (2 Bft) W 275 0 min 0,000 mm 0,0 UV-I 99 W/m 3,2 C 2,5 C 11,3 km/h (2 Bft) 100,00 %
16.02.2018 12:42 3,6 C 4,4 C 97 % 1026,6 hPa 0,0 l/m 6,0 km/h (2 Bft) W 264 0 min 0,000 mm 0,0 UV-I 94 W/m 3,2 C 3,6 C 11,3 km/h (2 Bft) 95,65 %
16.02.2018 12:43 3,6 C 4,4 C 97 % 1026,6 hPa 0,0 l/m 5,3 km/h (1 Bft) W 281 0 min 0,000 mm 0,0 UV-I 97 W/m 3,2 C 3,6 C 9,7 km/h (2 Bft) 95,83 %
16.02.2018 12:44 3,6 C 4,4 C 97 % 1026,6 hPa 0,0 l/m 5,4 km/h (1 Bft) W-NW 282 0 min 0,000 mm 0,0 UV-I 92 W/m 3,2 C 3,6 C 6,4 km/h (2 Bft) 100,00 %
16.02.2018 12:45 3,6 C 4,4 C 97 % 1026,6 hPa 0,0 l/m 5,9 km/h (2 Bft) W 277 0 min 0,000 mm 0,0 UV-I 95 W/m 3,2 C 3,6 C 9,7 km/h (2 Bft) 96,67 %
16.02.2018 12:46 3,6 C 4,4 C 97 % 1026,6 hPa 0,0 l/m 7,3 km/h (2 Bft) W 263 0 min 0,000 mm 0,0 UV-I 100 W/m 3,2 C 2,8 C 11,3 km/h (2 Bft) 100,00 %
16.02.2018 12:47 3,6 C 4,4 C 97 % 1026,6 hPa 0,0 l/m 9,2 km/h (2 Bft) W 274 0 min 0,000 mm 0,0 UV-I 101 W/m 3,2 C 1,1 C 12,9 km/h (3 Bft) 92,59 %
16.02.2018 12:48 3,6 C 4,4 C 97 % 1026,7 hPa 0,0 l/m 9,9 km/h (2 Bft) W-SW 252 0 min 0,000 mm 0,0 UV-I 107 W/m 3,2 C 0,6 C 12,9 km/h (3 Bft) 95,65 %
16.02.2018 12:49 3,6 C 4,4 C 97 % 1026,6 hPa 0,0 l/m 5,7 km/h (1 Bft) W 277 0 min 0,000 mm 0,0 UV-I 106 W/m 3,2 C 3,6 C 6,4 km/h (2 Bft) 100,00 %
16.02.2018 12:50 3,6 C 4,4 C 97 % 1026,6 hPa 0,0 l/m 5,7 km/h (1 Bft) W 272 0 min 0,000 mm 0,0 UV-I 105 W/m 3,2 C 3,6 C 9,7 km/h (2 Bft) 100,00 %
16.02.2018 12:51 3,6 C 4,4 C 97 % 1026,6 hPa 0,0 l/m 3,6 km/h (1 Bft) W 274 0 min 0,000 mm 0,5 UV-I 121 W/m 3,2 C 3,6 C 4,8 km/h (1 Bft) 96,30 %
16.02.2018 12:52 3,6 C 4,4 C 97 % 1026,5 hPa 0,0 l/m 3,4 km/h (1 Bft) W 274 0 min 0,000 mm 0,5 UV-I 128 W/m 3,2 C 3,6 C 4,8 km/h (1 Bft) 95,65 %
16.02.2018 12:53 3,7 C 4,4 C 97 % 1026,5 hPa 0,0 l/m 5,2 km/h (1 Bft) W 265 0 min 0,000 mm 0,4 UV-I 111 W/m 3,3 C 3,7 C 6,4 km/h (2 Bft) 100,00 %
16.02.2018 12:54 3,7 C 4,4 C 97 % 1026,6 hPa 0,0 l/m 5,8 km/h (2 Bft) W 261 0 min 0,000 mm 0,0 UV-I 94 W/m 3,3 C 3,7 C 9,7 km/h (2 Bft) 91,30 %
16.02.2018 12:55 3,7 C 4,4 C 97 % 1026,6 hPa 0,0 l/m 4,8 km/h (1 Bft) W 261 0 min 0,000 mm 0,0 UV-I 96 W/m 3,3 C 3,7 C 6,4 km/h (2 Bft) 100,00 %
16.02.2018 12:56 3,7 C 4,4 C 97 % 1026,7 hPa 0,0 l/m 6,8 km/h (2 Bft) W 266 0 min 0,000 mm 0,4 UV-I 116 W/m 3,3 C 3,3 C 9,7 km/h (2 Bft) 96,15 %
16.02.2018 12:57 3,7 C 4,4 C 96 % 1026,6 hPa 0,0 l/m 4,6 km/h (1 Bft) W-NW 296 0 min 0,000 mm 0,5 UV-I 123 W/m 3,1 C 3,7 C 9,7 km/h (2 Bft) 100,00 %
16.02.2018 12:58 3,7 C 4,4 C 96 % 1026,6 hPa 0,0 l/m 2,9 km/h (1 Bft) W-NW 296 0 min 0,000 mm 0,5 UV-I 123 W/m 3,1 C 3,7 C 4,8 km/h (1 Bft) 100,00 %
16.02.2018 12:59 3,7 C 4,4 C 96 % 1026,6 hPa 0,0 l/m 4,3 km/h (1 Bft) W 268 0 min 0,000 mm 0,5 UV-I 118 W/m 3,1 C 3,7 C 6,4 km/h (2 Bft) 100,00 %
16.02.2018 13:00 3,7 C 4,4 C 96 % 1026,6 hPa 0,0 l/m 4,2 km/h (1 Bft) W 278 0 min 0,025 mm 0,2 UV-I 115 W/m 3,1 C 3,7 C 6,4 km/h (2 Bft) 95,83 %
16.02.2018 13:01 3,7 C 4,4 C 96 % 1026,6 hPa 0,0 l/m 3,8 km/h (1 Bft) W 277 0 min 0,000 mm 0,0 UV-I 103 W/m 3,1 C 3,7 C 6,4 km/h (2 Bft) 100,00 %
16.02.2018 13:02 3,7 C 4,4 C 96 % 1026,6 hPa 0,0 l/m 3,5 km/h (1 Bft) W 275 0 min 0,000 mm 0,0 UV-I 98 W/m 3,1 C 3,7 C 6,4 km/h (2 Bft) 100,00 %
16.02.2018 13:03 3,7 C 4,4 C 96 % 1026,5 hPa 0,0 l/m 5,1 km/h (1 Bft) W 281 0 min 0,000 mm 0,0 UV-I 106 W/m 3,1 C 3,7 C 6,4 km/h (2 Bft) 100,00 %
16.02.2018 13:04 3,7 C 4,4 C 97 % 1026,6 hPa 0,0 l/m 3,6 km/h (1 Bft) W 280 0 min 0,000 mm 0,0 UV-I 104 W/m 3,3 C 3,7 C 6,4 km/h (2 Bft) 100,00 %
16.02.2018 13:05 3,7 C 4,4 C 97 % 1026,6 hPa 0,0 l/m 3,5 km/h (1 Bft) W 280 0 min 0,000 mm 0,0 UV-I 96 W/m 3,3 C 3,7 C 4,8 km/h (1 Bft) 95,65 %
16.02.2018 13:06 3,7 C 4,4 C 97 % 1026,6 hPa 0,0 l/m 0,3 km/h (0 Bft) W 280 0 min 0,000 mm 0,0 UV-I 96 W/m 3,3 C 3,7 C 1,6 km/h (1 Bft) 100,00 %
16.02.2018 13:07 3,7 C 4,4 C 97 % 1026,5 hPa 0,0 l/m 1,5 km/h (1 Bft) W 280 0 min 0,000 mm 0,0 UV-I 97 W/m 3,3 C 3,7 C 3,2 km/h (1 Bft) 95,65 %
16.02.2018 13:08 3,7 C 4,4 C 97 % 1026,5 hPa 0,0 l/m 1,9 km/h (1 Bft) W 280 0 min 0,000 mm 0,0 UV-I 94 W/m 3,3 C 3,7 C 3,2 km/h (1 Bft) 100,00 %
16.02.2018 13:09 3,7 C 4,4 C 97 % 1026,5 hPa 0,0 l/m 0,9 km/h (0 Bft) W 280 0 min 0,000 mm 0,5 UV-I 108 W/m 3,3 C 3,7 C 1,6 km/h (1 Bft) 100,00 %
16.02.2018 13:10 3,7 C 4,4 C 97 % 1026,5 hPa 0,0 l/m 1,4 km/h (1 Bft) W 280 0 min 0,000 mm 0,5 UV-I 123 W/m 3,3 C 3,7 C 3,2 km/h (1 Bft) 100,00 %
16.02.2018 13:11 3,7 C 4,4 C 97 % 1026,5 hPa 0,0 l/m 0,6 km/h (0 Bft) W 280 0 min 0,000 mm 0,6 UV-I 133 W/m 3,3 C 3,7 C 1,6 km/h (1 Bft) 100,00 %
16.02.2018 13:12 3,8 C 4,4 C 96 % 1026,5 hPa 0,0 l/m 1,9 km/h (1 Bft) W 280 0 min 0,000 mm 0,6 UV-I 153 W/m 3,2 C 3,8 C 3,2 km/h (1 Bft) 100,00 %
16.02.2018 13:13 3,8 C 4,4 C 96 % 1026,5 hPa 0,0 l/m 3,3 km/h (1 Bft) W 280 0 min 0,000 mm 0,7 UV-I 166 W/m 3,2 C 3,8 C 4,8 km/h (1 Bft) 100,00 %
16.02.2018 13:14 3,8 C 4,4 C 97 % 1026,4 hPa 0,0 l/m 2,6 km/h (1 Bft) W 280 0 min 0,000 mm 0,6 UV-I 153 W/m 3,4 C 3,8 C 3,2 km/h (1 Bft) 100,00 %
16.02.2018 13:15 3,8 C 4,4 C 97 % 1026,4 hPa 0,0 l/m 4,0 km/h (1 Bft) W 275 0 min 0,000 mm 0,6 UV-I 138 W/m 3,4 C 3,8 C 9,7 km/h (2 Bft) 100,00 %
16.02.2018 13:16 3,8 C 4,4 C 97 % 1026,5 hPa 0,0 l/m 4,4 km/h (1 Bft) W-NW 302 0 min 0,000 mm 0,5 UV-I 124 W/m 3,4 C 3,8 C 6,4 km/h (2 Bft) 100,00 %
16.02.2018 13:17 3,8 C 4,4 C 97 % 1026,5 hPa 0,0 l/m 6,1 km/h (2 Bft) W-NW 290 0 min 0,000 mm 0,5 UV-I 120 W/m 3,4 C 3,8 C 11,3 km/h (2 Bft) 100,00 %
16.02.2018 13:18 3,8 C 4,4 C 97 % 1026,5 hPa 0,0 l/m 5,6 km/h (1 Bft) W-NW 300 0 min 0,000 mm 0,5 UV-I 128 W/m 3,4 C 3,8 C 8,0 km/h (2 Bft) 100,00 %
16.02.2018 13:19 3,8 C 4,4 C 96 % 1026,5 hPa 0,0 l/m 2,9 km/h (1 Bft) W-NW 300 0 min 0,000 mm 0,5 UV-I 126 W/m 3,2 C 3,8 C 4,8 km/h (1 Bft) 100,00 %
16.02.2018 13:20 3,8 C 4,4 C 97 % 1026,5 hPa 0,0 l/m 2,8 km/h (1 Bft) W-NW 292 0 min 0,000 mm 0,5 UV-I 122 W/m 3,4 C 3,8 C 4,8 km/h (1 Bft) 100,00 %
16.02.2018 13:21 3,8 C 4,4 C 97 % 1026,5 hPa 0,0 l/m 2,5 km/h (1 Bft) W 270 0 min 0,000 mm 0,5 UV-I 144 W/m 3,4 C 3,8 C 6,4 km/h (2 Bft) 100,00 %
16.02.2018 13:22 3,8 C 4,4 C 97 % 1026,5 hPa 0,0 l/m 5,2 km/h (1 Bft) W 267 0 min 0,000 mm 0,5 UV-I 144 W/m 3,4 C 3,8 C 9,7 km/h (2 Bft) 100,00 %
16.02.2018 13:23 3,8 C 4,4 C 97 % 1026,5 hPa 0,0 l/m 4,5 km/h (1 Bft) W 266 0 min 0,000 mm 0,5 UV-I 136 W/m 3,4 C 3,8 C 6,4 km/h (2 Bft) 100,00 %
16.02.2018 13:24 3,8 C 4,4 C 97 % 1026,5 hPa 0,0 l/m 2,4 km/h (1 Bft) W 266 0 min 0,000 mm 0,5 UV-I 134 W/m 3,4 C 3,8 C 3,2 km/h (1 Bft) 100,00 %
16.02.2018 13:25 3,9 C 4,4 C 97 % 1026,5 hPa 0,0 l/m 2,9 km/h (1 Bft) W 266 0 min 0,000 mm 0,5 UV-I 130 W/m 3,5 C 3,9 C 4,8 km/h (1 Bft) 100,00 %
16.02.2018 13:26 3,9 C 4,4 C 97 % 1026,5 hPa 0,0 l/m 1,4 km/h (1 Bft) W 266 0 min 0,000 mm 0,5 UV-I 141 W/m 3,5 C 3,9 C 3,2 km/h (1 Bft) 100,00 %
16.02.2018 13:27 3,9 C 4,4 C 97 % 1026,5 hPa 0,0 l/m 1,1 km/h (1 Bft) W 266 0 min 0,000 mm 0,5 UV-I 160 W/m 3,5 C 3,9 C 4,8 km/h (1 Bft) 100,00 %
16.02.2018 13:28 3,9 C 4,4 C 97 % 1026,5 hPa 0,0 l/m 4,6 km/h (1 Bft) W 267 0 min 0,000 mm 0,6 UV-I 180 W/m 3,5 C 3,9 C 6,4 km/h (2 Bft) 100,00 %
16.02.2018 13:29 4,0 C 4,4 C 97 % 1026,4 hPa 0,0 l/m 4,4 km/h (1 Bft) W 269 0 min 0,000 mm 0,6 UV-I 183 W/m 3,6 C 4,0 C 6,4 km/h (2 Bft) 100,00 %
16.02.2018 13:30 4,0 C 4,4 C 97 % 1026,4 hPa 0,0 l/m 2,7 km/h (1 Bft) W 269 0 min 0,000 mm 0,6 UV-I 174 W/m 3,6 C 4,0 C 4,8 km/h (1 Bft) 95,83 %
16.02.2018 13:31 4,0 C 4,4 C 97 % 1026,4 hPa 0,0 l/m 3,4 km/h (1 Bft) W 269 0 min 0,000 mm 0,5 UV-I 164 W/m 3,6 C 4,0 C 4,8 km/h (1 Bft) 100,00 %
16.02.2018 13:32 4,0 C 4,4 C 97 % 1026,4 hPa 0,0 l/m 4,8 km/h (1 Bft) W 261 0 min 0,000 mm 0,6 UV-I 178 W/m 3,6 C 4,0 C 6,4 km/h (2 Bft) 100,00 %
16.02.2018 13:33 4,1 C 4,4 C 96 % 1026,4 hPa 0,0 l/m 5,7 km/h (1 Bft) W 270 0 min 0,000 mm 0,7 UV-I 203 W/m 3,5 C 4,1 C 6,4 km/h (2 Bft) 100,00 %
16.02.2018 13:34 4,1 C 4,4 C 97 % 1026,4 hPa 0,0 l/m 7,8 km/h (2 Bft) W 265 0 min 0,000 mm 0,7 UV-I 203 W/m 3,7 C 2,8 C 11,3 km/h (2 Bft) 100,00 %
16.02.2018 13:35 4,1 C 4,4 C 97 % 1026,4 hPa 0,0 l/m 9,7 km/h (2 Bft) W 277 0 min 0,000 mm 0,6 UV-I 186 W/m 3,7 C 1,3 C 12,9 km/h (3 Bft) 100,00 %
16.02.2018 13:36 4,1 C 4,4 C 96 % 1026,5 hPa 0,0 l/m 5,5 km/h (1 Bft) W 268 0 min 0,000 mm 0,5 UV-I 172 W/m 3,5 C 4,1 C 6,4 km/h (2 Bft) 100,00 %
16.02.2018 13:37 4,1 C 4,4 C 96 % 1026,5 hPa 0,0 l/m 6,2 km/h (2 Bft) W-SW 257 0 min 0,000 mm 0,6 UV-I 171 W/m 3,5 C 4,1 C 9,7 km/h (2 Bft) 100,00 %
16.02.2018 13:38 4,1 C 4,4 C 96 % 1026,5 hPa 0,0 l/m 4,2 km/h (1 Bft) W 259 0 min 0,000 mm 0,6 UV-I 166 W/m 3,5 C 4,1 C 4,8 km/h (1 Bft) 100,00 %
16.02.2018 13:39 4,2 C 4,4 C 96 % 1026,5 hPa 0,0 l/m 5,2 km/h (1 Bft) W 259 0 min 0,000 mm 0,5 UV-I 159 W/m 3,6 C 4,2 C 6,4 km/h (2 Bft) 100,00 %
16.02.2018 13:40 4,2 C 4,4 C 96 % 1026,5 hPa 0,0 l/m 7,0 km/h (2 Bft) W 263 0 min 0,000 mm 0,5 UV-I 153 W/m 3,6 C 3,7 C 11,3 km/h (2 Bft) 100,00 %
16.02.2018 13:41 4,2 C 4,4 C 96 % 1026,5 hPa 0,0 l/m 8,1 km/h (2 Bft) W 271 0 min 0,000 mm 0,5 UV-I 152 W/m 3,6 C 2,7 C 11,3 km/h (2 Bft) 100,00 %
16.02.2018 13:42 4,1 C 4,4 C 96 % 1026,5 hPa 0,0 l/m 6,7 km/h (2 Bft) SW 234 0 min 0,000 mm 0,5 UV-I 147 W/m 3,5 C 3,8 C 11,3 km/h (2 Bft) 100,00 %
16.02.2018 13:43 4,2 C 4,4 C 96 % 1026,5 hPa 0,0 l/m 4,9 km/h (1 Bft) W-SW 246 0 min 0,000 mm 0,5 UV-I 148 W/m 3,6 C 4,2 C 9,7 km/h (2 Bft) 100,00 %
16.02.2018 13:44 4,2 C 4,4 C 96 % 1026,5 hPa 0,0 l/m 7,3 km/h (2 Bft) W-NW 282 0 min 0,000 mm 0,5 UV-I 146 W/m 3,6 C 3,4 C 12,9 km/h (3 Bft) 100,00 %
16.02.2018 13:45 4,2 C 4,4 C 96 % 1026,5 hPa 0,0 l/m 5,0 km/h (1 Bft) W 279 0 min 0,000 mm 0,5 UV-I 147 W/m 3,6 C 4,2 C 8,0 km/h (2 Bft) 100,00 %
16.02.2018 13:46 4,2 C 4,4 C 96 % 1026,5 hPa 0,0 l/m 5,9 km/h (2 Bft) W-SW 244 0 min 0,000 mm 0,5 UV-I 150 W/m 3,6 C 4,2 C 8,0 km/h (2 Bft) 100,00 %
16.02.2018 13:47 4,2 C 4,4 C 96 % 1026,4 hPa 0,0 l/m 7,1 km/h (2 Bft) W-SW 244 0 min 0,000 mm 0,5 UV-I 152 W/m 3,6 C 3,6 C 11,3 km/h (2 Bft) 100,00 %
16.02.2018 13:48 4,2 C 4,4 C 96 % 1026,4 hPa 0,0 l/m 7,4 km/h (2 Bft) SW 226 0 min 0,000 mm 0,5 UV-I 160 W/m 3,6 C 3,3 C 11,3 km/h (2 Bft) 100,00 %
16.02.2018 13:49 4,2 C 4,4 C 96 % 1026,3 hPa 0,0 l/m 5,6 km/h (1 Bft) W 266 0 min 0,000 mm 0,6 UV-I 174 W/m 3,6 C 4,2 C 6,4 km/h (2 Bft) 100,00 %
16.02.2018 13:50 4,2 C 4,4 C 96 % 1026,4 hPa 0,0 l/m 5,6 km/h (1 Bft) W 274 0 min 0,000 mm 0,6 UV-I 187 W/m 3,6 C 4,2 C 6,4 km/h (2 Bft) 100,00 %
16.02.2018 13:51 4,2 C 4,4 C 96 % 1026,4 hPa 0,0 l/m 5,2 km/h (1 Bft) SW 229 0 min 0,000 mm 0,6 UV-I 193 W/m 3,6 C 4,2 C 6,4 km/h (2 Bft) 95,65 %
16.02.2018 13:52 4,2 C 4,4 C 96 % 1026,4 hPa 0,0 l/m 2,9 km/h (1 Bft) SW 234 0 min 0,000 mm 0,6 UV-I 206 W/m 3,6 C 4,2 C 4,8 km/h (1 Bft) 100,00 %
16.02.2018 13:53 4,3 C 4,4 C 96 % 1026,4 hPa 0,0 l/m 5,1 km/h (1 Bft) W-SW 256 0 min 0,000 mm 0,6 UV-I 226 W/m 3,7 C 4,3 C 6,4 km/h (2 Bft) 100,00 %
16.02.2018 13:54 4,3 C 4,4 C 95 % 1026,4 hPa 0,0 l/m 4,9 km/h (1 Bft) W-SW 256 0 min 0,000 mm 0,7 UV-I 233 W/m 3,6 C 4,3 C 6,4 km/h (2 Bft) 95,83 %
16.02.2018 13:55 4,3 C 4,4 C 96 % 1026,4 hPa 0,0 l/m 3,0 km/h (1 Bft) W-SW 256 0 min 0,000 mm 0,7 UV-I 241 W/m 3,7 C 4,3 C 4,8 km/h (1 Bft) 100,00 %
16.02.2018 13:56 4,3 C 4,4 C 96 % 1026,3 hPa 0,0 l/m 6,0 km/h (2 Bft) W 259 0 min 0,000 mm 0,7 UV-I 238 W/m 3,7 C 4,3 C 9,7 km/h (2 Bft) 100,00 %
16.02.2018 13:57 4,4 C 4,4 C 95 % 1026,3 hPa 0,0 l/m 8,9 km/h (2 Bft) W-SW 242 0 min 0,000 mm 0,7 UV-I 234 W/m 3,7 C 2,2 C 12,9 km/h (3 Bft) 100,00 %
16.02.2018 13:58 4,4 C 4,4 C 96 % 1026,3 hPa 0,0 l/m 6,1 km/h (2 Bft) W 263 0 min 0,000 mm 0,6 UV-I 225 W/m 3,8 C 4,4 C 9,7 km/h (2 Bft) 95,65 %
16.02.2018 13:59 4,4 C 4,4 C 95 % 1026,3 hPa 0,0 l/m 6,5 km/h (2 Bft) W 261 0 min 0,000 mm 0,6 UV-I 212 W/m 3,7 C 4,3 C 8,0 km/h (2 Bft) 100,00 %
16.02.2018 14:00 4,4 C 4,4 C 95 % 1026,3 hPa 0,0 l/m 6,4 km/h (2 Bft) W 264 0 min 0,000 mm 0,6 UV-I 203 W/m 3,7 C 4,4 C 9,7 km/h (2 Bft) 100,00 %
16.02.2018 14:01 4,4 C 4,4 C 95 % 1026,3 hPa 0,0 l/m 6,3 km/h (2 Bft) W-SW 248 0 min 0,051 mm 0,6 UV-I 200 W/m 3,7 C 4,4 C 9,7 km/h (2 Bft) 95,83 %
16.02.2018 14:02 4,4 C 4,4 C 95 % 1026,2 hPa 0,0 l/m 5,5 km/h (1 Bft) W-SW 258 0 min 0,000 mm 0,6 UV-I 202 W/m 3,7 C 4,4 C 6,4 km/h (2 Bft) 100,00 %
16.02.2018 14:03 4,5 C 4,4 C 95 % 1026,2 hPa 0,0 l/m 8,5 km/h (2 Bft) W 267 0 min 0,000 mm 0,6 UV-I 198 W/m 3,8 C 2,7 C 11,3 km/h (2 Bft) 95,83 %
16.02.2018 14:04 4,5 C 4,4 C 95 % 1026,2 hPa 0,0 l/m 9,8 km/h (2 Bft) W 263 0 min 0,000 mm 0,6 UV-I 185 W/m 3,8 C 1,7 C 12,9 km/h (3 Bft) 100,00 %
16.02.2018 14:05 4,4 C 4,4 C 95 % 1026,3 hPa 0,0 l/m 5,4 km/h (1 Bft) W-SW 252 0 min 0,000 mm 0,2 UV-I 178 W/m 3,7 C 4,4 C 9,7 km/h (2 Bft) 95,83 %
16.02.2018 14:06 4,4 C 4,4 C 95 % 1026,2 hPa 0,0 l/m 6,7 km/h (2 Bft) W 271 0 min 0,000 mm 0,0 UV-I 141 W/m 3,7 C 4,1 C 9,7 km/h (2 Bft) 100,00 %
16.02.2018 14:07 4,4 C 4,4 C 95 % 1026,3 hPa 0,0 l/m 7,6 km/h (2 Bft) W 269 0 min 0,000 mm 0,0 UV-I 136 W/m 3,7 C 3,3 C 11,3 km/h (2 Bft) 95,83 %
16.02.2018 14:08 4,4 C 4,4 C 95 % 1026,3 hPa 0,0 l/m 4,7 km/h (1 Bft) W 264 0 min 0,000 mm 0,5 UV-I 144 W/m 3,7 C 4,4 C 6,4 km/h (2 Bft) 100,00 %
16.02.2018 14:09 4,4 C 4,4 C 94 % 1026,3 hPa 0,0 l/m 3,0 km/h (1 Bft) W 264 0 min 0,000 mm 0,5 UV-I 149 W/m 3,5 C 4,4 C 4,8 km/h (1 Bft) 95,83 %
16.02.2018 14:10 4,4 C 4,4 C 95 % 1026,3 hPa 0,0 l/m 4,1 km/h (1 Bft) W 277 0 min 0,000 mm 0,3 UV-I 134 W/m 3,7 C 4,4 C 6,4 km/h (2 Bft) 100,00 %
16.02.2018 14:11 4,4 C 4,4 C 95 % 1026,3 hPa 0,0 l/m 3,6 km/h (1 Bft) W 275 0 min 0,000 mm 0,0 UV-I 123 W/m 3,7 C 4,4 C 6,4 km/h (2 Bft) 95,83 %
16.02.2018 14:12 4,5 C 4,4 C 95 % 1026,3 hPa 0,0 l/m 5,1 km/h (1 Bft) W 261 0 min 0,000 mm 0,0 UV-I 127 W/m 3,8 C 4,5 C 8,0 km/h (2 Bft) 95,83 %
16.02.2018 14:13 4,5 C 4,4 C 95 % 1026,3 hPa 0,0 l/m 4,2 km/h (1 Bft) W 259 0 min 0,000 mm 0,0 UV-I 124 W/m 3,8 C 4,5 C 6,4 km/h (2 Bft) 100,00 %
16.02.2018 14:14 4,5 C 4,4 C 95 % 1026,3 hPa 0,0 l/m 3,3 km/h (1 Bft) W-SW 258 0 min 0,000 mm 0,0 UV-I 119 W/m 3,8 C 4,5 C 4,8 km/h (1 Bft) 95,83 %
16.02.2018 14:15 4,5 C 4,4 C 95 % 1026,3 hPa 0,0 l/m 6,4 km/h (2 Bft) W 269 0 min 0,000 mm 0,0 UV-I 121 W/m 3,8 C 4,5 C 9,7 km/h (2 Bft) 100,00 %
16.02.2018 14:16 4,5 C 4,4 C 95 % 1026,2 hPa 0,0 l/m 3,8 km/h (1 Bft) W 265 0 min 0,000 mm 0,0 UV-I 114 W/m 3,8 C 4,5 C 6,4 km/h (2 Bft) 95,83 %
16.02.2018 14:17 4,5 C 4,4 C 95 % 1026,2 hPa 0,0 l/m 4,3 km/h (1 Bft) W-NW 286 0 min 0,000 mm 0,0 UV-I 101 W/m 3,8 C 4,5 C 6,4 km/h (2 Bft) 100,00 %
16.02.2018 14:18 4,6 C 4,4 C 95 % 1026,2 hPa 0,0 l/m 4,2 km/h (1 Bft) W-NW 284 0 min 0,000 mm 0,0 UV-I 94 W/m 3,9 C 4,6 C 6,4 km/h (2 Bft) 95,83 %
16.02.2018 14:19 4,6 C 4,4 C 95 % 1026,3 hPa 0,0 l/m 4,4 km/h (1 Bft) W-NW 287 0 min 0,000 mm 0,0 UV-I 98 W/m 3,9 C 4,6 C 6,4 km/h (2 Bft) 100,00 %
16.02.2018 14:20 4,5 C 4,4 C 95 % 1026,4 hPa 0,0 l/m 5,2 km/h (1 Bft) W 280 0 min 0,000 mm 0,0 UV-I 97 W/m 3,8 C 4,5 C 9,7 km/h (2 Bft) 95,83 %
16.02.2018 14:21 4,6 C 4,4 C 95 % 1026,3 hPa 0,0 l/m 4,6 km/h (1 Bft) W-NW 300 0 min 0,000 mm 0,0 UV-I 90 W/m 3,9 C 4,6 C 6,4 km/h (2 Bft) 100,00 %
16.02.2018 14:22 4,5 C 4,4 C 95 % 1026,4 hPa 0,0 l/m 2,0 km/h (1 Bft) W-NW 300 0 min 0,000 mm 0,0 UV-I 94 W/m 3,8 C 4,5 C 4,8 km/h (1 Bft) 95,83 %
16.02.2018 14:23 4,5 C 4,4 C 95 % 1026,3 hPa 0,0 l/m 1,3 km/h (1 Bft) W-NW 300 0 min 0,000 mm 0,0 UV-I 93 W/m 3,8 C 4,5 C 3,2 km/h (1 Bft) 95,65 %
16.02.2018 14:24 4,6 C 4,4 C 95 % 1026,4 hPa 0,0 l/m 4,4 km/h (1 Bft) W-NW 297 0 min 0,000 mm 0,0 UV-I 84 W/m 3,9 C 4,6 C 6,4 km/h (2 Bft) 100,00 %
16.02.2018 14:25 4,6 C 4,4 C 95 % 1026,4 hPa 0,0 l/m 2,0 km/h (1 Bft) W-NW 297 0 min 0,000 mm 0,0 UV-I 81 W/m 3,9 C 4,6 C 3,2 km/h (1 Bft) 86,96 %
16.02.2018 14:26 4,6 C 4,4 C 95 % 1026,4 hPa 0,0 l/m 2,0 km/h (1 Bft) W-NW 290 0 min 0,000 mm 0,0 UV-I 78 W/m 3,9 C 4,6 C 3,2 km/h (1 Bft) 100,00 %
16.02.2018 14:27 4,5 C 4,4 C 95 % 1026,4 hPa 0,0 l/m 1,9 km/h (1 Bft) W-NW 290 0 min 0,000 mm 0,0 UV-I 74 W/m 3,8 C 4,5 C 3,2 km/h (1 Bft) 86,96 %
16.02.2018 14:28 4,5 C 4,4 C 95 % 1026,3 hPa 0,0 l/m 0,3 km/h (0 Bft) W-NW 290 0 min 0,000 mm 0,0 UV-I 70 W/m 3,8 C 4,5 C 1,6 km/h (1 Bft) 100,00 %
16.02.2018 14:29 4,4 C 4,4 C 95 % 1026,3 hPa 0,0 l/m 1,9 km/h (1 Bft) W-NW 291 0 min 0,000 mm 0,0 UV-I 69 W/m 3,7 C 4,4 C 3,2 km/h (1 Bft) 91,30 %
16.02.2018 14:30 4,4 C 4,4 C 95 % 1026,3 hPa 0,0 l/m 1,5 km/h (1 Bft) W-NW 291 0 min 0,000 mm 0,0 UV-I 70 W/m 3,7 C 4,4 C 3,2 km/h (1 Bft) 100,00 %
16.02.2018 14:31 4,4 C 4,4 C 95 % 1026,3 hPa 0,0 l/m 0,1 km/h (0 Bft) W-NW 291 0 min 0,000 mm 0,0 UV-I 79 W/m 3,7 C 4,4 C 1,6 km/h (1 Bft) 86,96 %
16.02.2018 14:32 4,4 C 4,4 C 95 % 1026,3 hPa 0,0 l/m 0,2 km/h (0 Bft) W-NW 291 0 min 0,000 mm 0,0 UV-I 87 W/m 3,7 C 4,4 C 1,6 km/h (1 Bft) 95,83 %
16.02.2018 14:33 4,4 C 4,4 C 95 % 1026,3 hPa 0,0 l/m 1,3 km/h (1 Bft) W-NW 291 0 min 0,000 mm 0,0 UV-I 87 W/m 3,7 C 4,4 C 3,2 km/h (1 Bft) 100,00 %
16.02.2018 14:34 4,4 C 4,4 C 95 % 1026,3 hPa 0,0 l/m 2,4 km/h (1 Bft) W-NW 291 0 min 0,000 mm 0,0 UV-I 85 W/m 3,7 C 4,4 C 4,8 km/h (1 Bft) 100,00 %
16.02.2018 14:35 4,3 C 4,4 C 95 % 1026,2 hPa 0,0 l/m 2,0 km/h (1 Bft) W-NW 291 0 min 0,000 mm 0,0 UV-I 83 W/m 3,6 C 4,3 C 3,2 km/h (1 Bft) 92,59 %
16.02.2018 14:36 4,3 C 4,4 C 95 % 1026,2 hPa 0,0 l/m 1,8 km/h (1 Bft) W-NW 291 0 min 0,000 mm 0,0 UV-I 73 W/m 3,6 C 4,3 C 3,2 km/h (1 Bft) 92,31 %
16.02.2018 14:37 4,3 C 4,4 C 95 % 1026,2 hPa 0,0 l/m 2,9 km/h (1 Bft) W-NW 291 0 min 0,000 mm 0,0 UV-I 67 W/m 3,6 C 4,3 C 3,2 km/h (1 Bft) 100,00 %
16.02.2018 14:38 4,3 C 4,4 C 95 % 1026,2 hPa 0,0 l/m 2,9 km/h (1 Bft) W-NW 291 0 min 0,000 mm 0,0 UV-I 62 W/m 3,6 C 4,3 C 3,2 km/h (1 Bft) 82,61 %
16.02.2018 14:39 4,3 C 4,4 C 95 % 1026,2 hPa 0,0 l/m 3,8 km/h (1 Bft) W-NW 291 0 min 0,000 mm 0,0 UV-I 57 W/m 3,6 C 4,3 C 4,8 km/h (1 Bft) 95,83 %
16.02.2018 14:40 4,3 C 4,4 C 95 % 1026,2 hPa 0,0 l/m 3,9 km/h (1 Bft) W-NW 291 0 min 0,000 mm 0,0 UV-I 49 W/m 3,6 C 4,3 C 4,8 km/h (1 Bft) 91,30 %
16.02.2018 14:41 4,2 C 4,4 C 95 % 1026,2 hPa 0,0 l/m 2,9 km/h (1 Bft) W-NW 291 0 min 0,000 mm 0,0 UV-I 47 W/m 3,5 C 4,2 C 4,8 km/h (1 Bft) 95,83 %
16.02.2018 14:42 4,2 C 4,4 C 95 % 1026,2 hPa 0,0 l/m 3,9 km/h (1 Bft) N-NW 335 0 min 0,000 mm 0,0 UV-I 51 W/m 3,5 C 4,2 C 4,8 km/h (1 Bft) 92,31 %
16.02.2018 14:43 4,2 C 4,4 C 95 % 1026,2 hPa 0,0 l/m 2,2 km/h (1 Bft) N-NW 335 0 min 0,000 mm 0,0 UV-I 76 W/m 3,5 C 4,2 C 3,2 km/h (1 Bft) 91,67 %
16.02.2018 14:44 4,1 C 4,4 C 95 % 1026,2 hPa 0,0 l/m 4,7 km/h (1 Bft) N-NO 12 0 min 0,000 mm 0,0 UV-I 76 W/m 3,4 C 4,1 C 6,4 km/h (2 Bft) 92,86 %
16.02.2018 14:45 4,1 C 4,4 C 95 % 1026,2 hPa 0,0 l/m 4,9 km/h (1 Bft) N 11 0 min 0,000 mm 0,0 UV-I 62 W/m 3,4 C 4,1 C 6,4 km/h (2 Bft) 95,83 %
16.02.2018 14:46 4,0 C 4,4 C 95 % 1026,2 hPa 0,0 l/m 4,7 km/h (1 Bft) N 11 0 min 0,000 mm 0,0 UV-I 49 W/m 3,3 C 4,0 C 6,4 km/h (2 Bft) 95,65 %
16.02.2018 14:47 4,0 C 4,4 C 95 % 1026,2 hPa 0,0 l/m 3,3 km/h (1 Bft) N 5 0 min 0,000 mm 0,0 UV-I 41 W/m 3,3 C 4,0 C 4,8 km/h (1 Bft) 87,50 %
16.02.2018 14:48 4,0 C 4,4 C 95 % 1026,2 hPa 0,0 l/m 3,6 km/h (1 Bft) N 5 0 min 0,000 mm 0,0 UV-I 39 W/m 3,3 C 4,0 C 4,8 km/h (1 Bft) 100,00 %
16.02.2018 14:49 3,9 C 4,4 C 95 % 1026,2 hPa 0,0 l/m 4,8 km/h (1 Bft) N 5 0 min 0,000 mm 0,0 UV-I 39 W/m 3,2 C 3,9 C 6,4 km/h (2 Bft) 91,30 %
16.02.2018 14:50 3,9 C 4,4 C 95 % 1026,3 hPa 0,0 l/m 4,0 km/h (1 Bft) N 5 0 min 0,000 mm 0,0 UV-I 39 W/m 3,2 C 3,9 C 4,8 km/h (1 Bft) 100,00 %
16.02.2018 14:51 3,9 C 4,4 C 95 % 1026,3 hPa 0,0 l/m 3,6 km/h (1 Bft) N-NO 19 0 min 0,000 mm 0,0 UV-I 35 W/m 3,2 C 3,9 C 4,8 km/h (1 Bft) 91,30 %
16.02.2018 14:52 3,9 C 4,4 C 95 % 1026,4 hPa 0,0 l/m 3,7 km/h (1 Bft) N-NO 18 0 min 0,000 mm 0,0 UV-I 32 W/m 3,2 C 3,9 C 4,8 km/h (1 Bft) 95,83 %
16.02.2018 14:53 3,9 C 4,4 C 95 % 1026,3 hPa 0,0 l/m 4,2 km/h (1 Bft) N-NW 336 0 min 0,000 mm 0,0 UV-I 33 W/m 3,2 C 3,9 C 4,8 km/h (1 Bft) 95,65 %
16.02.2018 14:54 3,9 C 4,4 C 96 % 1026,3 hPa 0,0 l/m 3,3 km/h (1 Bft) N-NW 337 0 min 0,000 mm 0,0 UV-I 38 W/m 3,3 C 3,9 C 4,8 km/h (1 Bft) 92,59 %
16.02.2018 14:55 3,8 C 4,4 C 96 % 1026,3 hPa 0,0 l/m 3,4 km/h (1 Bft) N-NW 337 0 min 0,000 mm 0,0 UV-I 38 W/m 3,2 C 3,8 C 4,8 km/h (1 Bft) 91,30 %
16.02.2018 14:56 3,8 C 4,4 C 96 % 1026,3 hPa 0,0 l/m 3,9 km/h (1 Bft) N-NW 337 0 min 0,000 mm 0,0 UV-I 38 W/m 3,2 C 3,8 C 4,8 km/h (1 Bft) 91,67 %
16.02.2018 14:57 3,8 C 4,4 C 96 % 1026,4 hPa 0,0 l/m 3,8 km/h (1 Bft) N-NW 338 0 min 0,000 mm 0,0 UV-I 42 W/m 3,2 C 3,8 C 4,8 km/h (1 Bft) 95,65 %
16.02.2018 14:58 3,8 C 4,4 C 96 % 1026,3 hPa 0,0 l/m 2,9 km/h (1 Bft) N-NW 338 0 min 0,000 mm 0,0 UV-I 48 W/m 3,2 C 3,8 C 3,2 km/h (1 Bft) 91,67 %
16.02.2018 14:59 3,8 C 4,4 C 96 % 1026,4 hPa 0,0 l/m 1,5 km/h (1 Bft) N-NW 338 0 min 0,000 mm 0,0 UV-I 54 W/m 3,2 C 3,8 C 3,2 km/h (1 Bft) 100,00 %
16.02.2018 15:00 3,8 C 4,4 C 96 % 1026,4 hPa 0,0 l/m 1,7 km/h (1 Bft) N-NW 338 0 min 0,000 mm 0,0 UV-I 57 W/m 3,2 C 3,8 C 3,2 km/h (1 Bft) 95,83 %
16.02.2018 15:01 3,8 C 4,4 C 96 % 1026,3 hPa 0,0 l/m 3,0 km/h (1 Bft) N-NW 338 0 min 0,026 mm 0,0 UV-I 52 W/m 3,2 C 3,8 C 4,8 km/h (1 Bft) 92,31 %
16.02.2018 15:02 3,8 C 4,4 C 96 % 1026,4 hPa 0,0 l/m 3,7 km/h (1 Bft) N-NW 338 0 min 0,000 mm 0,0 UV-I 48 W/m 3,2 C 3,8 C 4,8 km/h (1 Bft) 95,83 %
16.02.2018 15:03 3,8 C 4,4 C 96 % 1026,4 hPa 0,0 l/m 2,6 km/h (1 Bft) N-NW 338 0 min 0,000 mm 0,0 UV-I 45 W/m 3,2 C 3,8 C 4,8 km/h (1 Bft) 100,00 %
16.02.2018 15:04 3,8 C 4,4 C 96 % 1026,4 hPa 0,0 l/m 1,9 km/h (1 Bft) N-NW 338 0 min 0,000 mm 0,0 UV-I 41 W/m 3,2 C 3,8 C 3,2 km/h (1 Bft) 95,83 %
16.02.2018 15:05 3,8 C 4,4 C 96 % 1026,4 hPa 0,0 l/m 4,0 km/h (1 Bft) N-NW 338 0 min 0,000 mm 0,0 UV-I 42 W/m 3,2 C 3,8 C 4,8 km/h (1 Bft) 100,00 %
16.02.2018 15:06 3,8 C 4,4 C 96 % 1026,5 hPa 0,0 l/m 3,9 km/h (1 Bft) N-NW 338 0 min 0,000 mm 0,0 UV-I 46 W/m 3,2 C 3,8 C 4,8 km/h (1 Bft) 95,83 %
16.02.2018 15:07 3,8 C 4,4 C 96 % 1026,5 hPa 0,0 l/m 2,7 km/h (1 Bft) N-NW 338 0 min 0,000 mm 0,0 UV-I 48 W/m 3,2 C 3,8 C 4,8 km/h (1 Bft) 95,65 %
16.02.2018 15:08 3,7 C 4,4 C 96 % 1026,5 hPa 0,0 l/m 4,6 km/h (1 Bft) N-NW 338 0 min 0,000 mm 0,0 UV-I 49 W/m 3,1 C 3,7 C 6,4 km/h (2 Bft) 100,00 %
16.02.2018 15:09 3,7 C 4,4 C 96 % 1026,5 hPa 0,0 l/m 3,9 km/h (1 Bft) N-NW 338 0 min 0,000 mm 0,0 UV-I 49 W/m 3,1 C 3,7 C 4,8 km/h (1 Bft) 95,65 %
16.02.2018 15:10 3,7 C 4,4 C 96 % 1026,5 hPa 0,0 l/m 2,7 km/h (1 Bft) N-NW 338 0 min 0,000 mm 0,0 UV-I 47 W/m 3,1 C 3,7 C 4,8 km/h (1 Bft) 100,00 %
16.02.2018 15:11 3,7 C 4,4 C 96 % 1026,5 hPa 0,0 l/m 3,0 km/h (1 Bft) N-NW 338 0 min 0,000 mm 0,0 UV-I 42 W/m 3,1 C 3,7 C 4,8 km/h (1 Bft) 91,30 %
16.02.2018 15:12 3,7 C 4,4 C 96 % 1026,5 hPa 0,0 l/m 0,4 km/h (0 Bft) N-NW 338 0 min 0,000 mm 0,0 UV-I 39 W/m 3,1 C 3,7 C 1,6 km/h (1 Bft) 100,00 %
16.02.2018 15:13 3,7 C 4,4 C 96 % 1026,5 hPa 0,0 l/m 3,3 km/h (1 Bft) N-NW 338 0 min 0,000 mm 0,0 UV-I 39 W/m 3,1 C 3,7 C 4,8 km/h (1 Bft) 95,83 %
16.02.2018 15:14 3,7 C 4,4 C 96 % 1026,6 hPa 0,0 l/m 5,0 km/h (1 Bft) N-NW 338 0 min 0,000 mm 0,0 UV-I 37 W/m 3,1 C 3,7 C 6,4 km/h (2 Bft) 100,00 %
16.02.2018 15:15 3,7 C 4,4 C 96 % 1026,6 hPa 0,0 l/m 6,2 km/h (2 Bft) N 5 0 min 0,000 mm 0,0 UV-I 34 W/m 3,1 C 3,7 C 8,0 km/h (2 Bft) 95,83 %
16.02.2018 15:16 3,7 C 4,4 C 96 % 1026,6 hPa 0,0 l/m 4,8 km/h (1 Bft) N-NW 342 0 min 0,000 mm 0,0 UV-I 33 W/m 3,1 C 3,7 C 6,4 km/h (2 Bft) 100,00 %
16.02.2018 15:17 3,7 C 4,4 C 96 % 1026,6 hPa 0,0 l/m 4,5 km/h (1 Bft) N-NW 344 0 min 0,000 mm 0,0 UV-I 37 W/m 3,1 C 3,7 C 6,4 km/h (2 Bft) 95,83 %
16.02.2018 15:18 3,7 C 4,4 C 96 % 1026,6 hPa 0,0 l/m 2,7 km/h (1 Bft) N-NW 344 0 min 0,000 mm 0,0 UV-I 40 W/m 3,1 C 3,7 C 4,8 km/h (1 Bft) 100,00 %
16.02.2018 15:19 3,7 C 4,4 C 96 % 1026,6 hPa 0,0 l/m 5,0 km/h (1 Bft) N-NW 329 0 min 0,000 mm 0,0 UV-I 41 W/m 3,1 C 3,7 C 8,0 km/h (2 Bft) 95,83 %
16.02.2018 15:20 3,7 C 4,4 C 96 % 1026,6 hPa 0,0 l/m 4,6 km/h (1 Bft) N-NW 336 0 min 0,000 mm 0,0 UV-I 43 W/m 3,1 C 3,7 C 6,4 km/h (2 Bft) 95,65 %
16.02.2018 15:21 3,7 C 4,4 C 96 % 1026,6 hPa 0,0 l/m 3,4 km/h (1 Bft) N-NW 336 0 min 0,000 mm 0,0 UV-I 47 W/m 3,1 C 3,7 C 4,8 km/h (1 Bft) 100,00 %
16.02.2018 15:22 3,7 C 4,4 C 96 % 1026,7 hPa 0,0 l/m 3,4 km/h (1 Bft) N-NW 336 0 min 0,000 mm 0,0 UV-I 51 W/m 3,1 C 3,7 C 4,8 km/h (1 Bft) 96,15 %
16.02.2018 15:23 3,7 C 4,4 C 96 % 1026,7 hPa 0,0 l/m 2,4 km/h (1 Bft) N-NW 348 0 min 0,000 mm 0,0 UV-I 49 W/m 3,1 C 3,7 C 4,8 km/h (1 Bft) 100,00 %
16.02.2018 15:24 3,6 C 4,4 C 96 % 1026,7 hPa 0,0 l/m 6,1 km/h (2 Bft) N 355 0 min 0,000 mm 0,0 UV-I 46 W/m 3,0 C 3,6 C 8,0 km/h (2 Bft) 91,30 %
16.02.2018 15:25 3,6 C 4,4 C 96 % 1026,7 hPa 0,0 l/m 4,6 km/h (1 Bft) N-NW 338 0 min 0,000 mm 0,0 UV-I 43 W/m 3,0 C 3,6 C 6,4 km/h (2 Bft) 95,83 %
16.02.2018 15:26 3,6 C 4,4 C 96 % 1026,7 hPa 0,0 l/m 5,4 km/h (1 Bft) N 350 0 min 0,000 mm 0,0 UV-I 43 W/m 3,0 C 3,6 C 8,0 km/h (2 Bft) 95,65 %
16.02.2018 15:27 3,6 C 4,4 C 96 % 1026,7 hPa 0,0 l/m 3,4 km/h (1 Bft) N 350 0 min 0,000 mm 0,0 UV-I 45 W/m 3,0 C 3,6 C 4,8 km/h (1 Bft) 100,00 %
16.02.2018 15:28 3,6 C 4,4 C 96 % 1026,7 hPa 0,0 l/m 2,7 km/h (1 Bft) N 350 0 min 0,000 mm 0,0 UV-I 52 W/m 3,0 C 3,6 C 4,8 km/h (1 Bft) 100,00 %
16.02.2018 15:29 3,6 C 4,4 C 96 % 1026,6 hPa 0,0 l/m 3,1 km/h (1 Bft) N 350 0 min 0,000 mm 0,0 UV-I 50 W/m 3,0 C 3,6 C 4,8 km/h (1 Bft) 100,00 %
16.02.2018 15:30 3,6 C 4,4 C 96 % 1026,6 hPa 0,0 l/m 2,4 km/h (1 Bft) N 350 0 min 0,000 mm 0,0 UV-I 47 W/m 3,0 C 3,6 C 3,2 km/h (1 Bft) 100,00 %
16.02.2018 15:31 3,6 C 4,4 C 96 % 1026,6 hPa 0,0 l/m 4,2 km/h (1 Bft) N-NO 18 0 min 0,000 mm 0,0 UV-I 48 W/m 3,0 C 3,6 C 4,8 km/h (1 Bft) 81,82 %
16.02.2018 15:32 3,6 C 4,4 C 96 % 1026,6 hPa 0,0 l/m 3,5 km/h (1 Bft) N-NO 14 0 min 0,000 mm 0,0 UV-I 50 W/m 3,0 C 3,6 C 4,8 km/h (1 Bft) 100,00 %
16.02.2018 15:33 3,6 C 4,4 C 96 % 1026,6 hPa 0,0 l/m 3,3 km/h (1 Bft) N-NO 14 0 min 0,000 mm 0,0 UV-I 53 W/m 3,0 C 3,6 C 6,4 km/h (2 Bft) 100,00 %
16.02.2018 15:34 3,6 C 4,4 C 96 % 1026,6 hPa 0,0 l/m 3,4 km/h (1 Bft) N-NO 14 0 min 0,000 mm 0,0 UV-I 56 W/m 3,0 C 3,6 C 6,4 km/h (2 Bft) 100,00 %
16.02.2018 15:35 3,6 C 4,4 C 96 % 1026,5 hPa 0,0 l/m 5,7 km/h (1 Bft) N 350 0 min 0,000 mm 0,0 UV-I 56 W/m 3,0 C 3,6 C 8,0 km/h (2 Bft) 100,00 %
16.02.2018 15:36 3,6 C 4,4 C 96 % 1026,6 hPa 0,0 l/m 6,3 km/h (2 Bft) NW 323 0 min 0,000 mm 0,0 UV-I 57 W/m 3,0 C 3,6 C 8,0 km/h (2 Bft) 96,30 %
16.02.2018 15:37 3,6 C 4,4 C 96 % 1026,6 hPa 0,0 l/m 5,5 km/h (1 Bft) N-NW 329 0 min 0,000 mm 0,0 UV-I 54 W/m 3,0 C 3,6 C 6,4 km/h (2 Bft) 95,65 %
16.02.2018 15:38 3,6 C 4,4 C 96 % 1026,7 hPa 0,0 l/m 5,6 km/h (1 Bft) N-NW 335 0 min 0,000 mm 0,0 UV-I 50 W/m 3,0 C 3,6 C 8,0 km/h (2 Bft) 100,00 %
16.02.2018 15:39 3,6 C 4,4 C 96 % 1026,7 hPa 0,0 l/m 4,2 km/h (1 Bft) N-NW 338 0 min 0,000 mm 0,0 UV-I 51 W/m 3,0 C 3,6 C 6,4 km/h (2 Bft) 100,00 %
16.02.2018 15:40 3,6 C 4,4 C 96 % 1026,7 hPa 0,0 l/m 5,2 km/h (1 Bft) N 355 0 min 0,000 mm 0,0 UV-I 53 W/m 3,0 C 3,6 C 6,4 km/h (2 Bft) 100,00 %
16.02.2018 15:41 3,6 C 4,4 C 96 % 1026,7 hPa 0,0 l/m 4,2 km/h (1 Bft) N 355 0 min 0,000 mm 0,0 UV-I 51 W/m 3,0 C 3,6 C 4,8 km/h (1 Bft) 95,65 %
16.02.2018 15:42 3,6 C 4,4 C 96 % 1026,7 hPa 0,0 l/m 3,9 km/h (1 Bft) N-NW 346 0 min 0,000 mm 0,0 UV-I 50 W/m 3,0 C 3,6 C 4,8 km/h (1 Bft) 100,00 %
16.02.2018 15:43 3,6 C 4,4 C 96 % 1026,7 hPa 0,0 l/m 5,2 km/h (1 Bft) N-NW 340 0 min 0,000 mm 0,0 UV-I 51 W/m 3,0 C 3,6 C 6,4 km/h (2 Bft) 100,00 %
16.02.2018 15:44 3,6 C 4,4 C 96 % 1026,7 hPa 0,0 l/m 3,8 km/h (1 Bft) N 360 0 min 0,000 mm 0,0 UV-I 50 W/m 3,0 C 3,6 C 6,4 km/h (2 Bft) 100,00 %
16.02.2018 15:45 3,6 C 4,4 C 96 % 1026,7 hPa 0,0 l/m 4,0 km/h (1 Bft) N 355 0 min 0,000 mm 0,0 UV-I 49 W/m 3,0 C 3,6 C 4,8 km/h (1 Bft) 100,00 %
16.02.2018 15:46 3,5 C 4,4 C 96 % 1026,7 hPa 0,0 l/m 4,8 km/h (1 Bft) NW 325 0 min 0,000 mm 0,0 UV-I 51 W/m 2,9 C 3,5 C 6,4 km/h (2 Bft) 100,00 %
16.02.2018 15:47 3,5 C 4,4 C 96 % 1026,7 hPa 0,0 l/m 5,0 km/h (1 Bft) N-NW 334 0 min 0,000 mm 0,0 UV-I 54 W/m 2,9 C 3,5 C 6,4 km/h (2 Bft) 100,00 %
16.02.2018 15:48 3,5 C 4,4 C 96 % 1026,6 hPa 0,0 l/m 5,4 km/h (1 Bft) N-NW 340 0 min 0,000 mm 0,0 UV-I 54 W/m 2,9 C 3,5 C 8,0 km/h (2 Bft) 100,00 %
16.02.2018 15:49 3,5 C 4,4 C 96 % 1026,6 hPa 0,0 l/m 4,8 km/h (1 Bft) N-NW 333 0 min 0,000 mm 0,0 UV-I 53 W/m 2,9 C 3,5 C 6,4 km/h (2 Bft) 100,00 %
16.02.2018 15:50 3,5 C 4,4 C 96 % 1026,6 hPa 0,0 l/m 3,7 km/h (1 Bft) NW 323 0 min 0,000 mm 0,0 UV-I 53 W/m 2,9 C 3,5 C 6,4 km/h (2 Bft) 100,00 %
16.02.2018 15:51 3,5 C 4,4 C 96 % 1026,7 hPa 0,0 l/m 3,4 km/h (1 Bft) NW 325 0 min 0,000 mm 0,0 UV-I 53 W/m 2,9 C 3,5 C 4,8 km/h (1 Bft) 100,00 %
16.02.2018 15:52 3,5 C 4,4 C 96 % 1026,7 hPa 0,0 l/m 1,3 km/h (1 Bft) NW 325 0 min 0,000 mm 0,0 UV-I 53 W/m 2,9 C 3,5 C 3,2 km/h (1 Bft) 100,00 %
16.02.2018 15:53 3,5 C 4,4 C 96 % 1026,6 hPa 0,0 l/m 3,3 km/h (1 Bft) NW 325 0 min 0,000 mm 0,0 UV-I 54 W/m 2,9 C 3,5 C 4,8 km/h (1 Bft) 100,00 %
16.02.2018 15:54 3,5 C 4,4 C 96 % 1026,7 hPa 0,0 l/m 1,7 km/h (1 Bft) NW 325 0 min 0,000 mm 0,0 UV-I 55 W/m 2,9 C 3,5 C 4,8 km/h (1 Bft) 100,00 %
16.02.2018 15:55 3,5 C 4,4 C 96 % 1026,7 hPa 0,0 l/m 0,1 km/h (0 Bft) NW 325 0 min 0,000 mm 0,0 UV-I 53 W/m 2,9 C 3,5 C 1,6 km/h (1 Bft) 95,83 %
16.02.2018 15:56 3,6 C 4,4 C 96 % 1026,6 hPa 0,0 l/m 0,1 km/h (0 Bft) NW 325 0 min 0,000 mm 0,0 UV-I 53 W/m 3,0 C 3,6 C 1,6 km/h (1 Bft) 100,00 %
16.02.2018 15:57 3,6 C 4,4 C 96 % 1026,6 hPa 0,0 l/m 3,4 km/h (1 Bft) N 355 0 min 0,000 mm 0,0 UV-I 53 W/m 3,0 C 3,6 C 6,4 km/h (2 Bft) 95,83 %
16.02.2018 15:58 3,5 C 4,4 C 96 % 1026,7 hPa 0,0 l/m 1,9 km/h (1 Bft) N 355 0 min 0,000 mm 0,0 UV-I 51 W/m 2,9 C 3,5 C 4,8 km/h (1 Bft) 100,00 %
16.02.2018 15:59 3,6 C 4,4 C 96 % 1026,6 hPa 0,0 l/m 0,0 km/h (0 Bft) N 355 0 min 0,000 mm 0,0 UV-I 52 W/m 3,0 C 3,6 C 0,0 km/h (0 Bft) 100,00 %
16.02.2018 16:00 3,6 C 4,4 C 96 % 1026,6 hPa 0,0 l/m 0,1 km/h (0 Bft) N 355 0 min 0,000 mm 0,0 UV-I 54 W/m 3,0 C 3,6 C 1,6 km/h (1 Bft) 100,00 %
16.02.2018 16:01 3,6 C 4,4 C 96 % 1026,6 hPa 0,0 l/m 3,6 km/h (1 Bft) N-NW 347 0 min 0,025 mm 0,0 UV-I 55 W/m 3,0 C 3,6 C 4,8 km/h (1 Bft) 100,00 %
16.02.2018 16:02 3,6 C 4,4 C 96 % 1026,6 hPa 0,0 l/m 1,5 km/h (1 Bft) N-NW 347 0 min 0,000 mm 0,0 UV-I 52 W/m 3,0 C 3,6 C 3,2 km/h (1 Bft) 100,00 %
16.02.2018 16:03 3,6 C 4,4 C 96 % 1026,6 hPa 0,0 l/m 2,3 km/h (1 Bft) N-NW 347 0 min 0,000 mm 0,0 UV-I 47 W/m 3,0 C 3,6 C 4,8 km/h (1 Bft) 100,00 %
16.02.2018 16:04 3,6 C 4,4 C 96 % 1026,6 hPa 0,0 l/m 1,1 km/h (1 Bft) N-NW 347 0 min 0,000 mm 0,0 UV-I 40 W/m 3,0 C 3,6 C 3,2 km/h (1 Bft) 100,00 %
16.02.2018 16:05 3,5 C 4,4 C 96 % 1026,6 hPa 0,0 l/m 1,5 km/h (1 Bft) N-NW 346 0 min 0,000 mm 0,0 UV-I 38 W/m 2,9 C 3,5 C 4,8 km/h (1 Bft) 95,83 %
16.02.2018 16:06 3,5 C 4,4 C 96 % 1026,6 hPa 0,0 l/m 2,3 km/h (1 Bft) N-NW 346 0 min 0,000 mm 0,0 UV-I 34 W/m 2,9 C 3,5 C 3,2 km/h (1 Bft) 100,00 %
16.02.2018 16:07 3,5 C 4,4 C 96 % 1026,7 hPa 0,0 l/m 3,1 km/h (1 Bft) N-NW 346 0 min 0,000 mm 0,0 UV-I 31 W/m 2,9 C 3,5 C 4,8 km/h (1 Bft) 100,00 %
16.02.2018 16:08 3,5 C 4,4 C 96 % 1026,6 hPa 0,0 l/m 0,6 km/h (0 Bft) N-NW 346 0 min 0,000 mm 0,0 UV-I 31 W/m 2,9 C 3,5 C 3,2 km/h (1 Bft) 95,83 %
16.02.2018 16:09 3,5 C 4,4 C 96 % 1026,6 hPa 0,0 l/m 0,0 km/h (0 Bft) N-NW 346 0 min 0,000 mm 0,0 UV-I 32 W/m 2,9 C 3,5 C 0,0 km/h (0 Bft) 100,00 %
16.02.2018 16:10 3,6 C 4,4 C 96 % 1026,6 hPa 0,0 l/m 0,1 km/h (0 Bft) N-NW 346 0 min 0,000 mm 0,0 UV-I 32 W/m 3,0 C 3,6 C 1,6 km/h (1 Bft) 100,00 %
16.02.2018 16:11 3,6 C 4,4 C 96 % 1026,6 hPa 0,0 l/m 0,4 km/h (0 Bft) N-NW 346 0 min 0,000 mm 0,0 UV-I 29 W/m 3,0 C 3,6 C 1,6 km/h (1 Bft) 95,65 %
16.02.2018 16:12 3,5 C 4,4 C 96 % 1026,6 hPa 0,0 l/m 1,5 km/h (1 Bft) N-NW 346 0 min 0,000 mm 0,0 UV-I 26 W/m 2,9 C 3,5 C 4,8 km/h (1 Bft) 100,00 %
16.02.2018 16:13 3,5 C 4,4 C 96 % 1026,7 hPa 0,0 l/m 2,7 km/h (1 Bft) N-NW 346 0 min 0,000 mm 0,0 UV-I 22 W/m 2,9 C 3,5 C 3,2 km/h (1 Bft) 100,00 %
16.02.2018 16:14 3,5 C 4,4 C 96 % 1026,7 hPa 0,0 l/m 1,6 km/h (1 Bft) N-NW 347 0 min 0,000 mm 0,0 UV-I 20 W/m 2,9 C 3,5 C 1,6 km/h (1 Bft) 100,00 %
16.02.2018 16:15 3,5 C 4,4 C 96 % 1026,7 hPa 0,0 l/m 1,7 km/h (1 Bft) N-NW 346 0 min 0,000 mm 0,0 UV-I 18 W/m 2,9 C 3,5 C 3,2 km/h (1 Bft) 100,00 %
16.02.2018 16:16 3,5 C 4,4 C 96 % 1026,7 hPa 0,0 l/m 2,1 km/h (1 Bft) N-NW 346 0 min 0,000 mm 0,0 UV-I 18 W/m 2,9 C 3,5 C 3,2 km/h (1 Bft) 100,00 %
16.02.2018 16:17 3,5 C 4,4 C 96 % 1026,7 hPa 0,0 l/m 2,5 km/h (1 Bft) N-NW 346 0 min 0,000 mm 0,0 UV-I 20 W/m 2,9 C 3,5 C 3,2 km/h (1 Bft) 100,00 %
16.02.2018 16:18 3,5 C 4,4 C 96 % 1026,7 hPa 0,0 l/m 1,5 km/h (1 Bft) N-NW 347 0 min 0,000 mm 0,0 UV-I 21 W/m 2,9 C 3,5 C 3,2 km/h (1 Bft) 100,00 %
16.02.2018 16:19 3,5 C 4,4 C 96 % 1026,6 hPa 0,0 l/m 1,2 km/h (1 Bft) N-NW 346 0 min 0,000 mm 0,0 UV-I 21 W/m 2,9 C 3,5 C 3,2 km/h (1 Bft) 100,00 %
16.02.2018 16:20 3,5 C 4,4 C 96 % 1026,7 hPa 0,0 l/m 1,7 km/h (1 Bft) N-NW 346 0 min 0,000 mm 0,0 UV-I 21 W/m 2,9 C 3,5 C 3,2 km/h (1 Bft) 95,83 %
16.02.2018 16:21 3,6 C 4,4 C 96 % 1026,7 hPa 0,0 l/m 2,7 km/h (1 Bft) N-NW 346 0 min 0,000 mm 0,0 UV-I 19 W/m 3,0 C 3,6 C 3,2 km/h (1 Bft) 100,00 %
16.02.2018 16:22 3,6 C 4,4 C 96 % 1026,7 hPa 0,0 l/m 1,3 km/h (1 Bft) N-NW 346 0 min 0,000 mm 0,0 UV-I 19 W/m 3,0 C 3,6 C 1,6 km/h (1 Bft) 100,00 %
16.02.2018 16:23 3,5 C 4,4 C 96 % 1026,7 hPa 0,0 l/m 0,3 km/h (0 Bft) N-NW 346 0 min 0,000 mm 0,0 UV-I 18 W/m 2,9 C 3,5 C 1,6 km/h (1 Bft) 100,00 %
16.02.2018 16:24 3,5 C 4,4 C 96 % 1026,7 hPa 0,0 l/m 0,0 km/h (0 Bft) N-NW 346 0 min 0,000 mm 0,0 UV-I 18 W/m 2,9 C 3,5 C 0,0 km/h (0 Bft) 100,00 %
16.02.2018 16:25 3,4 C 4,4 C 96 % 1026,7 hPa 0,0 l/m 0,0 km/h (0 Bft) N-NW 346 0 min 0,000 mm 0,0 UV-I 18 W/m 2,8 C 3,4 C 0,0 km/h (0 Bft) 95,83 %
16.02.2018 16:26 3,4 C 4,4 C 96 % 1026,7 hPa 0,0 l/m 0,1 km/h (0 Bft) N-NW 346 0 min 0,000 mm 0,0 UV-I 18 W/m 2,8 C 3,4 C 1,6 km/h (1 Bft) 95,65 %
16.02.2018 16:27 3,4 C 4,4 C 96 % 1026,7 hPa 0,0 l/m 0,0 km/h (0 Bft) N-NW 346 0 min 0,000 mm 0,0 UV-I 18 W/m 2,8 C 3,4 C 0,0 km/h (0 Bft) 95,83 %
16.02.2018 16:28 3,4 C 4,4 C 96 % 1026,7 hPa 0,0 l/m 0,0 km/h (0 Bft) N-NW 346 0 min 0,000 mm 0,0 UV-I 16 W/m 2,8 C 3,4 C 0,0 km/h (0 Bft) 100,00 %
16.02.2018 16:29 3,4 C 4,4 C 96 % 1026,7 hPa 0,0 l/m 0,0 km/h (0 Bft) N-NW 346 0 min 0,000 mm 0,0 UV-I 14 W/m 2,8 C 3,4 C 0,0 km/h (0 Bft) 95,83 %
16.02.2018 16:30 3,4 C 4,4 C 96 % 1026,7 hPa 0,0 l/m 0,4 km/h (0 Bft) N-NW 346 0 min 0,000 mm 0,0 UV-I 14 W/m 2,8 C 3,4 C 1,6 km/h (1 Bft) 95,65 %
16.02.2018 16:31 3,4 C 4,4 C 96 % 1026,7 hPa 0,0 l/m 0,0 km/h (0 Bft) N-NW 346 0 min 0,000 mm 0,0 UV-I 14 W/m 2,8 C 3,4 C 0,0 km/h (0 Bft) 95,83 %
16.02.2018 16:32 3,4 C 4,4 C 96 % 1026,8 hPa 0,0 l/m 0,1 km/h (0 Bft) N-NW 346 0 min 0,000 mm 0,0 UV-I 14 W/m 2,8 C 3,4 C 1,6 km/h (1 Bft) 100,00 %
16.02.2018 16:33 3,4 C 4,4 C 96 % 1026,8 hPa 0,0 l/m 0,0 km/h (0 Bft) N-NW 347 0 min 0,000 mm 0,0 UV-I 12 W/m 2,8 C 3,4 C 0,0 km/h (0 Bft) 95,83 %
16.02.2018 16:34 3,4 C 4,4 C 96 % 1026,8 hPa 0,0 l/m 1,6 km/h (1 Bft) N-NW 347 0 min 0,000 mm 0,0 UV-I 12 W/m 2,8 C 3,4 C 3,2 km/h (1 Bft) 100,00 %
16.02.2018 16:35 3,4 C 4,4 C 96 % 1026,8 hPa 0,0 l/m 1,5 km/h (1 Bft) N-NW 346 0 min 0,000 mm 0,0 UV-I 12 W/m 2,8 C 3,4 C 1,6 km/h (1 Bft) 91,67 %
16.02.2018 16:36 3,4 C 4,4 C 96 % 1026,8 hPa 0,0 l/m 1,7 km/h (1 Bft) N-NW 346 0 min 0,000 mm 0,0 UV-I 11 W/m 2,8 C 3,4 C 3,2 km/h (1 Bft) 95,65 %
16.02.2018 16:37 3,4 C 4,4 C 96 % 1026,8 hPa 0,0 l/m 1,7 km/h (1 Bft) N-NW 346 0 min 0,000 mm 0,0 UV-I 11 W/m 2,8 C 3,4 C 3,2 km/h (1 Bft) 100,00 %
16.02.2018 16:38 3,4 C 4,4 C 96 % 1026,8 hPa 0,0 l/m 1,2 km/h (1 Bft) N-NW 346 0 min 0,000 mm 0,0 UV-I 11 W/m 2,8 C 3,4 C 3,2 km/h (1 Bft) 95,65 %
16.02.2018 16:39 3,3 C 4,4 C 96 % 1026,8 hPa 0,0 l/m 1,1 km/h (1 Bft) N-NW 346 0 min 0,000 mm 0,0 UV-I 11 W/m 2,7 C 3,3 C 1,6 km/h (1 Bft) 100,00 %
16.02.2018 16:40 3,4 C 4,4 C 96 % 1026,8 hPa 0,0 l/m 2,2 km/h (1 Bft) N-NW 346 0 min 0,000 mm 0,0 UV-I 11 W/m 2,8 C 3,4 C 3,2 km/h (1 Bft) 95,65 %
16.02.2018 16:41 3,3 C 4,4 C 96 % 1026,8 hPa 0,0 l/m 2,4 km/h (1 Bft) N-NW 346 0 min 0,000 mm 0,0 UV-I 11 W/m 2,7 C 3,3 C 3,2 km/h (1 Bft) 100,00 %
16.02.2018 16:42 3,3 C 4,4 C 96 % 1026,8 hPa 0,0 l/m 2,9 km/h (1 Bft) N-NW 346 0 min 0,000 mm 0,0 UV-I 10 W/m 2,7 C 3,3 C 4,8 km/h (1 Bft) 91,30 %
16.02.2018 16:43 3,4 C 4,4 C 96 % 1026,9 hPa 0,0 l/m 2,1 km/h (1 Bft) N-NW 346 0 min 0,000 mm 0,0 UV-I 9 W/m 2,8 C 3,4 C 3,2 km/h (1 Bft) 100,00 %
16.02.2018 16:44 3,4 C 4,4 C 96 % 1026,9 hPa 0,0 l/m 1,7 km/h (1 Bft) N-NW 346 0 min 0,000 mm 0,0 UV-I 9 W/m 2,8 C 3,4 C 3,2 km/h (1 Bft) 95,83 %
16.02.2018 16:45 3,4 C 4,4 C 96 % 1026,9 hPa 0,0 l/m 1,3 km/h (1 Bft) N-NW 346 0 min 0,000 mm 0,0 UV-I 9 W/m 2,8 C 3,4 C 1,6 km/h (1 Bft) 95,65 %
16.02.2018 16:46 3,3 C 4,4 C 96 % 1026,9 hPa 0,0 l/m 0,5 km/h (0 Bft) N-NW 346 0 min 0,000 mm 0,0 UV-I 9 W/m 2,7 C 3,3 C 1,6 km/h (1 Bft) 100,00 %
16.02.2018 16:47 3,4 C 4,4 C 96 % 1026,9 hPa 0,0 l/m 1,1 km/h (1 Bft) N-NW 346 0 min 0,000 mm 0,0 UV-I 9 W/m 2,8 C 3,4 C 3,2 km/h (1 Bft) 95,65 %
16.02.2018 16:48 3,3 C 4,4 C 96 % 1026,9 hPa 0,0 l/m 1,0 km/h (0 Bft) N-NW 346 0 min 0,000 mm 0,0 UV-I 9 W/m 2,7 C 3,3 C 1,6 km/h (1 Bft) 100,00 %
16.02.2018 16:49 3,4 C 4,4 C 96 % 1027,0 hPa 0,0 l/m 1,2 km/h (1 Bft) N-NW 346 0 min 0,000 mm 0,0 UV-I 9 W/m 2,8 C 3,4 C 3,2 km/h (1 Bft) 97,60 %
16.02.2018 16:50 3,3 C 4,4 C 96 % 1027,0 hPa 0,0 l/m 0,6 km/h (0 Bft) N-NW 346 0 min 0,000 mm 0,0 UV-I 9 W/m 2,7 C 3,3 C 1,6 km/h (1 Bft) 97,73 %
16.02.2018 16:51 3,3 C 4,4 C 96 % 1027,0 hPa 0,0 l/m 0,6 km/h (0 Bft) N-NW 346 0 min 0,000 mm 0,0 UV-I 9 W/m 2,7 C 3,3 C 1,6 km/h (1 Bft) 95,65 %
16.02.2018 16:52 3,4 C 4,4 C 96 % 1027,0 hPa 0,0 l/m 0,7 km/h (0 Bft) N-NW 346 0 min 0,000 mm 0,0 UV-I 7 W/m 2,8 C 3,4 C 1,6 km/h (1 Bft) 96,30 %
16.02.2018 16:53 3,3 C 4,4 C 97 % 1027,0 hPa 0,0 l/m 0,8 km/h (0 Bft) N-NW 346 0 min 0,000 mm 0,0 UV-I 7 W/m 2,9 C 3,3 C 1,6 km/h (1 Bft) 100,00 %
16.02.2018 16:54 3,4 C 4,4 C 97 % 1027,0 hPa 0,0 l/m 0,9 km/h (0 Bft) N-NW 346 0 min 0,000 mm 0,0 UV-I 7 W/m 3,0 C 3,4 C 3,2 km/h (1 Bft) 95,83 %
16.02.2018 16:55 3,3 C 4,4 C 97 % 1027,0 hPa 0,0 l/m 2,3 km/h (1 Bft) N-NW 346 0 min 0,000 mm 0,0 UV-I 7 W/m 2,9 C 3,3 C 3,2 km/h (1 Bft) 95,65 %
16.02.2018 16:56 3,3 C 4,4 C 97 % 1027,0 hPa 0,0 l/m 2,4 km/h (1 Bft) N-NW 346 0 min 0,000 mm 0,0 UV-I 7 W/m 2,9 C 3,3 C 3,2 km/h (1 Bft) 95,83 %
16.02.2018 16:57 3,3 C 4,4 C 96 % 1027,0 hPa 0,0 l/m 3,2 km/h (1 Bft) N-NW 346 0 min 0,000 mm 0,0 UV-I 7 W/m 2,7 C 3,3 C 4,8 km/h (1 Bft) 100,00 %
16.02.2018 16:58 3,3 C 4,4 C 97 % 1027,0 hPa 0,0 l/m 2,3 km/h (1 Bft) N-NW 346 0 min 0,000 mm 0,0 UV-I 7 W/m 2,9 C 3,3 C 3,2 km/h (1 Bft) 95,83 %
16.02.2018 16:59 3,3 C 4,4 C 96 % 1027,1 hPa 0,0 l/m 2,7 km/h (1 Bft) N-NW 346 0 min 0,000 mm 0,0 UV-I 6 W/m 2,7 C 3,3 C 4,8 km/h (1 Bft) 100,00 %
16.02.2018 17:00 3,3 C 4,4 C 96 % 1027,0 hPa 0,0 l/m 2,1 km/h (1 Bft) N-NW 346 0 min 0,000 mm 0,0 UV-I 5 W/m 2,7 C 3,3 C 3,2 km/h (1 Bft) 100,00 %
16.02.2018 17:01 3,3 C 4,4 C 96 % 1027,0 hPa 0,0 l/m 0,4 km/h (0 Bft) N-NW 346 0 min 0,000 mm 0,0 UV-I 5 W/m 2,7 C 3,3 C 1,6 km/h (1 Bft) 95,65 %
16.02.2018 17:02 3,3 C 4,4 C 96 % 1027,0 hPa 0,0 l/m 1,0 km/h (0 Bft) N-NW 346 0 min 0,000 mm 0,0 UV-I 5 W/m 2,7 C 3,3 C 1,6 km/h (1 Bft) 100,00 %
16.02.2018 17:03 3,3 C 4,4 C 96 % 1027,0 hPa 0,0 l/m 0,4 km/h (0 Bft) N-NW 347 0 min 0,000 mm 0,0 UV-I 5 W/m 2,7 C 3,3 C 1,6 km/h (1 Bft) 100,00 %
16.02.2018 17:04 3,3 C 4,4 C 96 % 1027,0 hPa 0,0 l/m 0,2 km/h (0 Bft) N-NW 346 0 min 0,000 mm 0,0 UV-I 5 W/m 2,7 C 3,3 C 1,6 km/h (1 Bft) 100,00 %
16.02.2018 17:05 3,3 C 4,4 C 96 % 1027,0 hPa 0,0 l/m 0,0 km/h (0 Bft) N-NW 346 0 min 0,000 mm 0,0 UV-I 5 W/m 2,7 C 3,3 C 0,0 km/h (0 Bft) 100,00 %
16.02.2018 17:06 3,3 C 4,4 C 96 % 1027,0 hPa 0,0 l/m 0,0 km/h (0 Bft) N-NW 346 0 min 0,000 mm 0,0 UV-I 5 W/m 2,7 C 3,3 C 0,0 km/h (0 Bft) 100,00 %
16.02.2018 17:07 3,3 C 4,4 C 96 % 1027,0 hPa 0,0 l/m 0,0 km/h (0 Bft) N-NW 346 0 min 0,000 mm 0,0 UV-I 5 W/m 2,7 C 3,3 C 0,0 km/h (0 Bft) 100,00 %
16.02.2018 17:08 3,3 C 4,4 C 96 % 1027,1 hPa 0,0 l/m 0,0 km/h (0 Bft) N-NW 346 0 min 0,000 mm 0,0 UV-I 5 W/m 2,7 C 3,3 C 0,0 km/h (0 Bft) 100,00 %
16.02.2018 17:09 3,3 C 4,4 C 96 % 1027,1 hPa 0,0 l/m 0,0 km/h (0 Bft) N-NW 346 0 min 0,000 mm 0,0 UV-I 5 W/m 2,7 C 3,3 C 0,0 km/h (0 Bft) 100,00 %
16.02.2018 17:10 3,3 C 4,4 C 96 % 1027,0 hPa 0,0 l/m 0,0 km/h (0 Bft) N-NW 346 0 min 0,000 mm 0,0 UV-I 5 W/m 2,7 C 3,3 C 0,0 km/h (0 Bft) 100,00 %
16.02.2018 17:11 3,3 C 4,4 C 97 % 1027,0 hPa 0,0 l/m 0,0 km/h (0 Bft) N-NW 346 0 min 0,000 mm 0,0 UV-I 5 W/m 2,9 C 3,3 C 0,0 km/h (0 Bft) 100,00 %
16.02.2018 17:12 3,3 C 4,4 C 96 % 1027,0 hPa 0,0 l/m 0,0 km/h (0 Bft) N-NW 346 0 min 0,000 mm 0,0 UV-I 5 W/m 2,7 C 3,3 C 0,0 km/h (0 Bft) 100,00 %
16.02.2018 17:13 3,3 C 4,4 C 96 % 1027,1 hPa 0,0 l/m 0,0 km/h (0 Bft) N-NW 346 0 min 0,000 mm 0,0 UV-I 5 W/m 2,7 C 3,3 C 0,0 km/h (0 Bft) 100,00 %
16.02.2018 17:14 3,3 C 4,4 C 97 % 1027,0 hPa 0,0 l/m 0,0 km/h (0 Bft) N-NW 346 0 min 0,000 mm 0,0 UV-I 5 W/m 2,9 C 3,3 C 0,0 km/h (0 Bft) 91,30 %
16.02.2018 17:15 3,3 C 4,4 C 97 % 1027,1 hPa 0,0 l/m 0,0 km/h (0 Bft) N-NW 346 0 min 0,000 mm 0,0 UV-I 7 W/m 2,9 C 3,3 C 0,0 km/h (0 Bft) 100,00 %
16.02.2018 17:16 3,3 C 4,4 C 97 % 1027,0 hPa 0,0 l/m 0,0 km/h (0 Bft) N-NW 346 0 min 0,000 mm 0,0 UV-I 7 W/m 2,9 C 3,3 C 0,0 km/h (0 Bft) 100,00 %
16.02.2018 17:17 3,3 C 4,4 C 97 % 1027,0 hPa 0,0 l/m 0,0 km/h (0 Bft) N-NW 346 0 min 0,000 mm 0,0 UV-I 7 W/m 2,9 C 3,3 C 0,0 km/h (0 Bft) 100,00 %
16.02.2018 17:18 3,3 C 4,4 C 97 % 1027,1 hPa 0,0 l/m 0,0 km/h (0 Bft) N-NW 346 0 min 0,000 mm 0,0 UV-I 5 W/m 2,9 C 3,3 C 0,0 km/h (0 Bft) 100,00 %
16.02.2018 17:19 3,3 C 4,4 C 97 % 1027,0 hPa 0,0 l/m 0,0 km/h (0 Bft) N-NW 346 0 min 0,000 mm 0,0 UV-I 5 W/m 2,9 C 3,3 C 0,0 km/h (0 Bft) 100,00 %
16.02.2018 17:20 3,3 C 4,4 C 97 % 1027,0 hPa 0,0 l/m 0,0 km/h (0 Bft) N-NW 346 0 min 0,000 mm 0,0 UV-I 5 W/m 2,9 C 3,3 C 0,0 km/h (0 Bft) 100,00 %
16.02.2018 17:21 3,3 C 4,4 C 97 % 1027,0 hPa 0,0 l/m 0,0 km/h (0 Bft) N-NW 346 0 min 0,000 mm 0,0 UV-I 5 W/m 2,9 C 3,3 C 0,0 km/h (0 Bft) 100,00 %
16.02.2018 17:22 3,3 C 4,4 C 97 % 1027,0 hPa 0,0 l/m 0,0 km/h (0 Bft) N-NW 346 0 min 0,000 mm 0,0 UV-I 5 W/m 2,9 C 3,3 C 0,0 km/h (0 Bft) 95,83 %
16.02.2018 17:23 3,3 C 4,4 C 97 % 1027,1 hPa 0,0 l/m 0,0 km/h (0 Bft) N-NW 346 0 min 0,000 mm 0,0 UV-I 5 W/m 2,9 C 3,3 C 0,0 km/h (0 Bft) 100,00 %
16.02.2018 17:24 3,2 C 4,4 C 97 % 1027,0 hPa 0,0 l/m 0,0 km/h (0 Bft) N-NW 346 0 min 0,000 mm 0,0 UV-I 5 W/m 2,8 C 3,2 C 0,0 km/h (0 Bft) 100,00 %
16.02.2018 17:25 3,2 C 4,4 C 97 % 1027,0 hPa 0,0 l/m 0,0 km/h (0 Bft) N-NW 346 0 min 0,000 mm 0,0 UV-I 5 W/m 2,8 C 3,2 C 0,0 km/h (0 Bft) 100,00 %
16.02.2018 17:26 3,2 C 4,4 C 97 % 1027,0 hPa 0,0 l/m 0,0 km/h (0 Bft) N-NW 346 0 min 0,000 mm 0,0 UV-I 5 W/m 2,8 C 3,2 C 0,0 km/h (0 Bft) 100,00 %
16.02.2018 17:27 3,2 C 4,4 C 97 % 1027,1 hPa 0,0 l/m 0,0 km/h (0 Bft) N-NW 346 0 min 0,000 mm 0,0 UV-I 5 W/m 2,8 C 3,2 C 0,0 km/h (0 Bft) 100,00 %
16.02.2018 17:28 3,2 C 4,4 C 97 % 1027,1 hPa 0,0 l/m 0,0 km/h (0 Bft) N-NW 346 0 min 0,000 mm 0,0 UV-I 5 W/m 2,8 C 3,2 C 0,0 km/h (0 Bft) 100,00 %
16.02.2018 17:29 3,2 C 4,4 C 97 % 1027,1 hPa 0,0 l/m 0,0 km/h (0 Bft) N-NW 346 0 min 0,000 mm 0,0 UV-I 5 W/m 2,8 C 3,2 C 0,0 km/h (0 Bft) 100,00 %
16.02.2018 17:30 3,2 C 4,4 C 97 % 1027,1 hPa 0,0 l/m 0,0 km/h (0 Bft) N-NW 346 0 min 0,000 mm 0,0 UV-I 1 W/m 2,8 C 3,2 C 0,0 km/h (0 Bft) 100,00 %
16.02.2018 17:31 3,2 C 4,4 C 97 % 1027,0 hPa 0,0 l/m 0,0 km/h (0 Bft) N-NW 346 0 min 0,000 mm 0,0 UV-I 4 W/m 2,8 C 3,2 C 0,0 km/h (0 Bft) 100,00 %
16.02.2018 17:32 3,2 C 4,4 C 97 % 1027,1 hPa 0,0 l/m 0,0 km/h (0 Bft) N-NW 346 0 min 0,000 mm 0,0 UV-I 0 W/m 2,8 C 3,2 C 0,0 km/h (0 Bft) 100,00 %
16.02.2018 17:33 3,2 C 4,4 C 97 % 1027,1 hPa 0,0 l/m 0,6 km/h (0 Bft) N-NW 346 0 min 0,000 mm 0,0 UV-I 0 W/m 2,8 C 3,2 C 3,2 km/h (1 Bft) 100,00 %
16.02.2018 17:34 3,1 C 4,4 C 97 % 1027,1 hPa 0,0 l/m 2,9 km/h (1 Bft) N-NW 346 0 min 0,000 mm 0,0 UV-I 0 W/m 2,7 C 3,1 C 3,2 km/h (1 Bft) 100,00 %
16.02.2018 17:35 3,2 C 4,4 C 97 % 1027,1 hPa 0,0 l/m 3,4 km/h (1 Bft) N-NW 346 0 min 0,000 mm 0,0 UV-I 0 W/m 2,8 C 3,2 C 4,8 km/h (1 Bft) 95,65 %
16.02.2018 17:36 3,1 C 4,4 C 97 % 1027,2 hPa 0,0 l/m 3,0 km/h (1 Bft) N-NW 346 0 min 0,000 mm 0,0 UV-I 0 W/m 2,7 C 3,1 C 3,2 km/h (1 Bft) 100,00 %
16.02.2018 17:37 3,1 C 4,4 C 97 % 1027,2 hPa 0,0 l/m 3,1 km/h (1 Bft) N-NW 346 0 min 0,000 mm 0,0 UV-I 0 W/m 2,7 C 3,1 C 3,2 km/h (1 Bft) 95,65 %
16.02.2018 17:38 3,1 C 4,4 C 97 % 1027,2 hPa 0,0 l/m 3,4 km/h (1 Bft) N-NW 346 0 min 0,000 mm 0,0 UV-I 0 W/m 2,7 C 3,1 C 4,8 km/h (1 Bft) 100,00 %
16.02.2018 17:39 3,1 C 4,4 C 97 % 1027,2 hPa 0,0 l/m 4,3 km/h (1 Bft) N-NW 346 0 min 0,000 mm 0,0 UV-I 0 W/m 2,7 C 3,1 C 4,8 km/h (1 Bft) 95,65 %
16.02.2018 17:40 3,1 C 4,4 C 97 % 1027,2 hPa 0,0 l/m 3,5 km/h (1 Bft) N-NW 346 0 min 0,000 mm 0,0 UV-I 0 W/m 2,7 C 3,1 C 4,8 km/h (1 Bft) 100,00 %
16.02.2018 17:41 3,1 C 4,4 C 97 % 1027,2 hPa 0,0 l/m 2,8 km/h (1 Bft) N-NW 346 0 min 0,000 mm 0,0 UV-I 0 W/m 2,7 C 3,1 C 4,8 km/h (1 Bft) 95,65 %
16.02.2018 17:42 3,1 C 4,4 C 97 % 1027,2 hPa 0,0 l/m 4,2 km/h (1 Bft) N-NW 344 0 min 0,000 mm 0,0 UV-I 0 W/m 2,7 C 3,1 C 6,4 km/h (2 Bft) 100,00 %
16.02.2018 17:43 3,1 C 4,4 C 97 % 1027,2 hPa 0,0 l/m 3,6 km/h (1 Bft) N-NW 344 0 min 0,000 mm 0,0 UV-I 0 W/m 2,7 C 3,1 C 4,8 km/h (1 Bft) 100,00 %
16.02.2018 17:44 3,1 C 4,4 C 97 % 1027,2 hPa 0,0 l/m 3,4 km/h (1 Bft) N-NW 344 0 min 0,000 mm 0,0 UV-I 0 W/m 2,7 C 3,1 C 4,8 km/h (1 Bft) 100,00 %
16.02.2018 17:45 3,1 C 4,4 C 97 % 1027,3 hPa 0,0 l/m 2,5 km/h (1 Bft) N-NW 344 0 min 0,000 mm 0,0 UV-I 0 W/m 2,7 C 3,1 C 3,2 km/h (1 Bft) 100,00 %
16.02.2018 17:46 3,1 C 4,4 C 97 % 1027,3 hPa 0,0 l/m 2,3 km/h (1 Bft) N-NW 344 0 min 0,000 mm 0,0 UV-I 0 W/m 2,7 C 3,1 C 4,8 km/h (1 Bft) 100,00 %
16.02.2018 17:47 3,1 C 4,4 C 97 % 1027,3 hPa 0,0 l/m 3,1 km/h (1 Bft) N-NW 344 0 min 0,000 mm 0,0 UV-I 0 W/m 2,7 C 3,1 C 4,8 km/h (1 Bft) 100,00 %
16.02.2018 17:48 3,0 C 4,4 C 97 % 1027,4 hPa 0,0 l/m 2,0 km/h (1 Bft) N-NW 344 0 min 0,000 mm 0,0 UV-I 0 W/m 2,6 C 3,0 C 3,2 km/h (1 Bft) 100,00 %
16.02.2018 17:49 2,9 C 4,4 C 97 % 1027,4 hPa 0,0 l/m 0,1 km/h (0 Bft) N-NW 344 0 min 0,000 mm 0,0 UV-I 0 W/m 2,5 C 2,9 C 1,6 km/h (1 Bft) 100,00 %
16.02.2018 17:50 2,9 C 4,4 C 97 % 1027,4 hPa 0,0 l/m 0,1 km/h (0 Bft) N-NW 344 0 min 0,000 mm 0,0 UV-I 0 W/m 2,5 C 2,9 C 1,6 km/h (1 Bft) 100,00 %
16.02.2018 17:51 2,9 C 4,4 C 97 % 1027,4 hPa 0,0 l/m 0,0 km/h (0 Bft) N-NW 344 0 min 0,000 mm 0,0 UV-I 0 W/m 2,5 C 2,9 C 0,0 km/h (0 Bft) 100,00 %
16.02.2018 17:52 2,9 C 4,4 C 97 % 1027,4 hPa 0,0 l/m 0,0 km/h (0 Bft) N-NW 344 0 min 0,000 mm 0,0 UV-I 0 W/m 2,5 C 2,9 C 0,0 km/h (0 Bft) 91,30 %
16.02.2018 17:53 2,9 C 4,4 C 97 % 1027,4 hPa 0,0 l/m 0,1 km/h (0 Bft) N-NW 344 0 min 0,000 mm 0,0 UV-I 0 W/m 2,5 C 2,9 C 1,6 km/h (1 Bft) 95,83 %
16.02.2018 17:54 2,9 C 4,4 C 97 % 1027,4 hPa 0,0 l/m 2,1 km/h (1 Bft) N-NW 344 0 min 0,000 mm 0,0 UV-I 0 W/m 2,5 C 2,9 C 3,2 km/h (1 Bft) 100,00 %
16.02.2018 17:55 2,9 C 4,4 C 97 % 1027,4 hPa 0,0 l/m 0,5 km/h (0 Bft) N-NW 344 0 min 0,000 mm 0,0 UV-I 0 W/m 2,5 C 2,9 C 1,6 km/h (1 Bft) 100,00 %
16.02.2018 17:56 2,9 C 4,4 C 97 % 1027,4 hPa 0,0 l/m 0,7 km/h (0 Bft) N-NW 344 0 min 0,000 mm 0,0 UV-I 0 W/m 2,5 C 2,9 C 1,6 km/h (1 Bft) 100,00 %
16.02.2018 17:57 3,0 C 4,4 C 97 % 1027,4 hPa 0,0 l/m 2,1 km/h (1 Bft) N-NW 344 0 min 0,000 mm 0,0 UV-I 0 W/m 2,6 C 3,0 C 3,2 km/h (1 Bft) 100,00 %
16.02.2018 17:58 3,0 C 4,4 C 97 % 1027,4 hPa 0,0 l/m 1,7 km/h (1 Bft) N-NW 344 0 min 0,000 mm 0,0 UV-I 0 W/m 2,6 C 3,0 C 3,2 km/h (1 Bft) 100,00 %
16.02.2018 17:59 2,9 C 4,4 C 97 % 1027,5 hPa 0,0 l/m 1,5 km/h (1 Bft) N-NW 344 0 min 0,000 mm 0,0 UV-I 0 W/m 2,5 C 2,9 C 3,2 km/h (1 Bft) 100,00 %
16.02.2018 18:00 2,9 C 4,4 C 97 % 1027,5 hPa 0,0 l/m 1,6 km/h (1 Bft) N-NW 344 0 min 0,000 mm 0,0 UV-I 0 W/m 2,5 C 2,9 C 3,2 km/h (1 Bft) 100,00 %
16.02.2018 18:01 2,9 C 4,4 C 97 % 1027,5 hPa 0,0 l/m 2,1 km/h (1 Bft) N-NW 342 0 min 0,000 mm 0,0 UV-I 0 W/m 2,5 C 2,9 C 4,8 km/h (1 Bft) 100,00 %
16.02.2018 18:02 2,9 C 4,4 C 97 % 1027,5 hPa 0,0 l/m 0,5 km/h (0 Bft) N-NW 342 0 min 0,000 mm 0,0 UV-I 0 W/m 2,5 C 2,9 C 1,6 km/h (1 Bft) 100,00 %
16.02.2018 18:03 2,9 C 4,4 C 97 % 1027,5 hPa 0,0 l/m 0,9 km/h (0 Bft) N-NW 342 0 min 0,000 mm 0,0 UV-I 0 W/m 2,5 C 2,9 C 3,2 km/h (1 Bft) 100,00 %
16.02.2018 18:04 2,9 C 4,4 C 97 % 1027,5 hPa 0,0 l/m 1,5 km/h (1 Bft) N-NW 342 0 min 0,000 mm 0,0 UV-I 0 W/m 2,5 C 2,9 C 3,2 km/h (1 Bft) 100,00 %
16.02.2018 18:05 2,9 C 4,4 C 97 % 1027,5 hPa 0,0 l/m 2,4 km/h (1 Bft) N-NW 342 0 min 0,000 mm 0,0 UV-I 0 W/m 2,5 C 2,9 C 4,8 km/h (1 Bft) 100,00 %
16.02.2018 18:06 2,9 C 4,4 C 97 % 1027,5 hPa 0,0 l/m 0,7 km/h (0 Bft) N-NW 342 0 min 0,000 mm 0,0 UV-I 0 W/m 2,5 C 2,9 C 1,6 km/h (1 Bft) 100,00 %
16.02.2018 18:07 2,9 C 4,4 C 97 % 1027,5 hPa 0,0 l/m 1,1 km/h (1 Bft) N-NW 342 0 min 0,000 mm 0,0 UV-I 0 W/m 2,5 C 2,9 C 3,2 km/h (1 Bft) 100,00 %
16.02.2018 18:08 2,9 C 4,4 C 97 % 1027,5 hPa 0,0 l/m 0,3 km/h (0 Bft) N-NW 342 0 min 0,000 mm 0,0 UV-I 0 W/m 2,5 C 2,9 C 1,6 km/h (1 Bft) 100,00 %
16.02.2018 18:09 2,9 C 4,4 C 97 % 1027,5 hPa 0,0 l/m 0,1 km/h (0 Bft) N-NW 342 0 min 0,000 mm 0,0 UV-I 0 W/m 2,5 C 2,9 C 1,6 km/h (1 Bft) 100,00 %
16.02.2018 18:10 3,0 C 4,4 C 97 % 1027,5 hPa 0,0 l/m 0,3 km/h (0 Bft) N-NW 342 0 min 0,000 mm 0,0 UV-I 0 W/m 2,6 C 3,0 C 1,6 km/h (1 Bft) 100,00 %
16.02.2018 18:11 3,0 C 4,4 C 97 % 1027,5 hPa 0,0 l/m 3,2 km/h (1 Bft) N-NW 341 0 min 0,000 mm 0,0 UV-I 0 W/m 2,6 C 3,0 C 4,8 km/h (1 Bft) 95,65 %
16.02.2018 18:12 3,0 C 4,4 C 97 % 1027,5 hPa 0,0 l/m 2,4 km/h (1 Bft) N-NW 341 0 min 0,000 mm 0,0 UV-I 0 W/m 2,6 C 3,0 C 3,2 km/h (1 Bft) 100,00 %
16.02.2018 18:13 3,0 C 4,4 C 97 % 1027,5 hPa 0,0 l/m 2,3 km/h (1 Bft) N-NW 341 0 min 0,000 mm 0,0 UV-I 0 W/m 2,6 C 3,0 C 3,2 km/h (1 Bft) 100,00 %
16.02.2018 18:14 2,9 C 4,4 C 97 % 1027,5 hPa 0,0 l/m 1,4 km/h (1 Bft) N-NW 341 0 min 0,000 mm 0,0 UV-I 0 W/m 2,5 C 2,9 C 3,2 km/h (1 Bft) 100,00 %
16.02.2018 18:15 3,0 C 4,4 C 97 % 1027,5 hPa 0,0 l/m 2,5 km/h (1 Bft) N-NW 341 0 min 0,000 mm 0,0 UV-I 0 W/m 2,6 C 3,0 C 4,8 km/h (1 Bft) 100,00 %
16.02.2018 18:16 3,0 C 4,4 C 97 % 1027,5 hPa 0,0 l/m 2,7 km/h (1 Bft) N-NW 341 0 min 0,000 mm 0,0 UV-I 0 W/m 2,6 C 3,0 C 4,8 km/h (1 Bft) 96,30 %
16.02.2018 18:17 3,0 C 4,4 C 97 % 1027,5 hPa 0,0 l/m 1,5 km/h (1 Bft) N-NW 341 0 min 0,000 mm 0,0 UV-I 0 W/m 2,6 C 3,0 C 3,2 km/h (1 Bft) 95,65 %
16.02.2018 18:18 3,0 C 4,4 C 97 % 1027,4 hPa 0,0 l/m 1,3 km/h (1 Bft) N-NW 341 0 min 0,000 mm 0,0 UV-I 0 W/m 2,6 C 3,0 C 3,2 km/h (1 Bft) 100,00 %
16.02.2018 18:19 3,0 C 4,4 C 97 % 1027,4 hPa 0,0 l/m 0,7 km/h (0 Bft) N-NW 341 0 min 0,000 mm 0,0 UV-I 0 W/m 2,6 C 3,0 C 1,6 km/h (1 Bft) 100,00 %
16.02.2018 18:20 2,9 C 4,4 C 97 % 1027,5 hPa 0,0 l/m 1,5 km/h (1 Bft) N-NW 341 0 min 0,000 mm 0,0 UV-I 0 W/m 2,5 C 2,9 C 3,2 km/h (1 Bft) 100,00 %
16.02.2018 18:21 2,9 C 4,4 C 97 % 1027,5 hPa 0,0 l/m 1,4 km/h (1 Bft) N-NW 341 0 min 0,000 mm 0,0 UV-I 0 W/m 2,5 C 2,9 C 1,6 km/h (1 Bft) 100,00 %
16.02.2018 18:22 2,9 C 4,4 C 97 % 1027,5 hPa 0,0 l/m 1,5 km/h (1 Bft) N-NW 341 0 min 0,000 mm 0,0 UV-I 0 W/m 2,5 C 2,9 C 1,6 km/h (1 Bft) 100,00 %
16.02.2018 18:23 3,0 C 4,4 C 97 % 1027,5 hPa 0,0 l/m 0,9 km/h (0 Bft) N-NW 341 0 min 0,000 mm 0,0 UV-I 0 W/m 2,6 C 3,0 C 1,6 km/h (1 Bft) 100,00 %
16.02.2018 18:24 3,0 C 4,4 C 97 % 1027,5 hPa 0,0 l/m 2,6 km/h (1 Bft) N-NW 340 0 min 0,000 mm 0,0 UV-I 0 W/m 2,6 C 3,0 C 4,8 km/h (1 Bft) 100,00 %
16.02.2018 18:25 2,9 C 4,4 C 97 % 1027,5 hPa 0,0 l/m 2,3 km/h (1 Bft) N-NW 341 0 min 0,000 mm 0,0 UV-I 0 W/m 2,5 C 2,9 C 3,2 km/h (1 Bft) 100,00 %
16.02.2018 18:26 3,0 C 4,4 C 97 % 1027,5 hPa 0,0 l/m 2,0 km/h (1 Bft) N-NW 341 0 min 0,000 mm 0,0 UV-I 0 W/m 2,6 C 3,0 C 4,8 km/h (1 Bft) 100,00 %
16.02.2018 18:27 2,9 C 4,4 C 97 % 1027,5 hPa 0,0 l/m 2,2 km/h (1 Bft) N-NW 340 0 min 0,000 mm 0,0 UV-I 0 W/m 2,5 C 2,9 C 3,2 km/h (1 Bft) 95,83 %
16.02.2018 18:28 2,9 C 4,4 C 97 % 1027,5 hPa 0,0 l/m 2,7 km/h (1 Bft) N-NW 341 0 min 0,000 mm 0,0 UV-I 0 W/m 2,5 C 2,9 C 4,8 km/h (1 Bft) 100,00 %
16.02.2018 18:29 2,9 C 4,4 C 97 % 1027,5 hPa 0,0 l/m 4,2 km/h (1 Bft) W 270 0 min 0,000 mm 0,0 UV-I 0 W/m 2,5 C 2,9 C 6,4 km/h (2 Bft) 100,00 %
16.02.2018 18:30 2,9 C 4,4 C 97 % 1027,4 hPa 0,0 l/m 3,9 km/h (1 Bft) W 270 0 min 0,000 mm 0,0 UV-I 0 W/m 2,5 C 2,9 C 4,8 km/h (1 Bft) 95,65 %
16.02.2018 18:31 2,9 C 4,4 C 97 % 1027,4 hPa 0,0 l/m 5,0 km/h (1 Bft) W 270 0 min 0,000 mm 0,0 UV-I 0 W/m 2,5 C 2,9 C 6,4 km/h (2 Bft) 91,67 %
16.02.2018 18:32 3,0 C 4,4 C 97 % 1027,5 hPa 0,0 l/m 3,1 km/h (1 Bft) W 270 0 min 0,000 mm 0,0 UV-I 0 W/m 2,6 C 3,0 C 4,8 km/h (1 Bft) 100,00 %
16.02.2018 18:33 3,0 C 4,4 C 97 % 1027,4 hPa 0,0 l/m 2,1 km/h (1 Bft) W 270 0 min 0,000 mm 0,0 UV-I 0 W/m 2,6 C 3,0 C 3,2 km/h (1 Bft) 95,83 %
16.02.2018 18:34 3,0 C 4,4 C 97 % 1027,4 hPa 0,0 l/m 2,3 km/h (1 Bft) W 270 0 min 0,000 mm 0,0 UV-I 0 W/m 2,6 C 3,0 C 4,8 km/h (1 Bft) 95,65 %
16.02.2018 18:35 3,0 C 4,4 C 97 % 1027,4 hPa 0,0 l/m 4,2 km/h (1 Bft) W 270 0 min 0,000 mm 0,0 UV-I 0 W/m 2,6 C 3,0 C 4,8 km/h (1 Bft) 100,00 %
16.02.2018 18:36 3,0 C 4,4 C 97 % 1027,4 hPa 0,0 l/m 5,1 km/h (1 Bft) W 269 0 min 0,000 mm 0,0 UV-I 0 W/m 2,6 C 3,0 C 6,4 km/h (2 Bft) 91,67 %
16.02.2018 18:37 3,0 C 4,4 C 97 % 1027,4 hPa 0,0 l/m 4,6 km/h (1 Bft) W-SW 252 0 min 0,000 mm 0,0 UV-I 0 W/m 2,6 C 3,0 C 6,4 km/h (2 Bft) 96,15 %
16.02.2018 18:38 3,0 C 4,4 C 97 % 1027,4 hPa 0,0 l/m 3,8 km/h (1 Bft) W-SW 252 0 min 0,000 mm 0,0 UV-I 0 W/m 2,6 C 3,0 C 4,8 km/h (1 Bft) 100,00 %
16.02.2018 18:39 3,0 C 4,4 C 97 % 1027,4 hPa 0,0 l/m 3,8 km/h (1 Bft) W-SW 252 0 min 0,000 mm 0,0 UV-I 0 W/m 2,6 C 3,0 C 4,8 km/h (1 Bft) 94,74 %
16.02.2018 18:40 3,0 C 4,4 C 97 % 1027,3 hPa 0,0 l/m 3,8 km/h (1 Bft) W-SW 252 0 min 0,000 mm 0,0 UV-I 0 W/m 2,6 C 3,0 C 4,8 km/h (1 Bft) 95,83 %
16.02.2018 18:41 3,0 C 4,4 C 97 % 1027,4 hPa 0,0 l/m 3,1 km/h (1 Bft) W-SW 252 0 min 0,000 mm 0,0 UV-I 0 W/m 2,6 C 3,0 C 3,2 km/h (1 Bft) 100,00 %
16.02.2018 18:42 3,0 C 4,4 C 97 % 1027,4 hPa 0,0 l/m 2,5 km/h (1 Bft) W-SW 252 0 min 0,000 mm 0,0 UV-I 0 W/m 2,6 C 3,0 C 3,2 km/h (1 Bft) 95,83 %
16.02.2018 18:43 2,9 C 4,4 C 97 % 1027,4 hPa 0,0 l/m 2,8 km/h (1 Bft) W-SW 252 0 min 0,000 mm 0,0 UV-I 0 W/m 2,5 C 2,9 C 3,2 km/h (1 Bft) 100,00 %
16.02.2018 18:44 2,9 C 4,4 C 97 % 1027,4 hPa 0,0 l/m 3,2 km/h (1 Bft) W-SW 252 0 min 0,000 mm 0,0 UV-I 0 W/m 2,5 C 2,9 C 4,8 km/h (1 Bft) 95,83 %
16.02.2018 18:45 2,9 C 4,4 C 97 % 1027,4 hPa 0,0 l/m 3,0 km/h (1 Bft) W-SW 252 0 min 0,000 mm 0,0 UV-I 0 W/m 2,5 C 2,9 C 4,8 km/h (1 Bft) 82,61 %
16.02.2018 18:46 2,9 C 4,4 C 97 % 1027,4 hPa 0,0 l/m 3,5 km/h (1 Bft) W-SW 252 0 min 0,000 mm 0,0 UV-I 0 W/m 2,5 C 2,9 C 4,8 km/h (1 Bft) 100,00 %
16.02.2018 18:47 2,9 C 4,4 C 97 % 1027,4 hPa 0,0 l/m 3,1 km/h (1 Bft) W-SW 252 0 min 0,000 mm 0,0 UV-I 0 W/m 2,5 C 2,9 C 4,8 km/h (1 Bft) 92,31 %
16.02.2018 18:48 2,9 C 4,4 C 97 % 1027,4 hPa 0,0 l/m 3,6 km/h (1 Bft) W-SW 252 0 min 0,000 mm 0,0 UV-I 0 W/m 2,5 C 2,9 C 4,8 km/h (1 Bft) 100,00 %
16.02.2018 18:49 2,9 C 4,4 C 97 % 1027,4 hPa 0,0 l/m 2,2 km/h (1 Bft) W-SW 252 0 min 0,000 mm 0,0 UV-I 0 W/m 2,5 C 2,9 C 3,2 km/h (1 Bft) 91,30 %
16.02.2018 18:50 2,9 C 4,4 C 97 % 1027,4 hPa 0,0 l/m 1,3 km/h (1 Bft) W-SW 252 0 min 0,000 mm 0,0 UV-I 0 W/m 2,5 C 2,9 C 1,6 km/h (1 Bft) 95,83 %
16.02.2018 18:51 2,9 C 4,4 C 97 % 1027,4 hPa 0,0 l/m 1,7 km/h (1 Bft) W-SW 252 0 min 0,000 mm 0,0 UV-I 0 W/m 2,5 C 2,9 C 3,2 km/h (1 Bft) 95,65 %
16.02.2018 18:52 2,9 C 4,4 C 97 % 1027,4 hPa 0,0 l/m 1,7 km/h (1 Bft) W-SW 252 0 min 0,000 mm 0,0 UV-I 0 W/m 2,5 C 2,9 C 3,2 km/h (1 Bft) 100,00 %
16.02.2018 18:53 2,9 C 4,4 C 97 % 1027,4 hPa 0,0 l/m 2,0 km/h (1 Bft) W-SW 252 0 min 0,000 mm 0,0 UV-I 0 W/m 2,5 C 2,9 C 3,2 km/h (1 Bft) 91,30 %
16.02.2018 18:54 2,9 C 4,4 C 97 % 1027,4 hPa 0,0 l/m 2,8 km/h (1 Bft) W-SW 252 0 min 0,000 mm 0,0 UV-I 0 W/m 2,5 C 2,9 C 3,2 km/h (1 Bft) 95,83 %
16.02.2018 18:55 2,9 C 4,4 C 97 % 1027,5 hPa 0,0 l/m 2,5 km/h (1 Bft) W-SW 252 0 min 0,000 mm 0,0 UV-I 0 W/m 2,5 C 2,9 C 3,2 km/h (1 Bft) 95,65 %
16.02.2018 18:56 2,9 C 4,4 C 97 % 1027,5 hPa 0,0 l/m 2,7 km/h (1 Bft) W-SW 252 0 min 0,000 mm 0,0 UV-I 0 W/m 2,5 C 2,9 C 3,2 km/h (1 Bft) 87,50 %
16.02.2018 18:57 2,9 C 4,4 C 97 % 1027,5 hPa 0,0 l/m 3,1 km/h (1 Bft) W-SW 252 0 min 0,000 mm 0,0 UV-I 0 W/m 2,5 C 2,9 C 4,8 km/h (1 Bft) 100,00 %
16.02.2018 18:58 2,9 C 4,4 C 97 % 1027,5 hPa 0,0 l/m 3,2 km/h (1 Bft) W-SW 252 0 min 0,000 mm 0,0 UV-I 0 W/m 2,5 C 2,9 C 4,8 km/h (1 Bft) 95,83 %
16.02.2018 18:59 2,9 C 4,4 C 97 % 1027,5 hPa 0,0 l/m 3,8 km/h (1 Bft) W-SW 252 0 min 0,000 mm 0,0 UV-I 0 W/m 2,5 C 2,9 C 4,8 km/h (1 Bft) 100,00 %
16.02.2018 19:00 2,9 C 4,4 C 97 % 1027,5 hPa 0,0 l/m 3,8 km/h (1 Bft) W-SW 252 0 min 0,000 mm 0,0 UV-I 0 W/m 2,5 C 2,9 C 4,8 km/h (1 Bft) 86,96 %
16.02.2018 19:01 2,9 C 4,4 C 97 % 1027,5 hPa 0,0 l/m 2,6 km/h (1 Bft) W-SW 252 0 min 0,000 mm 0,0 UV-I 0 W/m 2,5 C 2,9 C 3,2 km/h (1 Bft) 100,00 %
16.02.2018 19:02 2,9 C 4,4 C 97 % 1027,4 hPa 0,0 l/m 2,3 km/h (1 Bft) W-SW 252 0 min 0,000 mm 0,0 UV-I 0 W/m 2,5 C 2,9 C 3,2 km/h (1 Bft) 91,30 %
16.02.2018 19:03 2,9 C 4,4 C 97 % 1027,5 hPa 0,0 l/m 2,1 km/h (1 Bft) W-SW 252 0 min 0,000 mm 0,0 UV-I 0 W/m 2,5 C 2,9 C 3,2 km/h (1 Bft) 91,67 %
16.02.2018 19:04 3,0 C 4,4 C 97 % 1027,4 hPa 0,0 l/m 2,5 km/h (1 Bft) W-SW 252 0 min 0,000 mm 0,0 UV-I 0 W/m 2,6 C 3,0 C 3,2 km/h (1 Bft) 100,00 %
16.02.2018 19:05 2,9 C 4,4 C 97 % 1027,4 hPa 0,0 l/m 3,5 km/h (1 Bft) W-SW 252 0 min 0,000 mm 0,0 UV-I 0 W/m 2,5 C 2,9 C 4,8 km/h (1 Bft) 95,83 %
16.02.2018 19:06 2,9 C 4,4 C 97 % 1027,4 hPa 0,0 l/m 1,0 km/h (0 Bft) W-SW 252 0 min 0,000 mm 0,0 UV-I 0 W/m 2,5 C 2,9 C 3,2 km/h (1 Bft) 100,00 %
16.02.2018 19:07 2,9 C 4,4 C 97 % 1027,4 hPa 0,0 l/m 2,8 km/h (1 Bft) W-SW 252 0 min 0,000 mm 0,0 UV-I 0 W/m 2,5 C 2,9 C 4,8 km/h (1 Bft) 95,83 %
16.02.2018 19:08 2,9 C 4,4 C 97 % 1027,4 hPa 0,0 l/m 2,6 km/h (1 Bft) W-SW 252 0 min 0,000 mm 0,0 UV-I 0 W/m 2,5 C 2,9 C 4,8 km/h (1 Bft) 100,00 %
16.02.2018 19:09 2,9 C 4,4 C 97 % 1027,4 hPa 0,0 l/m 3,4 km/h (1 Bft) W-SW 252 0 min 0,000 mm 0,0 UV-I 0 W/m 2,5 C 2,9 C 4,8 km/h (1 Bft) 95,83 %
16.02.2018 19:10 2,9 C 4,4 C 97 % 1027,4 hPa 0,0 l/m 2,7 km/h (1 Bft) W-SW 252 0 min 0,000 mm 0,0 UV-I 0 W/m 2,5 C 2,9 C 4,8 km/h (1 Bft) 95,65 %
16.02.2018 19:11 2,9 C 4,4 C 97 % 1027,5 hPa 0,0 l/m 1,5 km/h (1 Bft) W-SW 252 0 min 0,000 mm 0,0 UV-I 0 W/m 2,5 C 2,9 C 3,2 km/h (1 Bft) 95,83 %
16.02.2018 19:12 2,9 C 4,4 C 97 % 1027,5 hPa 0,0 l/m 2,0 km/h (1 Bft) W-SW 252 0 min 0,000 mm 0,0 UV-I 0 W/m 2,5 C 2,9 C 3,2 km/h (1 Bft) 96,15 %
16.02.2018 19:13 2,9 C 4,4 C 97 % 1027,5 hPa 0,0 l/m 4,4 km/h (1 Bft) W-SW 252 0 min 0,000 mm 0,0 UV-I 0 W/m 2,5 C 2,9 C 6,4 km/h (2 Bft) 93,33 %
16.02.2018 19:14 2,9 C 4,4 C 98 % 1027,5 hPa 0,0 l/m 4,8 km/h (1 Bft) W-SW 252 0 min 0,000 mm 0,0 UV-I 0 W/m 2,6 C 2,9 C 6,4 km/h (2 Bft) 96,15 %
16.02.2018 19:15 2,9 C 4,4 C 98 % 1027,5 hPa 0,0 l/m 3,9 km/h (1 Bft) W-SW 252 0 min 0,000 mm 0,0 UV-I 0 W/m 2,6 C 2,9 C 4,8 km/h (1 Bft) 95,83 %
16.02.2018 19:16 2,9 C 4,4 C 98 % 1027,5 hPa 0,0 l/m 3,3 km/h (1 Bft) W-SW 252 0 min 0,000 mm 0,0 UV-I 0 W/m 2,6 C 2,9 C 4,8 km/h (1 Bft) 95,83 %
16.02.2018 19:17 2,9 C 4,4 C 98 % 1027,5 hPa 0,0 l/m 4,0 km/h (1 Bft) W-SW 252 0 min 0,000 mm 0,0 UV-I 0 W/m 2,6 C 2,9 C 6,4 km/h (2 Bft) 100,00 %
16.02.2018 19:18 2,9 C 4,4 C 98 % 1027,5 hPa 0,0 l/m 3,9 km/h (1 Bft) W-SW 252 0 min 0,000 mm 0,0 UV-I 0 W/m 2,6 C 2,9 C 4,8 km/h (1 Bft) 95,83 %
16.02.2018 19:19 2,9 C 4,4 C 98 % 1027,5 hPa 0,0 l/m 3,3 km/h (1 Bft) W-SW 252 0 min 0,000 mm 0,0 UV-I 0 W/m 2,6 C 2,9 C 4,8 km/h (1 Bft) 100,00 %
16.02.2018 19:20 2,9 C 4,4 C 98 % 1027,5 hPa 0,0 l/m 3,5 km/h (1 Bft) W-SW 252 0 min 0,000 mm 0,0 UV-I 0 W/m 2,6 C 2,9 C 4,8 km/h (1 Bft) 95,83 %
16.02.2018 19:21 2,9 C 4,4 C 98 % 1027,6 hPa 0,0 l/m 3,8 km/h (1 Bft) W-SW 252 0 min 0,000 mm 0,0 UV-I 0 W/m 2,6 C 2,9 C 6,4 km/h (2 Bft) 100,00 %
16.02.2018 19:22 2,9 C 4,4 C 98 % 1027,6 hPa 0,0 l/m 3,3 km/h (1 Bft) W-SW 252 0 min 0,000 mm 0,0 UV-I 0 W/m 2,6 C 2,9 C 4,8 km/h (1 Bft) 95,83 %
16.02.2018 19:23 2,9 C 4,4 C 98 % 1027,6 hPa 0,0 l/m 2,9 km/h (1 Bft) W-SW 252 0 min 0,000 mm 0,0 UV-I 0 W/m 2,6 C 2,9 C 4,8 km/h (1 Bft) 91,30 %
16.02.2018 19:24 2,9 C 4,4 C 98 % 1027,6 hPa 0,0 l/m 3,2 km/h (1 Bft) W-SW 252 0 min 0,000 mm 0,0 UV-I 0 W/m 2,6 C 2,9 C 4,8 km/h (1 Bft) 95,83 %
16.02.2018 19:25 2,9 C 4,4 C 98 % 1027,6 hPa 0,0 l/m 4,5 km/h (1 Bft) W-SW 252 0 min 0,000 mm 0,0 UV-I 0 W/m 2,6 C 2,9 C 6,4 km/h (2 Bft) 95,65 %
16.02.2018 19:26 2,9 C 4,4 C 98 % 1027,6 hPa 0,0 l/m 4,4 km/h (1 Bft) W-SW 252 0 min 0,000 mm 0,0 UV-I 0 W/m 2,6 C 2,9 C 6,4 km/h (2 Bft) 100,00 %
16.02.2018 19:27 2,9 C 4,4 C 98 % 1027,6 hPa 0,0 l/m 4,6 km/h (1 Bft) W-SW 252 0 min 0,000 mm 0,0 UV-I 0 W/m 2,6 C 2,9 C 4,8 km/h (1 Bft) 95,65 %
16.02.2018 19:28 2,9 C 4,4 C 98 % 1027,6 hPa 0,0 l/m 5,2 km/h (1 Bft) SW 214 0 min 0,000 mm 0,0 UV-I 0 W/m 2,6 C 2,9 C 6,4 km/h (2 Bft) 100,00 %
16.02.2018 19:29 2,8 C 4,4 C 98 % 1027,5 hPa 0,0 l/m 4,8 km/h (1 Bft) SW 215 0 min 0,000 mm 0,0 UV-I 0 W/m 2,5 C 2,8 C 6,4 km/h (2 Bft) 91,30 %
16.02.2018 19:30 2,8 C 4,4 C 98 % 1027,6 hPa 0,0 l/m 4,3 km/h (1 Bft) SW 215 0 min 0,000 mm 0,0 UV-I 0 W/m 2,5 C 2,8 C 4,8 km/h (1 Bft) 100,00 %
16.02.2018 19:31 2,8 C 4,4 C 98 % 1027,6 hPa 0,0 l/m 2,9 km/h (1 Bft) SW 215 0 min 0,000 mm 0,0 UV-I 0 W/m 2,5 C 2,8 C 4,8 km/h (1 Bft) 97,14 %
16.02.2018 19:32 2,8 C 4,4 C 98 % 1027,5 hPa 0,0 l/m 4,1 km/h (1 Bft) SW 215 0 min 0,000 mm 0,0 UV-I 0 W/m 2,5 C 2,8 C 4,8 km/h (1 Bft) 100,00 %
16.02.2018 19:33 2,8 C 4,4 C 98 % 1027,5 hPa 0,0 l/m 4,1 km/h (1 Bft) SW 215 0 min 0,000 mm 0,0 UV-I 0 W/m 2,5 C 2,8 C 4,8 km/h (1 Bft) 96,15 %
16.02.2018 19:34 2,8 C 4,4 C 98 % 1027,5 hPa 0,0 l/m 3,0 km/h (1 Bft) SW 215 0 min 0,000 mm 0,0 UV-I 0 W/m 2,5 C 2,8 C 4,8 km/h (1 Bft) 100,00 %
16.02.2018 19:35 2,8 C 4,4 C 98 % 1027,6 hPa 0,0 l/m 3,2 km/h (1 Bft) SW 215 0 min 0,000 mm 0,0 UV-I 0 W/m 2,5 C 2,8 C 4,8 km/h (1 Bft) 95,83 %
16.02.2018 19:36 2,8 C 4,4 C 98 % 1027,6 hPa 0,0 l/m 3,8 km/h (1 Bft) SW 215 0 min 0,000 mm 0,0 UV-I 0 W/m 2,5 C 2,8 C 4,8 km/h (1 Bft) 95,65 %
16.02.2018 19:37 2,8 C 4,4 C 98 % 1027,6 hPa 0,0 l/m 4,4 km/h (1 Bft) SW 215 0 min 0,000 mm 0,0 UV-I 0 W/m 2,5 C 2,8 C 4,8 km/h (1 Bft) 95,83 %
16.02.2018 19:38 2,8 C 4,4 C 98 % 1027,6 hPa 0,0 l/m 3,6 km/h (1 Bft) SW 215 0 min 0,000 mm 0,0 UV-I 0 W/m 2,5 C 2,8 C 4,8 km/h (1 Bft) 95,65 %
16.02.2018 19:39 2,8 C 4,4 C 98 % 1027,6 hPa 0,0 l/m 3,9 km/h (1 Bft) SW 215 0 min 0,000 mm 0,0 UV-I 0 W/m 2,5 C 2,8 C 4,8 km/h (1 Bft) 100,00 %
16.02.2018 19:40 2,8 C 4,4 C 98 % 1027,6 hPa 0,0 l/m 3,1 km/h (1 Bft) SW 215 0 min 0,000 mm 0,0 UV-I 0 W/m 2,5 C 2,8 C 3,2 km/h (1 Bft) 95,65 %
16.02.2018 19:41 2,8 C 4,4 C 98 % 1027,6 hPa 0,0 l/m 2,2 km/h (1 Bft) SW 215 0 min 0,000 mm 0,0 UV-I 0 W/m 2,5 C 2,8 C 3,2 km/h (1 Bft) 100,00 %
16.02.2018 19:42 2,8 C 4,4 C 98 % 1027,6 hPa 0,0 l/m 3,6 km/h (1 Bft) SW 215 0 min 0,000 mm 0,0 UV-I 0 W/m 2,5 C 2,8 C 4,8 km/h (1 Bft) 95,65 %
16.02.2018 19:43 2,8 C 4,4 C 98 % 1027,6 hPa 0,0 l/m 3,3 km/h (1 Bft) SW 215 0 min 0,000 mm 0,0 UV-I 0 W/m 2,5 C 2,8 C 4,8 km/h (1 Bft) 100,00 %
16.02.2018 19:44 2,8 C 4,4 C 98 % 1027,5 hPa 0,0 l/m 3,4 km/h (1 Bft) SW 215 0 min 0,000 mm 0,0 UV-I 0 W/m 2,5 C 2,8 C 4,8 km/h (1 Bft) 86,96 %
16.02.2018 19:45 2,8 C 4,4 C 98 % 1027,5 hPa 0,0 l/m 2,0 km/h (1 Bft) SW 215 0 min 0,000 mm 0,0 UV-I 0 W/m 2,5 C 2,8 C 3,2 km/h (1 Bft) 100,00 %
16.02.2018 19:46 2,8 C 4,4 C 98 % 1027,5 hPa 0,0 l/m 3,0 km/h (1 Bft) SW 215 0 min 0,000 mm 0,0 UV-I 0 W/m 2,5 C 2,8 C 3,2 km/h (1 Bft) 91,30 %
16.02.2018 19:47 2,8 C 4,4 C 98 % 1027,5 hPa 0,0 l/m 2,9 km/h (1 Bft) SW 215 0 min 0,000 mm 0,0 UV-I 0 W/m 2,5 C 2,8 C 4,8 km/h (1 Bft) 95,83 %
16.02.2018 19:48 2,8 C 4,4 C 98 % 1027,5 hPa 0,0 l/m 3,9 km/h (1 Bft) SW 215 0 min 0,000 mm 0,0 UV-I 0 W/m 2,5 C 2,8 C 6,4 km/h (2 Bft) 100,00 %
16.02.2018 19:49 2,8 C 4,4 C 98 % 1027,5 hPa 0,0 l/m 3,0 km/h (1 Bft) SW 215 0 min 0,000 mm 0,0 UV-I 0 W/m 2,5 C 2,8 C 4,8 km/h (1 Bft) 95,83 %
16.02.2018 19:50 2,8 C 4,4 C 98 % 1027,5 hPa 0,0 l/m 3,4 km/h (1 Bft) SW 215 0 min 0,000 mm 0,0 UV-I 0 W/m 2,5 C 2,8 C 4,8 km/h (1 Bft) 100,00 %
16.02.2018 19:51 2,8 C 4,4 C 98 % 1027,5 hPa 0,0 l/m 2,9 km/h (1 Bft) SW 215 0 min 0,000 mm 0,0 UV-I 0 W/m 2,5 C 2,8 C 4,8 km/h (1 Bft) 95,83 %
16.02.2018 19:52 2,8 C 4,4 C 98 % 1027,5 hPa 0,0 l/m 2,8 km/h (1 Bft) W-SW 243 0 min 0,000 mm 0,0 UV-I 0 W/m 2,5 C 2,8 C 4,8 km/h (1 Bft) 100,00 %
16.02.2018 19:53 2,8 C 4,4 C 98 % 1027,4 hPa 0,0 l/m 4,8 km/h (1 Bft) W-SW 242 0 min 0,000 mm 0,0 UV-I 0 W/m 2,5 C 2,8 C 6,4 km/h (2 Bft) 91,67 %
16.02.2018 19:54 2,8 C 4,4 C 98 % 1027,4 hPa 0,0 l/m 3,7 km/h (1 Bft) W-SW 242 0 min 0,000 mm 0,0 UV-I 0 W/m 2,5 C 2,8 C 4,8 km/h (1 Bft) 100,00 %
16.02.2018 19:55 2,8 C 4,4 C 98 % 1027,4 hPa 0,0 l/m 3,7 km/h (1 Bft) W-SW 242 0 min 0,000 mm 0,0 UV-I 0 W/m 2,5 C 2,8 C 4,8 km/h (1 Bft) 95,83 %
16.02.2018 19:56 2,8 C 4,4 C 98 % 1027,5 hPa 0,0 l/m 2,8 km/h (1 Bft) W-SW 242 0 min 0,000 mm 0,0 UV-I 0 W/m 2,5 C 2,8 C 3,2 km/h (1 Bft) 95,65 %
16.02.2018 19:57 2,8 C 4,4 C 98 % 1027,5 hPa 0,0 l/m 2,5 km/h (1 Bft) W-SW 242 0 min 0,000 mm 0,0 UV-I 0 W/m 2,5 C 2,8 C 3,2 km/h (1 Bft) 95,83 %
16.02.2018 19:58 2,8 C 4,4 C 98 % 1027,5 hPa 0,0 l/m 2,5 km/h (1 Bft) W-SW 242 0 min 0,000 mm 0,0 UV-I 0 W/m 2,5 C 2,8 C 3,2 km/h (1 Bft) 91,30 %
16.02.2018 19:59 2,8 C 4,4 C 98 % 1027,5 hPa 0,0 l/m 2,8 km/h (1 Bft) W-SW 242 0 min 0,000 mm 0,0 UV-I 0 W/m 2,5 C 2,8 C 4,8 km/h (1 Bft) 100,00 %
16.02.2018 20:00 2,8 C 4,4 C 98 % 1027,5 hPa 0,0 l/m 4,0 km/h (1 Bft) W-SW 242 0 min 0,000 mm 0,0 UV-I 0 W/m 2,5 C 2,8 C 4,8 km/h (1 Bft) 95,65 %
16.02.2018 20:01 2,8 C 4,4 C 98 % 1027,5 hPa 0,0 l/m 3,8 km/h (1 Bft) W-SW 242 0 min 0,000 mm 0,0 UV-I 0 W/m 2,5 C 2,8 C 4,8 km/h (1 Bft) 91,67 %
16.02.2018 20:02 2,7 C 4,4 C 98 % 1027,5 hPa 0,0 l/m 3,6 km/h (1 Bft) W-SW 242 0 min 0,000 mm 0,0 UV-I 0 W/m 2,4 C 2,7 C 4,8 km/h (1 Bft) 100,00 %
16.02.2018 20:03 2,7 C 4,4 C 98 % 1027,5 hPa 0,0 l/m 4,0 km/h (1 Bft) W-SW 241 0 min 0,000 mm 0,0 UV-I 0 W/m 2,4 C 2,7 C 6,4 km/h (2 Bft) 100,00 %
16.02.2018 20:04 2,7 C 4,4 C 98 % 1027,5 hPa 0,0 l/m 5,4 km/h (1 Bft) SW 220 0 min 0,000 mm 0,0 UV-I 0 W/m 2,4 C 2,7 C 6,4 km/h (2 Bft) 100,00 %
16.02.2018 20:05 2,8 C 4,4 C 98 % 1027,5 hPa 0,0 l/m 3,7 km/h (1 Bft) SW 220 0 min 0,000 mm 0,0 UV-I 0 W/m 2,5 C 2,8 C 6,4 km/h (2 Bft) 95,65 %
16.02.2018 20:06 2,7 C 4,4 C 98 % 1027,4 hPa 0,0 l/m 5,1 km/h (1 Bft) SW 220 0 min 0,000 mm 0,0 UV-I 0 W/m 2,4 C 2,7 C 6,4 km/h (2 Bft) 100,00 %
16.02.2018 20:07 2,7 C 4,4 C 98 % 1027,5 hPa 0,0 l/m 5,0 km/h (1 Bft) SW 221 0 min 0,000 mm 0,0 UV-I 0 W/m 2,4 C 2,7 C 6,4 km/h (2 Bft) 95,65 %
16.02.2018 20:08 2,7 C 4,4 C 98 % 1027,5 hPa 0,0 l/m 4,1 km/h (1 Bft) SW 223 0 min 0,000 mm 0,0 UV-I 0 W/m 2,4 C 2,7 C 6,4 km/h (2 Bft) 100,00 %
16.02.2018 20:09 2,7 C 4,4 C 98 % 1027,5 hPa 0,0 l/m 4,0 km/h (1 Bft) SW 223 0 min 0,000 mm 0,0 UV-I 0 W/m 2,4 C 2,7 C 4,8 km/h (1 Bft) 100,00 %
16.02.2018 20:10 2,8 C 4,4 C 98 % 1027,5 hPa 0,0 l/m 3,1 km/h (1 Bft) SW 223 0 min 0,000 mm 0,0 UV-I 0 W/m 2,5 C 2,8 C 4,8 km/h (1 Bft) 95,83 %
16.02.2018 20:11 2,8 C 4,4 C 97 % 1027,5 hPa 0,0 l/m 3,3 km/h (1 Bft) SW 223 0 min 0,000 mm 0,0 UV-I 0 W/m 2,4 C 2,8 C 4,8 km/h (1 Bft) 91,30 %
16.02.2018 20:12 2,8 C 4,4 C 97 % 1027,5 hPa 0,0 l/m 4,7 km/h (1 Bft) W-SW 240 0 min 0,000 mm 0,0 UV-I 0 W/m 2,4 C 2,8 C 6,4 km/h (2 Bft) 100,00 %
16.02.2018 20:13 2,8 C 4,4 C 98 % 1027,5 hPa 0,0 l/m 5,1 km/h (1 Bft) SW 228 0 min 0,000 mm 0,0 UV-I 0 W/m 2,5 C 2,8 C 6,4 km/h (2 Bft) 100,00 %
16.02.2018 20:14 2,8 C 4,4 C 98 % 1027,5 hPa 0,0 l/m 3,1 km/h (1 Bft) W-SW 239 0 min 0,000 mm 0,0 UV-I 0 W/m 2,5 C 2,8 C 4,8 km/h (1 Bft) 100,00 %
16.02.2018 20:15 2,8 C 4,4 C 98 % 1027,5 hPa 0,0 l/m 3,2 km/h (1 Bft) W-SW 242 0 min 0,000 mm 0,0 UV-I 0 W/m 2,5 C 2,8 C 6,4 km/h (2 Bft) 100,00 %
16.02.2018 20:16 2,8 C 4,4 C 98 % 1027,5 hPa 0,0 l/m 4,9 km/h (1 Bft) W-SW 248 0 min 0,000 mm 0,0 UV-I 0 W/m 2,5 C 2,8 C 6,4 km/h (2 Bft) 100,00 %
16.02.2018 20:17 2,8 C 4,4 C 98 % 1027,5 hPa 0,0 l/m 3,6 km/h (1 Bft) W-SW 247 0 min 0,000 mm 0,0 UV-I 0 W/m 2,5 C 2,8 C 4,8 km/h (1 Bft) 95,83 %
16.02.2018 20:18 2,8 C 4,4 C 98 % 1027,5 hPa 0,0 l/m 4,8 km/h (1 Bft) W-SW 248 0 min 0,000 mm 0,0 UV-I 0 W/m 2,5 C 2,8 C 6,4 km/h (2 Bft) 100,00 %
16.02.2018 20:19 2,8 C 4,4 C 98 % 1027,6 hPa 0,0 l/m 5,0 km/h (1 Bft) W-SW 247 0 min 0,000 mm 0,0 UV-I 0 W/m 2,5 C 2,8 C 6,4 km/h (2 Bft) 100,00 %
16.02.2018 20:20 2,8 C 4,4 C 98 % 1027,6 hPa 0,0 l/m 4,9 km/h (1 Bft) W-SW 247 0 min 0,000 mm 0,0 UV-I 0 W/m 2,5 C 2,8 C 8,0 km/h (2 Bft) 100,00 %
16.02.2018 20:21 2,8 C 4,4 C 98 % 1027,6 hPa 0,0 l/m 4,2 km/h (1 Bft) W-SW 246 0 min 0,000 mm 0,0 UV-I 0 W/m 2,5 C 2,8 C 6,4 km/h (2 Bft) 100,00 %
16.02.2018 20:22 2,8 C 4,4 C 98 % 1027,6 hPa 0,0 l/m 4,8 km/h (1 Bft) W-SW 246 0 min 0,000 mm 0,0 UV-I 0 W/m 2,5 C 2,8 C 6,4 km/h (2 Bft) 100,00 %
16.02.2018 20:23 2,8 C 4,4 C 97 % 1027,6 hPa 0,0 l/m 4,1 km/h (1 Bft) W-SW 246 0 min 0,000 mm 0,0 UV-I 0 W/m 2,4 C 2,8 C 6,4 km/h (2 Bft) 95,83 %
16.02.2018 20:24 2,8 C 4,4 C 97 % 1027,6 hPa 0,0 l/m 4,5 km/h (1 Bft) W-SW 246 0 min 0,000 mm 0,0 UV-I 0 W/m 2,4 C 2,8 C 6,4 km/h (2 Bft) 100,00 %
16.02.2018 20:25 2,8 C 4,4 C 98 % 1027,5 hPa 0,0 l/m 5,7 km/h (1 Bft) W-SW 248 0 min 0,000 mm 0,0 UV-I 0 W/m 2,5 C 2,8 C 8,0 km/h (2 Bft) 100,00 %
16.02.2018 20:26 2,8 C 4,4 C 98 % 1027,5 hPa 0,0 l/m 5,2 km/h (1 Bft) W-SW 247 0 min 0,000 mm 0,0 UV-I 0 W/m 2,5 C 2,8 C 6,4 km/h (2 Bft) 91,30 %
16.02.2018 20:27 2,8 C 4,4 C 98 % 1027,6 hPa 0,0 l/m 5,4 km/h (1 Bft) W-SW 247 0 min 0,000 mm 0,0 UV-I 0 W/m 2,5 C 2,8 C 8,0 km/h (2 Bft) 100,00 %
16.02.2018 20:28 2,8 C 4,4 C 98 % 1027,6 hPa 0,0 l/m 3,2 km/h (1 Bft) W-SW 244 0 min 0,000 mm 0,0 UV-I 0 W/m 2,5 C 2,8 C 4,8 km/h (1 Bft) 95,65 %
16.02.2018 20:29 2,8 C 4,4 C 98 % 1027,5 hPa 0,0 l/m 3,3 km/h (1 Bft) W-SW 243 0 min 0,000 mm 0,0 UV-I 0 W/m 2,5 C 2,8 C 6,4 km/h (2 Bft) 100,00 %
16.02.2018 20:30 2,8 C 4,4 C 98 % 1027,5 hPa 0,0 l/m 4,2 km/h (1 Bft) W-SW 243 0 min 0,000 mm 0,0 UV-I 0 W/m 2,5 C 2,8 C 6,4 km/h (2 Bft) 95,65 %
16.02.2018 20:31 2,8 C 4,4 C 97 % 1027,5 hPa 0,0 l/m 3,7 km/h (1 Bft) W-SW 243 0 min 0,000 mm 0,0 UV-I 0 W/m 2,4 C 2,8 C 4,8 km/h (1 Bft) 100,00 %
16.02.2018 20:32 2,8 C 4,4 C 98 % 1027,5 hPa 0,0 l/m 4,3 km/h (1 Bft) SW 230 0 min 0,000 mm 0,0 UV-I 0 W/m 2,5 C 2,8 C 6,4 km/h (2 Bft) 100,00 %
16.02.2018 20:33 2,8 C 4,4 C 97 % 1027,6 hPa 0,0 l/m 5,0 km/h (1 Bft) SW 229 0 min 0,000 mm 0,0 UV-I 0 W/m 2,4 C 2,8 C 6,4 km/h (2 Bft) 100,00 %
16.02.2018 20:34 2,8 C 4,4 C 97 % 1027,6 hPa 0,0 l/m 5,3 km/h (1 Bft) SW 229 0 min 0,000 mm 0,0 UV-I 0 W/m 2,4 C 2,8 C 6,4 km/h (2 Bft) 100,00 %
16.02.2018 20:35 2,8 C 4,4 C 97 % 1027,6 hPa 0,0 l/m 6,5 km/h (2 Bft) SW 217 0 min 0,000 mm 0,0 UV-I 0 W/m 2,4 C 2,7 C 8,0 km/h (2 Bft) 100,00 %
16.02.2018 20:36 2,8 C 4,4 C 98 % 1027,6 hPa 0,0 l/m 5,4 km/h (1 Bft) SW 217 0 min 0,000 mm 0,0 UV-I 0 W/m 2,5 C 2,8 C 6,4 km/h (2 Bft) 100,00 %
16.02.2018 20:37 2,8 C 4,4 C 97 % 1027,5 hPa 0,0 l/m 5,0 km/h (1 Bft) SW 216 0 min 0,000 mm 0,0 UV-I 0 W/m 2,4 C 2,8 C 8,0 km/h (2 Bft) 95,65 %
16.02.2018 20:38 2,8 C 4,4 C 97 % 1027,5 hPa 0,0 l/m 6,0 km/h (2 Bft) SW 217 0 min 0,000 mm 0,0 UV-I 0 W/m 2,4 C 2,8 C 8,0 km/h (2 Bft) 91,67 %
16.02.2018 20:39 2,8 C 4,4 C 97 % 1027,6 hPa 0,0 l/m 5,8 km/h (2 Bft) SW 216 0 min 0,000 mm 0,0 UV-I 0 W/m 2,4 C 2,8 C 6,4 km/h (2 Bft) 100,00 %
16.02.2018 20:40 2,8 C 4,4 C 97 % 1027,5 hPa 0,0 l/m 6,4 km/h (2 Bft) SW 221 0 min 0,000 mm 0,0 UV-I 0 W/m 2,4 C 2,8 C 8,0 km/h (2 Bft) 95,83 %
16.02.2018 20:41 2,7 C 4,4 C 98 % 1027,5 hPa 0,0 l/m 4,1 km/h (1 Bft) SW 220 0 min 0,000 mm 0,0 UV-I 0 W/m 2,4 C 2,7 C 6,4 km/h (2 Bft) 100,00 %
16.02.2018 20:42 2,7 C 4,4 C 97 % 1027,5 hPa 0,0 l/m 4,1 km/h (1 Bft) SW 220 0 min 0,000 mm 0,0 UV-I 0 W/m 2,3 C 2,7 C 6,4 km/h (2 Bft) 96,30 %
16.02.2018 20:43 2,7 C 4,4 C 98 % 1027,5 hPa 0,0 l/m 4,7 km/h (1 Bft) SW 220 0 min 0,000 mm 0,0 UV-I 0 W/m 2,4 C 2,7 C 6,4 km/h (2 Bft) 100,00 %
16.02.2018 20:44 2,7 C 4,4 C 98 % 1027,5 hPa 0,0 l/m 2,3 km/h (1 Bft) SW 220 0 min 0,000 mm 0,0 UV-I 0 W/m 2,4 C 2,7 C 4,8 km/h (1 Bft) 93,33 %
16.02.2018 20:45 2,7 C 4,4 C 98 % 1027,5 hPa 0,0 l/m 2,3 km/h (1 Bft) SW 220 0 min 0,000 mm 0,0 UV-I 0 W/m 2,4 C 2,7 C 3,2 km/h (1 Bft) 100,00 %
16.02.2018 20:46 2,7 C 4,4 C 98 % 1027,5 hPa 0,0 l/m 4,8 km/h (1 Bft) SW 220 0 min 0,000 mm 0,0 UV-I 0 W/m 2,4 C 2,7 C 6,4 km/h (2 Bft) 95,83 %
16.02.2018 20:47 2,7 C 4,4 C 98 % 1027,5 hPa 0,0 l/m 3,2 km/h (1 Bft) SW 220 0 min 0,000 mm 0,0 UV-I 0 W/m 2,4 C 2,7 C 4,8 km/h (1 Bft) 100,00 %
16.02.2018 20:48 2,7 C 4,4 C 98 % 1027,5 hPa 0,0 l/m 4,1 km/h (1 Bft) SW 220 0 min 0,000 mm 0,0 UV-I 0 W/m 2,4 C 2,7 C 4,8 km/h (1 Bft) 95,83 %
16.02.2018 20:49 2,7 C 4,4 C 98 % 1027,5 hPa 0,0 l/m 4,0 km/h (1 Bft) SW 220 0 min 0,000 mm 0,0 UV-I 0 W/m 2,4 C 2,7 C 6,4 km/h (2 Bft) 95,65 %
16.02.2018 20:50 2,7 C 4,4 C 98 % 1027,5 hPa 0,0 l/m 5,8 km/h (2 Bft) S-SW 203 0 min 0,000 mm 0,0 UV-I 0 W/m 2,4 C 2,7 C 8,0 km/h (2 Bft) 100,00 %
16.02.2018 20:51 2,7 C 4,4 C 97 % 1027,5 hPa 0,0 l/m 4,9 km/h (1 Bft) S-SW 203 0 min 0,000 mm 0,0 UV-I 0 W/m 2,3 C 2,7 C 6,4 km/h (2 Bft) 91,30 %
16.02.2018 20:52 2,7 C 4,4 C 97 % 1027,5 hPa 0,0 l/m 4,0 km/h (1 Bft) S-SW 203 0 min 0,000 mm 0,0 UV-I 0 W/m 2,3 C 2,7 C 4,8 km/h (1 Bft) 95,83 %
16.02.2018 20:53 2,7 C 4,4 C 97 % 1027,6 hPa 0,0 l/m 3,0 km/h (1 Bft) S-SW 203 0 min 0,000 mm 0,0 UV-I 0 W/m 2,3 C 2,7 C 4,8 km/h (1 Bft) 95,83 %
16.02.2018 20:54 2,7 C 4,4 C 97 % 1027,6 hPa 0,0 l/m 5,2 km/h (1 Bft) S-SW 203 0 min 0,000 mm 0,0 UV-I 0 W/m 2,3 C 2,7 C 6,4 km/h (2 Bft) 100,00 %
16.02.2018 20:55 2,7 C 4,4 C 97 % 1027,5 hPa 0,0 l/m 3,5 km/h (1 Bft) S-SW 203 0 min 0,000 mm 0,0 UV-I 0 W/m 2,3 C 2,7 C 4,8 km/h (1 Bft) 95,83 %
16.02.2018 20:56 2,7 C 4,4 C 97 % 1027,6 hPa 0,0 l/m 3,3 km/h (1 Bft) S-SW 203 0 min 0,000 mm 0,0 UV-I 0 W/m 2,3 C 2,7 C 4,8 km/h (1 Bft) 95,65 %
16.02.2018 20:57 2,7 C 4,4 C 97 % 1027,5 hPa 0,0 l/m 3,4 km/h (1 Bft) S-SW 203 0 min 0,000 mm 0,0 UV-I 0 W/m 2,3 C 2,7 C 4,8 km/h (1 Bft) 100,00 %
16.02.2018 20:58 2,7 C 4,4 C 97 % 1027,5 hPa 0,0 l/m 2,6 km/h (1 Bft) S-SW 203 0 min 0,000 mm 0,0 UV-I 0 W/m 2,3 C 2,7 C 3,2 km/h (1 Bft) 91,30 %
16.02.2018 20:59 2,7 C 4,4 C 97 % 1027,5 hPa 0,0 l/m 2,2 km/h (1 Bft) S-SW 203 0 min 0,000 mm 0,0 UV-I 0 W/m 2,3 C 2,7 C 3,2 km/h (1 Bft) 100,00 %
16.02.2018 21:00 2,7 C 4,4 C 97 % 1027,5 hPa 0,0 l/m 2,3 km/h (1 Bft) S-SW 203 0 min 0,000 mm 0,0 UV-I 0 W/m 2,3 C 2,7 C 3,2 km/h (1 Bft) 95,65 %
16.02.2018 21:01 2,7 C 4,4 C 97 % 1027,5 hPa 0,0 l/m 4,0 km/h (1 Bft) S-SW 203 0 min 0,000 mm 0,0 UV-I 0 W/m 2,3 C 2,7 C 4,8 km/h (1 Bft) 100,00 %
16.02.2018 21:02 2,7 C 4,4 C 97 % 1027,5 hPa 0,0 l/m 4,2 km/h (1 Bft) S-SW 203 0 min 0,000 mm 0,0 UV-I 0 W/m 2,3 C 2,7 C 4,8 km/h (1 Bft) 92,31 %
16.02.2018 21:03 2,7 C 4,4 C 97 % 1027,5 hPa 0,0 l/m 2,2 km/h (1 Bft) S-SW 203 0 min 0,000 mm 0,0 UV-I 0 W/m 2,3 C 2,7 C 3,2 km/h (1 Bft) 95,83 %
16.02.2018 21:04 2,7 C 4,4 C 97 % 1027,5 hPa 0,0 l/m 2,6 km/h (1 Bft) S-SW 203 0 min 0,000 mm 0,0 UV-I 0 W/m 2,3 C 2,7 C 3,2 km/h (1 Bft) 100,00 %
16.02.2018 21:05 2,6 C 4,4 C 97 % 1027,5 hPa 0,0 l/m 3,2 km/h (1 Bft) S-SW 203 0 min 0,000 mm 0,0 UV-I 0 W/m 2,2 C 2,6 C 4,8 km/h (1 Bft) 95,83 %
16.02.2018 21:06 2,6 C 4,4 C 97 % 1027,4 hPa 0,0 l/m 1,8 km/h (1 Bft) S-SW 203 0 min 0,000 mm 0,0 UV-I 0 W/m 2,2 C 2,6 C 3,2 km/h (1 Bft) 100,00 %
16.02.2018 21:07 2,6 C 4,4 C 97 % 1027,4 hPa 0,0 l/m 4,0 km/h (1 Bft) S-SW 203 0 min 0,000 mm 0,0 UV-I 0 W/m 2,2 C 2,6 C 4,8 km/h (1 Bft) 95,83 %
16.02.2018 21:08 2,6 C 4,4 C 97 % 1027,4 hPa 0,0 l/m 3,2 km/h (1 Bft) S-SW 203 0 min 0,000 mm 0,0 UV-I 0 W/m 2,2 C 2,6 C 4,8 km/h (1 Bft) 100,00 %
16.02.2018 21:09 2,6 C 4,4 C 97 % 1027,4 hPa 0,0 l/m 3,2 km/h (1 Bft) S-SW 203 0 min 0,000 mm 0,0 UV-I 0 W/m 2,2 C 2,6 C 4,8 km/h (1 Bft) 95,83 %
16.02.2018 21:10 2,6 C 4,4 C 97 % 1027,4 hPa 0,0 l/m 3,8 km/h (1 Bft) S-SW 203 0 min 0,000 mm 0,0 UV-I 0 W/m 2,2 C 2,6 C 4,8 km/h (1 Bft) 95,83 %
16.02.2018 21:11 2,6 C 4,4 C 97 % 1027,4 hPa 0,0 l/m 3,8 km/h (1 Bft) S-SW 203 0 min 0,000 mm 0,0 UV-I 0 W/m 2,2 C 2,6 C 4,8 km/h (1 Bft) 95,65 %
16.02.2018 21:12 2,6 C 4,4 C 97 % 1027,4 hPa 0,0 l/m 3,8 km/h (1 Bft) S-SW 203 0 min 0,000 mm 0,0 UV-I 0 W/m 2,2 C 2,6 C 4,8 km/h (1 Bft) 100,00 %
16.02.2018 21:13 2,6 C 4,4 C 97 % 1027,4 hPa 0,0 l/m 4,4 km/h (1 Bft) S-SW 203 0 min 0,000 mm 0,0 UV-I 0 W/m 2,2 C 2,6 C 6,4 km/h (2 Bft) 95,65 %
16.02.2018 21:14 2,6 C 4,4 C 97 % 1027,4 hPa 0,0 l/m 3,4 km/h (1 Bft) S-SW 203 0 min 0,000 mm 0,0 UV-I 0 W/m 2,2 C 2,6 C 4,8 km/h (1 Bft) 100,00 %
16.02.2018 21:15 2,6 C 4,4 C 97 % 1027,4 hPa 0,0 l/m 2,7 km/h (1 Bft) S-SW 203 0 min 0,000 mm 0,0 UV-I 0 W/m 2,2 C 2,6 C 4,8 km/h (1 Bft) 95,65 %
16.02.2018 21:16 2,6 C 4,4 C 97 % 1027,4 hPa 0,0 l/m 2,8 km/h (1 Bft) S-SW 203 0 min 0,000 mm 0,0 UV-I 0 W/m 2,2 C 2,6 C 3,2 km/h (1 Bft) 100,00 %
16.02.2018 21:17 2,6 C 4,4 C 97 % 1027,4 hPa 0,0 l/m 3,5 km/h (1 Bft) S-SW 203 0 min 0,000 mm 0,0 UV-I 0 W/m 2,2 C 2,6 C 4,8 km/h (1 Bft) 96,15 %
16.02.2018 21:18 2,5 C 4,4 C 97 % 1027,5 hPa 0,0 l/m 3,7 km/h (1 Bft) S-SW 203 0 min 0,000 mm 0,0 UV-I 0 W/m 2,1 C 2,5 C 4,8 km/h (1 Bft) 100,00 %
16.02.2018 21:19 2,5 C 4,4 C 98 % 1027,5 hPa 0,0 l/m 2,2 km/h (1 Bft) S-SW 203 0 min 0,000 mm 0,0 UV-I 0 W/m 2,2 C 2,5 C 3,2 km/h (1 Bft) 100,00 %
16.02.2018 21:20 2,5 C 4,4 C 98 % 1027,4 hPa 0,0 l/m 4,8 km/h (1 Bft) W-SW 240 0 min 0,000 mm 0,0 UV-I 0 W/m 2,2 C 2,5 C 8,0 km/h (2 Bft) 100,00 %
16.02.2018 21:21 2,5 C 4,4 C 98 % 1027,4 hPa 0,0 l/m 5,0 km/h (1 Bft) SW 236 0 min 0,000 mm 0,0 UV-I 0 W/m 2,2 C 2,5 C 6,4 km/h (2 Bft) 95,65 %
16.02.2018 21:22 2,5 C 4,4 C 98 % 1027,5 hPa 0,0 l/m 4,0 km/h (1 Bft) SW 236 0 min 0,000 mm 0,0 UV-I 0 W/m 2,2 C 2,5 C 4,8 km/h (1 Bft) 100,00 %
16.02.2018 21:23 2,5 C 4,4 C 98 % 1027,4 hPa 0,0 l/m 4,4 km/h (1 Bft) SW 236 0 min 0,000 mm 0,0 UV-I 0 W/m 2,2 C 2,5 C 6,4 km/h (2 Bft) 100,00 %
16.02.2018 21:24 2,5 C 4,4 C 98 % 1027,4 hPa 0,0 l/m 3,1 km/h (1 Bft) SW 236 0 min 0,000 mm 0,0 UV-I 0 W/m 2,2 C 2,5 C 4,8 km/h (1 Bft) 100,00 %
16.02.2018 21:25 2,5 C 4,4 C 98 % 1027,5 hPa 0,0 l/m 3,8 km/h (1 Bft) SW 236 0 min 0,000 mm 0,0 UV-I 0 W/m 2,2 C 2,5 C 4,8 km/h (1 Bft) 100,00 %
16.02.2018 21:26 2,5 C 4,4 C 98 % 1027,4 hPa 0,0 l/m 2,5 km/h (1 Bft) SW 236 0 min 0,000 mm 0,0 UV-I 0 W/m 2,2 C 2,5 C 4,8 km/h (1 Bft) 100,00 %
16.02.2018 21:27 2,5 C 4,4 C 98 % 1027,4 hPa 0,0 l/m 2,7 km/h (1 Bft) SW 236 0 min 0,000 mm 0,0 UV-I 0 W/m 2,2 C 2,5 C 3,2 km/h (1 Bft) 100,00 %
16.02.2018 21:28 2,5 C 4,4 C 98 % 1027,4 hPa 0,0 l/m 3,2 km/h (1 Bft) SW 236 0 min 0,000 mm 0,0 UV-I 0 W/m 2,2 C 2,5 C 4,8 km/h (1 Bft) 100,00 %
16.02.2018 21:29 2,5 C 4,4 C 98 % 1027,4 hPa 0,0 l/m 2,9 km/h (1 Bft) SW 236 0 min 0,000 mm 0,0 UV-I 0 W/m 2,2 C 2,5 C 4,8 km/h (1 Bft) 95,83 %
16.02.2018 21:30 2,5 C 4,4 C 98 % 1027,4 hPa 0,0 l/m 4,3 km/h (1 Bft) SW 236 0 min 0,000 mm 0,0 UV-I 0 W/m 2,2 C 2,5 C 6,4 km/h (2 Bft) 100,00 %
16.02.2018 21:31 2,5 C 4,4 C 98 % 1027,4 hPa 0,0 l/m 3,8 km/h (1 Bft) SW 236 0 min 0,000 mm 0,0 UV-I 0 W/m 2,2 C 2,5 C 4,8 km/h (1 Bft) 100,00 %
16.02.2018 21:32 2,5 C 4,4 C 98 % 1027,4 hPa 0,0 l/m 1,3 km/h (1 Bft) SW 236 0 min 0,000 mm 0,0 UV-I 0 W/m 2,2 C 2,5 C 3,2 km/h (1 Bft) 100,00 %
16.02.2018 21:33 2,5 C 4,4 C 98 % 1027,5 hPa 0,0 l/m 0,1 km/h (0 Bft) SW 236 0 min 0,000 mm 0,0 UV-I 0 W/m 2,2 C 2,5 C 1,6 km/h (1 Bft) 100,00 %
16.02.2018 21:34 2,5 C 4,4 C 98 % 1027,5 hPa 0,0 l/m 0,3 km/h (0 Bft) SW 236 0 min 0,000 mm 0,0 UV-I 0 W/m 2,2 C 2,5 C 1,6 km/h (1 Bft) 100,00 %
16.02.2018 21:35 2,5 C 4,4 C 98 % 1027,4 hPa 0,0 l/m 0,0 km/h (0 Bft) SW 236 0 min 0,000 mm 0,0 UV-I 0 W/m 2,2 C 2,5 C 0,0 km/h (0 Bft) 100,00 %
16.02.2018 21:36 2,6 C 4,4 C 98 % 1027,4 hPa 0,0 l/m 0,0 km/h (0 Bft) SW 236 0 min 0,000 mm 0,0 UV-I 0 W/m 2,3 C 2,6 C 0,0 km/h (0 Bft) 100,00 %
16.02.2018 21:37 2,6 C 4,4 C 98 % 1027,4 hPa 0,0 l/m 0,0 km/h (0 Bft) SW 236 0 min 0,000 mm 0,0 UV-I 0 W/m 2,3 C 2,6 C 0,0 km/h (0 Bft) 100,00 %
16.02.2018 21:38 2,5 C 4,4 C 98 % 1027,4 hPa 0,0 l/m 0,0 km/h (0 Bft) SW 236 0 min 0,000 mm 0,0 UV-I 0 W/m 2,2 C 2,5 C 0,0 km/h (0 Bft) 100,00 %
16.02.2018 21:39 2,5 C 4,4 C 98 % 1027,4 hPa 0,0 l/m 0,0 km/h (0 Bft) SW 236 0 min 0,000 mm 0,0 UV-I 0 W/m 2,2 C 2,5 C 0,0 km/h (0 Bft) 100,00 %
16.02.2018 21:40 2,5 C 4,4 C 98 % 1027,4 hPa 0,0 l/m 0,0 km/h (0 Bft) SW 236 0 min 0,000 mm 0,0 UV-I 0 W/m 2,2 C 2,5 C 0,0 km/h (0 Bft) 100,00 %
16.02.2018 21:41 2,5 C 4,4 C 98 % 1027,3 hPa 0,0 l/m 0,0 km/h (0 Bft) SW 236 0 min 0,000 mm 0,0 UV-I 0 W/m 2,2 C 2,5 C 0,0 km/h (0 Bft) 95,83 %
16.02.2018 21:42 2,5 C 4,4 C 98 % 1027,3 hPa 0,0 l/m 0,2 km/h (0 Bft) SW 236 0 min 0,000 mm 0,0 UV-I 0 W/m 2,2 C 2,5 C 1,6 km/h (1 Bft) 100,00 %
16.02.2018 21:43 2,4 C 4,4 C 98 % 1027,3 hPa 0,0 l/m 1,3 km/h (1 Bft) SW 236 0 min 0,000 mm 0,0 UV-I 0 W/m 2,1 C 2,4 C 3,2 km/h (1 Bft) 100,00 %
16.02.2018 21:44 2,5 C 4,4 C 98 % 1027,3 hPa 0,0 l/m 2,3 km/h (1 Bft) SW 236 0 min 0,000 mm 0,0 UV-I 0 W/m 2,2 C 2,5 C 3,2 km/h (1 Bft) 95,65 %
16.02.2018 21:45 2,4 C 4,4 C 98 % 1027,3 hPa 0,0 l/m 1,7 km/h (1 Bft) SW 236 0 min 0,000 mm 0,0 UV-I 0 W/m 2,1 C 2,4 C 3,2 km/h (1 Bft) 100,00 %
16.02.2018 21:46 2,5 C 4,4 C 98 % 1027,3 hPa 0,0 l/m 1,9 km/h (1 Bft) SW 236 0 min 0,000 mm 0,0 UV-I 0 W/m 2,2 C 2,5 C 3,2 km/h (1 Bft) 95,65 %
16.02.2018 21:47 2,5 C 4,4 C 98 % 1027,3 hPa 0,0 l/m 2,5 km/h (1 Bft) SW 236 0 min 0,000 mm 0,0 UV-I 0 W/m 2,2 C 2,5 C 3,2 km/h (1 Bft) 100,00 %
16.02.2018 21:48 2,4 C 4,4 C 98 % 1027,3 hPa 0,0 l/m 2,5 km/h (1 Bft) SW 236 0 min 0,000 mm 0,0 UV-I 0 W/m 2,1 C 2,4 C 3,2 km/h (1 Bft) 100,00 %
16.02.2018 21:49 2,4 C 4,4 C 98 % 1027,3 hPa 0,0 l/m 1,9 km/h (1 Bft) SW 236 0 min 0,000 mm 0,0 UV-I 0 W/m 2,1 C 2,4 C 3,2 km/h (1 Bft) 100,00 %
16.02.2018 21:50 2,4 C 4,4 C 98 % 1027,3 hPa 0,0 l/m 1,9 km/h (1 Bft) SW 236 0 min 0,000 mm 0,0 UV-I 0 W/m 2,1 C 2,4 C 3,2 km/h (1 Bft) 100,00 %
16.02.2018 21:51 2,4 C 4,4 C 98 % 1027,3 hPa 0,0 l/m 1,7 km/h (1 Bft) SW 236 0 min 0,000 mm 0,0 UV-I 0 W/m 2,1 C 2,4 C 3,2 km/h (1 Bft) 100,00 %
16.02.2018 21:52 2,4 C 4,4 C 97 % 1027,3 hPa 0,0 l/m 0,6 km/h (0 Bft) SW 236 0 min 0,000 mm 0,0 UV-I 0 W/m 2,0 C 2,4 C 1,6 km/h (1 Bft) 100,00 %
16.02.2018 21:53 2,3 C 4,4 C 97 % 1027,3 hPa 0,0 l/m 0,0 km/h (0 Bft) SW 236 0 min 0,000 mm 0,0 UV-I 0 W/m 1,9 C 2,3 C 0,0 km/h (0 Bft) 95,83 %
16.02.2018 21:54 2,3 C 4,4 C 97 % 1027,3 hPa 0,0 l/m 0,0 km/h (0 Bft) SW 236 0 min 0,000 mm 0,0 UV-I 0 W/m 1,9 C 2,3 C 0,0 km/h (0 Bft) 100,00 %
16.02.2018 21:55 2,3 C 4,4 C 97 % 1027,3 hPa 0,0 l/m 0,0 km/h (0 Bft) SW 236 0 min 0,000 mm 0,0 UV-I 0 W/m 1,9 C 2,3 C 0,0 km/h (0 Bft) 100,00 %
16.02.2018 21:56 2,3 C 4,4 C 97 % 1027,3 hPa 0,0 l/m 0,0 km/h (0 Bft) SW 236 0 min 0,000 mm 0,0 UV-I 0 W/m 1,9 C 2,3 C 0,0 km/h (0 Bft) 100,00 %
16.02.2018 21:57 2,3 C 4,4 C 97 % 1027,3 hPa 0,0 l/m 0,0 km/h (0 Bft) SW 236 0 min 0,000 mm 0,0 UV-I 0 W/m 1,9 C 2,3 C 0,0 km/h (0 Bft) 100,00 %
16.02.2018 21:58 2,2 C 4,4 C 97 % 1027,3 hPa 0,0 l/m 0,0 km/h (0 Bft) SW 236 0 min 0,000 mm 0,0 UV-I 0 W/m 1,8 C 2,2 C 0,0 km/h (0 Bft) 100,00 %
16.02.2018 21:59 2,2 C 4,4 C 97 % 1027,3 hPa 0,0 l/m 0,0 km/h (0 Bft) SW 236 0 min 0,000 mm 0,0 UV-I 0 W/m 1,8 C 2,2 C 0,0 km/h (0 Bft) 90,91 %
16.02.2018 22:00 2,2 C 4,4 C 97 % 1027,3 hPa 0,0 l/m 0,0 km/h (0 Bft) SW 236 0 min 0,000 mm 0,0 UV-I 0 W/m 1,8 C 2,2 C 0,0 km/h (0 Bft) 100,00 %
16.02.2018 22:01 2,2 C 4,4 C 97 % 1027,3 hPa 0,0 l/m 0,0 km/h (0 Bft) SW 236 0 min 0,000 mm 0,0 UV-I 0 W/m 1,8 C 2,2 C 0,0 km/h (0 Bft) 100,00 %
16.02.2018 22:02 2,2 C 4,4 C 97 % 1027,3 hPa 0,0 l/m 0,0 km/h (0 Bft) SW 236 0 min 0,000 mm 0,0 UV-I 0 W/m 1,8 C 2,2 C 0,0 km/h (0 Bft) 100,00 %
16.02.2018 22:03 2,2 C 4,4 C 97 % 1027,3 hPa 0,0 l/m 0,0 km/h (0 Bft) SW 236 0 min 0,000 mm 0,0 UV-I 0 W/m 1,8 C 2,2 C 0,0 km/h (0 Bft) 95,65 %
16.02.2018 22:04 2,2 C 4,4 C 97 % 1027,3 hPa 0,0 l/m 0,0 km/h (0 Bft) SW 236 0 min 0,000 mm 0,0 UV-I 0 W/m 1,8 C 2,2 C 0,0 km/h (0 Bft) 100,00 %
16.02.2018 22:05 2,2 C 4,4 C 97 % 1027,3 hPa 0,0 l/m 0,0 km/h (0 Bft) SW 236 0 min 0,000 mm 0,0 UV-I 0 W/m 1,8 C 2,2 C 0,0 km/h (0 Bft) 100,00 %
16.02.2018 22:06 2,1 C 4,4 C 97 % 1027,3 hPa 0,0 l/m 0,0 km/h (0 Bft) SW 236 0 min 0,000 mm 0,0 UV-I 0 W/m 1,7 C 2,1 C 0,0 km/h (0 Bft) 96,30 %
16.02.2018 22:07 2,0 C 4,4 C 97 % 1027,3 hPa 0,0 l/m 0,0 km/h (0 Bft) SW 236 0 min 0,000 mm 0,0 UV-I 0 W/m 1,6 C 2,0 C 0,0 km/h (0 Bft) 100,00 %
16.02.2018 22:08 1,9 C 4,4 C 97 % 1027,3 hPa 0,0 l/m 0,0 km/h (0 Bft) SW 236 0 min 0,000 mm 0,0 UV-I 0 W/m 1,5 C 1,9 C 0,0 km/h (0 Bft) 100,00 %
16.02.2018 22:09 1,9 C 4,4 C 97 % 1027,3 hPa 0,0 l/m 0,0 km/h (0 Bft) SW 236 0 min 0,000 mm 0,0 UV-I 0 W/m 1,5 C 1,9 C 0,0 km/h (0 Bft) 95,65 %
16.02.2018 22:10 1,9 C 4,4 C 97 % 1027,4 hPa 0,0 l/m 0,0 km/h (0 Bft) SW 236 0 min 0,000 mm 0,0 UV-I 0 W/m 1,5 C 1,9 C 0,0 km/h (0 Bft) 100,00 %
16.02.2018 22:11 1,9 C 4,4 C 97 % 1027,4 hPa 0,0 l/m 0,0 km/h (0 Bft) SW 236 0 min 0,000 mm 0,0 UV-I 0 W/m 1,5 C 1,9 C 0,0 km/h (0 Bft) 100,00 %
16.02.2018 22:12 2,0 C 4,4 C 97 % 1027,4 hPa 0,0 l/m 0,0 km/h (0 Bft) SW 236 0 min 0,000 mm 0,0 UV-I 0 W/m 1,6 C 2,0 C 0,0 km/h (0 Bft) 100,00 %
16.02.2018 22:13 2,0 C 4,4 C 97 % 1027,4 hPa 0,0 l/m 0,0 km/h (0 Bft) SW 236 0 min 0,000 mm 0,0 UV-I 0 W/m 1,6 C 2,0 C 0,0 km/h (0 Bft) 100,00 %
16.02.2018 22:14 1,9 C 4,4 C 97 % 1027,4 hPa 0,0 l/m 0,0 km/h (0 Bft) SW 236 0 min 0,000 mm 0,0 UV-I 0 W/m 1,5 C 1,9 C 0,0 km/h (0 Bft) 100,00 %
16.02.2018 22:15 1,9 C 4,4 C 97 % 1027,4 hPa 0,0 l/m 0,0 km/h (0 Bft) SW 236 0 min 0,000 mm 0,0 UV-I 0 W/m 1,5 C 1,9 C 0,0 km/h (0 Bft) 100,00 %
16.02.2018 22:16 1,9 C 4,4 C 97 % 1027,4 hPa 0,0 l/m 0,0 km/h (0 Bft) SW 236 0 min 0,000 mm 0,0 UV-I 0 W/m 1,5 C 1,9 C 0,0 km/h (0 Bft) 100,00 %
16.02.2018 22:17 1,9 C 4,4 C 97 % 1027,4 hPa 0,0 l/m 2,8 km/h (1 Bft) W-NW 300 0 min 0,000 mm 0,0 UV-I 0 W/m 1,5 C 1,9 C 4,8 km/h (1 Bft) 100,00 %
16.02.2018 22:18 2,0 C 4,4 C 97 % 1027,4 hPa 0,0 l/m 2,5 km/h (1 Bft) W-NW 300 0 min 0,000 mm 0,0 UV-I 0 W/m 1,6 C 2,0 C 3,2 km/h (1 Bft) 100,00 %
16.02.2018 22:19 2,1 C 4,4 C 97 % 1027,4 hPa 0,0 l/m 0,9 km/h (0 Bft) W-NW 300 0 min 0,000 mm 0,0 UV-I 0 W/m 1,7 C 2,1 C 1,6 km/h (1 Bft) 100,00 %
16.02.2018 22:20 2,1 C 4,4 C 98 % 1027,4 hPa 0,0 l/m 0,1 km/h (0 Bft) W-NW 300 0 min 0,000 mm 0,0 UV-I 0 W/m 1,8 C 2,1 C 1,6 km/h (1 Bft) 100,00 %
16.02.2018 22:21 2,1 C 4,4 C 98 % 1027,4 hPa 0,0 l/m 1,3 km/h (1 Bft) W-NW 300 0 min 0,000 mm 0,0 UV-I 0 W/m 1,8 C 2,1 C 3,2 km/h (1 Bft) 100,00 %
16.02.2018 22:22 2,1 C 4,4 C 98 % 1027,4 hPa 0,0 l/m 1,5 km/h (1 Bft) W-NW 300 0 min 0,000 mm 0,0 UV-I 0 W/m 1,8 C 2,1 C 3,2 km/h (1 Bft) 100,00 %
16.02.2018 22:23 2,1 C 4,4 C 98 % 1027,4 hPa 0,0 l/m 0,5 km/h (0 Bft) W-NW 300 0 min 0,000 mm 0,0 UV-I 0 W/m 1,8 C 2,1 C 1,6 km/h (1 Bft) 100,00 %
16.02.2018 22:24 2,1 C 4,4 C 98 % 1027,4 hPa 0,0 l/m 1,1 km/h (1 Bft) W-NW 300 0 min 0,000 mm 0,0 UV-I 0 W/m 1,8 C 2,1 C 3,2 km/h (1 Bft) 100,00 %
16.02.2018 22:25 2,0 C 4,4 C 98 % 1027,4 hPa 0,0 l/m 0,4 km/h (0 Bft) W-NW 300 0 min 0,000 mm 0,0 UV-I 0 W/m 1,7 C 2,0 C 1,6 km/h (1 Bft) 100,00 %
16.02.2018 22:26 2,0 C 4,4 C 98 % 1027,4 hPa 0,0 l/m 0,9 km/h (0 Bft) W-NW 300 0 min 0,000 mm 0,0 UV-I 0 W/m 1,7 C 2,0 C 1,6 km/h (1 Bft) 95,65 %
16.02.2018 22:27 2,1 C 4,4 C 98 % 1027,4 hPa 0,0 l/m 0,0 km/h (0 Bft) W-NW 300 0 min 0,000 mm 0,0 UV-I 0 W/m 1,8 C 2,1 C 0,0 km/h (0 Bft) 95,83 %
16.02.2018 22:28 2,1 C 4,4 C 98 % 1027,4 hPa 0,0 l/m 1,1 km/h (1 Bft) W-NW 300 0 min 0,000 mm 0,0 UV-I 0 W/m 1,8 C 2,1 C 1,6 km/h (1 Bft) 100,00 %
16.02.2018 22:29 2,1 C 4,4 C 98 % 1027,4 hPa 0,0 l/m 1,0 km/h (0 Bft) W-NW 300 0 min 0,000 mm 0,0 UV-I 0 W/m 1,8 C 2,1 C 1,6 km/h (1 Bft) 100,00 %
16.02.2018 22:30 2,1 C 4,4 C 98 % 1027,4 hPa 0,0 l/m 1,5 km/h (1 Bft) W-NW 300 0 min 0,000 mm 0,0 UV-I 0 W/m 1,8 C 2,1 C 1,6 km/h (1 Bft) 100,00 %
16.02.2018 22:31 2,1 C 4,4 C 98 % 1027,4 hPa 0,0 l/m 2,8 km/h (1 Bft) W-NW 300 0 min 0,000 mm 0,0 UV-I 0 W/m 1,8 C 2,1 C 4,8 km/h (1 Bft) 96,15 %
16.02.2018 22:32 2,1 C 4,4 C 98 % 1027,4 hPa 0,0 l/m 3,8 km/h (1 Bft) W-NW 300 0 min 0,000 mm 0,0 UV-I 0 W/m 1,8 C 2,1 C 4,8 km/h (1 Bft) 100,00 %
16.02.2018 22:33 2,1 C 4,4 C 98 % 1027,4 hPa 0,0 l/m 2,4 km/h (1 Bft) W-NW 300 0 min 0,000 mm 0,0 UV-I 0 W/m 1,8 C 2,1 C 3,2 km/h (1 Bft) 95,65 %
16.02.2018 22:34 2,1 C 4,4 C 98 % 1027,4 hPa 0,0 l/m 1,2 km/h (1 Bft) W-NW 300 0 min 0,000 mm 0,0 UV-I 0 W/m 1,8 C 2,1 C 3,2 km/h (1 Bft) 100,00 %
16.02.2018 22:35 2,1 C 4,4 C 98 % 1027,4 hPa 0,0 l/m 0,0 km/h (0 Bft) W-NW 300 0 min 0,000 mm 0,0 UV-I 0 W/m 1,8 C 2,1 C 0,0 km/h (0 Bft) 95,65 %
16.02.2018 22:36 2,1 C 4,4 C 98 % 1027,5 hPa 0,0 l/m 0,0 km/h (0 Bft) W-NW 300 0 min 0,000 mm 0,0 UV-I 0 W/m 1,8 C 2,1 C 0,0 km/h (0 Bft) 100,00 %
16.02.2018 22:37 2,1 C 4,4 C 98 % 1027,4 hPa 0,0 l/m 0,5 km/h (0 Bft) W-NW 300 0 min 0,000 mm 0,0 UV-I 0 W/m 1,8 C 2,1 C 1,6 km/h (1 Bft) 100,00 %
16.02.2018 22:38 2,1 C 4,4 C 98 % 1027,4 hPa 0,0 l/m 1,5 km/h (1 Bft) W-NW 300 0 min 0,000 mm 0,0 UV-I 0 W/m 1,8 C 2,1 C 3,2 km/h (1 Bft) 100,00 %
16.02.2018 22:39 2,1 C 4,4 C 98 % 1027,4 hPa 0,0 l/m 0,6 km/h (0 Bft) W-NW 300 0 min 0,000 mm 0,0 UV-I 0 W/m 1,8 C 2,1 C 1,6 km/h (1 Bft) 100,00 %
16.02.2018 22:40 2,1 C 4,4 C 98 % 1027,4 hPa 0,0 l/m 0,6 km/h (0 Bft) W-NW 300 0 min 0,000 mm 0,0 UV-I 0 W/m 1,8 C 2,1 C 1,6 km/h (1 Bft) 100,00 %
16.02.2018 22:41 2,1 C 4,4 C 98 % 1027,5 hPa 0,0 l/m 1,2 km/h (1 Bft) W-NW 300 0 min 0,000 mm 0,0 UV-I 0 W/m 1,8 C 2,1 C 1,6 km/h (1 Bft) 100,00 %
16.02.2018 22:42 2,0 C 4,4 C 98 % 1027,4 hPa 0,0 l/m 1,0 km/h (0 Bft) W-NW 300 0 min 0,000 mm 0,0 UV-I 0 W/m 1,7 C 2,0 C 3,2 km/h (1 Bft) 95,83 %
16.02.2018 22:43 2,0 C 4,4 C 98 % 1027,5 hPa 0,0 l/m 2,3 km/h (1 Bft) W-NW 300 0 min 0,000 mm 0,0 UV-I 0 W/m 1,7 C 2,0 C 3,2 km/h (1 Bft) 100,00 %
16.02.2018 22:44 2,1 C 4,4 C 98 % 1027,4 hPa 0,0 l/m 2,1 km/h (1 Bft) W-NW 300 0 min 0,000 mm 0,0 UV-I 0 W/m 1,8 C 2,1 C 4,8 km/h (1 Bft) 100,00 %
16.02.2018 22:45 2,1 C 4,4 C 98 % 1027,5 hPa 0,0 l/m 0,3 km/h (0 Bft) W-NW 300 0 min 0,000 mm 0,0 UV-I 0 W/m 1,8 C 2,1 C 1,6 km/h (1 Bft) 100,00 %
16.02.2018 22:46 2,1 C 4,4 C 98 % 1027,5 hPa 0,0 l/m 0,3 km/h (0 Bft) W-NW 300 0 min 0,000 mm 0,0 UV-I 0 W/m 1,8 C 2,1 C 1,6 km/h (1 Bft) 100,00 %
16.02.2018 22:47 2,0 C 4,4 C 98 % 1027,4 hPa 0,0 l/m 0,0 km/h (0 Bft) W-NW 300 0 min 0,000 mm 0,0 UV-I 0 W/m 1,7 C 2,0 C 0,0 km/h (0 Bft) 100,00 %
16.02.2018 22:48 2,0 C 4,4 C 98 % 1027,5 hPa 0,0 l/m 0,5 km/h (0 Bft) W-NW 300 0 min 0,000 mm 0,0 UV-I 0 W/m 1,7 C 2,0 C 1,6 km/h (1 Bft) 95,83 %
16.02.2018 22:49 2,0 C 4,4 C 97 % 1027,4 hPa 0,0 l/m 1,5 km/h (1 Bft) W-NW 300 0 min 0,000 mm 0,0 UV-I 0 W/m 1,6 C 2,0 C 3,2 km/h (1 Bft) 95,65 %
16.02.2018 22:50 2,0 C 4,4 C 97 % 1027,4 hPa 0,0 l/m 0,0 km/h (0 Bft) W-NW 300 0 min 0,000 mm 0,0 UV-I 0 W/m 1,6 C 2,0 C 0,0 km/h (0 Bft) 100,00 %
16.02.2018 22:51 2,0 C 4,4 C 97 % 1027,3 hPa 0,0 l/m 0,0 km/h (0 Bft) W-NW 300 0 min 0,000 mm 0,0 UV-I 0 W/m 1,6 C 2,0 C 0,0 km/h (0 Bft) 95,83 %
16.02.2018 22:52 2,0 C 4,4 C 97 % 1027,3 hPa 0,0 l/m 0,0 km/h (0 Bft) W-NW 300 0 min 0,000 mm 0,0 UV-I 0 W/m 1,6 C 2,0 C 0,0 km/h (0 Bft) 91,30 %
16.02.2018 22:53 1,9 C 4,4 C 97 % 1027,3 hPa 0,0 l/m 0,0 km/h (0 Bft) W-NW 300 0 min 0,000 mm 0,0 UV-I 0 W/m 1,5 C 1,9 C 0,0 km/h (0 Bft) 95,83 %
16.02.2018 22:54 1,9 C 4,4 C 97 % 1027,3 hPa 0,0 l/m 0,6 km/h (0 Bft) W-NW 300 0 min 0,000 mm 0,0 UV-I 0 W/m 1,5 C 1,9 C 3,2 km/h (1 Bft) 100,00 %
16.02.2018 22:55 1,9 C 4,4 C 98 % 1027,3 hPa 0,0 l/m 2,7 km/h (1 Bft) W-NW 297 0 min 0,000 mm 0,0 UV-I 0 W/m 1,6 C 1,9 C 3,2 km/h (1 Bft) 96,30 %
16.02.2018 22:56 1,9 C 4,4 C 98 % 1027,3 hPa 0,0 l/m 1,6 km/h (1 Bft) W-NW 297 0 min 0,000 mm 0,0 UV-I 0 W/m 1,6 C 1,9 C 3,2 km/h (1 Bft) 100,00 %
16.02.2018 22:57 1,9 C 4,4 C 98 % 1027,3 hPa 0,0 l/m 1,5 km/h (1 Bft) W-NW 297 0 min 0,000 mm 0,0 UV-I 0 W/m 1,6 C 1,9 C 3,2 km/h (1 Bft) 96,30 %
16.02.2018 22:58 1,8 C 4,4 C 98 % 1027,3 hPa 0,0 l/m 1,5 km/h (1 Bft) W-NW 297 0 min 0,000 mm 0,0 UV-I 0 W/m 1,5 C 1,8 C 3,2 km/h (1 Bft) 91,30 %
16.02.2018 22:59 1,8 C 4,4 C 98 % 1027,3 hPa 0,0 l/m 0,6 km/h (0 Bft) W-NW 297 0 min 0,000 mm 0,0 UV-I 0 W/m 1,5 C 1,8 C 3,2 km/h (1 Bft) 96,30 %
16.02.2018 23:00 1,8 C 4,4 C 98 % 1027,3 hPa 0,0 l/m 3,1 km/h (1 Bft) W-SW 254 0 min 0,000 mm 0,0 UV-I 0 W/m 1,5 C 1,8 C 4,8 km/h (1 Bft) 96,15 %
16.02.2018 23:01 1,8 C 4,4 C 98 % 1027,3 hPa 0,0 l/m 3,4 km/h (1 Bft) W-SW 254 0 min 0,000 mm 0,0 UV-I 0 W/m 1,5 C 1,8 C 4,8 km/h (1 Bft) 100,00 %
16.02.2018 23:02 1,8 C 4,4 C 98 % 1027,3 hPa 0,0 l/m 2,4 km/h (1 Bft) W-SW 254 0 min 0,000 mm 0,0 UV-I 0 W/m 1,5 C 1,8 C 3,2 km/h (1 Bft) 91,30 %
16.02.2018 23:03 1,8 C 4,4 C 98 % 1027,3 hPa 0,0 l/m 4,0 km/h (1 Bft) SW 236 0 min 0,000 mm 0,0 UV-I 0 W/m 1,5 C 1,8 C 6,4 km/h (2 Bft) 95,83 %
16.02.2018 23:04 1,8 C 4,4 C 98 % 1027,3 hPa 0,0 l/m 3,5 km/h (1 Bft) SW 236 0 min 0,000 mm 0,0 UV-I 0 W/m 1,5 C 1,8 C 4,8 km/h (1 Bft) 100,00 %
16.02.2018 23:05 1,8 C 4,4 C 98 % 1027,3 hPa 0,0 l/m 2,0 km/h (1 Bft) SW 236 0 min 0,000 mm 0,0 UV-I 0 W/m 1,5 C 1,8 C 3,2 km/h (1 Bft) 95,83 %
16.02.2018 23:06 1,8 C 4,4 C 98 % 1027,3 hPa 0,0 l/m 1,1 km/h (1 Bft) SW 236 0 min 0,000 mm 0,0 UV-I 0 W/m 1,5 C 1,8 C 1,6 km/h (1 Bft) 100,00 %
16.02.2018 23:07 1,8 C 4,4 C 98 % 1027,3 hPa 0,0 l/m 0,0 km/h (0 Bft) SW 236 0 min 0,000 mm 0,0 UV-I 0 W/m 1,5 C 1,8 C 0,0 km/h (0 Bft) 91,67 %
16.02.2018 23:08 1,8 C 4,4 C 98 % 1027,3 hPa 0,0 l/m 0,0 km/h (0 Bft) SW 236 0 min 0,000 mm 0,0 UV-I 0 W/m 1,5 C 1,8 C 0,0 km/h (0 Bft) 100,00 %
16.02.2018 23:09 1,8 C 4,4 C 98 % 1027,3 hPa 0,0 l/m 0,0 km/h (0 Bft) SW 236 0 min 0,000 mm 0,0 UV-I 0 W/m 1,5 C 1,8 C 0,0 km/h (0 Bft) 95,65 %
16.02.2018 23:10 1,8 C 4,4 C 98 % 1027,3 hPa 0,0 l/m 0,0 km/h (0 Bft) SW 236 0 min 0,000 mm 0,0 UV-I 0 W/m 1,5 C 1,8 C 0,0 km/h (0 Bft) 100,00 %
16.02.2018 23:11 1,8 C 4,4 C 97 % 1027,3 hPa 0,0 l/m 0,0 km/h (0 Bft) SW 236 0 min 0,000 mm 0,0 UV-I 0 W/m 1,4 C 1,8 C 0,0 km/h (0 Bft) 95,65 %
16.02.2018 23:12 1,8 C 4,4 C 97 % 1027,3 hPa 0,0 l/m 0,6 km/h (0 Bft) SW 236 0 min 0,000 mm 0,0 UV-I 0 W/m 1,4 C 1,8 C 3,2 km/h (1 Bft) 100,00 %
16.02.2018 23:13 1,8 C 4,4 C 97 % 1027,3 hPa 0,0 l/m 0,1 km/h (0 Bft) SW 236 0 min 0,000 mm 0,0 UV-I 0 W/m 1,4 C 1,8 C 1,6 km/h (1 Bft) 95,65 %
16.02.2018 23:14 1,8 C 4,4 C 98 % 1027,3 hPa 0,0 l/m 0,3 km/h (0 Bft) SW 236 0 min 0,000 mm 0,0 UV-I 0 W/m 1,5 C 1,8 C 1,6 km/h (1 Bft) 95,83 %
16.02.2018 23:15 1,8 C 4,4 C 97 % 1027,3 hPa 0,0 l/m 1,6 km/h (1 Bft) W-SW 240 0 min 0,000 mm 0,0 UV-I 0 W/m 1,4 C 1,8 C 3,2 km/h (1 Bft) 95,65 %
16.02.2018 23:16 1,7 C 4,4 C 97 % 1027,3 hPa 0,0 l/m 3,8 km/h (1 Bft) W-SW 258 0 min 0,000 mm 0,0 UV-I 0 W/m 1,3 C 1,7 C 4,8 km/h (1 Bft) 91,67 %
16.02.2018 23:17 1,7 C 4,4 C 97 % 1027,3 hPa 0,0 l/m 2,3 km/h (1 Bft) W-SW 258 0 min 0,000 mm 0,0 UV-I 0 W/m 1,3 C 1,7 C 4,8 km/h (1 Bft) 91,30 %
16.02.2018 23:18 1,7 C 4,4 C 97 % 1027,3 hPa 0,0 l/m 1,5 km/h (1 Bft) W-SW 258 0 min 0,000 mm 0,0 UV-I 0 W/m 1,3 C 1,7 C 3,2 km/h (1 Bft) 92,59 %
16.02.2018 23:19 1,7 C 4,4 C 97 % 1027,2 hPa 0,0 l/m 0,9 km/h (0 Bft) W-SW 258 0 min 0,000 mm 0,0 UV-I 0 W/m 1,3 C 1,7 C 1,6 km/h (1 Bft) 96,15 %
16.02.2018 23:20 1,7 C 4,4 C 97 % 1027,2 hPa 0,0 l/m 0,3 km/h (0 Bft) W-SW 258 0 min 0,000 mm 0,0 UV-I 0 W/m 1,3 C 1,7 C 1,6 km/h (1 Bft) 91,67 %
16.02.2018 23:21 1,7 C 4,4 C 97 % 1027,2 hPa 0,0 l/m 0,9 km/h (0 Bft) W-SW 258 0 min 0,000 mm 0,0 UV-I 0 W/m 1,3 C 1,7 C 3,2 km/h (1 Bft) 91,67 %
16.02.2018 23:22 1,7 C 4,4 C 97 % 1027,2 hPa 0,0 l/m 1,7 km/h (1 Bft) W-SW 258 0 min 0,000 mm 0,0 UV-I 0 W/m 1,3 C 1,7 C 3,2 km/h (1 Bft) 100,00 %
16.02.2018 23:23 1,7 C 4,4 C 97 % 1027,2 hPa 0,0 l/m 0,7 km/h (0 Bft) W-SW 258 0 min 0,000 mm 0,0 UV-I 0 W/m 1,3 C 1,7 C 3,2 km/h (1 Bft) 95,65 %
16.02.2018 23:24 1,7 C 4,4 C 97 % 1027,1 hPa 0,0 l/m 0,0 km/h (0 Bft) W-SW 258 0 min 0,000 mm 0,0 UV-I 0 W/m 1,3 C 1,7 C 0,0 km/h (0 Bft) 95,83 %
16.02.2018 23:25 1,7 C 4,4 C 98 % 1027,1 hPa 0,0 l/m 0,0 km/h (0 Bft) W-SW 258 0 min 0,000 mm 0,0 UV-I 0 W/m 1,4 C 1,7 C 0,0 km/h (0 Bft) 91,67 %
16.02.2018 23:26 1,7 C 4,4 C 98 % 1027,1 hPa 0,0 l/m 0,0 km/h (0 Bft) W-SW 258 0 min 0,000 mm 0,0 UV-I 0 W/m 1,4 C 1,7 C 0,0 km/h (0 Bft) 100,00 %
16.02.2018 23:27 1,7 C 4,4 C 98 % 1027,1 hPa 0,0 l/m 0,0 km/h (0 Bft) W-SW 258 0 min 0,000 mm 0,0 UV-I 0 W/m 1,4 C 1,7 C 0,0 km/h (0 Bft) 95,83 %
16.02.2018 23:28 1,7 C 4,4 C 98 % 1027,1 hPa 0,0 l/m 0,0 km/h (0 Bft) W-SW 258 0 min 0,000 mm 0,0 UV-I 0 W/m 1,4 C 1,7 C 0,0 km/h (0 Bft) 100,00 %
16.02.2018 23:29 1,7 C 4,4 C 98 % 1027,0 hPa 0,0 l/m 0,0 km/h (0 Bft) W-SW 258 0 min 0,000 mm 0,0 UV-I 0 W/m 1,4 C 1,7 C 0,0 km/h (0 Bft) 95,83 %
16.02.2018 23:30 1,7 C 4,4 C 98 % 1027,0 hPa 0,0 l/m 0,0 km/h (0 Bft) W-SW 258 0 min 0,000 mm 0,0 UV-I 0 W/m 1,4 C 1,7 C 0,0 km/h (0 Bft) 100,00 %
16.02.2018 23:31 1,7 C 4,4 C 98 % 1027,0 hPa 0,0 l/m 0,0 km/h (0 Bft) W-SW 258 0 min 0,000 mm 0,0 UV-I 0 W/m 1,4 C 1,7 C 0,0 km/h (0 Bft) 95,83 %
16.02.2018 23:32 1,7 C 4,4 C 98 % 1027,1 hPa 0,0 l/m 0,8 km/h (0 Bft) W-SW 258 0 min 0,000 mm 0,0 UV-I 0 W/m 1,4 C 1,7 C 3,2 km/h (1 Bft) 95,65 %
16.02.2018 23:33 1,7 C 4,4 C 98 % 1027,0 hPa 0,0 l/m 2,9 km/h (1 Bft) W-SW 258 0 min 0,000 mm 0,0 UV-I 0 W/m 1,4 C 1,7 C 4,8 km/h (1 Bft) 100,00 %
16.02.2018 23:34 1,6 C 4,4 C 98 % 1027,0 hPa 0,0 l/m 2,4 km/h (1 Bft) W-SW 258 0 min 0,000 mm 0,0 UV-I 0 W/m 1,3 C 1,6 C 3,2 km/h (1 Bft) 95,65 %
16.02.2018 23:35 1,6 C 4,4 C 98 % 1027,1 hPa 0,0 l/m 2,1 km/h (1 Bft) W-SW 258 0 min 0,000 mm 0,0 UV-I 0 W/m 1,3 C 1,6 C 3,2 km/h (1 Bft) 100,00 %
16.02.2018 23:36 1,6 C 4,4 C 98 % 1027,1 hPa 0,0 l/m 1,0 km/h (0 Bft) W-SW 258 0 min 0,000 mm 0,0 UV-I 0 W/m 1,3 C 1,6 C 1,6 km/h (1 Bft) 95,65 %
16.02.2018 23:37 1,6 C 4,4 C 98 % 1027,1 hPa 0,0 l/m 0,9 km/h (0 Bft) W-SW 258 0 min 0,000 mm 0,0 UV-I 0 W/m 1,3 C 1,6 C 3,2 km/h (1 Bft) 100,00 %
16.02.2018 23:38 1,6 C 4,4 C 98 % 1027,1 hPa 0,0 l/m 0,9 km/h (0 Bft) W-SW 258 0 min 0,000 mm 0,0 UV-I 0 W/m 1,3 C 1,6 C 1,6 km/h (1 Bft) 95,65 %
16.02.2018 23:39 1,6 C 4,4 C 98 % 1027,1 hPa 0,0 l/m 0,3 km/h (0 Bft) W-SW 258 0 min 0,000 mm 0,0 UV-I 0 W/m 1,3 C 1,6 C 1,6 km/h (1 Bft) 100,00 %
16.02.2018 23:40 1,6 C 4,4 C 98 % 1027,1 hPa 0,0 l/m 1,9 km/h (1 Bft) W-SW 258 0 min 0,000 mm 0,0 UV-I 0 W/m 1,3 C 1,6 C 3,2 km/h (1 Bft) 95,65 %
16.02.2018 23:41 1,6 C 4,4 C 98 % 1027,1 hPa 0,0 l/m 2,5 km/h (1 Bft) W-SW 258 0 min 0,000 mm 0,0 UV-I 0 W/m 1,3 C 1,6 C 4,8 km/h (1 Bft) 100,00 %
16.02.2018 23:42 1,5 C 4,4 C 98 % 1027,1 hPa 0,0 l/m 2,5 km/h (1 Bft) W-SW 258 0 min 0,000 mm 0,0 UV-I 0 W/m 1,2 C 1,5 C 3,2 km/h (1 Bft) 91,30 %
16.02.2018 23:43 1,5 C 4,4 C 97 % 1027,1 hPa 0,0 l/m 2,4 km/h (1 Bft) W-SW 258 0 min 0,000 mm 0,0 UV-I 0 W/m 1,1 C 1,5 C 4,8 km/h (1 Bft) 92,59 %
16.02.2018 23:44 1,5 C 4,4 C 97 % 1027,0 hPa 0,0 l/m 1,8 km/h (1 Bft) W-SW 258 0 min 0,000 mm 0,0 UV-I 0 W/m 1,1 C 1,5 C 3,2 km/h (1 Bft) 100,00 %
16.02.2018 23:45 1,4 C 4,4 C 97 % 1027,0 hPa 0,0 l/m 2,2 km/h (1 Bft) W-SW 258 0 min 0,000 mm 0,0 UV-I 0 W/m 1,0 C 1,4 C 3,2 km/h (1 Bft) 95,83 %
16.02.2018 23:46 1,4 C 4,4 C 97 % 1027,0 hPa 0,0 l/m 1,9 km/h (1 Bft) W-SW 258 0 min 0,000 mm 0,0 UV-I 0 W/m 1,0 C 1,4 C 3,2 km/h (1 Bft) 95,65 %
16.02.2018 23:47 1,4 C 4,4 C 97 % 1027,0 hPa 0,0 l/m 0,9 km/h (0 Bft) W-SW 258 0 min 0,000 mm 0,0 UV-I 0 W/m 1,0 C 1,4 C 1,6 km/h (1 Bft) 95,83 %
16.02.2018 23:48 1,4 C 4,4 C 97 % 1027,0 hPa 0,0 l/m 1,2 km/h (1 Bft) W-SW 258 0 min 0,000 mm 0,0 UV-I 0 W/m 1,0 C 1,4 C 3,2 km/h (1 Bft) 100,00 %
16.02.2018 23:49 1,4 C 4,4 C 97 % 1027,0 hPa 0,0 l/m 1,5 km/h (1 Bft) W-SW 258 0 min 0,000 mm 0,0 UV-I 0 W/m 1,0 C 1,4 C 3,2 km/h (1 Bft) 95,83 %
16.02.2018 23:50 1,4 C 4,4 C 98 % 1026,9 hPa 0,0 l/m 1,6 km/h (1 Bft) W-SW 258 0 min 0,000 mm 0,0 UV-I 0 W/m 1,1 C 1,4 C 3,2 km/h (1 Bft) 100,00 %
16.02.2018 23:51 1,4 C 4,4 C 98 % 1027,0 hPa 0,0 l/m 2,6 km/h (1 Bft) W-SW 258 0 min 0,000 mm 0,0 UV-I 0 W/m 1,1 C 1,4 C 4,8 km/h (1 Bft) 95,65 %
16.02.2018 23:52 1,4 C 4,4 C 98 % 1027,0 hPa 0,0 l/m 4,2 km/h (1 Bft) W-SW 258 0 min 0,000 mm 0,0 UV-I 0 W/m 1,1 C 1,4 C 4,8 km/h (1 Bft) 100,00 %
16.02.2018 23:53 1,4 C 4,4 C 98 % 1027,0 hPa 0,0 l/m 2,6 km/h (1 Bft) W-SW 258 0 min 0,000 mm 0,0 UV-I 0 W/m 1,1 C 1,4 C 3,2 km/h (1 Bft) 95,65 %
16.02.2018 23:54 1,4 C 4,4 C 98 % 1027,0 hPa 0,0 l/m 2,3 km/h (1 Bft) W-SW 258 0 min 0,000 mm 0,0 UV-I 0 W/m 1,1 C 1,4 C 3,2 km/h (1 Bft) 100,00 %
16.02.2018 23:55 1,4 C 4,4 C 98 % 1027,0 hPa 0,0 l/m 2,7 km/h (1 Bft) W-SW 258 0 min 0,000 mm 0,0 UV-I 0 W/m 1,1 C 1,4 C 3,2 km/h (1 Bft) 96,15 %
16.02.2018 23:56 1,4 C 4,4 C 98 % 1027,0 hPa 0,0 l/m 1,3 km/h (1 Bft) W-SW 258 0 min 0,000 mm 0,0 UV-I 0 W/m 1,1 C 1,4 C 3,2 km/h (1 Bft) 100,00 %
16.02.2018 23:57 1,4 C 4,4 C 98 % 1026,9 hPa 0,0 l/m 1,9 km/h (1 Bft) W-SW 258 0 min 0,000 mm 0,0 UV-I 0 W/m 1,1 C 1,4 C 3,2 km/h (1 Bft) 95,65 %
16.02.2018 23:58 1,4 C 4,4 C 98 % 1026,9 hPa 0,0 l/m 2,1 km/h (1 Bft) W-SW 258 0 min 0,000 mm 0,0 UV-I 0 W/m 1,1 C 1,4 C 3,2 km/h (1 Bft) 95,83 %
16.02.2018 23:59 1,4 C 4,4 C 98 % 1027,0 hPa 0,0 l/m 2,0 km/h (1 Bft) W-SW 258 0 min 0,000 mm 0,0 UV-I 0 W/m 1,1 C 1,4 C 3,2 km/h (1 Bft) 95,65 %
_ Min-Zeit 00:02 00:00 14:09 03:39 - 04:03 - - - - - - 00:02 09:04 04:03 04:12
Minimum _ -0,2 C 4,4 C 94 % 1019,7 hPa - 0,0 km/h (0 Bft) - - - - - - -0,6 C -5,9 C 0,0 km/h (0 Bft) 46,15 %
_ Max-Zeit 14:14 00:00 05:44 19:21 04:20 09:04 - - 09:30 12:00 13:13 13:55 14:18 14:18 09:04 00:00
Maximum _ 4,6 C 4,4 C 98 % 1027,6 hPa 0,2 l/m 16,5 km/h
W (3 Bft)
- - 1 min 0,051 mm 0,7 UV-I 241 W/m 3,9 C 4,6 C 22,5 km/h
W (4 Bft)
100,00 %
Durchschnitt _ 1,9 C 4,4 C 97 % 1024,7 hPa #6,8 l/m 3,9 km/h (1 Bft) W - #2 min. #0,254 mm 0,5 UV-I 78 W/m 1,5 C 1,5 C 5,7 km/h (1 Bft) 97,74 %